<?xml version='1.0' encoding='UTF-8'?>
<gpx version="1.1" creator="https://www.komoot.de" xmlns="http://www.topografix.com/GPX/1/1" xmlns:xsi="http://www.w3.org/2001/XMLSchema-instance" xsi:schemaLocation="http://www.topografix.com/GPX/1/1 http://www.topografix.com/GPX/1/1/gpx.xsd">
  <metadata>
    <name>RPDT 3 Patates</name>
    <author>
      <link href="https://www.komoot.de">
        <text>komoot</text>
        <type>text/html</type>
      </link>
    </author>
  </metadata>
  <trk>
    <name>RPDT 3 Patates</name>
    <trkseg>
      <trkpt lat="48.891464" lon="2.261989">
        <ele>27.514167</ele>
        <time>2025-09-07T20:32:07.027Z</time>
      </trkpt>
      <trkpt lat="48.891465" lon="2.261990">
        <ele>27.514167</ele>
        <time>2025-09-07T20:32:07.102Z</time>
      </trkpt>
      <trkpt lat="48.891621" lon="2.262385">
        <ele>27.514167</ele>
        <time>2025-09-07T20:32:28.154Z</time>
      </trkpt>
      <trkpt lat="48.892027" lon="2.262843">
        <ele>27.514167</ele>
        <time>2025-09-07T20:33:03.286Z</time>
      </trkpt>
      <trkpt lat="48.892080" lon="2.262824">
        <ele>27.514167</ele>
        <time>2025-09-07T20:33:07.122Z</time>
      </trkpt>
      <trkpt lat="48.892130" lon="2.262890">
        <ele>27.506191</ele>
        <time>2025-09-07T20:33:09.086Z</time>
      </trkpt>
      <trkpt lat="48.892131" lon="2.262743">
        <ele>27.481299</ele>
        <time>2025-09-07T20:33:15.808Z</time>
      </trkpt>
      <trkpt lat="48.892245" lon="2.262505">
        <ele>27.431441</ele>
        <time>2025-09-07T20:33:29.290Z</time>
      </trkpt>
      <trkpt lat="48.892131" lon="2.262743">
        <ele>27.381583</ele>
        <time>2025-09-07T20:33:33.739Z</time>
      </trkpt>
      <trkpt lat="48.892130" lon="2.262890">
        <ele>27.356692</ele>
        <time>2025-09-07T20:33:35.896Z</time>
      </trkpt>
      <trkpt lat="48.892080" lon="2.262824">
        <ele>27.339642</ele>
        <time>2025-09-07T20:33:37.770Z</time>
      </trkpt>
      <trkpt lat="48.892027" lon="2.262843">
        <ele>27.325619</ele>
        <time>2025-09-07T20:33:41.605Z</time>
      </trkpt>
      <trkpt lat="48.891621" lon="2.262385">
        <ele>27.195443</ele>
        <time>2025-09-07T20:34:16.738Z</time>
      </trkpt>
      <trkpt lat="48.891190" lon="2.261292">
        <ele>27.365825</ele>
        <time>2025-09-07T20:35:15.003Z</time>
      </trkpt>
      <trkpt lat="48.890968" lon="2.260833">
        <ele>27.791746</ele>
        <time>2025-09-07T20:35:41.024Z</time>
      </trkpt>
      <trkpt lat="48.890767" lon="2.260409">
        <ele>28.182465</ele>
        <time>2025-09-07T20:36:04.921Z</time>
      </trkpt>
      <trkpt lat="48.890711" lon="2.260344">
        <ele>28.262550</ele>
        <time>2025-09-07T20:36:13.600Z</time>
      </trkpt>
      <trkpt lat="48.890368" lon="2.260761">
        <ele>28.761762</ele>
        <time>2025-09-07T20:36:27.259Z</time>
      </trkpt>
      <trkpt lat="48.890240" lon="2.260538">
        <ele>28.983033</ele>
        <time>2025-09-07T20:36:33.449Z</time>
      </trkpt>
      <trkpt lat="48.890204" lon="2.260524">
        <ele>29.025276</ele>
        <time>2025-09-07T20:36:34.739Z</time>
      </trkpt>
      <trkpt lat="48.890272" lon="2.260655">
        <ele>29.137010</ele>
        <time>2025-09-07T20:36:38.245Z</time>
      </trkpt>
      <trkpt lat="48.890240" lon="2.260694">
        <ele>29.172439</ele>
        <time>2025-09-07T20:36:39.721Z</time>
      </trkpt>
      <trkpt lat="48.890147" lon="2.260530">
        <ele>29.295468</ele>
        <time>2025-09-07T20:36:44.624Z</time>
      </trkpt>
      <trkpt lat="48.889996" lon="2.260344">
        <ele>29.463353</ele>
        <time>2025-09-07T20:36:51.618Z</time>
      </trkpt>
      <trkpt lat="48.889470" lon="2.259624">
        <ele>30.074772</ele>
        <time>2025-09-07T20:37:10.787Z</time>
      </trkpt>
      <trkpt lat="48.889434" lon="2.259580">
        <ele>30.114675</ele>
        <time>2025-09-07T20:37:11.886Z</time>
      </trkpt>
      <trkpt lat="48.889165" lon="2.259200">
        <ele>30.431879</ele>
        <time>2025-09-07T20:37:19.835Z</time>
      </trkpt>
      <trkpt lat="48.888908" lon="2.258797">
        <ele>30.641832</ele>
        <time>2025-09-07T20:37:27.811Z</time>
      </trkpt>
      <trkpt lat="48.888434" lon="2.258152">
        <ele>30.598579</ele>
        <time>2025-09-07T20:37:41.162Z</time>
      </trkpt>
      <trkpt lat="48.888094" lon="2.257704">
        <ele>30.567986</ele>
        <time>2025-09-07T20:37:50.471Z</time>
      </trkpt>
      <trkpt lat="48.887822" lon="2.257396">
        <ele>30.544925</ele>
        <time>2025-09-07T20:37:58.005Z</time>
      </trkpt>
      <trkpt lat="48.887496" lon="2.257030">
        <ele>30.562891</ele>
        <time>2025-09-07T20:38:08.924Z</time>
      </trkpt>
      <trkpt lat="48.887484" lon="2.256979">
        <ele>30.571387</ele>
        <time>2025-09-07T20:38:09.909Z</time>
      </trkpt>
      <trkpt lat="48.887297" lon="2.256772">
        <ele>30.626557</ele>
        <time>2025-09-07T20:38:16.844Z</time>
      </trkpt>
      <trkpt lat="48.886401" lon="2.256093">
        <ele>30.865348</ele>
        <time>2025-09-07T20:38:43.851Z</time>
      </trkpt>
      <trkpt lat="48.885997" lon="2.255811">
        <ele>30.878099</ele>
        <time>2025-09-07T20:38:52.509Z</time>
      </trkpt>
      <trkpt lat="48.885284" lon="2.255286">
        <ele>29.882231</ele>
        <time>2025-09-07T20:39:06.440Z</time>
      </trkpt>
      <trkpt lat="48.884967" lon="2.255111">
        <ele>29.458276</ele>
        <time>2025-09-07T20:39:12.585Z</time>
      </trkpt>
      <trkpt lat="48.884937" lon="2.255101">
        <ele>29.419667</ele>
        <time>2025-09-07T20:39:13.156Z</time>
      </trkpt>
      <trkpt lat="48.884723" lon="2.254984">
        <ele>29.133784</ele>
        <time>2025-09-07T20:39:17.492Z</time>
      </trkpt>
      <trkpt lat="48.884308" lon="2.254753">
        <ele>28.828533</ele>
        <time>2025-09-07T20:39:28.226Z</time>
      </trkpt>
      <trkpt lat="48.884244" lon="2.254743">
        <ele>28.920457</ele>
        <time>2025-09-07T20:39:30.141Z</time>
      </trkpt>
      <trkpt lat="48.883701" lon="2.254282">
        <ele>29.809004</ele>
        <time>2025-09-07T20:39:50.003Z</time>
      </trkpt>
      <trkpt lat="48.883398" lon="2.254010">
        <ele>30.311729</ele>
        <time>2025-09-07T20:40:02.922Z</time>
      </trkpt>
      <trkpt lat="48.882922" lon="2.253597">
        <ele>31.094745</ele>
        <time>2025-09-07T20:40:19.739Z</time>
      </trkpt>
      <trkpt lat="48.882390" lon="2.253145">
        <ele>31.213143</ele>
        <time>2025-09-07T20:40:34.068Z</time>
      </trkpt>
      <trkpt lat="48.881513" lon="2.252385">
        <ele>31.105804</ele>
        <time>2025-09-07T20:40:55.510Z</time>
      </trkpt>
      <trkpt lat="48.880676" lon="2.251519">
        <ele>30.976416</ele>
        <time>2025-09-07T20:41:16.284Z</time>
      </trkpt>
      <trkpt lat="48.880077" lon="2.250780">
        <ele>30.870886</ele>
        <time>2025-09-07T20:41:34.733Z</time>
      </trkpt>
      <trkpt lat="48.880043" lon="2.250737">
        <ele>30.864836</ele>
        <time>2025-09-07T20:41:35.819Z</time>
      </trkpt>
      <trkpt lat="48.879423" lon="2.249955">
        <ele>30.508259</ele>
        <time>2025-09-07T20:41:53.677Z</time>
      </trkpt>
      <trkpt lat="48.878549" lon="2.248810">
        <ele>29.819832</ele>
        <time>2025-09-07T20:42:16.722Z</time>
      </trkpt>
      <trkpt lat="48.877929" lon="2.248079">
        <ele>29.445156</ele>
        <time>2025-09-07T20:42:32.720Z</time>
      </trkpt>
      <trkpt lat="48.877721" lon="2.247823">
        <ele>29.322522</ele>
        <time>2025-09-07T20:42:38.423Z</time>
      </trkpt>
      <trkpt lat="48.877716" lon="2.247737">
        <ele>29.296501</ele>
        <time>2025-09-07T20:42:39.595Z</time>
      </trkpt>
      <trkpt lat="48.877512" lon="2.247477">
        <ele>29.174515</ele>
        <time>2025-09-07T20:42:45.392Z</time>
      </trkpt>
      <trkpt lat="48.876977" lon="2.246945">
        <ele>28.900167</ele>
        <time>2025-09-07T20:42:59.608Z</time>
      </trkpt>
      <trkpt lat="48.876466" lon="2.246473">
        <ele>28.730704</ele>
        <time>2025-09-07T20:43:12.150Z</time>
      </trkpt>
      <trkpt lat="48.876357" lon="2.246297">
        <ele>28.685639</ele>
        <time>2025-09-07T20:43:15.495Z</time>
      </trkpt>
      <trkpt lat="48.876332" lon="2.246183">
        <ele>28.663239</ele>
        <time>2025-09-07T20:43:17.138Z</time>
      </trkpt>
      <trkpt lat="48.876339" lon="2.246168">
        <ele>28.659810</ele>
        <time>2025-09-07T20:43:17.405Z</time>
      </trkpt>
      <trkpt lat="48.876299" lon="2.246130">
        <ele>28.646442</ele>
        <time>2025-09-07T20:43:20.715Z</time>
      </trkpt>
      <trkpt lat="48.876282" lon="2.246114">
        <ele>28.640775</ele>
        <time>2025-09-07T20:43:22.113Z</time>
      </trkpt>
      <trkpt lat="48.876246" lon="2.246080">
        <ele>28.628764</ele>
        <time>2025-09-07T20:43:25.006Z</time>
      </trkpt>
      <trkpt lat="48.876236" lon="2.246106">
        <ele>28.623149</ele>
        <time>2025-09-07T20:43:25.420Z</time>
      </trkpt>
      <trkpt lat="48.876150" lon="2.246149">
        <ele>28.597490</ele>
        <time>2025-09-07T20:43:27.342Z</time>
      </trkpt>
      <trkpt lat="48.876171" lon="2.246089">
        <ele>28.584820</ele>
        <time>2025-09-07T20:43:28.265Z</time>
      </trkpt>
      <trkpt lat="48.876174" lon="2.246082">
        <ele>28.583263</ele>
        <time>2025-09-07T20:43:28.378Z</time>
      </trkpt>
      <trkpt lat="48.876060" lon="2.246067">
        <ele>28.550831</ele>
        <time>2025-09-07T20:43:36.351Z</time>
      </trkpt>
      <trkpt lat="48.875356" lon="2.245536">
        <ele>28.467173</ele>
        <time>2025-09-07T20:44:30.964Z</time>
      </trkpt>
      <trkpt lat="48.875326" lon="2.245502">
        <ele>28.472524</ele>
        <time>2025-09-07T20:44:31.907Z</time>
      </trkpt>
      <trkpt lat="48.875307" lon="2.245454">
        <ele>28.477792</ele>
        <time>2025-09-07T20:44:36.444Z</time>
      </trkpt>
      <trkpt lat="48.875272" lon="2.245361">
        <ele>28.487870</ele>
        <time>2025-09-07T20:44:38.206Z</time>
      </trkpt>
      <trkpt lat="48.874665" lon="2.244825">
        <ele>28.588244</ele>
        <time>2025-09-07T20:44:56.196Z</time>
      </trkpt>
      <trkpt lat="48.873526" lon="2.243591">
        <ele>28.774520</ele>
        <time>2025-09-07T20:45:32.723Z</time>
      </trkpt>
      <trkpt lat="48.872942" lon="2.243062">
        <ele>28.859661</ele>
        <time>2025-09-07T20:45:49.748Z</time>
      </trkpt>
      <trkpt lat="48.872748" lon="2.242931">
        <ele>28.886248</ele>
        <time>2025-09-07T20:45:54.983Z</time>
      </trkpt>
      <trkpt lat="48.872641" lon="2.242890">
        <ele>28.900068</ele>
        <time>2025-09-07T20:45:57.707Z</time>
      </trkpt>
      <trkpt lat="48.872533" lon="2.242725">
        <ele>28.920110</ele>
        <time>2025-09-07T20:46:01.467Z</time>
      </trkpt>
      <trkpt lat="48.872499" lon="2.242619">
        <ele>28.930343</ele>
        <time>2025-09-07T20:46:03.379Z</time>
      </trkpt>
      <trkpt lat="48.872473" lon="2.242118">
        <ele>28.973949</ele>
        <time>2025-09-07T20:46:11.619Z</time>
      </trkpt>
      <trkpt lat="48.872437" lon="2.241949">
        <ele>28.989363</ele>
        <time>2025-09-07T20:46:14.577Z</time>
      </trkpt>
      <trkpt lat="48.872069" lon="2.241320">
        <ele>29.062409</ele>
        <time>2025-09-07T20:46:28.789Z</time>
      </trkpt>
      <trkpt lat="48.871683" lon="2.240576">
        <ele>29.133812</ele>
        <time>2025-09-07T20:46:45.140Z</time>
      </trkpt>
      <trkpt lat="48.871470" lon="2.240093">
        <ele>29.058662</ele>
        <time>2025-09-07T20:46:54.757Z</time>
      </trkpt>
      <trkpt lat="48.871204" lon="2.239352">
        <ele>28.949568</ele>
        <time>2025-09-07T20:47:08.057Z</time>
      </trkpt>
      <trkpt lat="48.870817" lon="2.238063">
        <ele>28.756111</ele>
        <time>2025-09-07T20:47:30.093Z</time>
      </trkpt>
      <trkpt lat="48.870626" lon="2.237350">
        <ele>28.606282</ele>
        <time>2025-09-07T20:47:42.159Z</time>
      </trkpt>
      <trkpt lat="48.870373" lon="2.236231">
        <ele>28.375998</ele>
        <time>2025-09-07T20:48:01.131Z</time>
      </trkpt>
      <trkpt lat="48.870327" lon="2.236180">
        <ele>28.359153</ele>
        <time>2025-09-07T20:48:02.501Z</time>
      </trkpt>
      <trkpt lat="48.870270" lon="2.236177">
        <ele>28.342278</ele>
        <time>2025-09-07T20:48:03.890Z</time>
      </trkpt>
      <trkpt lat="48.869951" lon="2.236347">
        <ele>28.241303</ele>
        <time>2025-09-07T20:48:11.763Z</time>
      </trkpt>
      <trkpt lat="48.869729" lon="2.235297">
        <ele>28.010125</ele>
        <time>2025-09-07T20:48:28.497Z</time>
      </trkpt>
      <trkpt lat="48.869920" lon="2.235152">
        <ele>27.942094</ele>
        <time>2025-09-07T20:48:33.436Z</time>
      </trkpt>
      <trkpt lat="48.869937" lon="2.235085">
        <ele>27.927042</ele>
        <time>2025-09-07T20:48:39.264Z</time>
      </trkpt>
      <trkpt lat="48.869425" lon="2.234020">
        <ele>27.770828</ele>
        <time>2025-09-07T20:48:58.084Z</time>
      </trkpt>
      <trkpt lat="48.869103" lon="2.233466">
        <ele>28.216885</ele>
        <time>2025-09-07T20:49:10.265Z</time>
      </trkpt>
      <trkpt lat="48.868710" lon="2.232867">
        <ele>28.727345</ele>
        <time>2025-09-07T20:49:25.072Z</time>
      </trkpt>
      <trkpt lat="48.867838" lon="2.231795">
        <ele>29.928586</ele>
        <time>2025-09-07T20:49:58.622Z</time>
      </trkpt>
      <trkpt lat="48.867678" lon="2.231680">
        <ele>30.156907</ele>
        <time>2025-09-07T20:50:04.296Z</time>
      </trkpt>
      <trkpt lat="48.867624" lon="2.231656">
        <ele>30.229488</ele>
        <time>2025-09-07T20:50:06.128Z</time>
      </trkpt>
      <trkpt lat="48.867510" lon="2.231669">
        <ele>30.376971</ele>
        <time>2025-09-07T20:50:09.773Z</time>
      </trkpt>
      <trkpt lat="48.867388" lon="2.231613">
        <ele>30.541380</ele>
        <time>2025-09-07T20:50:13.857Z</time>
      </trkpt>
      <trkpt lat="48.867316" lon="2.231641">
        <ele>30.637257</ele>
        <time>2025-09-07T20:50:16.178Z</time>
      </trkpt>
      <trkpt lat="48.867282" lon="2.231705">
        <ele>30.707070</ele>
        <time>2025-09-07T20:50:17.849Z</time>
      </trkpt>
      <trkpt lat="48.867088" lon="2.232095">
        <ele>31.122011</ele>
        <time>2025-09-07T20:50:27.196Z</time>
      </trkpt>
      <trkpt lat="48.867052" lon="2.232019">
        <ele>31.201489</ele>
        <time>2025-09-07T20:50:29.801Z</time>
      </trkpt>
      <trkpt lat="48.866988" lon="2.231913">
        <ele>31.323591</ele>
        <time>2025-09-07T20:50:41.532Z</time>
      </trkpt>
      <trkpt lat="48.866933" lon="2.231822">
        <ele>31.428464</ele>
        <time>2025-09-07T20:50:51.529Z</time>
      </trkpt>
      <trkpt lat="48.866888" lon="2.231755">
        <ele>31.509724</ele>
        <time>2025-09-07T20:50:53.314Z</time>
      </trkpt>
      <trkpt lat="48.866673" lon="2.231449">
        <ele>31.504969</ele>
        <time>2025-09-07T20:51:00.972Z</time>
      </trkpt>
      <trkpt lat="48.866574" lon="2.231396">
        <ele>31.421397</ele>
        <time>2025-09-07T20:51:03.515Z</time>
      </trkpt>
      <trkpt lat="48.866467" lon="2.231441">
        <ele>31.333000</ele>
        <time>2025-09-07T20:51:06.115Z</time>
      </trkpt>
      <trkpt lat="48.866358" lon="2.231799">
        <ele>31.126376</ele>
        <time>2025-09-07T20:51:11.514Z</time>
      </trkpt>
      <trkpt lat="48.866202" lon="2.232298">
        <ele>30.836997</ele>
        <time>2025-09-07T20:51:18.742Z</time>
      </trkpt>
      <trkpt lat="48.865990" lon="2.232857">
        <ele>30.499029</ele>
        <time>2025-09-07T20:51:26.671Z</time>
      </trkpt>
      <trkpt lat="48.865434" lon="2.234052">
        <ele>29.685309</ele>
        <time>2025-09-07T20:51:45.306Z</time>
      </trkpt>
      <trkpt lat="48.865238" lon="2.234466">
        <ele>29.392339</ele>
        <time>2025-09-07T20:51:51.987Z</time>
      </trkpt>
      <trkpt lat="48.865174" lon="2.234598">
        <ele>29.298153</ele>
        <time>2025-09-07T20:51:54.096Z</time>
      </trkpt>
      <trkpt lat="48.865148" lon="2.234567">
        <ele>29.269302</ele>
        <time>2025-09-07T20:51:54.806Z</time>
      </trkpt>
      <trkpt lat="48.865083" lon="2.234494">
        <ele>29.198739</ele>
        <time>2025-09-07T20:51:56.436Z</time>
      </trkpt>
      <trkpt lat="48.865150" lon="2.234362">
        <ele>29.102976</ele>
        <time>2025-09-07T20:51:58.711Z</time>
      </trkpt>
      <trkpt lat="48.865103" lon="2.234304">
        <ele>29.050119</ele>
        <time>2025-09-07T20:52:02.939Z</time>
      </trkpt>
      <trkpt lat="48.865067" lon="2.234261">
        <ele>29.010144</ele>
        <time>2025-09-07T20:52:06.113Z</time>
      </trkpt>
      <trkpt lat="48.865023" lon="2.234207">
        <ele>28.960768</ele>
        <time>2025-09-07T20:52:10.035Z</time>
      </trkpt>
      <trkpt lat="48.864944" lon="2.234240">
        <ele>28.889233</ele>
        <time>2025-09-07T20:52:15.784Z</time>
      </trkpt>
      <trkpt lat="48.864906" lon="2.234110">
        <ele>28.807524</ele>
        <time>2025-09-07T20:52:22.287Z</time>
      </trkpt>
      <trkpt lat="48.864914" lon="2.233824">
        <ele>28.649975</ele>
        <time>2025-09-07T20:52:35.363Z</time>
      </trkpt>
      <trkpt lat="48.864913" lon="2.233733">
        <ele>28.656670</ele>
        <time>2025-09-07T20:52:37.671Z</time>
      </trkpt>
      <trkpt lat="48.864915" lon="2.233408">
        <ele>28.680579</ele>
        <time>2025-09-07T20:52:42.900Z</time>
      </trkpt>
      <trkpt lat="48.864916" lon="2.233239">
        <ele>28.693011</ele>
        <time>2025-09-07T20:52:45.768Z</time>
      </trkpt>
      <trkpt lat="48.864967" lon="2.233029">
        <ele>28.709478</ele>
        <time>2025-09-07T20:52:49.637Z</time>
      </trkpt>
      <trkpt lat="48.865204" lon="2.232715">
        <ele>28.744634</ele>
        <time>2025-09-07T20:52:57.443Z</time>
      </trkpt>
      <trkpt lat="48.865267" lon="2.232568">
        <ele>28.757540</ele>
        <time>2025-09-07T20:53:01.776Z</time>
      </trkpt>
      <trkpt lat="48.865311" lon="2.232329">
        <ele>28.775797</ele>
        <time>2025-09-07T20:53:08.058Z</time>
      </trkpt>
      <trkpt lat="48.865293" lon="2.232187">
        <ele>28.786434</ele>
        <time>2025-09-07T20:53:11.771Z</time>
      </trkpt>
      <trkpt lat="48.865200" lon="2.232039">
        <ele>28.801490</ele>
        <time>2025-09-07T20:53:17.004Z</time>
      </trkpt>
      <trkpt lat="48.864979" lon="2.231897">
        <ele>28.828321</ele>
        <time>2025-09-07T20:53:26.282Z</time>
      </trkpt>
      <trkpt lat="48.864554" lon="2.231546">
        <ele>28.909680</ele>
        <time>2025-09-07T20:53:44.975Z</time>
      </trkpt>
      <trkpt lat="48.864481" lon="2.231487">
        <ele>28.926784</ele>
        <time>2025-09-07T20:53:48.143Z</time>
      </trkpt>
      <trkpt lat="48.864277" lon="2.231202">
        <ele>28.984107</ele>
        <time>2025-09-07T20:53:58.619Z</time>
      </trkpt>
      <trkpt lat="48.863788" lon="2.230870">
        <ele>29.094908</ele>
        <time>2025-09-07T20:54:18.848Z</time>
      </trkpt>
      <trkpt lat="48.863570" lon="2.230688">
        <ele>29.146365</ele>
        <time>2025-09-07T20:54:28.269Z</time>
      </trkpt>
      <trkpt lat="48.863396" lon="2.230406">
        <ele>29.198986</ele>
        <time>2025-09-07T20:54:37.960Z</time>
      </trkpt>
      <trkpt lat="48.863246" lon="2.230285">
        <ele>29.215136</ele>
        <time>2025-09-07T20:54:44.488Z</time>
      </trkpt>
      <trkpt lat="48.863158" lon="2.230223">
        <ele>29.202565</ele>
        <time>2025-09-07T20:54:48.253Z</time>
      </trkpt>
      <trkpt lat="48.862915" lon="2.230225">
        <ele>29.171071</ele>
        <time>2025-09-07T20:54:57.639Z</time>
      </trkpt>
      <trkpt lat="48.862272" lon="2.229675">
        <ele>29.075447</ele>
        <time>2025-09-07T20:55:25.729Z</time>
      </trkpt>
      <trkpt lat="48.862251" lon="2.229601">
        <ele>29.068575</ele>
        <time>2025-09-07T20:55:27.655Z</time>
      </trkpt>
      <trkpt lat="48.862246" lon="2.229584">
        <ele>29.066987</ele>
        <time>2025-09-07T20:55:28.474Z</time>
      </trkpt>
      <trkpt lat="48.862347" lon="2.229531">
        <ele>29.053139</ele>
        <time>2025-09-07T20:55:35.874Z</time>
      </trkpt>
      <trkpt lat="48.862360" lon="2.229456">
        <ele>29.046526</ele>
        <time>2025-09-07T20:55:39.415Z</time>
      </trkpt>
      <trkpt lat="48.862386" lon="2.229314">
        <ele>29.033959</ele>
        <time>2025-09-07T20:55:46.169Z</time>
      </trkpt>
      <trkpt lat="48.862243" lon="2.229219">
        <ele>29.013733</ele>
        <time>2025-09-07T20:55:49.378Z</time>
      </trkpt>
      <trkpt lat="48.862125" lon="2.229148">
        <ele>28.997285</ele>
        <time>2025-09-07T20:55:51.952Z</time>
      </trkpt>
      <trkpt lat="48.861902" lon="2.229019">
        <ele>28.885836</ele>
        <time>2025-09-07T20:55:56.743Z</time>
      </trkpt>
      <trkpt lat="48.861950" lon="2.228826">
        <ele>28.806581</ele>
        <time>2025-09-07T20:56:00.402Z</time>
      </trkpt>
      <trkpt lat="48.861978" lon="2.228710">
        <ele>28.759119</ele>
        <time>2025-09-07T20:56:02.590Z</time>
      </trkpt>
      <trkpt lat="48.861993" lon="2.228651">
        <ele>28.734823</ele>
        <time>2025-09-07T20:56:03.705Z</time>
      </trkpt>
      <trkpt lat="48.862034" lon="2.228485">
        <ele>28.666715</ele>
        <time>2025-09-07T20:56:06.839Z</time>
      </trkpt>
      <trkpt lat="48.861938" lon="2.228436">
        <ele>28.607587</ele>
        <time>2025-09-07T20:56:09.553Z</time>
      </trkpt>
      <trkpt lat="48.861796" lon="2.228363">
        <ele>28.520064</ele>
        <time>2025-09-07T20:56:13.599Z</time>
      </trkpt>
      <trkpt lat="48.861610" lon="2.228296">
        <ele>28.408456</ele>
        <time>2025-09-07T20:56:18.836Z</time>
      </trkpt>
      <trkpt lat="48.861596" lon="2.228213">
        <ele>28.375543</ele>
        <time>2025-09-07T20:56:20.818Z</time>
      </trkpt>
      <trkpt lat="48.861497" lon="2.228184">
        <ele>28.316676</ele>
        <time>2025-09-07T20:56:24.406Z</time>
      </trkpt>
      <trkpt lat="48.861419" lon="2.228030">
        <ele>28.242022</ele>
        <time>2025-09-07T20:56:28.995Z</time>
      </trkpt>
      <trkpt lat="48.861249" lon="2.227997">
        <ele>28.141957</ele>
        <time>2025-09-07T20:56:33.106Z</time>
      </trkpt>
      <trkpt lat="48.860889" lon="2.227884">
        <ele>27.931090</ele>
        <time>2025-09-07T20:56:42.004Z</time>
      </trkpt>
      <trkpt lat="48.860605" lon="2.227736">
        <ele>27.811541</ele>
        <time>2025-09-07T20:56:49.323Z</time>
      </trkpt>
      <trkpt lat="48.860511" lon="2.227583">
        <ele>27.756701</ele>
        <time>2025-09-07T20:56:52.653Z</time>
      </trkpt>
      <trkpt lat="48.860371" lon="2.227512">
        <ele>27.697933</ele>
        <time>2025-09-07T20:56:56.188Z</time>
      </trkpt>
      <trkpt lat="48.859727" lon="2.227227">
        <ele>27.430848</ele>
        <time>2025-09-07T20:57:12.031Z</time>
      </trkpt>
      <trkpt lat="48.859343" lon="2.227021">
        <ele>27.268698</ele>
        <time>2025-09-07T20:57:21.397Z</time>
      </trkpt>
      <trkpt lat="48.859155" lon="2.226910">
        <ele>27.217620</ele>
        <time>2025-09-07T20:57:25.951Z</time>
      </trkpt>
      <trkpt lat="48.858611" lon="2.226690">
        <ele>27.183051</ele>
        <time>2025-09-07T20:57:39.071Z</time>
      </trkpt>
      <trkpt lat="48.857873" lon="2.226288">
        <ele>27.134909</ele>
        <time>2025-09-07T20:57:59.139Z</time>
      </trkpt>
      <trkpt lat="48.856586" lon="2.225727">
        <ele>27.117245</ele>
        <time>2025-09-07T20:58:34.264Z</time>
      </trkpt>
      <trkpt lat="48.856345" lon="2.225590">
        <ele>27.118499</ele>
        <time>2025-09-07T20:58:40.493Z</time>
      </trkpt>
      <trkpt lat="48.855498" lon="2.225404">
        <ele>27.121178</ele>
        <time>2025-09-07T20:59:00.868Z</time>
      </trkpt>
      <trkpt lat="48.854864" lon="2.225319">
        <ele>27.120988</ele>
        <time>2025-09-07T20:59:16.143Z</time>
      </trkpt>
      <trkpt lat="48.854412" lon="2.225318">
        <ele>27.120853</ele>
        <time>2025-09-07T20:59:27.634Z</time>
      </trkpt>
      <trkpt lat="48.853895" lon="2.225426">
        <ele>27.218984</ele>
        <time>2025-09-07T20:59:41.860Z</time>
      </trkpt>
      <trkpt lat="48.853506" lon="2.225710">
        <ele>27.642761</ele>
        <time>2025-09-07T20:59:52.933Z</time>
      </trkpt>
      <trkpt lat="48.853436" lon="2.225854">
        <ele>27.758440</ele>
        <time>2025-09-07T20:59:56.066Z</time>
      </trkpt>
      <trkpt lat="48.853212" lon="2.226166">
        <ele>28.056807</ele>
        <time>2025-09-07T21:00:04.325Z</time>
      </trkpt>
      <trkpt lat="48.853230" lon="2.225932">
        <ele>28.209031</ele>
        <time>2025-09-07T21:00:08.270Z</time>
      </trkpt>
      <trkpt lat="48.853211" lon="2.225790">
        <ele>28.302659</ele>
        <time>2025-09-07T21:00:10.729Z</time>
      </trkpt>
      <trkpt lat="48.853155" lon="2.225702">
        <ele>28.381760</ele>
        <time>2025-09-07T21:00:12.855Z</time>
      </trkpt>
      <trkpt lat="48.853019" lon="2.225662">
        <ele>28.517786</ele>
        <time>2025-09-07T21:00:16.557Z</time>
      </trkpt>
      <trkpt lat="48.852833" lon="2.222367">
        <ele>33.960931</ele>
        <time>2025-09-07T21:02:47.834Z</time>
      </trkpt>
      <trkpt lat="48.852735" lon="2.220624">
        <ele>41.768788</ele>
        <time>2025-09-07T21:04:07.949Z</time>
      </trkpt>
      <trkpt lat="48.852735" lon="2.220624">
        <ele>41.768788</ele>
        <time>2025-09-07T21:04:07.965Z</time>
      </trkpt>
      <trkpt lat="48.852735" lon="2.220624">
        <ele>41.768788</ele>
        <time>2025-09-07T21:04:07.965Z</time>
      </trkpt>
      <trkpt lat="48.852707" lon="2.219950">
        <ele>44.783036</ele>
        <time>2025-09-07T21:04:19.488Z</time>
      </trkpt>
      <trkpt lat="48.852701" lon="2.219876">
        <ele>45.115818</ele>
        <time>2025-09-07T21:04:20.761Z</time>
      </trkpt>
      <trkpt lat="48.852375" lon="2.219920">
        <ele>47.625980</ele>
        <time>2025-09-07T21:04:29.250Z</time>
      </trkpt>
      <trkpt lat="48.852273" lon="2.219970">
        <ele>48.531054</ele>
        <time>2025-09-07T21:04:32.031Z</time>
      </trkpt>
      <trkpt lat="48.852260" lon="2.219923">
        <ele>48.814356</ele>
        <time>2025-09-07T21:04:32.901Z</time>
      </trkpt>
      <trkpt lat="48.852215" lon="2.219893">
        <ele>49.229330</ele>
        <time>2025-09-07T21:04:34.175Z</time>
      </trkpt>
      <trkpt lat="48.852165" lon="2.219955">
        <ele>49.774290</ele>
        <time>2025-09-07T21:04:35.850Z</time>
      </trkpt>
      <trkpt lat="48.851851" lon="2.219914">
        <ele>52.435740</ele>
        <time>2025-09-07T21:04:44.023Z</time>
      </trkpt>
      <trkpt lat="48.851797" lon="2.219909">
        <ele>52.892607</ele>
        <time>2025-09-07T21:04:45.426Z</time>
      </trkpt>
      <trkpt lat="48.851286" lon="2.219849">
        <ele>57.220783</ele>
        <time>2025-09-07T21:04:58.717Z</time>
      </trkpt>
      <trkpt lat="48.851287" lon="2.219835">
        <ele>57.299036</ele>
        <time>2025-09-07T21:04:58.953Z</time>
      </trkpt>
      <trkpt lat="48.850913" lon="2.219749">
        <ele>60.493358</ele>
        <time>2025-09-07T21:05:23.441Z</time>
      </trkpt>
      <trkpt lat="48.850628" lon="2.219603">
        <ele>62.562294</ele>
        <time>2025-09-07T21:05:42.758Z</time>
      </trkpt>
      <trkpt lat="48.850381" lon="2.219455">
        <ele>64.180622</ele>
        <time>2025-09-07T21:05:59.546Z</time>
      </trkpt>
      <trkpt lat="48.850119" lon="2.219298">
        <ele>65.897248</ele>
        <time>2025-09-07T21:06:16.174Z</time>
      </trkpt>
      <trkpt lat="48.849948" lon="2.219196">
        <ele>67.016953</ele>
        <time>2025-09-07T21:06:26.104Z</time>
      </trkpt>
      <trkpt lat="48.849577" lon="2.219046">
        <ele>69.356960</ele>
        <time>2025-09-07T21:06:45.174Z</time>
      </trkpt>
      <trkpt lat="48.849499" lon="2.219045">
        <ele>69.832407</ele>
        <time>2025-09-07T21:06:48.897Z</time>
      </trkpt>
      <trkpt lat="48.849447" lon="2.219049">
        <ele>70.149767</ele>
        <time>2025-09-07T21:06:51.179Z</time>
      </trkpt>
      <trkpt lat="48.849421" lon="2.218951">
        <ele>70.573582</ele>
        <time>2025-09-07T21:06:54.788Z</time>
      </trkpt>
      <trkpt lat="48.849110" lon="2.218826">
        <ele>72.351414</ele>
        <time>2025-09-07T21:07:08.805Z</time>
      </trkpt>
      <trkpt lat="48.848574" lon="2.218753">
        <ele>73.027949</ele>
        <time>2025-09-07T21:07:27.664Z</time>
      </trkpt>
      <trkpt lat="48.848609" lon="2.218618">
        <ele>73.147986</ele>
        <time>2025-09-07T21:07:30.729Z</time>
      </trkpt>
      <trkpt lat="48.848594" lon="2.218520">
        <ele>73.231223</ele>
        <time>2025-09-07T21:07:32.476Z</time>
      </trkpt>
      <trkpt lat="48.848534" lon="2.218424">
        <ele>73.340753</ele>
        <time>2025-09-07T21:07:35.166Z</time>
      </trkpt>
      <trkpt lat="48.848453" lon="2.218474">
        <ele>73.450663</ele>
        <time>2025-09-07T21:07:37.337Z</time>
      </trkpt>
      <trkpt lat="48.847969" lon="2.218605">
        <ele>74.068701</ele>
        <time>2025-09-07T21:07:49.221Z</time>
      </trkpt>
      <trkpt lat="48.847375" lon="2.218553">
        <ele>74.596406</ele>
        <time>2025-09-07T21:08:01.488Z</time>
      </trkpt>
      <trkpt lat="48.847056" lon="2.218544">
        <ele>74.646401</ele>
        <time>2025-09-07T21:08:07.952Z</time>
      </trkpt>
      <trkpt lat="48.846331" lon="2.218663">
        <ele>74.760666</ele>
        <time>2025-09-07T21:08:24.412Z</time>
      </trkpt>
      <trkpt lat="48.846105" lon="2.218700">
        <ele>74.796284</ele>
        <time>2025-09-07T21:08:30.387Z</time>
      </trkpt>
      <trkpt lat="48.845970" lon="2.218750">
        <ele>74.818057</ele>
        <time>2025-09-07T21:08:34.111Z</time>
      </trkpt>
      <trkpt lat="48.845899" lon="2.218754">
        <ele>74.829190</ele>
        <time>2025-09-07T21:08:35.850Z</time>
      </trkpt>
      <trkpt lat="48.845784" lon="2.218767">
        <ele>74.848515</ele>
        <time>2025-09-07T21:08:38.968Z</time>
      </trkpt>
      <trkpt lat="48.845457" lon="2.218809">
        <ele>75.069501</ele>
        <time>2025-09-07T21:08:47.872Z</time>
      </trkpt>
      <trkpt lat="48.845364" lon="2.218774">
        <ele>75.134019</ele>
        <time>2025-09-07T21:08:50.613Z</time>
      </trkpt>
      <trkpt lat="48.844636" lon="2.218741">
        <ele>75.624469</ele>
        <time>2025-09-07T21:09:12.186Z</time>
      </trkpt>
      <trkpt lat="48.844492" lon="2.218708">
        <ele>75.722535</ele>
        <time>2025-09-07T21:09:16.349Z</time>
      </trkpt>
      <trkpt lat="48.844437" lon="2.218668">
        <ele>75.763596</ele>
        <time>2025-09-07T21:09:17.925Z</time>
      </trkpt>
      <trkpt lat="48.844359" lon="2.218590">
        <ele>75.826474</ele>
        <time>2025-09-07T21:09:20.022Z</time>
      </trkpt>
      <trkpt lat="48.844331" lon="2.218570">
        <ele>75.847309</ele>
        <time>2025-09-07T21:09:20.687Z</time>
      </trkpt>
      <trkpt lat="48.843933" lon="2.218332">
        <ele>75.969474</ele>
        <time>2025-09-07T21:09:29.269Z</time>
      </trkpt>
      <trkpt lat="48.843716" lon="2.218202">
        <ele>75.789309</ele>
        <time>2025-09-07T21:09:33.908Z</time>
      </trkpt>
      <trkpt lat="48.843578" lon="2.218126">
        <ele>75.675934</ele>
        <time>2025-09-07T21:09:36.820Z</time>
      </trkpt>
      <trkpt lat="48.842982" lon="2.218050">
        <ele>75.213970</ele>
        <time>2025-09-07T21:09:49.275Z</time>
      </trkpt>
      <trkpt lat="48.842596" lon="2.218034">
        <ele>74.915715</ele>
        <time>2025-09-07T21:09:56.967Z</time>
      </trkpt>
      <trkpt lat="48.841578" lon="2.217766">
        <ele>75.662959</ele>
        <time>2025-09-07T21:10:17.288Z</time>
      </trkpt>
      <trkpt lat="48.841324" lon="2.217640">
        <ele>76.035237</ele>
        <time>2025-09-07T21:10:24.490Z</time>
      </trkpt>
      <trkpt lat="48.840798" lon="2.217509">
        <ele>76.777887</ele>
        <time>2025-09-07T21:11:01.548Z</time>
      </trkpt>
      <trkpt lat="48.840749" lon="2.217497">
        <ele>76.847039</ele>
        <time>2025-09-07T21:11:03.663Z</time>
      </trkpt>
      <trkpt lat="48.840695" lon="2.217356">
        <ele>76.996633</ele>
        <time>2025-09-07T21:11:08.328Z</time>
      </trkpt>
      <trkpt lat="48.840624" lon="2.217287">
        <ele>77.114061</ele>
        <time>2025-09-07T21:11:11.922Z</time>
      </trkpt>
      <trkpt lat="48.840550" lon="2.217194">
        <ele>77.515472</ele>
        <time>2025-09-07T21:11:16.339Z</time>
      </trkpt>
      <trkpt lat="48.840102" lon="2.216752">
        <ele>80.987505</ele>
        <time>2025-09-07T21:11:43.533Z</time>
      </trkpt>
      <trkpt lat="48.840317" lon="2.216597">
        <ele>82.534329</ele>
        <time>2025-09-07T21:11:58.004Z</time>
      </trkpt>
      <trkpt lat="48.840119" lon="2.216495">
        <ele>83.893281</ele>
        <time>2025-09-07T21:12:11.689Z</time>
      </trkpt>
      <trkpt lat="48.839791" lon="2.216404">
        <ele>86.060515</ele>
        <time>2025-09-07T21:12:32.451Z</time>
      </trkpt>
      <trkpt lat="48.839732" lon="2.216304">
        <ele>86.635047</ele>
        <time>2025-09-07T21:12:39.126Z</time>
      </trkpt>
      <trkpt lat="48.839788" lon="2.216212">
        <ele>87.171143</ele>
        <time>2025-09-07T21:12:45.351Z</time>
      </trkpt>
      <trkpt lat="48.839965" lon="2.216230">
        <ele>88.324208</ele>
        <time>2025-09-07T21:12:56.351Z</time>
      </trkpt>
      <trkpt lat="48.839955" lon="2.215781">
        <ele>89.549750</ele>
        <time>2025-09-07T21:13:12.492Z</time>
      </trkpt>
      <trkpt lat="48.839928" lon="2.214655">
        <ele>91.937919</ele>
        <time>2025-09-07T21:13:45.599Z</time>
      </trkpt>
      <trkpt lat="48.839917" lon="2.213757">
        <ele>93.841583</ele>
        <time>2025-09-07T21:14:04.848Z</time>
      </trkpt>
      <trkpt lat="48.839913" lon="2.213359">
        <ele>94.647186</ele>
        <time>2025-09-07T21:14:11.659Z</time>
      </trkpt>
      <trkpt lat="48.839863" lon="2.211527">
        <ele>93.063826</ele>
        <time>2025-09-07T21:14:36.583Z</time>
      </trkpt>
      <trkpt lat="48.839856" lon="2.211235">
        <ele>92.811506</ele>
        <time>2025-09-07T21:14:40.251Z</time>
      </trkpt>
      <trkpt lat="48.839853" lon="2.211165">
        <ele>92.750930</ele>
        <time>2025-09-07T21:14:41.115Z</time>
      </trkpt>
      <trkpt lat="48.839842" lon="2.210847">
        <ele>92.475946</ele>
        <time>2025-09-07T21:14:45.016Z</time>
      </trkpt>
      <trkpt lat="48.839787" lon="2.208724">
        <ele>89.541541</ele>
        <time>2025-09-07T21:15:10.423Z</time>
      </trkpt>
      <trkpt lat="48.839354" lon="2.208767">
        <ele>88.594396</ele>
        <time>2025-09-07T21:15:24.967Z</time>
      </trkpt>
      <trkpt lat="48.839119" lon="2.208608">
        <ele>88.518476</ele>
        <time>2025-09-07T21:15:34.002Z</time>
      </trkpt>
      <trkpt lat="48.839239" lon="2.208384">
        <ele>88.697104</ele>
        <time>2025-09-07T21:15:41.027Z</time>
      </trkpt>
      <trkpt lat="48.839137" lon="2.208137">
        <ele>88.877445</ele>
        <time>2025-09-07T21:15:48.578Z</time>
      </trkpt>
      <trkpt lat="48.839097" lon="2.207879">
        <ele>89.041379</ele>
        <time>2025-09-07T21:15:55.841Z</time>
      </trkpt>
      <trkpt lat="48.838950" lon="2.207579">
        <ele>89.272694</ele>
        <time>2025-09-07T21:16:06.514Z</time>
      </trkpt>
      <trkpt lat="48.838950" lon="2.207579">
        <ele>89.272694</ele>
        <time>2025-09-07T21:16:06.519Z</time>
      </trkpt>
      <trkpt lat="48.838782" lon="2.207395">
        <ele>89.467301</ele>
        <time>2025-09-07T21:16:15.747Z</time>
      </trkpt>
      <trkpt lat="48.838466" lon="2.207184">
        <ele>89.791651</ele>
        <time>2025-09-07T21:16:31.709Z</time>
      </trkpt>
      <trkpt lat="48.838145" lon="2.206852">
        <ele>90.271465</ele>
        <time>2025-09-07T21:16:50.031Z</time>
      </trkpt>
      <trkpt lat="48.838145" lon="2.206851">
        <ele>90.272839</ele>
        <time>2025-09-07T21:16:50.051Z</time>
      </trkpt>
      <trkpt lat="48.837672" lon="2.206124">
        <ele>91.677551</ele>
        <time>2025-09-07T21:17:22.756Z</time>
      </trkpt>
      <trkpt lat="48.837226" lon="2.205097">
        <ele>93.368328</ele>
        <time>2025-09-07T21:18:01.556Z</time>
      </trkpt>
      <trkpt lat="48.837015" lon="2.204611">
        <ele>94.317187</ele>
        <time>2025-09-07T21:18:18.718Z</time>
      </trkpt>
      <trkpt lat="48.836708" lon="2.204301">
        <ele>95.413317</ele>
        <time>2025-09-07T21:18:35.817Z</time>
      </trkpt>
      <trkpt lat="48.836651" lon="2.203531">
        <ele>96.929889</ele>
        <time>2025-09-07T21:19:00.661Z</time>
      </trkpt>
      <trkpt lat="48.836633" lon="2.203318">
        <ele>97.350202</ele>
        <time>2025-09-07T21:19:07.813Z</time>
      </trkpt>
      <trkpt lat="48.834589" lon="2.202702">
        <ele>105.429501</ele>
        <time>2025-09-07T21:21:11.726Z</time>
      </trkpt>
      <trkpt lat="48.833057" lon="2.202240">
        <ele>109.382109</ele>
        <time>2025-09-07T21:22:38.481Z</time>
      </trkpt>
      <trkpt lat="48.833120" lon="2.202134">
        <ele>109.577421</ele>
        <time>2025-09-07T21:22:45.008Z</time>
      </trkpt>
      <trkpt lat="48.833106" lon="2.201875">
        <ele>109.932818</ele>
        <time>2025-09-07T21:22:56.902Z</time>
      </trkpt>
      <trkpt lat="48.833124" lon="2.201615">
        <ele>110.290351</ele>
        <time>2025-09-07T21:23:08.847Z</time>
      </trkpt>
      <trkpt lat="48.833212" lon="2.201382">
        <ele>110.564896</ele>
        <time>2025-09-07T21:23:21.168Z</time>
      </trkpt>
      <trkpt lat="48.833335" lon="2.201279">
        <ele>110.604775</ele>
        <time>2025-09-07T21:23:30.885Z</time>
      </trkpt>
      <trkpt lat="48.833469" lon="2.201272">
        <ele>110.642845</ele>
        <time>2025-09-07T21:23:40.211Z</time>
      </trkpt>
      <trkpt lat="48.833531" lon="2.201304">
        <ele>110.661438</ele>
        <time>2025-09-07T21:23:44.789Z</time>
      </trkpt>
      <trkpt lat="48.833590" lon="2.201407">
        <ele>110.686957</ele>
        <time>2025-09-07T21:23:50.997Z</time>
      </trkpt>
      <trkpt lat="48.833692" lon="2.201453">
        <ele>110.717169</ele>
        <time>2025-09-07T21:23:58.383Z</time>
      </trkpt>
      <trkpt lat="48.833932" lon="2.201448">
        <ele>110.785321</ele>
        <time>2025-09-07T21:24:15.066Z</time>
      </trkpt>
      <trkpt lat="48.834073" lon="2.201390">
        <ele>110.826798</ele>
        <time>2025-09-07T21:24:25.230Z</time>
      </trkpt>
      <trkpt lat="48.834189" lon="2.201238">
        <ele>110.870294</ele>
        <time>2025-09-07T21:24:35.880Z</time>
      </trkpt>
      <trkpt lat="48.833839" lon="2.200167">
        <ele>111.579896</ele>
        <time>2025-09-07T21:25:30.594Z</time>
      </trkpt>
      <trkpt lat="48.833832" lon="2.200145">
        <ele>111.652007</ele>
        <time>2025-09-07T21:25:31.688Z</time>
      </trkpt>
      <trkpt lat="48.833336" lon="2.199626">
        <ele>114.352128</ele>
        <time>2025-09-07T21:26:13.627Z</time>
      </trkpt>
      <trkpt lat="48.833226" lon="2.199312">
        <ele>115.401833</ele>
        <time>2025-09-07T21:26:29.910Z</time>
      </trkpt>
      <trkpt lat="48.833148" lon="2.199174">
        <ele>115.938621</ele>
        <time>2025-09-07T21:26:38.235Z</time>
      </trkpt>
      <trkpt lat="48.832989" lon="2.198938">
        <ele>116.935215</ele>
        <time>2025-09-07T21:26:53.742Z</time>
      </trkpt>
      <trkpt lat="48.832878" lon="2.198836">
        <ele>117.516813</ele>
        <time>2025-09-07T21:27:02.737Z</time>
      </trkpt>
      <trkpt lat="48.832217" lon="2.198341">
        <ele>119.970036</ele>
        <time>2025-09-07T21:27:54.000Z</time>
      </trkpt>
      <trkpt lat="48.832043" lon="2.198129">
        <ele>120.468455</ele>
        <time>2025-09-07T21:28:09.502Z</time>
      </trkpt>
      <trkpt lat="48.831900" lon="2.197887">
        <ele>120.946809</ele>
        <time>2025-09-07T21:28:24.355Z</time>
      </trkpt>
      <trkpt lat="48.831837" lon="2.197768">
        <ele>121.171439</ele>
        <time>2025-09-07T21:28:27.854Z</time>
      </trkpt>
      <trkpt lat="48.832039" lon="2.197442">
        <ele>121.829994</ele>
        <time>2025-09-07T21:28:36.906Z</time>
      </trkpt>
      <trkpt lat="48.832180" lon="2.197216">
        <ele>122.288016</ele>
        <time>2025-09-07T21:28:42.885Z</time>
      </trkpt>
      <trkpt lat="48.832478" lon="2.196744">
        <ele>123.175542</ele>
        <time>2025-09-07T21:28:54.456Z</time>
      </trkpt>
      <trkpt lat="48.832417" lon="2.196617">
        <ele>123.244543</ele>
        <time>2025-09-07T21:28:57.306Z</time>
      </trkpt>
      <trkpt lat="48.832349" lon="2.196534">
        <ele>123.302704</ele>
        <time>2025-09-07T21:28:59.598Z</time>
      </trkpt>
      <trkpt lat="48.831896" lon="2.196289">
        <ele>123.623313</ele>
        <time>2025-09-07T21:29:12.870Z</time>
      </trkpt>
      <trkpt lat="48.831401" lon="2.195958">
        <ele>123.983914</ele>
        <time>2025-09-07T21:29:28.172Z</time>
      </trkpt>
      <trkpt lat="48.831276" lon="2.195780">
        <ele>124.098150</ele>
        <time>2025-09-07T21:29:32.608Z</time>
      </trkpt>
      <trkpt lat="48.831099" lon="2.195375">
        <ele>124.311517</ele>
        <time>2025-09-07T21:29:40.831Z</time>
      </trkpt>
      <trkpt lat="48.831030" lon="2.195268">
        <ele>124.486095</ele>
        <time>2025-09-07T21:29:43.415Z</time>
      </trkpt>
      <trkpt lat="48.830981" lon="2.195095">
        <ele>124.832249</ele>
        <time>2025-09-07T21:29:46.832Z</time>
      </trkpt>
      <trkpt lat="48.830956" lon="2.194771">
        <ele>125.431830</ele>
        <time>2025-09-07T21:29:53.131Z</time>
      </trkpt>
      <trkpt lat="48.830846" lon="2.194341">
        <ele>126.279741</ele>
        <time>2025-09-07T21:30:02.628Z</time>
      </trkpt>
      <trkpt lat="48.830929" lon="2.194265">
        <ele>126.550327</ele>
        <time>2025-09-07T21:30:05.834Z</time>
      </trkpt>
      <trkpt lat="48.831082" lon="2.193957">
        <ele>127.259520</ele>
        <time>2025-09-07T21:30:14.784Z</time>
      </trkpt>
      <trkpt lat="48.831125" lon="2.193826">
        <ele>127.528568</ele>
        <time>2025-09-07T21:30:18.344Z</time>
      </trkpt>
      <trkpt lat="48.831166" lon="2.193507">
        <ele>128.125952</ele>
        <time>2025-09-07T21:30:27.221Z</time>
      </trkpt>
      <trkpt lat="48.831180" lon="2.193142">
        <ele>128.797949</ele>
        <time>2025-09-07T21:30:38.491Z</time>
      </trkpt>
      <trkpt lat="48.831199" lon="2.192894">
        <ele>129.256842</ele>
        <time>2025-09-07T21:30:47.142Z</time>
      </trkpt>
      <trkpt lat="48.831143" lon="2.192210">
        <ele>132.476633</ele>
        <time>2025-09-07T21:31:14.349Z</time>
      </trkpt>
      <trkpt lat="48.831108" lon="2.191968">
        <ele>133.699629</ele>
        <time>2025-09-07T21:31:24.862Z</time>
      </trkpt>
      <trkpt lat="48.831093" lon="2.191594">
        <ele>135.549109</ele>
        <time>2025-09-07T21:31:40.548Z</time>
      </trkpt>
      <trkpt lat="48.831165" lon="2.190675">
        <ele>140.117286</ele>
        <time>2025-09-07T21:32:19.607Z</time>
      </trkpt>
      <trkpt lat="48.831145" lon="2.190548">
        <ele>140.761844</ele>
        <time>2025-09-07T21:32:25.457Z</time>
      </trkpt>
      <trkpt lat="48.831061" lon="2.190375">
        <ele>141.822931</ele>
        <time>2025-09-07T21:32:35.278Z</time>
      </trkpt>
      <trkpt lat="48.830886" lon="2.190270">
        <ele>143.175756</ele>
        <time>2025-09-07T21:32:48.236Z</time>
      </trkpt>
      <trkpt lat="48.830621" lon="2.190183">
        <ele>144.899877</ele>
        <time>2025-09-07T21:33:06.604Z</time>
      </trkpt>
      <trkpt lat="48.830518" lon="2.190034">
        <ele>145.804367</ele>
        <time>2025-09-07T21:33:15.820Z</time>
      </trkpt>
      <trkpt lat="48.830465" lon="2.189747">
        <ele>147.052203</ele>
        <time>2025-09-07T21:33:28.144Z</time>
      </trkpt>
      <trkpt lat="48.830603" lon="2.189311">
        <ele>149.077428</ele>
        <time>2025-09-07T21:33:46.702Z</time>
      </trkpt>
      <trkpt lat="48.830747" lon="2.188865">
        <ele>151.156973</ele>
        <time>2025-09-07T21:34:04.555Z</time>
      </trkpt>
      <trkpt lat="48.830851" lon="2.188399">
        <ele>153.216819</ele>
        <time>2025-09-07T21:34:21.665Z</time>
      </trkpt>
      <trkpt lat="48.830864" lon="2.187710">
        <ele>154.551040</ele>
        <time>2025-09-07T21:34:41.289Z</time>
      </trkpt>
      <trkpt lat="48.830971" lon="2.187102">
        <ele>154.930607</ele>
        <time>2025-09-07T21:34:54.304Z</time>
      </trkpt>
      <trkpt lat="48.831039" lon="2.186521">
        <ele>155.286506</ele>
        <time>2025-09-07T21:35:03.809Z</time>
      </trkpt>
      <trkpt lat="48.831330" lon="2.186042">
        <ele>155.679616</ele>
        <time>2025-09-07T21:35:13.292Z</time>
      </trkpt>
      <trkpt lat="48.831492" lon="2.185681">
        <ele>155.941276</ele>
        <time>2025-09-07T21:35:19.598Z</time>
      </trkpt>
      <trkpt lat="48.831576" lon="2.185163">
        <ele>156.151538</ele>
        <time>2025-09-07T21:35:28.172Z</time>
      </trkpt>
      <trkpt lat="48.831660" lon="2.184649">
        <ele>156.360269</ele>
        <time>2025-09-07T21:35:38.330Z</time>
      </trkpt>
      <trkpt lat="48.831576" lon="2.185163">
        <ele>156.569000</ele>
        <time>2025-09-07T21:35:49.446Z</time>
      </trkpt>
      <trkpt lat="48.831437" lon="2.185213">
        <ele>156.654525</ele>
        <time>2025-09-07T21:35:55.909Z</time>
      </trkpt>
      <trkpt lat="48.831284" lon="2.185195">
        <ele>156.746405</ele>
        <time>2025-09-07T21:36:02.690Z</time>
      </trkpt>
      <trkpt lat="48.831176" lon="2.184985">
        <ele>156.851437</ele>
        <time>2025-09-07T21:36:10.086Z</time>
      </trkpt>
      <trkpt lat="48.831183" lon="2.184820">
        <ele>156.916603</ele>
        <time>2025-09-07T21:36:14.569Z</time>
      </trkpt>
      <trkpt lat="48.831143" lon="2.184665">
        <ele>156.982220</ele>
        <time>2025-09-07T21:36:19.169Z</time>
      </trkpt>
      <trkpt lat="48.831043" lon="2.184593">
        <ele>156.906871</ele>
        <time>2025-09-07T21:36:23.905Z</time>
      </trkpt>
      <trkpt lat="48.830762" lon="2.184562">
        <ele>156.368124</ele>
        <time>2025-09-07T21:36:34.677Z</time>
      </trkpt>
      <trkpt lat="48.830508" lon="2.184413">
        <ele>155.847466</ele>
        <time>2025-09-07T21:36:44.515Z</time>
      </trkpt>
      <trkpt lat="48.830354" lon="2.184371">
        <ele>155.548276</ele>
        <time>2025-09-07T21:36:49.840Z</time>
      </trkpt>
      <trkpt lat="48.830318" lon="2.184329">
        <ele>155.461477</ele>
        <time>2025-09-07T21:36:51.313Z</time>
      </trkpt>
      <trkpt lat="48.830340" lon="2.184226">
        <ele>155.325168</ele>
        <time>2025-09-07T21:36:53.684Z</time>
      </trkpt>
      <trkpt lat="48.830510" lon="2.183993">
        <ele>154.887334</ele>
        <time>2025-09-07T21:37:01.006Z</time>
      </trkpt>
      <trkpt lat="48.830522" lon="2.183883">
        <ele>154.746978</ele>
        <time>2025-09-07T21:37:03.274Z</time>
      </trkpt>
      <trkpt lat="48.830485" lon="2.183716">
        <ele>154.525174</ele>
        <time>2025-09-07T21:37:06.790Z</time>
      </trkpt>
      <trkpt lat="48.830826" lon="2.183023">
        <ele>153.265659</ele>
        <time>2025-09-07T21:37:16.095Z</time>
      </trkpt>
      <trkpt lat="48.830665" lon="2.183079">
        <ele>152.563353</ele>
        <time>2025-09-07T21:37:20.983Z</time>
      </trkpt>
      <trkpt lat="48.830744" lon="2.182911">
        <ele>151.985449</ele>
        <time>2025-09-07T21:37:25.007Z</time>
      </trkpt>
      <trkpt lat="48.830686" lon="2.182562">
        <ele>150.977912</ele>
        <time>2025-09-07T21:37:31.966Z</time>
      </trkpt>
      <trkpt lat="48.830727" lon="2.182370">
        <ele>150.412915</ele>
        <time>2025-09-07T21:37:35.946Z</time>
      </trkpt>
      <trkpt lat="48.830698" lon="2.182044">
        <ele>149.492114</ele>
        <time>2025-09-07T21:37:42.391Z</time>
      </trkpt>
      <trkpt lat="48.830872" lon="2.181333">
        <ele>147.368878</ele>
        <time>2025-09-07T21:37:56.868Z</time>
      </trkpt>
      <trkpt lat="48.831143" lon="2.181035">
        <ele>145.946341</ele>
        <time>2025-09-07T21:38:06.679Z</time>
      </trkpt>
      <trkpt lat="48.831143" lon="2.181035">
        <ele>145.946341</ele>
        <time>2025-09-07T21:38:06.686Z</time>
      </trkpt>
      <trkpt lat="48.831322" lon="2.180899">
        <ele>145.263298</ele>
        <time>2025-09-07T21:38:12.674Z</time>
      </trkpt>
      <trkpt lat="48.831397" lon="2.180782">
        <ele>144.898473</ele>
        <time>2025-09-07T21:38:15.901Z</time>
      </trkpt>
      <trkpt lat="48.831376" lon="2.180553">
        <ele>144.381959</ele>
        <time>2025-09-07T21:38:18.790Z</time>
      </trkpt>
      <trkpt lat="48.831384" lon="2.179907">
        <ele>142.938573</ele>
        <time>2025-09-07T21:38:27.073Z</time>
      </trkpt>
      <trkpt lat="48.831413" lon="2.179799">
        <ele>142.678007</ele>
        <time>2025-09-07T21:38:28.610Z</time>
      </trkpt>
      <trkpt lat="48.831516" lon="2.179745">
        <ele>142.308232</ele>
        <time>2025-09-07T21:38:32.020Z</time>
      </trkpt>
      <trkpt lat="48.831600" lon="2.179782">
        <ele>142.011426</ele>
        <time>2025-09-07T21:38:34.734Z</time>
      </trkpt>
      <trkpt lat="48.831686" lon="2.179836">
        <ele>141.695626</ele>
        <time>2025-09-07T21:38:46.210Z</time>
      </trkpt>
      <trkpt lat="48.831792" lon="2.179833">
        <ele>141.335839</ele>
        <time>2025-09-07T21:38:49.440Z</time>
      </trkpt>
      <trkpt lat="48.831871" lon="2.179741">
        <ele>140.998030</ele>
        <time>2025-09-07T21:38:52.429Z</time>
      </trkpt>
      <trkpt lat="48.832033" lon="2.179312">
        <ele>139.893184</ele>
        <time>2025-09-07T21:39:02.272Z</time>
      </trkpt>
      <trkpt lat="48.832007" lon="2.178767">
        <ele>139.332266</ele>
        <time>2025-09-07T21:39:13.343Z</time>
      </trkpt>
      <trkpt lat="48.832303" lon="2.178114">
        <ele>138.576464</ele>
        <time>2025-09-07T21:39:29.865Z</time>
      </trkpt>
      <trkpt lat="48.832029" lon="2.177705">
        <ele>138.020172</ele>
        <time>2025-09-07T21:39:37.838Z</time>
      </trkpt>
      <trkpt lat="48.831884" lon="2.177383">
        <ele>137.648266</ele>
        <time>2025-09-07T21:39:43.446Z</time>
      </trkpt>
      <trkpt lat="48.831871" lon="2.177274">
        <ele>137.542666</ele>
        <time>2025-09-07T21:39:45.140Z</time>
      </trkpt>
      <trkpt lat="48.831847" lon="2.177323">
        <ele>137.484444</ele>
        <time>2025-09-07T21:39:46.599Z</time>
      </trkpt>
      <trkpt lat="48.831804" lon="2.177366">
        <ele>137.409892</ele>
        <time>2025-09-07T21:39:50.222Z</time>
      </trkpt>
      <trkpt lat="48.831523" lon="2.177368">
        <ele>137.502443</ele>
        <time>2025-09-07T21:40:09.730Z</time>
      </trkpt>
      <trkpt lat="48.831175" lon="2.177370">
        <ele>138.165485</ele>
        <time>2025-09-07T21:40:33.890Z</time>
      </trkpt>
      <trkpt lat="48.830939" lon="2.177407">
        <ele>138.617518</ele>
        <time>2025-09-07T21:40:50.373Z</time>
      </trkpt>
      <trkpt lat="48.830885" lon="2.177353">
        <ele>138.740695</ele>
        <time>2025-09-07T21:40:54.870Z</time>
      </trkpt>
      <trkpt lat="48.830852" lon="2.177430">
        <ele>138.855933</ele>
        <time>2025-09-07T21:40:59.082Z</time>
      </trkpt>
      <trkpt lat="48.830828" lon="2.177437">
        <ele>138.902494</ele>
        <time>2025-09-07T21:40:59.956Z</time>
      </trkpt>
      <trkpt lat="48.830810" lon="2.177443">
        <ele>138.937605</ele>
        <time>2025-09-07T21:41:00.575Z</time>
      </trkpt>
      <trkpt lat="48.830647" lon="2.177502">
        <ele>139.256860</ele>
        <time>2025-09-07T21:41:06.531Z</time>
      </trkpt>
      <trkpt lat="48.830509" lon="2.177582">
        <ele>139.538283</ele>
        <time>2025-09-07T21:41:11.705Z</time>
      </trkpt>
      <trkpt lat="48.830467" lon="2.177607">
        <ele>139.624229</ele>
        <time>2025-09-07T21:41:13.251Z</time>
      </trkpt>
      <trkpt lat="48.830407" lon="2.177472">
        <ele>139.828527</ele>
        <time>2025-09-07T21:41:16.908Z</time>
      </trkpt>
      <trkpt lat="48.830310" lon="2.177530">
        <ele>140.027140</ele>
        <time>2025-09-07T21:41:24.109Z</time>
      </trkpt>
      <trkpt lat="48.830179" lon="2.177043">
        <ele>140.713968</ele>
        <time>2025-09-07T21:41:35.278Z</time>
      </trkpt>
      <trkpt lat="48.830107" lon="2.176637">
        <ele>141.585117</ele>
        <time>2025-09-07T21:41:44.389Z</time>
      </trkpt>
      <trkpt lat="48.830055" lon="2.174515">
        <ele>145.984579</ele>
        <time>2025-09-07T21:42:36.492Z</time>
      </trkpt>
      <trkpt lat="48.829964" lon="2.174368">
        <ele>146.451533</ele>
        <time>2025-09-07T21:42:42.490Z</time>
      </trkpt>
      <trkpt lat="48.829860" lon="2.174333">
        <ele>146.957020</ele>
        <time>2025-09-07T21:42:47.419Z</time>
      </trkpt>
      <trkpt lat="48.829603" lon="2.174399">
        <ele>148.193893</ele>
        <time>2025-09-07T21:43:00.177Z</time>
      </trkpt>
      <trkpt lat="48.828387" lon="2.174875">
        <ele>154.152815</ele>
        <time>2025-09-07T21:44:04.501Z</time>
      </trkpt>
      <trkpt lat="48.828274" lon="2.174919">
        <ele>154.706382</ele>
        <time>2025-09-07T21:44:09.405Z</time>
      </trkpt>
      <trkpt lat="48.827866" lon="2.175078">
        <ele>155.183108</ele>
        <time>2025-09-07T21:44:22.251Z</time>
      </trkpt>
      <trkpt lat="48.827736" lon="2.175126">
        <ele>155.299431</ele>
        <time>2025-09-07T21:44:25.493Z</time>
      </trkpt>
      <trkpt lat="48.827236" lon="2.175301">
        <ele>155.745558</ele>
        <time>2025-09-07T21:44:44.751Z</time>
      </trkpt>
      <trkpt lat="48.827060" lon="2.175300">
        <ele>155.898586</ele>
        <time>2025-09-07T21:44:50.956Z</time>
      </trkpt>
      <trkpt lat="48.826935" lon="2.175399">
        <ele>156.021157</ele>
        <time>2025-09-07T21:44:55.914Z</time>
      </trkpt>
      <trkpt lat="48.826841" lon="2.175405">
        <ele>156.102959</ele>
        <time>2025-09-07T21:44:59.166Z</time>
      </trkpt>
      <trkpt lat="48.826502" lon="2.175112">
        <ele>156.479151</ele>
        <time>2025-09-07T21:45:13.388Z</time>
      </trkpt>
      <trkpt lat="48.826408" lon="2.175380">
        <ele>156.829221</ele>
        <time>2025-09-07T21:45:21.070Z</time>
      </trkpt>
      <trkpt lat="48.826231" lon="2.175508">
        <ele>157.172501</ele>
        <time>2025-09-07T21:45:29.264Z</time>
      </trkpt>
      <trkpt lat="48.825845" lon="2.175142">
        <ele>157.969313</ele>
        <time>2025-09-07T21:45:52.250Z</time>
      </trkpt>
      <trkpt lat="48.824778" lon="2.174215">
        <ele>159.184004</ele>
        <time>2025-09-07T21:46:53.634Z</time>
      </trkpt>
      <trkpt lat="48.824267" lon="2.173770">
        <ele>158.508411</ele>
        <time>2025-09-07T21:47:14.273Z</time>
      </trkpt>
      <trkpt lat="48.823180" lon="2.172860">
        <ele>157.555876</ele>
        <time>2025-09-07T21:47:52.210Z</time>
      </trkpt>
      <trkpt lat="48.823191" lon="2.171866">
        <ele>157.673278</ele>
        <time>2025-09-07T21:48:14.777Z</time>
      </trkpt>
      <trkpt lat="48.823158" lon="2.171506">
        <ele>157.716202</ele>
        <time>2025-09-07T21:48:25.743Z</time>
      </trkpt>
      <trkpt lat="48.823164" lon="2.170495">
        <ele>158.030540</ele>
        <time>2025-09-07T21:49:02.177Z</time>
      </trkpt>
      <trkpt lat="48.823184" lon="2.170239">
        <ele>158.346233</ele>
        <time>2025-09-07T21:49:11.379Z</time>
      </trkpt>
      <trkpt lat="48.823273" lon="2.169824">
        <ele>158.880716</ele>
        <time>2025-09-07T21:49:26.712Z</time>
      </trkpt>
      <trkpt lat="48.823287" lon="2.169375">
        <ele>159.431169</ele>
        <time>2025-09-07T21:49:41.446Z</time>
      </trkpt>
      <trkpt lat="48.823235" lon="2.169206">
        <ele>159.659609</ele>
        <time>2025-09-07T21:49:47.151Z</time>
      </trkpt>
      <trkpt lat="48.823155" lon="2.169076">
        <ele>159.877518</ele>
        <time>2025-09-07T21:49:52.426Z</time>
      </trkpt>
      <trkpt lat="48.822908" lon="2.168941">
        <ele>160.365773</ele>
        <time>2025-09-07T21:50:03.753Z</time>
      </trkpt>
      <trkpt lat="48.822740" lon="2.168805">
        <ele>160.719862</ele>
        <time>2025-09-07T21:50:11.366Z</time>
      </trkpt>
      <trkpt lat="48.822652" lon="2.168684">
        <ele>160.940649</ele>
        <time>2025-09-07T21:50:15.941Z</time>
      </trkpt>
      <trkpt lat="48.822553" lon="2.168429">
        <ele>161.108255</ele>
        <time>2025-09-07T21:50:23.101Z</time>
      </trkpt>
      <trkpt lat="48.822555" lon="2.168148">
        <ele>160.983096</ele>
        <time>2025-09-07T21:50:29.716Z</time>
      </trkpt>
      <trkpt lat="48.822616" lon="2.167925">
        <ele>160.875545</ele>
        <time>2025-09-07T21:50:35.162Z</time>
      </trkpt>
      <trkpt lat="48.823046" lon="2.166918">
        <ele>160.340979</ele>
        <time>2025-09-07T21:51:06.537Z</time>
      </trkpt>
      <trkpt lat="48.823070" lon="2.166860">
        <ele>160.310469</ele>
        <time>2025-09-07T21:51:08.371Z</time>
      </trkpt>
      <trkpt lat="48.823068" lon="2.166783">
        <ele>160.276148</ele>
        <time>2025-09-07T21:51:10.184Z</time>
      </trkpt>
      <trkpt lat="48.822983" lon="2.166495">
        <ele>160.135581</ele>
        <time>2025-09-07T21:51:17.372Z</time>
      </trkpt>
      <trkpt lat="48.823120" lon="2.166041">
        <ele>159.653373</ele>
        <time>2025-09-07T21:51:23.326Z</time>
      </trkpt>
      <trkpt lat="48.823246" lon="2.165876">
        <ele>158.577941</ele>
        <time>2025-09-07T21:51:26.129Z</time>
      </trkpt>
      <trkpt lat="48.822558" lon="2.165854">
        <ele>154.129515</ele>
        <time>2025-09-07T21:51:45.550Z</time>
      </trkpt>
      <trkpt lat="48.821823" lon="2.165926">
        <ele>149.368382</ele>
        <time>2025-09-07T21:52:04.827Z</time>
      </trkpt>
      <trkpt lat="48.821676" lon="2.165940">
        <ele>148.416263</ele>
        <time>2025-09-07T21:52:08.627Z</time>
      </trkpt>
      <trkpt lat="48.820142" lon="2.166071">
        <ele>138.919269</ele>
        <time>2025-09-07T21:52:50.206Z</time>
      </trkpt>
      <trkpt lat="48.818529" lon="2.166159">
        <ele>136.554730</ele>
        <time>2025-09-07T21:53:23.076Z</time>
      </trkpt>
      <trkpt lat="48.818502" lon="2.166160">
        <ele>136.541611</ele>
        <time>2025-09-07T21:53:23.821Z</time>
      </trkpt>
      <trkpt lat="48.818493" lon="2.166136">
        <ele>136.532778</ele>
        <time>2025-09-07T21:53:24.303Z</time>
      </trkpt>
      <trkpt lat="48.818417" lon="2.165919">
        <ele>136.454167</ele>
        <time>2025-09-07T21:53:28.915Z</time>
      </trkpt>
      <trkpt lat="48.818345" lon="2.165850">
        <ele>136.412813</ele>
        <time>2025-09-07T21:53:31.473Z</time>
      </trkpt>
      <trkpt lat="48.818316" lon="2.166043">
        <ele>136.349498</ele>
        <time>2025-09-07T21:53:35.338Z</time>
      </trkpt>
      <trkpt lat="48.818267" lon="2.166114">
        <ele>136.382797</ele>
        <time>2025-09-07T21:53:37.397Z</time>
      </trkpt>
      <trkpt lat="48.818133" lon="2.166188">
        <ele>136.650741</ele>
        <time>2025-09-07T21:53:41.787Z</time>
      </trkpt>
      <trkpt lat="48.817818" lon="2.166188">
        <ele>137.242691</ele>
        <time>2025-09-07T21:53:51.604Z</time>
      </trkpt>
      <trkpt lat="48.817797" lon="2.166188">
        <ele>137.282154</ele>
        <time>2025-09-07T21:53:52.231Z</time>
      </trkpt>
      <trkpt lat="48.817588" lon="2.166210">
        <ele>137.675850</ele>
        <time>2025-09-07T21:53:59.324Z</time>
      </trkpt>
      <trkpt lat="48.817503" lon="2.166219">
        <ele>137.835970</ele>
        <time>2025-09-07T21:54:02.069Z</time>
      </trkpt>
      <trkpt lat="48.817143" lon="2.166250">
        <ele>138.513570</ele>
        <time>2025-09-07T21:54:13.954Z</time>
      </trkpt>
      <trkpt lat="48.816780" lon="2.166272">
        <ele>139.196264</ele>
        <time>2025-09-07T21:54:26.851Z</time>
      </trkpt>
      <trkpt lat="48.816412" lon="2.166303">
        <ele>139.964070</ele>
        <time>2025-09-07T21:54:40.675Z</time>
      </trkpt>
      <trkpt lat="48.813955" lon="2.166423">
        <ele>144.017677</ele>
        <time>2025-09-07T21:56:14.964Z</time>
      </trkpt>
      <trkpt lat="48.814040" lon="2.167459">
        <ele>143.566604</ele>
        <time>2025-09-07T21:56:28.770Z</time>
      </trkpt>
      <trkpt lat="48.814188" lon="2.168305">
        <ele>143.006547</ele>
        <time>2025-09-07T21:56:39.377Z</time>
      </trkpt>
      <trkpt lat="48.814204" lon="2.168734">
        <ele>142.586961</ele>
        <time>2025-09-07T21:56:47.680Z</time>
      </trkpt>
      <trkpt lat="48.814811" lon="2.170929">
        <ele>142.217376</ele>
        <time>2025-09-07T21:57:42.281Z</time>
      </trkpt>
      <trkpt lat="48.814518" lon="2.171338">
        <ele>144.488333</ele>
        <time>2025-09-07T21:58:06.186Z</time>
      </trkpt>
      <trkpt lat="48.813708" lon="2.172504">
        <ele>150.856996</ele>
        <time>2025-09-07T21:59:33.260Z</time>
      </trkpt>
      <trkpt lat="48.812761" lon="2.173868">
        <ele>159.695129</ele>
        <time>2025-09-07T22:01:16.462Z</time>
      </trkpt>
      <trkpt lat="48.811715" lon="2.173508">
        <ele>163.375708</ele>
        <time>2025-09-07T22:02:14.864Z</time>
      </trkpt>
      <trkpt lat="48.811504" lon="2.173442">
        <ele>163.470269</ele>
        <time>2025-09-07T22:02:23.008Z</time>
      </trkpt>
      <trkpt lat="48.811294" lon="2.173344">
        <ele>163.566702</ele>
        <time>2025-09-07T22:02:30.805Z</time>
      </trkpt>
      <trkpt lat="48.811211" lon="2.172956">
        <ele>163.684626</ele>
        <time>2025-09-07T22:02:39.934Z</time>
      </trkpt>
      <trkpt lat="48.811190" lon="2.172721">
        <ele>163.753178</ele>
        <time>2025-09-07T22:02:45.051Z</time>
      </trkpt>
      <trkpt lat="48.811151" lon="2.172286">
        <ele>163.880080</ele>
        <time>2025-09-07T22:02:54.353Z</time>
      </trkpt>
      <trkpt lat="48.811021" lon="2.171759">
        <ele>163.453098</ele>
        <time>2025-09-07T22:03:06.278Z</time>
      </trkpt>
      <trkpt lat="48.810895" lon="2.171436">
        <ele>163.054560</ele>
        <time>2025-09-07T22:03:14.578Z</time>
      </trkpt>
      <trkpt lat="48.810891" lon="2.171244">
        <ele>162.850632</ele>
        <time>2025-09-07T22:03:18.894Z</time>
      </trkpt>
      <trkpt lat="48.810922" lon="2.170972">
        <ele>162.557586</ele>
        <time>2025-09-07T22:03:25.178Z</time>
      </trkpt>
      <trkpt lat="48.810990" lon="2.169749">
        <ele>161.254637</ele>
        <time>2025-09-07T22:03:52.471Z</time>
      </trkpt>
      <trkpt lat="48.811021" lon="2.169569">
        <ele>161.057124</ele>
        <time>2025-09-07T22:03:56.497Z</time>
      </trkpt>
      <trkpt lat="48.811192" lon="2.169270">
        <ele>160.097138</ele>
        <time>2025-09-07T22:04:04.970Z</time>
      </trkpt>
      <trkpt lat="48.811116" lon="2.168704">
        <ele>158.614022</ele>
        <time>2025-09-07T22:04:16.945Z</time>
      </trkpt>
      <trkpt lat="48.811114" lon="2.168361">
        <ele>157.733328</ele>
        <time>2025-09-07T22:04:24.021Z</time>
      </trkpt>
      <trkpt lat="48.811123" lon="2.168106">
        <ele>157.077671</ele>
        <time>2025-09-07T22:04:29.242Z</time>
      </trkpt>
      <trkpt lat="48.811165" lon="2.167445">
        <ele>155.372661</ele>
        <time>2025-09-07T22:04:37.178Z</time>
      </trkpt>
      <trkpt lat="48.811171" lon="2.166717">
        <ele>153.037306</ele>
        <time>2025-09-07T22:04:45.455Z</time>
      </trkpt>
      <trkpt lat="48.811130" lon="2.166482">
        <ele>151.832718</ele>
        <time>2025-09-07T22:04:48.180Z</time>
      </trkpt>
      <trkpt lat="48.810422" lon="2.166329">
        <ele>146.451959</ele>
        <time>2025-09-07T22:05:00.157Z</time>
      </trkpt>
      <trkpt lat="48.810403" lon="2.166322">
        <ele>146.304853</ele>
        <time>2025-09-07T22:05:00.480Z</time>
      </trkpt>
      <trkpt lat="48.810365" lon="2.166314">
        <ele>146.016201</ele>
        <time>2025-09-07T22:05:01.040Z</time>
      </trkpt>
      <trkpt lat="48.809599" lon="2.166142">
        <ele>140.217102</ele>
        <time>2025-09-07T22:05:12.262Z</time>
      </trkpt>
      <trkpt lat="48.809548" lon="2.166131">
        <ele>139.866804</ele>
        <time>2025-09-07T22:05:13.031Z</time>
      </trkpt>
      <trkpt lat="48.809530" lon="2.166189">
        <ele>139.579657</ele>
        <time>2025-09-07T22:05:13.649Z</time>
      </trkpt>
      <trkpt lat="48.808171" lon="2.166963">
        <ele>129.709307</ele>
        <time>2025-09-07T22:05:35.666Z</time>
      </trkpt>
      <trkpt lat="48.808096" lon="2.167011">
        <ele>129.155829</ele>
        <time>2025-09-07T22:05:37.380Z</time>
      </trkpt>
      <trkpt lat="48.808054" lon="2.167048">
        <ele>128.825626</ele>
        <time>2025-09-07T22:05:38.402Z</time>
      </trkpt>
      <trkpt lat="48.807927" lon="2.166790">
        <ele>127.519879</ele>
        <time>2025-09-07T22:05:41.807Z</time>
      </trkpt>
      <trkpt lat="48.807397" lon="2.167049">
        <ele>124.338181</ele>
        <time>2025-09-07T22:05:50.366Z</time>
      </trkpt>
      <trkpt lat="48.807013" lon="2.167236">
        <ele>122.033700</ele>
        <time>2025-09-07T22:05:56.648Z</time>
      </trkpt>
      <trkpt lat="48.805981" lon="2.167710">
        <ele>115.950196</ele>
        <time>2025-09-07T22:06:13.559Z</time>
      </trkpt>
      <trkpt lat="48.805842" lon="2.167707">
        <ele>115.185385</ele>
        <time>2025-09-07T22:06:15.751Z</time>
      </trkpt>
      <trkpt lat="48.805820" lon="2.167772">
        <ele>114.920578</ele>
        <time>2025-09-07T22:06:16.499Z</time>
      </trkpt>
      <trkpt lat="48.805721" lon="2.168142">
        <ele>113.473473</ele>
        <time>2025-09-07T22:06:20.595Z</time>
      </trkpt>
      <trkpt lat="48.805714" lon="2.168206">
        <ele>113.238394</ele>
        <time>2025-09-07T22:06:21.245Z</time>
      </trkpt>
      <trkpt lat="48.805720" lon="2.168435">
        <ele>112.407958</ele>
        <time>2025-09-07T22:06:23.550Z</time>
      </trkpt>
      <trkpt lat="48.805724" lon="2.168707">
        <ele>111.422123</ele>
        <time>2025-09-07T22:06:26.280Z</time>
      </trkpt>
      <trkpt lat="48.805726" lon="2.168866">
        <ele>110.845883</ele>
        <time>2025-09-07T22:06:27.871Z</time>
      </trkpt>
      <trkpt lat="48.805737" lon="2.169027">
        <ele>110.259370</ele>
        <time>2025-09-07T22:06:29.498Z</time>
      </trkpt>
      <trkpt lat="48.805677" lon="2.169126">
        <ele>109.771876</ele>
        <time>2025-09-07T22:06:30.866Z</time>
      </trkpt>
      <trkpt lat="48.805649" lon="2.169151">
        <ele>109.593168</ele>
        <time>2025-09-07T22:06:31.361Z</time>
      </trkpt>
      <trkpt lat="48.805558" lon="2.169226">
        <ele>109.023511</ele>
        <time>2025-09-07T22:06:32.961Z</time>
      </trkpt>
      <trkpt lat="48.805459" lon="2.169307">
        <ele>108.404797</ele>
        <time>2025-09-07T22:06:34.725Z</time>
      </trkpt>
      <trkpt lat="48.805411" lon="2.169334">
        <ele>108.123176</ele>
        <time>2025-09-07T22:06:35.532Z</time>
      </trkpt>
      <trkpt lat="48.805334" lon="2.169375">
        <ele>108.011432</ele>
        <time>2025-09-07T22:06:36.829Z</time>
      </trkpt>
      <trkpt lat="48.805137" lon="2.169401">
        <ele>107.859928</ele>
        <time>2025-09-07T22:06:40.086Z</time>
      </trkpt>
      <trkpt lat="48.805072" lon="2.169401">
        <ele>107.810127</ele>
        <time>2025-09-07T22:06:41.173Z</time>
      </trkpt>
      <trkpt lat="48.804768" lon="2.169417">
        <ele>107.577071</ele>
        <time>2025-09-07T22:06:46.429Z</time>
      </trkpt>
      <trkpt lat="48.804644" lon="2.169441">
        <ele>107.481298</ele>
        <time>2025-09-07T22:06:48.659Z</time>
      </trkpt>
      <trkpt lat="48.804437" lon="2.169511">
        <ele>107.318815</ele>
        <time>2025-09-07T22:06:52.670Z</time>
      </trkpt>
      <trkpt lat="48.804211" lon="2.169595">
        <ele>107.140547</ele>
        <time>2025-09-07T22:06:57.718Z</time>
      </trkpt>
      <trkpt lat="48.804117" lon="2.169608">
        <ele>107.068229</ele>
        <time>2025-09-07T22:07:00.394Z</time>
      </trkpt>
      <trkpt lat="48.803964" lon="2.169903">
        <ele>106.878751</ele>
        <time>2025-09-07T22:07:08.956Z</time>
      </trkpt>
      <trkpt lat="48.803954" lon="2.169923">
        <ele>106.866079</ele>
        <time>2025-09-07T22:07:09.603Z</time>
      </trkpt>
      <trkpt lat="48.803882" lon="2.170106">
        <ele>106.758511</ele>
        <time>2025-09-07T22:07:15.428Z</time>
      </trkpt>
      <trkpt lat="48.803783" lon="2.170266">
        <ele>106.875045</ele>
        <time>2025-09-07T22:07:21.699Z</time>
      </trkpt>
      <trkpt lat="48.803580" lon="2.170444">
        <ele>107.711280</ele>
        <time>2025-09-07T22:07:32.107Z</time>
      </trkpt>
      <trkpt lat="48.803456" lon="2.170515">
        <ele>108.184025</ele>
        <time>2025-09-07T22:07:38.305Z</time>
      </trkpt>
      <trkpt lat="48.803137" lon="2.170633">
        <ele>109.355254</ele>
        <time>2025-09-07T22:07:52.743Z</time>
      </trkpt>
      <trkpt lat="48.802895" lon="2.170692">
        <ele>110.229580</ele>
        <time>2025-09-07T22:08:02.776Z</time>
      </trkpt>
      <trkpt lat="48.802583" lon="2.170749">
        <ele>111.350580</ele>
        <time>2025-09-07T22:08:15.576Z</time>
      </trkpt>
      <trkpt lat="48.802327" lon="2.170785">
        <ele>112.267697</ele>
        <time>2025-09-07T22:08:25.828Z</time>
      </trkpt>
      <trkpt lat="48.801920" lon="2.170837">
        <ele>113.585500</ele>
        <time>2025-09-07T22:08:40.429Z</time>
      </trkpt>
      <trkpt lat="48.801830" lon="2.170848">
        <ele>113.835353</ele>
        <time>2025-09-07T22:08:43.421Z</time>
      </trkpt>
      <trkpt lat="48.801743" lon="2.170860">
        <ele>114.077090</ele>
        <time>2025-09-07T22:08:46.309Z</time>
      </trkpt>
      <trkpt lat="48.801227" lon="2.170959">
        <ele>115.516319</ele>
        <time>2025-09-07T22:09:04.960Z</time>
      </trkpt>
      <trkpt lat="48.801154" lon="2.170974">
        <ele>115.720166</ele>
        <time>2025-09-07T22:09:07.643Z</time>
      </trkpt>
      <trkpt lat="48.800902" lon="2.171015">
        <ele>116.421492</ele>
        <time>2025-09-07T22:09:16.749Z</time>
      </trkpt>
      <trkpt lat="48.800598" lon="2.171077">
        <ele>117.270275</ele>
        <time>2025-09-07T22:09:27.542Z</time>
      </trkpt>
      <trkpt lat="48.800466" lon="2.171104">
        <ele>117.638845</ele>
        <time>2025-09-07T22:09:32.074Z</time>
      </trkpt>
      <trkpt lat="48.800429" lon="2.171114">
        <ele>117.742841</ele>
        <time>2025-09-07T22:09:33.394Z</time>
      </trkpt>
      <trkpt lat="48.799989" lon="2.171223">
        <ele>119.077261</ele>
        <time>2025-09-07T22:09:49.577Z</time>
      </trkpt>
      <trkpt lat="48.799411" lon="2.171524">
        <ele>120.958478</ele>
        <time>2025-09-07T22:10:13.244Z</time>
      </trkpt>
      <trkpt lat="48.799332" lon="2.171568">
        <ele>121.217539</ele>
        <time>2025-09-07T22:10:16.250Z</time>
      </trkpt>
      <trkpt lat="48.799300" lon="2.171397">
        <ele>121.578029</ele>
        <time>2025-09-07T22:10:20.610Z</time>
      </trkpt>
      <trkpt lat="48.799250" lon="2.170400">
        <ele>123.605678</ele>
        <time>2025-09-07T22:10:45.442Z</time>
      </trkpt>
      <trkpt lat="48.799233" lon="2.170048">
        <ele>124.143638</ele>
        <time>2025-09-07T22:10:54.568Z</time>
      </trkpt>
      <trkpt lat="48.799204" lon="2.169471">
        <ele>125.020305</ele>
        <time>2025-09-07T22:11:09.925Z</time>
      </trkpt>
      <trkpt lat="48.799137" lon="2.168798">
        <ele>126.051445</ele>
        <time>2025-09-07T22:11:26.697Z</time>
      </trkpt>
      <trkpt lat="48.799126" lon="2.168687">
        <ele>126.221497</ele>
        <time>2025-09-07T22:11:29.173Z</time>
      </trkpt>
      <trkpt lat="48.799112" lon="2.168560">
        <ele>126.416572</ele>
        <time>2025-09-07T22:11:31.970Z</time>
      </trkpt>
      <trkpt lat="48.799003" lon="2.167508">
        <ele>127.713342</ele>
        <time>2025-09-07T22:11:50.819Z</time>
      </trkpt>
      <trkpt lat="48.798922" lon="2.166690">
        <ele>127.521809</ele>
        <time>2025-09-07T22:12:02.779Z</time>
      </trkpt>
      <trkpt lat="48.798883" lon="2.166348">
        <ele>127.441442</ele>
        <time>2025-09-07T22:12:08.408Z</time>
      </trkpt>
      <trkpt lat="48.798830" lon="2.166058">
        <ele>127.371757</ele>
        <time>2025-09-07T22:12:13.167Z</time>
      </trkpt>
      <trkpt lat="48.798718" lon="2.165630">
        <ele>127.265121</ele>
        <time>2025-09-07T22:12:19.571Z</time>
      </trkpt>
      <trkpt lat="48.798686" lon="2.165817">
        <ele>127.220385</ele>
        <time>2025-09-07T22:12:22.087Z</time>
      </trkpt>
      <trkpt lat="48.798676" lon="2.166129">
        <ele>127.148056</ele>
        <time>2025-09-07T22:12:25.941Z</time>
      </trkpt>
      <trkpt lat="48.798572" lon="2.166101">
        <ele>127.098550</ele>
        <time>2025-09-07T22:12:27.852Z</time>
      </trkpt>
      <trkpt lat="48.798338" lon="2.166126">
        <ele>126.931918</ele>
        <time>2025-09-07T22:12:31.954Z</time>
      </trkpt>
      <trkpt lat="48.798291" lon="2.166064">
        <ele>126.887688</ele>
        <time>2025-09-07T22:12:33.040Z</time>
      </trkpt>
      <trkpt lat="48.798243" lon="2.165859">
        <ele>126.785887</ele>
        <time>2025-09-07T22:12:37.489Z</time>
      </trkpt>
      <trkpt lat="48.798209" lon="2.165389">
        <ele>126.564646</ele>
        <time>2025-09-07T22:12:47.706Z</time>
      </trkpt>
      <trkpt lat="48.798145" lon="2.165189">
        <ele>126.460605</ele>
        <time>2025-09-07T22:12:52.671Z</time>
      </trkpt>
      <trkpt lat="48.798072" lon="2.165057">
        <ele>126.379959</ele>
        <time>2025-09-07T22:12:56.525Z</time>
      </trkpt>
      <trkpt lat="48.797959" lon="2.164953">
        <ele>126.286091</ele>
        <time>2025-09-07T22:13:01.119Z</time>
      </trkpt>
      <trkpt lat="48.797782" lon="2.164842">
        <ele>126.150054</ele>
        <time>2025-09-07T22:13:07.896Z</time>
      </trkpt>
      <trkpt lat="48.797615" lon="2.164816">
        <ele>126.030805</ele>
        <time>2025-09-07T22:13:13.985Z</time>
      </trkpt>
      <trkpt lat="48.797475" lon="2.164840">
        <ele>125.930725</ele>
        <time>2025-09-07T22:13:19.306Z</time>
      </trkpt>
      <trkpt lat="48.797340" lon="2.164921">
        <ele>125.955272</ele>
        <time>2025-09-07T22:13:25.400Z</time>
      </trkpt>
      <trkpt lat="48.797078" lon="2.165350">
        <ele>127.645965</ele>
        <time>2025-09-07T22:13:45.253Z</time>
      </trkpt>
      <trkpt lat="48.796937" lon="2.165547">
        <ele>128.486693</ele>
        <time>2025-09-07T22:13:57.232Z</time>
      </trkpt>
      <trkpt lat="48.796791" lon="2.165603">
        <ele>129.147368</ele>
        <time>2025-09-07T22:14:07.203Z</time>
      </trkpt>
      <trkpt lat="48.796679" lon="2.165618">
        <ele>129.640654</ele>
        <time>2025-09-07T22:14:14.600Z</time>
      </trkpt>
      <trkpt lat="48.796362" lon="2.165575">
        <ele>131.036969</ele>
        <time>2025-09-07T22:14:35.697Z</time>
      </trkpt>
      <trkpt lat="48.796192" lon="2.165612">
        <ele>131.790436</ele>
        <time>2025-09-07T22:14:46.634Z</time>
      </trkpt>
      <trkpt lat="48.795867" lon="2.165724">
        <ele>133.252587</ele>
        <time>2025-09-07T22:15:07.092Z</time>
      </trkpt>
      <trkpt lat="48.795605" lon="2.165731">
        <ele>134.407009</ele>
        <time>2025-09-07T22:15:23.231Z</time>
      </trkpt>
      <trkpt lat="48.795482" lon="2.165610">
        <ele>135.054661</ele>
        <time>2025-09-07T22:15:32.777Z</time>
      </trkpt>
      <trkpt lat="48.795310" lon="2.165499">
        <ele>135.880514</ele>
        <time>2025-09-07T22:15:45.416Z</time>
      </trkpt>
      <trkpt lat="48.795130" lon="2.165488">
        <ele>136.676533</ele>
        <time>2025-09-07T22:15:57.856Z</time>
      </trkpt>
      <trkpt lat="48.794926" lon="2.165570">
        <ele>137.609025</ele>
        <time>2025-09-07T22:16:11.997Z</time>
      </trkpt>
      <trkpt lat="48.794711" lon="2.165815">
        <ele>138.796949</ele>
        <time>2025-09-07T22:16:28.843Z</time>
      </trkpt>
      <trkpt lat="48.794470" lon="2.166174">
        <ele>140.288962</ele>
        <time>2025-09-07T22:16:48.546Z</time>
      </trkpt>
      <trkpt lat="48.794305" lon="2.166282">
        <ele>141.082946</ele>
        <time>2025-09-07T22:16:57.551Z</time>
      </trkpt>
      <trkpt lat="48.794104" lon="2.166266">
        <ele>141.727047</ele>
        <time>2025-09-07T22:17:06.320Z</time>
      </trkpt>
      <trkpt lat="48.793975" lon="2.166194">
        <ele>141.817115</ele>
        <time>2025-09-07T22:17:11.918Z</time>
      </trkpt>
      <trkpt lat="48.793867" lon="2.166054">
        <ele>141.910182</ele>
        <time>2025-09-07T22:17:17.864Z</time>
      </trkpt>
      <trkpt lat="48.793818" lon="2.165906">
        <ele>141.981689</ele>
        <time>2025-09-07T22:17:22.492Z</time>
      </trkpt>
      <trkpt lat="48.793831" lon="2.165689">
        <ele>142.075754</ele>
        <time>2025-09-07T22:17:28.335Z</time>
      </trkpt>
      <trkpt lat="48.794017" lon="2.165196">
        <ele>142.321012</ele>
        <time>2025-09-07T22:17:42.166Z</time>
      </trkpt>
      <trkpt lat="48.794013" lon="2.164979">
        <ele>142.414727</ele>
        <time>2025-09-07T22:17:47.251Z</time>
      </trkpt>
      <trkpt lat="48.793939" lon="2.164821">
        <ele>142.498417</ele>
        <time>2025-09-07T22:17:51.699Z</time>
      </trkpt>
      <trkpt lat="48.793719" lon="2.164722">
        <ele>142.648786</ele>
        <time>2025-09-07T22:17:59.474Z</time>
      </trkpt>
      <trkpt lat="48.792941" lon="2.164689">
        <ele>144.056166</ele>
        <time>2025-09-07T22:18:31.505Z</time>
      </trkpt>
      <trkpt lat="48.792737" lon="2.164514">
        <ele>144.675527</ele>
        <time>2025-09-07T22:18:45.318Z</time>
      </trkpt>
      <trkpt lat="48.792619" lon="2.164520">
        <ele>144.987599</ele>
        <time>2025-09-07T22:18:52.199Z</time>
      </trkpt>
      <trkpt lat="48.792555" lon="2.164569">
        <ele>145.177064</ele>
        <time>2025-09-07T22:18:56.356Z</time>
      </trkpt>
      <trkpt lat="48.792410" lon="2.164689">
        <ele>145.613589</ele>
        <time>2025-09-07T22:19:05.612Z</time>
      </trkpt>
      <trkpt lat="48.792335" lon="2.164929">
        <ele>146.076138</ele>
        <time>2025-09-07T22:19:15.117Z</time>
      </trkpt>
      <trkpt lat="48.792340" lon="2.165128">
        <ele>146.422911</ele>
        <time>2025-09-07T22:19:21.910Z</time>
      </trkpt>
      <trkpt lat="48.792421" lon="2.165355">
        <ele>146.872447</ele>
        <time>2025-09-07T22:19:30.536Z</time>
      </trkpt>
      <trkpt lat="48.792425" lon="2.165521">
        <ele>147.161698</ele>
        <time>2025-09-07T22:19:35.847Z</time>
      </trkpt>
      <trkpt lat="48.792397" lon="2.165657">
        <ele>147.409811</ele>
        <time>2025-09-07T22:19:40.457Z</time>
      </trkpt>
      <trkpt lat="48.792289" lon="2.165926">
        <ele>147.893445</ele>
        <time>2025-09-07T22:19:51.375Z</time>
      </trkpt>
      <trkpt lat="48.792075" lon="2.166080">
        <ele>148.400340</ele>
        <time>2025-09-07T22:20:04.204Z</time>
      </trkpt>
      <trkpt lat="48.791951" lon="2.166076">
        <ele>148.665800</ele>
        <time>2025-09-07T22:20:11.079Z</time>
      </trkpt>
      <trkpt lat="48.791616" lon="2.165811">
        <ele>149.474332</ele>
        <time>2025-09-07T22:20:32.071Z</time>
      </trkpt>
      <trkpt lat="48.791495" lon="2.165791">
        <ele>149.734842</ele>
        <time>2025-09-07T22:20:38.175Z</time>
      </trkpt>
      <trkpt lat="48.791347" lon="2.165883">
        <ele>150.077143</ele>
        <time>2025-09-07T22:20:45.534Z</time>
      </trkpt>
      <trkpt lat="48.791252" lon="2.166040">
        <ele>150.377729</ele>
        <time>2025-09-07T22:20:51.608Z</time>
      </trkpt>
      <trkpt lat="48.791170" lon="2.166424">
        <ele>150.946924</ele>
        <time>2025-09-07T22:21:02.390Z</time>
      </trkpt>
      <trkpt lat="48.790980" lon="2.166837">
        <ele>151.644331</ele>
        <time>2025-09-07T22:21:14.719Z</time>
      </trkpt>
      <trkpt lat="48.790900" lon="2.166821">
        <ele>151.805349</ele>
        <time>2025-09-07T22:21:17.663Z</time>
      </trkpt>
      <trkpt lat="48.790721" lon="2.166666">
        <ele>152.216575</ele>
        <time>2025-09-07T22:21:25.463Z</time>
      </trkpt>
      <trkpt lat="48.790616" lon="2.166614">
        <ele>152.436970</ele>
        <time>2025-09-07T22:21:29.907Z</time>
      </trkpt>
      <trkpt lat="48.790388" lon="2.166663">
        <ele>152.896477</ele>
        <time>2025-09-07T22:21:39.761Z</time>
      </trkpt>
      <trkpt lat="48.790224" lon="2.166627">
        <ele>153.227140</ele>
        <time>2025-09-07T22:21:47.169Z</time>
      </trkpt>
      <trkpt lat="48.790037" lon="2.166477">
        <ele>153.649196</ele>
        <time>2025-09-07T22:21:56.631Z</time>
      </trkpt>
      <trkpt lat="48.789933" lon="2.166450">
        <ele>153.859739</ele>
        <time>2025-09-07T22:22:01.403Z</time>
      </trkpt>
      <trkpt lat="48.789824" lon="2.166465">
        <ele>154.078139</ele>
        <time>2025-09-07T22:22:06.291Z</time>
      </trkpt>
      <trkpt lat="48.789578" lon="2.166577">
        <ele>154.590634</ele>
        <time>2025-09-07T22:22:19.683Z</time>
      </trkpt>
      <trkpt lat="48.789097" lon="2.166734">
        <ele>155.910186</ele>
        <time>2025-09-07T22:22:49.596Z</time>
      </trkpt>
      <trkpt lat="48.788950" lon="2.166930">
        <ele>156.556021</ele>
        <time>2025-09-07T22:23:02.663Z</time>
      </trkpt>
      <trkpt lat="48.788853" lon="2.167174">
        <ele>157.175751</ele>
        <time>2025-09-07T22:23:15.343Z</time>
      </trkpt>
      <trkpt lat="48.788661" lon="2.167401">
        <ele>157.979070</ele>
        <time>2025-09-07T22:23:30.759Z</time>
      </trkpt>
      <trkpt lat="48.788496" lon="2.167505">
        <ele>158.568789</ele>
        <time>2025-09-07T22:23:40.213Z</time>
      </trkpt>
      <trkpt lat="48.788250" lon="2.167542">
        <ele>159.384752</ele>
        <time>2025-09-07T22:23:52.254Z</time>
      </trkpt>
      <trkpt lat="48.788138" lon="2.167394">
        <ele>159.874912</ele>
        <time>2025-09-07T22:23:59.143Z</time>
      </trkpt>
      <trkpt lat="48.787974" lon="2.167017">
        <ele>160.857359</ele>
        <time>2025-09-07T22:24:12.064Z</time>
      </trkpt>
      <trkpt lat="48.787948" lon="2.166777">
        <ele>161.183523</ele>
        <time>2025-09-07T22:24:18.619Z</time>
      </trkpt>
      <trkpt lat="48.787962" lon="2.166597">
        <ele>161.374523</ele>
        <time>2025-09-07T22:24:23.048Z</time>
      </trkpt>
      <trkpt lat="48.787914" lon="2.166431">
        <ele>161.565559</ele>
        <time>2025-09-07T22:24:27.415Z</time>
      </trkpt>
      <trkpt lat="48.787776" lon="2.166340">
        <ele>161.806215</ele>
        <time>2025-09-07T22:24:32.966Z</time>
      </trkpt>
      <trkpt lat="48.787562" lon="2.166327">
        <ele>162.148771</ele>
        <time>2025-09-07T22:24:41.297Z</time>
      </trkpt>
      <trkpt lat="48.787493" lon="2.166260">
        <ele>162.279786</ele>
        <time>2025-09-07T22:24:44.195Z</time>
      </trkpt>
      <trkpt lat="48.787413" lon="2.165717">
        <ele>162.866134</ele>
        <time>2025-09-07T22:24:59.099Z</time>
      </trkpt>
      <trkpt lat="48.787352" lon="2.165576">
        <ele>163.043891</ele>
        <time>2025-09-07T22:25:03.940Z</time>
      </trkpt>
      <trkpt lat="48.787166" lon="2.165390">
        <ele>163.400155</ele>
        <time>2025-09-07T22:25:15.727Z</time>
      </trkpt>
      <trkpt lat="48.787101" lon="2.165272">
        <ele>163.562240</ele>
        <time>2025-09-07T22:25:21.628Z</time>
      </trkpt>
      <trkpt lat="48.787065" lon="2.165184">
        <ele>163.671397</ele>
        <time>2025-09-07T22:25:25.718Z</time>
      </trkpt>
      <trkpt lat="48.787046" lon="2.164951">
        <ele>163.950278</ele>
        <time>2025-09-07T22:25:35.062Z</time>
      </trkpt>
      <trkpt lat="48.786962" lon="2.164642">
        <ele>164.528407</ele>
        <time>2025-09-07T22:25:47.992Z</time>
      </trkpt>
      <trkpt lat="48.786789" lon="2.164493">
        <ele>165.050562</ele>
        <time>2025-09-07T22:25:58.991Z</time>
      </trkpt>
      <trkpt lat="48.786294" lon="2.164311">
        <ele>166.387542</ele>
        <time>2025-09-07T22:26:25.190Z</time>
      </trkpt>
      <trkpt lat="48.786217" lon="2.164217">
        <ele>166.646941</ele>
        <time>2025-09-07T22:26:30.087Z</time>
      </trkpt>
      <trkpt lat="48.786165" lon="2.164028">
        <ele>167.001184</ele>
        <time>2025-09-07T22:26:36.681Z</time>
      </trkpt>
      <trkpt lat="48.786209" lon="2.163863">
        <ele>167.309050</ele>
        <time>2025-09-07T22:26:42.302Z</time>
      </trkpt>
      <trkpt lat="48.786477" lon="2.163536">
        <ele>168.211709</ele>
        <time>2025-09-07T22:26:58.321Z</time>
      </trkpt>
      <trkpt lat="48.786515" lon="2.163363">
        <ele>168.527111</ele>
        <time>2025-09-07T22:27:03.822Z</time>
      </trkpt>
      <trkpt lat="48.786515" lon="2.163182">
        <ele>168.718699</ele>
        <time>2025-09-07T22:27:09.137Z</time>
      </trkpt>
      <trkpt lat="48.786472" lon="2.162815">
        <ele>169.048808</ele>
        <time>2025-09-07T22:27:19.593Z</time>
      </trkpt>
      <trkpt lat="48.786502" lon="2.162157">
        <ele>169.632916</ele>
        <time>2025-09-07T22:27:36.536Z</time>
      </trkpt>
      <trkpt lat="48.786418" lon="2.162008">
        <ele>169.806579</ele>
        <time>2025-09-07T22:27:41.944Z</time>
      </trkpt>
      <trkpt lat="48.786417" lon="2.162299">
        <ele>170.064288</ele>
        <time>2025-09-07T22:27:48.176Z</time>
      </trkpt>
      <trkpt lat="48.786349" lon="2.162576">
        <ele>170.326070</ele>
        <time>2025-09-07T22:27:54.661Z</time>
      </trkpt>
      <trkpt lat="48.786352" lon="2.163062">
        <ele>170.756484</ele>
        <time>2025-09-07T22:28:05.342Z</time>
      </trkpt>
      <trkpt lat="48.786352" lon="2.163063">
        <ele>170.757369</ele>
        <time>2025-09-07T22:28:05.365Z</time>
      </trkpt>
      <trkpt lat="48.786312" lon="2.163331">
        <ele>171.000720</ele>
        <time>2025-09-07T22:28:11.452Z</time>
      </trkpt>
      <trkpt lat="48.786270" lon="2.163447">
        <ele>171.134368</ele>
        <time>2025-09-07T22:28:14.272Z</time>
      </trkpt>
      <trkpt lat="48.786088" lon="2.163673">
        <ele>171.498023</ele>
        <time>2025-09-07T22:28:22.173Z</time>
      </trkpt>
      <trkpt lat="48.786020" lon="2.163827">
        <ele>171.686916</ele>
        <time>2025-09-07T22:28:26.096Z</time>
      </trkpt>
      <trkpt lat="48.785980" lon="2.164123">
        <ele>171.994796</ele>
        <time>2025-09-07T22:28:32.417Z</time>
      </trkpt>
      <trkpt lat="48.785981" lon="2.164314">
        <ele>172.189417</ele>
        <time>2025-09-07T22:28:36.510Z</time>
      </trkpt>
      <trkpt lat="48.786018" lon="2.164434">
        <ele>172.324414</ele>
        <time>2025-09-07T22:28:40.271Z</time>
      </trkpt>
      <trkpt lat="48.785846" lon="2.164406">
        <ele>172.591932</ele>
        <time>2025-09-07T22:28:48.054Z</time>
      </trkpt>
      <trkpt lat="48.785534" lon="2.164449">
        <ele>173.076414</ele>
        <time>2025-09-07T22:29:02.249Z</time>
      </trkpt>
      <trkpt lat="48.785392" lon="2.164425">
        <ele>173.297370</ele>
        <time>2025-09-07T22:29:08.567Z</time>
      </trkpt>
      <trkpt lat="48.785167" lon="2.164341">
        <ele>173.655697</ele>
        <time>2025-09-07T22:29:18.685Z</time>
      </trkpt>
      <trkpt lat="48.784591" lon="2.163964">
        <ele>174.339087</ele>
        <time>2025-09-07T22:29:47.278Z</time>
      </trkpt>
      <trkpt lat="48.783619" lon="2.163328">
        <ele>175.414286</ele>
        <time>2025-09-07T22:30:31.770Z</time>
      </trkpt>
      <trkpt lat="48.783315" lon="2.163021">
        <ele>175.701533</ele>
        <time>2025-09-07T22:30:45.070Z</time>
      </trkpt>
      <trkpt lat="48.783083" lon="2.162742">
        <ele>175.852295</ele>
        <time>2025-09-07T22:30:56.065Z</time>
      </trkpt>
      <trkpt lat="48.782955" lon="2.162589">
        <ele>175.935280</ele>
        <time>2025-09-07T22:31:02.285Z</time>
      </trkpt>
      <trkpt lat="48.782941" lon="2.162635">
        <ele>175.952285</ele>
        <time>2025-09-07T22:31:03.174Z</time>
      </trkpt>
      <trkpt lat="48.782802" lon="2.163100">
        <ele>176.123646</ele>
        <time>2025-09-07T22:31:12.445Z</time>
      </trkpt>
      <trkpt lat="48.782720" lon="2.163445">
        <ele>176.246730</ele>
        <time>2025-09-07T22:31:18.972Z</time>
      </trkpt>
      <trkpt lat="48.782637" lon="2.164700">
        <ele>176.578767</ele>
        <time>2025-09-07T22:31:42.984Z</time>
      </trkpt>
      <trkpt lat="48.782351" lon="2.164601">
        <ele>176.628321</ele>
        <time>2025-09-07T22:31:55.794Z</time>
      </trkpt>
      <trkpt lat="48.782206" lon="2.164556">
        <ele>176.653322</ele>
        <time>2025-09-07T22:32:02.040Z</time>
      </trkpt>
      <trkpt lat="48.781807" lon="2.164421">
        <ele>176.722379</ele>
        <time>2025-09-07T22:32:17.832Z</time>
      </trkpt>
      <trkpt lat="48.781807" lon="2.164421">
        <ele>176.722379</ele>
        <time>2025-09-07T22:32:17.837Z</time>
      </trkpt>
      <trkpt lat="48.781371" lon="2.164356">
        <ele>176.796386</ele>
        <time>2025-09-07T22:32:29.166Z</time>
      </trkpt>
      <trkpt lat="48.781289" lon="2.164285">
        <ele>176.812334</ele>
        <time>2025-09-07T22:32:31.607Z</time>
      </trkpt>
      <trkpt lat="48.781242" lon="2.164131">
        <ele>176.831226</ele>
        <time>2025-09-07T22:32:34.499Z</time>
      </trkpt>
      <trkpt lat="48.781275" lon="2.162768">
        <ele>176.065077</ele>
        <time>2025-09-07T22:32:57.740Z</time>
      </trkpt>
      <trkpt lat="48.781170" lon="2.162823">
        <ele>175.965641</ele>
        <time>2025-09-07T22:33:00.613Z</time>
      </trkpt>
      <trkpt lat="48.781073" lon="2.162919">
        <ele>175.861976</ele>
        <time>2025-09-07T22:33:03.608Z</time>
      </trkpt>
      <trkpt lat="48.781111" lon="2.162708">
        <ele>175.732949</ele>
        <time>2025-09-07T22:33:07.335Z</time>
      </trkpt>
      <trkpt lat="48.781104" lon="2.162501">
        <ele>175.610685</ele>
        <time>2025-09-07T22:33:10.867Z</time>
      </trkpt>
      <trkpt lat="48.781008" lon="2.162078">
        <ele>175.346786</ele>
        <time>2025-09-07T22:33:18.491Z</time>
      </trkpt>
      <trkpt lat="48.781018" lon="2.162072">
        <ele>175.337160</ele>
        <time>2025-09-07T22:33:18.759Z</time>
      </trkpt>
      <trkpt lat="48.780932" lon="2.161746">
        <ele>175.159826</ele>
        <time>2025-09-07T22:33:26.746Z</time>
      </trkpt>
      <trkpt lat="48.780485" lon="2.161677">
        <ele>174.880955</ele>
        <time>2025-09-07T22:33:42.354Z</time>
      </trkpt>
      <trkpt lat="48.779183" lon="2.161476">
        <ele>174.093333</ele>
        <time>2025-09-07T22:34:28.950Z</time>
      </trkpt>
      <trkpt lat="48.777153" lon="2.161186">
        <ele>173.189924</ele>
        <time>2025-09-07T22:35:43.645Z</time>
      </trkpt>
      <trkpt lat="48.776995" lon="2.161164">
        <ele>172.954509</ele>
        <time>2025-09-07T22:35:49.161Z</time>
      </trkpt>
      <trkpt lat="48.776890" lon="2.161150">
        <ele>172.798117</ele>
        <time>2025-09-07T22:35:52.792Z</time>
      </trkpt>
      <trkpt lat="48.776623" lon="2.161113">
        <ele>172.400312</ele>
        <time>2025-09-07T22:36:01.931Z</time>
      </trkpt>
      <trkpt lat="48.774466" lon="2.160781">
        <ele>168.022563</ele>
        <time>2025-09-07T22:37:11.681Z</time>
      </trkpt>
      <trkpt lat="48.772810" lon="2.160528">
        <ele>163.236971</ele>
        <time>2025-09-07T22:38:03.606Z</time>
      </trkpt>
      <trkpt lat="48.772835" lon="2.160047">
        <ele>162.247462</ele>
        <time>2025-09-07T22:38:13.382Z</time>
      </trkpt>
      <trkpt lat="48.772453" lon="2.159752">
        <ele>160.899922</ele>
        <time>2025-09-07T22:38:26.461Z</time>
      </trkpt>
      <trkpt lat="48.772405" lon="2.159508">
        <ele>160.280004</ele>
        <time>2025-09-07T22:38:31.522Z</time>
      </trkpt>
      <trkpt lat="48.772185" lon="2.159451">
        <ele>159.455570</ele>
        <time>2025-09-07T22:38:38.175Z</time>
      </trkpt>
      <trkpt lat="48.772104" lon="2.159288">
        <ele>158.958581</ele>
        <time>2025-09-07T22:38:42.104Z</time>
      </trkpt>
      <trkpt lat="48.771745" lon="2.159118">
        <ele>157.569368</ele>
        <time>2025-09-07T22:38:53.015Z</time>
      </trkpt>
      <trkpt lat="48.771349" lon="2.159272">
        <ele>156.059278</ele>
        <time>2025-09-07T22:39:05.119Z</time>
      </trkpt>
      <trkpt lat="48.771161" lon="2.159150">
        <ele>155.303964</ele>
        <time>2025-09-07T22:39:11.302Z</time>
      </trkpt>
      <trkpt lat="48.771161" lon="2.159150">
        <ele>155.303964</ele>
        <time>2025-09-07T22:39:11.311Z</time>
      </trkpt>
      <trkpt lat="48.770887" lon="2.159174">
        <ele>154.323708</ele>
        <time>2025-09-07T22:39:19.745Z</time>
      </trkpt>
      <trkpt lat="48.770894" lon="2.158988">
        <ele>154.158597</ele>
        <time>2025-09-07T22:39:22.171Z</time>
      </trkpt>
      <trkpt lat="48.770989" lon="2.156682">
        <ele>152.110926</ele>
        <time>2025-09-07T22:39:56.294Z</time>
      </trkpt>
      <trkpt lat="48.771027" lon="2.154997">
        <ele>149.742122</ele>
        <time>2025-09-07T22:40:21.026Z</time>
      </trkpt>
      <trkpt lat="48.771100" lon="2.153269">
        <ele>144.812960</ele>
        <time>2025-09-07T22:40:43.206Z</time>
      </trkpt>
      <trkpt lat="48.771113" lon="2.152916">
        <ele>142.538081</ele>
        <time>2025-09-07T22:40:47.174Z</time>
      </trkpt>
      <trkpt lat="48.770885" lon="2.152343">
        <ele>138.231339</ele>
        <time>2025-09-07T22:40:58.479Z</time>
      </trkpt>
      <trkpt lat="48.770701" lon="2.152091">
        <ele>135.811403</ele>
        <time>2025-09-07T22:41:04.612Z</time>
      </trkpt>
      <trkpt lat="48.770701" lon="2.152091">
        <ele>135.811403</ele>
        <time>2025-09-07T22:41:04.618Z</time>
      </trkpt>
      <trkpt lat="48.770443" lon="2.151908">
        <ele>133.030949</ele>
        <time>2025-09-07T22:41:11.568Z</time>
      </trkpt>
      <trkpt lat="48.770214" lon="2.151657">
        <ele>130.276961</ele>
        <time>2025-09-07T22:41:18.452Z</time>
      </trkpt>
      <trkpt lat="48.770085" lon="2.151435">
        <ele>128.511997</ele>
        <time>2025-09-07T22:41:23.198Z</time>
      </trkpt>
      <trkpt lat="48.769952" lon="2.150986">
        <ele>125.576384</ele>
        <time>2025-09-07T22:41:31.237Z</time>
      </trkpt>
      <trkpt lat="48.769959" lon="2.150497">
        <ele>122.659535</ele>
        <time>2025-09-07T22:41:39.404Z</time>
      </trkpt>
      <trkpt lat="48.769993" lon="2.150328">
        <ele>121.605793</ele>
        <time>2025-09-07T22:41:42.438Z</time>
      </trkpt>
      <trkpt lat="48.770065" lon="2.149988">
        <ele>119.476110</ele>
        <time>2025-09-07T22:41:48.707Z</time>
      </trkpt>
      <trkpt lat="48.770223" lon="2.149565">
        <ele>116.576610</ele>
        <time>2025-09-07T22:41:57.680Z</time>
      </trkpt>
      <trkpt lat="48.770517" lon="2.148824">
        <ele>113.050863</ele>
        <time>2025-09-07T22:42:14.831Z</time>
      </trkpt>
      <trkpt lat="48.770786" lon="2.148239">
        <ele>111.432003</ele>
        <time>2025-09-07T22:42:29.775Z</time>
      </trkpt>
      <trkpt lat="48.770962" lon="2.147925">
        <ele>110.496520</ele>
        <time>2025-09-07T22:42:38.233Z</time>
      </trkpt>
      <trkpt lat="48.771064" lon="2.147825">
        <ele>110.078344</ele>
        <time>2025-09-07T22:42:41.989Z</time>
      </trkpt>
      <trkpt lat="48.771189" lon="2.147756">
        <ele>109.620310</ele>
        <time>2025-09-07T22:42:46.055Z</time>
      </trkpt>
      <trkpt lat="48.771280" lon="2.147759">
        <ele>109.306880</ele>
        <time>2025-09-07T22:42:48.830Z</time>
      </trkpt>
      <trkpt lat="48.771503" lon="2.147838">
        <ele>108.518332</ele>
        <time>2025-09-07T22:42:55.733Z</time>
      </trkpt>
      <trkpt lat="48.771545" lon="2.147828">
        <ele>108.371937</ele>
        <time>2025-09-07T22:42:57.040Z</time>
      </trkpt>
      <trkpt lat="48.771606" lon="2.147645">
        <ele>107.906527</ele>
        <time>2025-09-07T22:43:01.107Z</time>
      </trkpt>
      <trkpt lat="48.771639" lon="2.147594">
        <ele>107.730197</ele>
        <time>2025-09-07T22:43:02.519Z</time>
      </trkpt>
      <trkpt lat="48.771442" lon="2.147465">
        <ele>106.901130</ele>
        <time>2025-09-07T22:43:06.091Z</time>
      </trkpt>
      <trkpt lat="48.771223" lon="2.147331">
        <ele>105.988703</ele>
        <time>2025-09-07T22:43:10.043Z</time>
      </trkpt>
      <trkpt lat="48.771190" lon="2.147319">
        <ele>105.857580</ele>
        <time>2025-09-07T22:43:10.600Z</time>
      </trkpt>
      <trkpt lat="48.771171" lon="2.147314">
        <ele>105.783069</ele>
        <time>2025-09-07T22:43:10.911Z</time>
      </trkpt>
      <trkpt lat="48.771121" lon="2.147331">
        <ele>105.585079</ele>
        <time>2025-09-07T22:43:11.765Z</time>
      </trkpt>
      <trkpt lat="48.771021" lon="2.147324">
        <ele>105.198269</ele>
        <time>2025-09-07T22:43:13.419Z</time>
      </trkpt>
      <trkpt lat="48.771031" lon="2.147232">
        <ele>104.960814</ele>
        <time>2025-09-07T22:43:14.438Z</time>
      </trkpt>
      <trkpt lat="48.770935" lon="2.147081">
        <ele>104.426520</ele>
        <time>2025-09-07T22:43:16.655Z</time>
      </trkpt>
      <trkpt lat="48.770831" lon="2.146899">
        <ele>103.813080</ele>
        <time>2025-09-07T22:43:19.188Z</time>
      </trkpt>
      <trkpt lat="48.770731" lon="2.146726">
        <ele>103.227072</ele>
        <time>2025-09-07T22:43:21.621Z</time>
      </trkpt>
      <trkpt lat="48.770590" lon="2.146477">
        <ele>102.391050</ele>
        <time>2025-09-07T22:43:25.123Z</time>
      </trkpt>
      <trkpt lat="48.770577" lon="2.146453">
        <ele>102.311937</ele>
        <time>2025-09-07T22:43:25.460Z</time>
      </trkpt>
      <trkpt lat="48.770227" lon="2.145808">
        <ele>100.744486</ele>
        <time>2025-09-07T22:43:34.732Z</time>
      </trkpt>
      <trkpt lat="48.770139" lon="2.145637">
        <ele>100.618421</ele>
        <time>2025-09-07T22:43:37.320Z</time>
      </trkpt>
      <trkpt lat="48.770031" lon="2.145433">
        <ele>100.466375</ele>
        <time>2025-09-07T22:43:40.592Z</time>
      </trkpt>
      <trkpt lat="48.769916" lon="2.145274">
        <ele>100.329204</ele>
        <time>2025-09-07T22:43:43.607Z</time>
      </trkpt>
      <trkpt lat="48.769849" lon="2.145190">
        <ele>100.252577</ele>
        <time>2025-09-07T22:43:45.325Z</time>
      </trkpt>
      <trkpt lat="48.769713" lon="2.145018">
        <ele>100.096481</ele>
        <time>2025-09-07T22:43:48.916Z</time>
      </trkpt>
      <trkpt lat="48.769755" lon="2.144971">
        <ele>100.050470</ele>
        <time>2025-09-07T22:43:50.816Z</time>
      </trkpt>
      <trkpt lat="48.769963" lon="2.144329">
        <ele>99.634782</ele>
        <time>2025-09-07T22:44:08.598Z</time>
      </trkpt>
      <trkpt lat="48.771214" lon="2.141183">
        <ele>101.776678</ele>
        <time>2025-09-07T22:45:48.048Z</time>
      </trkpt>
      <trkpt lat="48.771234" lon="2.141029">
        <ele>102.150208</ele>
        <time>2025-09-07T22:45:52.614Z</time>
      </trkpt>
      <trkpt lat="48.771183" lon="2.141064">
        <ele>102.352318</ele>
        <time>2025-09-07T22:45:55.178Z</time>
      </trkpt>
      <trkpt lat="48.771139" lon="2.141086">
        <ele>102.519597</ele>
        <time>2025-09-07T22:45:56.647Z</time>
      </trkpt>
      <trkpt lat="48.770956" lon="2.141175">
        <ele>103.213485</ele>
        <time>2025-09-07T22:46:03.046Z</time>
      </trkpt>
      <trkpt lat="48.770876" lon="2.141168">
        <ele>103.502828</ele>
        <time>2025-09-07T22:46:05.935Z</time>
      </trkpt>
      <trkpt lat="48.770781" lon="2.141099">
        <ele>103.883129</ele>
        <time>2025-09-07T22:46:09.970Z</time>
      </trkpt>
      <trkpt lat="48.770164" lon="2.140301">
        <ele>106.810553</ele>
        <time>2025-09-07T22:46:47.892Z</time>
      </trkpt>
      <trkpt lat="48.770077" lon="2.140145">
        <ele>107.298027</ele>
        <time>2025-09-07T22:46:55.464Z</time>
      </trkpt>
      <trkpt lat="48.769928" lon="2.139877">
        <ele>108.392996</ele>
        <time>2025-09-07T22:47:09.301Z</time>
      </trkpt>
      <trkpt lat="48.769577" lon="2.139249">
        <ele>110.964490</ele>
        <time>2025-09-07T22:47:42.480Z</time>
      </trkpt>
      <trkpt lat="48.769587" lon="2.139011">
        <ele>111.709274</ele>
        <time>2025-09-07T22:47:51.659Z</time>
      </trkpt>
      <trkpt lat="48.769535" lon="2.138715">
        <ele>112.665957</ele>
        <time>2025-09-07T22:48:02.523Z</time>
      </trkpt>
      <trkpt lat="48.769538" lon="2.138632">
        <ele>112.925556</ele>
        <time>2025-09-07T22:48:05.113Z</time>
      </trkpt>
      <trkpt lat="48.769760" lon="2.137917">
        <ele>115.393869</ele>
        <time>2025-09-07T22:48:24.800Z</time>
      </trkpt>
      <trkpt lat="48.769826" lon="2.137626">
        <ele>115.838685</ele>
        <time>2025-09-07T22:48:30.638Z</time>
      </trkpt>
      <trkpt lat="48.769999" lon="2.137281">
        <ele>115.896122</ele>
        <time>2025-09-07T22:48:37.708Z</time>
      </trkpt>
      <trkpt lat="48.770170" lon="2.137215">
        <ele>115.931593</ele>
        <time>2025-09-07T22:48:41.715Z</time>
      </trkpt>
      <trkpt lat="48.770383" lon="2.137220">
        <ele>115.974417</ele>
        <time>2025-09-07T22:48:46.498Z</time>
      </trkpt>
      <trkpt lat="48.770496" lon="2.137002">
        <ele>116.011164</ele>
        <time>2025-09-07T22:48:50.593Z</time>
      </trkpt>
      <trkpt lat="48.770578" lon="2.136744">
        <ele>116.049114</ele>
        <time>2025-09-07T22:48:54.678Z</time>
      </trkpt>
      <trkpt lat="48.770719" lon="2.136091">
        <ele>116.140157</ele>
        <time>2025-09-07T22:49:04.456Z</time>
      </trkpt>
      <trkpt lat="48.770747" lon="2.135446">
        <ele>117.440557</ele>
        <time>2025-09-07T22:49:18.638Z</time>
      </trkpt>
      <trkpt lat="48.770780" lon="2.135118">
        <ele>118.587657</ele>
        <time>2025-09-07T22:49:28.129Z</time>
      </trkpt>
      <trkpt lat="48.770871" lon="2.134641">
        <ele>120.304440</ele>
        <time>2025-09-07T22:49:44.780Z</time>
      </trkpt>
      <trkpt lat="48.769921" lon="2.133485">
        <ele>126.975272</ele>
        <time>2025-09-07T22:51:14.468Z</time>
      </trkpt>
      <trkpt lat="48.767993" lon="2.131220">
        <ele>141.465063</ele>
        <time>2025-09-07T22:54:03.762Z</time>
      </trkpt>
      <trkpt lat="48.767906" lon="2.131088">
        <ele>142.039267</ele>
        <time>2025-09-07T22:54:10.887Z</time>
      </trkpt>
      <trkpt lat="48.767938" lon="2.130823">
        <ele>142.867971</ele>
        <time>2025-09-07T22:54:18.752Z</time>
      </trkpt>
      <trkpt lat="48.768041" lon="2.130458">
        <ele>144.089278</ele>
        <time>2025-09-07T22:54:29.577Z</time>
      </trkpt>
      <trkpt lat="48.767971" lon="2.130432">
        <ele>144.425606</ele>
        <time>2025-09-07T22:54:33.350Z</time>
      </trkpt>
      <trkpt lat="48.767967" lon="2.130109">
        <ele>145.419324</ele>
        <time>2025-09-07T22:54:40.938Z</time>
      </trkpt>
      <trkpt lat="48.767923" lon="2.129733">
        <ele>146.220537</ele>
        <time>2025-09-07T22:54:49.487Z</time>
      </trkpt>
      <trkpt lat="48.767881" lon="2.129745">
        <ele>146.310692</ele>
        <time>2025-09-07T22:54:50.883Z</time>
      </trkpt>
      <trkpt lat="48.767816" lon="2.129760">
        <ele>146.449384</ele>
        <time>2025-09-07T22:54:52.994Z</time>
      </trkpt>
      <trkpt lat="48.767707" lon="2.129682">
        <ele>146.703608</ele>
        <time>2025-09-07T22:54:56.853Z</time>
      </trkpt>
      <trkpt lat="48.767398" lon="2.129618">
        <ele>147.361480</ele>
        <time>2025-09-07T22:55:06.383Z</time>
      </trkpt>
      <trkpt lat="48.767189" lon="2.129492">
        <ele>147.835891</ele>
        <time>2025-09-07T22:55:13.157Z</time>
      </trkpt>
      <trkpt lat="48.765285" lon="2.128173">
        <ele>151.943709</ele>
        <time>2025-09-07T22:56:22.259Z</time>
      </trkpt>
      <trkpt lat="48.764983" lon="2.127953">
        <ele>152.565000</ele>
        <time>2025-09-07T22:56:32.766Z</time>
      </trkpt>
      <trkpt lat="48.761041" lon="2.125067">
        <ele>156.518885</ele>
        <time>2025-09-07T22:58:31.267Z</time>
      </trkpt>
      <trkpt lat="48.760964" lon="2.125014">
        <ele>156.509078</ele>
        <time>2025-09-07T22:58:33.249Z</time>
      </trkpt>
      <trkpt lat="48.760913" lon="2.125017">
        <ele>156.503158</ele>
        <time>2025-09-07T22:58:34.395Z</time>
      </trkpt>
      <trkpt lat="48.760815" lon="2.125040">
        <ele>156.491656</ele>
        <time>2025-09-07T22:58:36.654Z</time>
      </trkpt>
      <trkpt lat="48.760767" lon="2.125107">
        <ele>156.484091</ele>
        <time>2025-09-07T22:58:38.109Z</time>
      </trkpt>
      <trkpt lat="48.760739" lon="2.125072">
        <ele>156.479883</ele>
        <time>2025-09-07T22:58:38.909Z</time>
      </trkpt>
      <trkpt lat="48.760697" lon="2.125018">
        <ele>156.473497</ele>
        <time>2025-09-07T22:58:40.119Z</time>
      </trkpt>
      <trkpt lat="48.760678" lon="2.124995">
        <ele>156.470678</ele>
        <time>2025-09-07T22:58:40.647Z</time>
      </trkpt>
      <trkpt lat="48.760653" lon="2.124952">
        <ele>156.466294</ele>
        <time>2025-09-07T22:58:41.470Z</time>
      </trkpt>
      <trkpt lat="48.760624" lon="2.124774">
        <ele>156.452275</ele>
        <time>2025-09-07T22:58:44.068Z</time>
      </trkpt>
      <trkpt lat="48.759875" lon="2.124218">
        <ele>156.142994</ele>
        <time>2025-09-07T22:59:00.893Z</time>
      </trkpt>
      <trkpt lat="48.759005" lon="2.123584">
        <ele>154.475392</ele>
        <time>2025-09-07T22:59:18.987Z</time>
      </trkpt>
      <trkpt lat="48.758830" lon="2.123353">
        <ele>154.074587</ele>
        <time>2025-09-07T22:59:23.205Z</time>
      </trkpt>
      <trkpt lat="48.757434" lon="2.122328">
        <ele>151.211436</ele>
        <time>2025-09-07T22:59:51.330Z</time>
      </trkpt>
      <trkpt lat="48.755715" lon="2.121095">
        <ele>148.289153</ele>
        <time>2025-09-07T23:00:27.603Z</time>
      </trkpt>
      <trkpt lat="48.755483" lon="2.120955">
        <ele>147.959971</ele>
        <time>2025-09-07T23:00:32.385Z</time>
      </trkpt>
      <trkpt lat="48.755127" lon="2.120796">
        <ele>147.478936</ele>
        <time>2025-09-07T23:00:39.663Z</time>
      </trkpt>
      <trkpt lat="48.754569" lon="2.120659">
        <ele>147.465797</ele>
        <time>2025-09-07T23:00:51.130Z</time>
      </trkpt>
      <trkpt lat="48.750931" lon="2.120140">
        <ele>148.929391</ele>
        <time>2025-09-07T23:02:20.524Z</time>
      </trkpt>
      <trkpt lat="48.750869" lon="2.120129">
        <ele>148.998003</ele>
        <time>2025-09-07T23:02:22.213Z</time>
      </trkpt>
      <trkpt lat="48.750846" lon="2.120125">
        <ele>149.023449</ele>
        <time>2025-09-07T23:02:22.833Z</time>
      </trkpt>
      <trkpt lat="48.750544" lon="2.120086">
        <ele>149.356595</ele>
        <time>2025-09-07T23:02:31.216Z</time>
      </trkpt>
      <trkpt lat="48.750420" lon="2.120154">
        <ele>149.501525</ele>
        <time>2025-09-07T23:02:34.931Z</time>
      </trkpt>
      <trkpt lat="48.750395" lon="2.120132">
        <ele>149.533295</ele>
        <time>2025-09-07T23:02:35.790Z</time>
      </trkpt>
      <trkpt lat="48.750350" lon="2.119985">
        <ele>149.650751</ele>
        <time>2025-09-07T23:02:38.877Z</time>
      </trkpt>
      <trkpt lat="48.750324" lon="2.119927">
        <ele>149.701579</ele>
        <time>2025-09-07T23:02:40.220Z</time>
      </trkpt>
      <trkpt lat="48.750230" lon="2.119849">
        <ele>149.819352</ele>
        <time>2025-09-07T23:02:43.392Z</time>
      </trkpt>
      <trkpt lat="48.750140" lon="2.119794">
        <ele>149.926005</ele>
        <time>2025-09-07T23:02:46.324Z</time>
      </trkpt>
      <trkpt lat="48.749992" lon="2.119765">
        <ele>150.090031</ele>
        <time>2025-09-07T23:02:50.915Z</time>
      </trkpt>
      <trkpt lat="48.749908" lon="2.119751">
        <ele>150.182916</ele>
        <time>2025-09-07T23:02:53.569Z</time>
      </trkpt>
      <trkpt lat="48.749828" lon="2.119811">
        <ele>150.327718</ele>
        <time>2025-09-07T23:02:56.443Z</time>
      </trkpt>
      <trkpt lat="48.749244" lon="2.119667">
        <ele>151.442956</ele>
        <time>2025-09-07T23:03:16.057Z</time>
      </trkpt>
      <trkpt lat="48.748929" lon="2.119518">
        <ele>152.064910</ele>
        <time>2025-09-07T23:03:26.841Z</time>
      </trkpt>
      <trkpt lat="48.748649" lon="2.119305">
        <ele>152.655353</ele>
        <time>2025-09-07T23:03:36.980Z</time>
      </trkpt>
      <trkpt lat="48.748150" lon="2.118742">
        <ele>153.721233</ele>
        <time>2025-09-07T23:03:56.404Z</time>
      </trkpt>
      <trkpt lat="48.747953" lon="2.118403">
        <ele>154.013263</ele>
        <time>2025-09-07T23:04:05.175Z</time>
      </trkpt>
      <trkpt lat="48.747698" lon="2.117860">
        <ele>154.444096</ele>
        <time>2025-09-07T23:04:16.763Z</time>
      </trkpt>
      <trkpt lat="48.747687" lon="2.117796">
        <ele>154.486840</ele>
        <time>2025-09-07T23:04:17.895Z</time>
      </trkpt>
      <trkpt lat="48.747711" lon="2.117653">
        <ele>154.582204</ele>
        <time>2025-09-07T23:04:20.416Z</time>
      </trkpt>
      <trkpt lat="48.747682" lon="2.117525">
        <ele>154.669675</ele>
        <time>2025-09-07T23:04:22.701Z</time>
      </trkpt>
      <trkpt lat="48.747617" lon="2.117442">
        <ele>154.752958</ele>
        <time>2025-09-07T23:04:24.894Z</time>
      </trkpt>
      <trkpt lat="48.747527" lon="2.117407">
        <ele>154.844024</ele>
        <time>2025-09-07T23:04:27.241Z</time>
      </trkpt>
      <trkpt lat="48.747469" lon="2.117284">
        <ele>154.941752</ele>
        <time>2025-09-07T23:04:29.807Z</time>
      </trkpt>
      <trkpt lat="48.747336" lon="2.117019">
        <ele>155.156984</ele>
        <time>2025-09-07T23:04:35.324Z</time>
      </trkpt>
      <trkpt lat="48.747226" lon="2.116921">
        <ele>155.282026</ele>
        <time>2025-09-07T23:04:38.531Z</time>
      </trkpt>
      <trkpt lat="48.747014" lon="2.116364">
        <ele>155.711348</ele>
        <time>2025-09-07T23:04:49.408Z</time>
      </trkpt>
      <trkpt lat="48.746886" lon="2.115926">
        <ele>156.033855</ele>
        <time>2025-09-07T23:04:57.484Z</time>
      </trkpt>
      <trkpt lat="48.746804" lon="2.115705">
        <ele>156.204561</ele>
        <time>2025-09-07T23:05:01.834Z</time>
      </trkpt>
      <trkpt lat="48.746762" lon="2.115594">
        <ele>156.290711</ele>
        <time>2025-09-07T23:05:04.176Z</time>
      </trkpt>
      <trkpt lat="48.746384" lon="2.114782">
        <ele>156.959820</ele>
        <time>2025-09-07T23:05:23.068Z</time>
      </trkpt>
      <trkpt lat="48.746174" lon="2.114447">
        <ele>157.252988</ele>
        <time>2025-09-07T23:05:32.034Z</time>
      </trkpt>
      <trkpt lat="48.746142" lon="2.114383">
        <ele>157.292292</ele>
        <time>2025-09-07T23:05:33.591Z</time>
      </trkpt>
      <trkpt lat="48.746136" lon="2.114249">
        <ele>157.358016</ele>
        <time>2025-09-07T23:05:36.220Z</time>
      </trkpt>
      <trkpt lat="48.746150" lon="2.114180">
        <ele>157.393344</ele>
        <time>2025-09-07T23:05:37.602Z</time>
      </trkpt>
      <trkpt lat="48.746140" lon="2.113938">
        <ele>157.511999</ele>
        <time>2025-09-07T23:05:42.209Z</time>
      </trkpt>
      <trkpt lat="48.746087" lon="2.113769">
        <ele>157.603576</ele>
        <time>2025-09-07T23:05:45.704Z</time>
      </trkpt>
      <trkpt lat="48.746060" lon="2.113657">
        <ele>157.661932</ele>
        <time>2025-09-07T23:05:47.901Z</time>
      </trkpt>
      <trkpt lat="48.746060" lon="2.113374">
        <ele>157.800418</ele>
        <time>2025-09-07T23:05:52.989Z</time>
      </trkpt>
      <trkpt lat="48.746063" lon="2.113220">
        <ele>157.875811</ele>
        <time>2025-09-07T23:05:55.634Z</time>
      </trkpt>
      <trkpt lat="48.746064" lon="2.113124">
        <ele>157.922795</ele>
        <time>2025-09-07T23:05:57.245Z</time>
      </trkpt>
      <trkpt lat="48.746044" lon="2.113102">
        <ele>157.941131</ele>
        <time>2025-09-07T23:05:57.856Z</time>
      </trkpt>
      <trkpt lat="48.745943" lon="2.113106">
        <ele>158.016110</ele>
        <time>2025-09-07T23:06:00.295Z</time>
      </trkpt>
      <trkpt lat="48.745907" lon="2.113107">
        <ele>158.042831</ele>
        <time>2025-09-07T23:06:01.208Z</time>
      </trkpt>
      <trkpt lat="48.745923" lon="2.112837">
        <ele>158.175489</ele>
        <time>2025-09-07T23:06:05.547Z</time>
      </trkpt>
      <trkpt lat="48.745940" lon="2.112570">
        <ele>158.306754</ele>
        <time>2025-09-07T23:06:09.635Z</time>
      </trkpt>
      <trkpt lat="48.745955" lon="2.112278">
        <ele>158.450078</ele>
        <time>2025-09-07T23:06:14.118Z</time>
      </trkpt>
      <trkpt lat="48.745962" lon="2.112140">
        <ele>158.517809</ele>
        <time>2025-09-07T23:06:16.256Z</time>
      </trkpt>
      <trkpt lat="48.746004" lon="2.111914">
        <ele>158.569998</ele>
        <time>2025-09-07T23:06:19.758Z</time>
      </trkpt>
      <trkpt lat="48.746026" lon="2.111818">
        <ele>158.586124</ele>
        <time>2025-09-07T23:06:21.228Z</time>
      </trkpt>
      <trkpt lat="48.746016" lon="2.111782">
        <ele>158.592322</ele>
        <time>2025-09-07T23:06:21.817Z</time>
      </trkpt>
      <trkpt lat="48.746069" lon="2.111648">
        <ele>158.617116</ele>
        <time>2025-09-07T23:06:24.161Z</time>
      </trkpt>
      <trkpt lat="48.746065" lon="2.111569">
        <ele>158.629687</ele>
        <time>2025-09-07T23:06:25.344Z</time>
      </trkpt>
      <trkpt lat="48.746097" lon="2.111037">
        <ele>158.714449</ele>
        <time>2025-09-07T23:06:33.162Z</time>
      </trkpt>
      <trkpt lat="48.746098" lon="2.110484">
        <ele>158.802192</ele>
        <time>2025-09-07T23:06:41.477Z</time>
      </trkpt>
      <trkpt lat="48.746076" lon="2.109085">
        <ele>159.054132</ele>
        <time>2025-09-07T23:07:04.410Z</time>
      </trkpt>
      <trkpt lat="48.746070" lon="2.108658">
        <ele>159.161226</ele>
        <time>2025-09-07T23:07:11.315Z</time>
      </trkpt>
      <trkpt lat="48.746044" lon="2.108082">
        <ele>159.305994</ele>
        <time>2025-09-07T23:07:20.532Z</time>
      </trkpt>
      <trkpt lat="48.746016" lon="2.107975">
        <ele>159.334859</ele>
        <time>2025-09-07T23:07:22.357Z</time>
      </trkpt>
      <trkpt lat="48.745936" lon="2.107663">
        <ele>159.418799</ele>
        <time>2025-09-07T23:07:27.649Z</time>
      </trkpt>
      <trkpt lat="48.745723" lon="2.107287">
        <ele>159.543094</ele>
        <time>2025-09-07T23:07:35.438Z</time>
      </trkpt>
      <trkpt lat="48.745072" lon="2.106413">
        <ele>159.790950</ele>
        <time>2025-09-07T23:07:55.903Z</time>
      </trkpt>
      <trkpt lat="48.745082" lon="2.106342">
        <ele>159.802212</ele>
        <time>2025-09-07T23:07:57.037Z</time>
      </trkpt>
      <trkpt lat="48.745488" lon="2.101263">
        <ele>160.540878</ele>
        <time>2025-09-07T23:09:15.591Z</time>
      </trkpt>
      <trkpt lat="48.745559" lon="2.100947">
        <ele>160.567784</ele>
        <time>2025-09-07T23:09:20.909Z</time>
      </trkpt>
      <trkpt lat="48.746231" lon="2.098947">
        <ele>160.570956</ele>
        <time>2025-09-07T23:09:54.831Z</time>
      </trkpt>
      <trkpt lat="48.746255" lon="2.098826">
        <ele>160.531219</ele>
        <time>2025-09-07T23:09:56.595Z</time>
      </trkpt>
      <trkpt lat="48.746184" lon="2.098794">
        <ele>160.495893</ele>
        <time>2025-09-07T23:09:58.164Z</time>
      </trkpt>
      <trkpt lat="48.745903" lon="2.098540">
        <ele>160.339875</ele>
        <time>2025-09-07T23:10:04.978Z</time>
      </trkpt>
      <trkpt lat="48.745619" lon="2.098354">
        <ele>160.192335</ele>
        <time>2025-09-07T23:10:11.328Z</time>
      </trkpt>
      <trkpt lat="48.745252" lon="2.098221">
        <ele>160.012373</ele>
        <time>2025-09-07T23:10:18.913Z</time>
      </trkpt>
      <trkpt lat="48.742728" lon="2.097869">
        <ele>158.213900</ele>
        <time>2025-09-07T23:11:10.578Z</time>
      </trkpt>
      <trkpt lat="48.742455" lon="2.097901">
        <ele>158.018654</ele>
        <time>2025-09-07T23:11:16.119Z</time>
      </trkpt>
      <trkpt lat="48.742019" lon="2.098052">
        <ele>157.699755</ele>
        <time>2025-09-07T23:11:25.233Z</time>
      </trkpt>
      <trkpt lat="48.741731" lon="2.098035">
        <ele>157.494239</ele>
        <time>2025-09-07T23:11:31.099Z</time>
      </trkpt>
      <trkpt lat="48.741394" lon="2.097959">
        <ele>157.251295</ele>
        <time>2025-09-07T23:11:38.030Z</time>
      </trkpt>
      <trkpt lat="48.740820" lon="2.097768">
        <ele>157.134907</ele>
        <time>2025-09-07T23:11:50.564Z</time>
      </trkpt>
      <trkpt lat="48.740668" lon="2.097415">
        <ele>157.091280</ele>
        <time>2025-09-07T23:11:56.866Z</time>
      </trkpt>
      <trkpt lat="48.740604" lon="2.097194">
        <ele>157.066302</ele>
        <time>2025-09-07T23:12:00.495Z</time>
      </trkpt>
      <trkpt lat="48.740638" lon="2.097100">
        <ele>157.055208</ele>
        <time>2025-09-07T23:12:02.055Z</time>
      </trkpt>
      <trkpt lat="48.740666" lon="2.096891">
        <ele>157.033138</ele>
        <time>2025-09-07T23:12:05.154Z</time>
      </trkpt>
      <trkpt lat="48.740627" lon="2.096692">
        <ele>157.011655</ele>
        <time>2025-09-07T23:12:08.182Z</time>
      </trkpt>
      <trkpt lat="48.740568" lon="2.096544">
        <ele>156.993758</ele>
        <time>2025-09-07T23:12:10.698Z</time>
      </trkpt>
      <trkpt lat="48.740547" lon="2.096489">
        <ele>156.987181</ele>
        <time>2025-09-07T23:12:11.669Z</time>
      </trkpt>
      <trkpt lat="48.740445" lon="2.096393">
        <ele>156.968343</ele>
        <time>2025-09-07T23:12:14.364Z</time>
      </trkpt>
      <trkpt lat="48.740242" lon="2.096364">
        <ele>156.935936</ele>
        <time>2025-09-07T23:12:19.044Z</time>
      </trkpt>
      <trkpt lat="48.740124" lon="2.096452">
        <ele>156.910343</ele>
        <time>2025-09-07T23:12:22.101Z</time>
      </trkpt>
      <trkpt lat="48.739989" lon="2.096373">
        <ele>156.882179</ele>
        <time>2025-09-07T23:12:25.520Z</time>
      </trkpt>
      <trkpt lat="48.739725" lon="2.095948">
        <ele>156.807240</ele>
        <time>2025-09-07T23:12:34.316Z</time>
      </trkpt>
      <trkpt lat="48.739702" lon="2.095912">
        <ele>156.800807</ele>
        <time>2025-09-07T23:12:35.037Z</time>
      </trkpt>
      <trkpt lat="48.739505" lon="2.095604">
        <ele>156.745735</ele>
        <time>2025-09-07T23:12:41.258Z</time>
      </trkpt>
      <trkpt lat="48.739142" lon="2.094965">
        <ele>156.637483</ele>
        <time>2025-09-07T23:12:53.063Z</time>
      </trkpt>
      <trkpt lat="48.739006" lon="2.094787">
        <ele>156.602517</ele>
        <time>2025-09-07T23:12:56.796Z</time>
      </trkpt>
      <trkpt lat="48.738829" lon="2.094614">
        <ele>156.487661</ele>
        <time>2025-09-07T23:13:01.186Z</time>
      </trkpt>
      <trkpt lat="48.738667" lon="2.094473">
        <ele>156.349819</ele>
        <time>2025-09-07T23:13:05.049Z</time>
      </trkpt>
      <trkpt lat="48.738316" lon="2.094161">
        <ele>156.049572</ele>
        <time>2025-09-07T23:13:13.222Z</time>
      </trkpt>
      <trkpt lat="48.738156" lon="2.094019">
        <ele>155.912762</ele>
        <time>2025-09-07T23:13:16.922Z</time>
      </trkpt>
      <trkpt lat="48.738236" lon="2.093554">
        <ele>155.678883</ele>
        <time>2025-09-07T23:13:23.946Z</time>
      </trkpt>
      <trkpt lat="48.738582" lon="2.092266">
        <ele>155.267103</ele>
        <time>2025-09-07T23:13:45.047Z</time>
      </trkpt>
      <trkpt lat="48.738757" lon="2.091531">
        <ele>155.276543</ele>
        <time>2025-09-07T23:13:57.403Z</time>
      </trkpt>
      <trkpt lat="48.738804" lon="2.091377">
        <ele>155.278592</ele>
        <time>2025-09-07T23:14:00.022Z</time>
      </trkpt>
      <trkpt lat="48.738750" lon="2.091186">
        <ele>155.281103</ele>
        <time>2025-09-07T23:14:03.556Z</time>
      </trkpt>
      <trkpt lat="48.738648" lon="2.089938">
        <ele>155.270766</ele>
        <time>2025-09-07T23:14:26.772Z</time>
      </trkpt>
      <trkpt lat="48.738686" lon="2.089724">
        <ele>155.247800</ele>
        <time>2025-09-07T23:14:30.888Z</time>
      </trkpt>
      <trkpt lat="48.738742" lon="2.088953">
        <ele>155.167423</ele>
        <time>2025-09-07T23:14:44.656Z</time>
      </trkpt>
      <trkpt lat="48.738754" lon="2.088761">
        <ele>155.147438</ele>
        <time>2025-09-07T23:14:47.800Z</time>
      </trkpt>
      <trkpt lat="48.738842" lon="2.087990">
        <ele>155.066356</ele>
        <time>2025-09-07T23:15:00.079Z</time>
      </trkpt>
      <trkpt lat="48.738886" lon="2.087680">
        <ele>155.033497</ele>
        <time>2025-09-07T23:15:04.733Z</time>
      </trkpt>
      <trkpt lat="48.739359" lon="2.087345">
        <ele>153.814645</ele>
        <time>2025-09-07T23:15:16.114Z</time>
      </trkpt>
      <trkpt lat="48.739525" lon="2.087226">
        <ele>153.234972</ele>
        <time>2025-09-07T23:15:19.984Z</time>
      </trkpt>
      <trkpt lat="48.739632" lon="2.087209">
        <ele>152.895325</ele>
        <time>2025-09-07T23:15:22.178Z</time>
      </trkpt>
      <trkpt lat="48.739658" lon="2.086947">
        <ele>152.343707</ele>
        <time>2025-09-07T23:15:27.667Z</time>
      </trkpt>
      <trkpt lat="48.739347" lon="2.086880">
        <ele>151.352024</ele>
        <time>2025-09-07T23:15:33.029Z</time>
      </trkpt>
      <trkpt lat="48.738991" lon="2.086811">
        <ele>150.218993</ele>
        <time>2025-09-07T23:15:38.965Z</time>
      </trkpt>
      <trkpt lat="48.738582" lon="2.086777">
        <ele>148.052217</ele>
        <time>2025-09-07T23:15:45.481Z</time>
      </trkpt>
      <trkpt lat="48.738298" lon="2.086801">
        <ele>145.226137</ele>
        <time>2025-09-07T23:15:49.805Z</time>
      </trkpt>
      <trkpt lat="48.738076" lon="2.086867">
        <ele>142.978444</ele>
        <time>2025-09-07T23:15:53.109Z</time>
      </trkpt>
      <trkpt lat="48.737814" lon="2.087007">
        <ele>140.218413</ele>
        <time>2025-09-07T23:15:57.053Z</time>
      </trkpt>
      <trkpt lat="48.737888" lon="2.086696">
        <ele>138.051992</ele>
        <time>2025-09-07T23:16:02.512Z</time>
      </trkpt>
      <trkpt lat="48.738022" lon="2.086412">
        <ele>135.763855</ele>
        <time>2025-09-07T23:16:08.165Z</time>
      </trkpt>
      <trkpt lat="48.738369" lon="2.086012">
        <ele>131.436473</ele>
        <time>2025-09-07T23:16:18.799Z</time>
      </trkpt>
      <trkpt lat="48.738580" lon="2.085707">
        <ele>128.880823</ele>
        <time>2025-09-07T23:16:26.103Z</time>
      </trkpt>
      <trkpt lat="48.738635" lon="2.085052">
        <ele>125.063267</ele>
        <time>2025-09-07T23:16:37.169Z</time>
      </trkpt>
      <trkpt lat="48.738758" lon="2.084904">
        <ele>123.686692</ele>
        <time>2025-09-07T23:16:41.247Z</time>
      </trkpt>
      <trkpt lat="48.738802" lon="2.084851">
        <ele>123.194055</ele>
        <time>2025-09-07T23:16:42.745Z</time>
      </trkpt>
      <trkpt lat="48.739137" lon="2.084686">
        <ele>120.106130</ele>
        <time>2025-09-07T23:16:52.050Z</time>
      </trkpt>
      <trkpt lat="48.739482" lon="2.083898">
        <ele>115.454454</ele>
        <time>2025-09-07T23:17:09.892Z</time>
      </trkpt>
      <trkpt lat="48.739576" lon="2.083581">
        <ele>114.998961</ele>
        <time>2025-09-07T23:17:17.160Z</time>
      </trkpt>
      <trkpt lat="48.739588" lon="2.083542">
        <ele>114.942562</ele>
        <time>2025-09-07T23:17:18.056Z</time>
      </trkpt>
      <trkpt lat="48.739438" lon="2.082712">
        <ele>113.814741</ele>
        <time>2025-09-07T23:17:35.701Z</time>
      </trkpt>
      <trkpt lat="48.739414" lon="2.082567">
        <ele>113.618824</ele>
        <time>2025-09-07T23:17:38.935Z</time>
      </trkpt>
      <trkpt lat="48.739375" lon="2.082329">
        <ele>113.297440</ele>
        <time>2025-09-07T23:17:44.366Z</time>
      </trkpt>
      <trkpt lat="48.739213" lon="2.081802">
        <ele>112.535459</ele>
        <time>2025-09-07T23:17:58.180Z</time>
      </trkpt>
      <trkpt lat="48.738905" lon="2.081529">
        <ele>112.151373</ele>
        <time>2025-09-07T23:18:12.953Z</time>
      </trkpt>
      <trkpt lat="48.738881" lon="2.081465">
        <ele>112.161814</ele>
        <time>2025-09-07T23:18:15.102Z</time>
      </trkpt>
      <trkpt lat="48.738937" lon="2.080971">
        <ele>112.232900</ele>
        <time>2025-09-07T23:18:30.130Z</time>
      </trkpt>
      <trkpt lat="48.738874" lon="2.080921">
        <ele>112.248192</ele>
        <time>2025-09-07T23:18:33.376Z</time>
      </trkpt>
      <trkpt lat="48.738809" lon="2.080946">
        <ele>112.262612</ele>
        <time>2025-09-07T23:18:35.618Z</time>
      </trkpt>
      <trkpt lat="48.738379" lon="2.081351">
        <ele>112.371467</ele>
        <time>2025-09-07T23:18:51.091Z</time>
      </trkpt>
      <trkpt lat="48.737693" lon="2.082402">
        <ele>112.207698</ele>
        <time>2025-09-07T23:19:12.498Z</time>
      </trkpt>
      <trkpt lat="48.737418" lon="2.082674">
        <ele>111.925492</ele>
        <time>2025-09-07T23:19:19.231Z</time>
      </trkpt>
      <trkpt lat="48.737106" lon="2.082852">
        <ele>111.638972</ele>
        <time>2025-09-07T23:19:26.222Z</time>
      </trkpt>
      <trkpt lat="48.736938" lon="2.082912">
        <ele>111.490624</ele>
        <time>2025-09-07T23:19:29.940Z</time>
      </trkpt>
      <trkpt lat="48.736410" lon="2.082933">
        <ele>111.036649</ele>
        <time>2025-09-07T23:19:42.275Z</time>
      </trkpt>
      <trkpt lat="48.735869" lon="2.083068">
        <ele>112.214114</ele>
        <time>2025-09-07T23:19:59.015Z</time>
      </trkpt>
      <trkpt lat="48.735109" lon="2.083538">
        <ele>114.452554</ele>
        <time>2025-09-07T23:20:31.995Z</time>
      </trkpt>
      <trkpt lat="48.734713" lon="2.083598">
        <ele>115.537901</ele>
        <time>2025-09-07T23:20:48.740Z</time>
      </trkpt>
      <trkpt lat="48.734553" lon="2.083866">
        <ele>116.844179</ele>
        <time>2025-09-07T23:20:59.198Z</time>
      </trkpt>
      <trkpt lat="48.734466" lon="2.084046">
        <ele>118.062462</ele>
        <time>2025-09-07T23:21:06.362Z</time>
      </trkpt>
      <trkpt lat="48.734369" lon="2.084170">
        <ele>119.112653</ele>
        <time>2025-09-07T23:21:12.930Z</time>
      </trkpt>
      <trkpt lat="48.733968" lon="2.084482">
        <ele>122.843365</ele>
        <time>2025-09-07T23:21:39.471Z</time>
      </trkpt>
      <trkpt lat="48.733779" lon="2.084681">
        <ele>124.748001</ele>
        <time>2025-09-07T23:21:54.586Z</time>
      </trkpt>
      <trkpt lat="48.733689" lon="2.084596">
        <ele>125.625665</ele>
        <time>2025-09-07T23:22:02.017Z</time>
      </trkpt>
      <trkpt lat="48.733070" lon="2.083360">
        <ele>135.192750</ele>
        <time>2025-09-07T23:23:28.703Z</time>
      </trkpt>
      <trkpt lat="48.732383" lon="2.082359">
        <ele>145.660449</ele>
        <time>2025-09-07T23:24:52.811Z</time>
      </trkpt>
      <trkpt lat="48.732342" lon="2.082297">
        <ele>146.296621</ele>
        <time>2025-09-07T23:24:57.144Z</time>
      </trkpt>
      <trkpt lat="48.731469" lon="2.081567">
        <ele>153.390022</ele>
        <time>2025-09-07T23:25:55.931Z</time>
      </trkpt>
      <trkpt lat="48.731193" lon="2.082111">
        <ele>155.513835</ele>
        <time>2025-09-07T23:26:21.140Z</time>
      </trkpt>
      <trkpt lat="48.731105" lon="2.082028">
        <ele>156.000066</ele>
        <time>2025-09-07T23:26:26.559Z</time>
      </trkpt>
      <trkpt lat="48.730583" lon="2.081540">
        <ele>158.877235</ele>
        <time>2025-09-07T23:26:56.951Z</time>
      </trkpt>
      <trkpt lat="48.730201" lon="2.081278">
        <ele>159.785057</ele>
        <time>2025-09-07T23:27:16.997Z</time>
      </trkpt>
      <trkpt lat="48.730045" lon="2.081406">
        <ele>160.151456</ele>
        <time>2025-09-07T23:27:25.578Z</time>
      </trkpt>
      <trkpt lat="48.729967" lon="2.081373">
        <ele>160.318729</ele>
        <time>2025-09-07T23:27:29.480Z</time>
      </trkpt>
      <trkpt lat="48.729765" lon="2.081088">
        <ele>160.888714</ele>
        <time>2025-09-07T23:27:42.823Z</time>
      </trkpt>
      <trkpt lat="48.728912" lon="2.081396">
        <ele>162.677683</ele>
        <time>2025-09-07T23:28:13.474Z</time>
      </trkpt>
      <trkpt lat="48.728881" lon="2.081317">
        <ele>162.717920</ele>
        <time>2025-09-07T23:28:15.497Z</time>
      </trkpt>
      <trkpt lat="48.728802" lon="2.081408">
        <ele>162.783761</ele>
        <time>2025-09-07T23:28:22.398Z</time>
      </trkpt>
      <trkpt lat="48.728773" lon="2.081251">
        <ele>162.855128</ele>
        <time>2025-09-07T23:28:25.439Z</time>
      </trkpt>
      <trkpt lat="48.728715" lon="2.081196">
        <ele>162.900526</ele>
        <time>2025-09-07T23:28:27.331Z</time>
      </trkpt>
      <trkpt lat="48.728627" lon="2.081031">
        <ele>162.993406</ele>
        <time>2025-09-07T23:28:31.102Z</time>
      </trkpt>
      <trkpt lat="48.728609" lon="2.080899">
        <ele>163.052408</ele>
        <time>2025-09-07T23:28:33.405Z</time>
      </trkpt>
      <trkpt lat="48.728621" lon="2.080814">
        <ele>163.090458</ele>
        <time>2025-09-07T23:28:34.870Z</time>
      </trkpt>
      <trkpt lat="48.728701" lon="2.080617">
        <ele>163.191722</ele>
        <time>2025-09-07T23:28:38.713Z</time>
      </trkpt>
      <trkpt lat="48.728938" lon="2.080043">
        <ele>163.488141</ele>
        <time>2025-09-07T23:28:49.423Z</time>
      </trkpt>
      <trkpt lat="48.729081" lon="2.079663">
        <ele>163.679643</ele>
        <time>2025-09-07T23:28:55.962Z</time>
      </trkpt>
      <trkpt lat="48.729140" lon="2.079398">
        <ele>163.802069</ele>
        <time>2025-09-07T23:29:00.068Z</time>
      </trkpt>
      <trkpt lat="48.729172" lon="2.079038">
        <ele>163.875307</ele>
        <time>2025-09-07T23:29:05.552Z</time>
      </trkpt>
      <trkpt lat="48.729155" lon="2.078676">
        <ele>163.898390</ele>
        <time>2025-09-07T23:29:11.136Z</time>
      </trkpt>
      <trkpt lat="48.729167" lon="2.078561">
        <ele>163.905795</ele>
        <time>2025-09-07T23:29:12.937Z</time>
      </trkpt>
      <trkpt lat="48.729091" lon="2.078282">
        <ele>163.924994</ele>
        <time>2025-09-07T23:29:17.663Z</time>
      </trkpt>
      <trkpt lat="48.729028" lon="2.078128">
        <ele>163.936520</ele>
        <time>2025-09-07T23:29:20.508Z</time>
      </trkpt>
      <trkpt lat="48.728723" lon="2.077959">
        <ele>163.967833</ele>
        <time>2025-09-07T23:29:28.178Z</time>
      </trkpt>
      <trkpt lat="48.728194" lon="2.077514">
        <ele>164.026168</ele>
        <time>2025-09-07T23:29:42.072Z</time>
      </trkpt>
      <trkpt lat="48.727556" lon="2.076960">
        <ele>163.217824</ele>
        <time>2025-09-07T23:29:59.341Z</time>
      </trkpt>
      <trkpt lat="48.726048" lon="2.075602">
        <ele>160.219387</ele>
        <time>2025-09-07T23:30:56.958Z</time>
      </trkpt>
      <trkpt lat="48.725729" lon="2.075289">
        <ele>159.241444</ele>
        <time>2025-09-07T23:31:08.861Z</time>
      </trkpt>
      <trkpt lat="48.724918" lon="2.074660">
        <ele>156.819623</ele>
        <time>2025-09-07T23:31:36.973Z</time>
      </trkpt>
      <trkpt lat="48.724409" lon="2.074159">
        <ele>154.788793</ele>
        <time>2025-09-07T23:31:55.918Z</time>
      </trkpt>
      <trkpt lat="48.724024" lon="2.073720">
        <ele>153.176670</ele>
        <time>2025-09-07T23:32:10.975Z</time>
      </trkpt>
      <trkpt lat="48.723960" lon="2.073241">
        <ele>152.097798</ele>
        <time>2025-09-07T23:32:20.873Z</time>
      </trkpt>
      <trkpt lat="48.723984" lon="2.073088">
        <ele>151.750630</ele>
        <time>2025-09-07T23:32:23.977Z</time>
      </trkpt>
      <trkpt lat="48.723834" lon="2.072847">
        <ele>150.926546</ele>
        <time>2025-09-07T23:32:30.454Z</time>
      </trkpt>
      <trkpt lat="48.723245" lon="2.072309">
        <ele>146.794022</ele>
        <time>2025-09-07T23:32:50.185Z</time>
      </trkpt>
      <trkpt lat="48.723180" lon="2.072037">
        <ele>145.647125</ele>
        <time>2025-09-07T23:32:55.498Z</time>
      </trkpt>
      <trkpt lat="48.722695" lon="2.071381">
        <ele>141.740915</ele>
        <time>2025-09-07T23:33:13.252Z</time>
      </trkpt>
      <trkpt lat="48.722449" lon="2.070994">
        <ele>139.366593</ele>
        <time>2025-09-07T23:33:22.837Z</time>
      </trkpt>
      <trkpt lat="48.722076" lon="2.070597">
        <ele>135.695818</ele>
        <time>2025-09-07T23:33:35.203Z</time>
      </trkpt>
      <trkpt lat="48.721691" lon="2.070308">
        <ele>132.235610</ele>
        <time>2025-09-07T23:33:46.787Z</time>
      </trkpt>
      <trkpt lat="48.721197" lon="2.069764">
        <ele>127.317767</ele>
        <time>2025-09-07T23:34:02.994Z</time>
      </trkpt>
      <trkpt lat="48.720979" lon="2.069564">
        <ele>125.012888</ele>
        <time>2025-09-07T23:34:09.646Z</time>
      </trkpt>
      <trkpt lat="48.720760" lon="2.069399">
        <ele>122.177895</ele>
        <time>2025-09-07T23:34:15.945Z</time>
      </trkpt>
      <trkpt lat="48.720598" lon="2.069344">
        <ele>120.253440</ele>
        <time>2025-09-07T23:34:20.176Z</time>
      </trkpt>
      <trkpt lat="48.720522" lon="2.069269">
        <ele>119.202176</ele>
        <time>2025-09-07T23:34:22.474Z</time>
      </trkpt>
      <trkpt lat="48.720385" lon="2.069224">
        <ele>117.577193</ele>
        <time>2025-09-07T23:34:26.019Z</time>
      </trkpt>
      <trkpt lat="48.720182" lon="2.069095">
        <ele>115.025553</ele>
        <time>2025-09-07T23:34:31.552Z</time>
      </trkpt>
      <trkpt lat="48.719867" lon="2.069151">
        <ele>111.349001</ele>
        <time>2025-09-07T23:34:39.432Z</time>
      </trkpt>
      <trkpt lat="48.719662" lon="2.069063">
        <ele>108.879152</ele>
        <time>2025-09-07T23:34:44.688Z</time>
      </trkpt>
      <trkpt lat="48.719604" lon="2.068978">
        <ele>107.943933</ele>
        <time>2025-09-07T23:34:46.678Z</time>
      </trkpt>
      <trkpt lat="48.719578" lon="2.068781">
        <ele>106.407456</ele>
        <time>2025-09-07T23:34:49.939Z</time>
      </trkpt>
      <trkpt lat="48.719469" lon="2.068485">
        <ele>104.019442</ele>
        <time>2025-09-07T23:34:55.401Z</time>
      </trkpt>
      <trkpt lat="48.719488" lon="2.067919">
        <ele>100.439371</ele>
        <time>2025-09-07T23:35:04.619Z</time>
      </trkpt>
      <trkpt lat="48.719525" lon="2.067731">
        <ele>99.200053</ele>
        <time>2025-09-07T23:35:07.823Z</time>
      </trkpt>
      <trkpt lat="48.719512" lon="2.067589">
        <ele>98.294439</ele>
        <time>2025-09-07T23:35:10.179Z</time>
      </trkpt>
      <trkpt lat="48.719445" lon="2.067229">
        <ele>95.931550</ele>
        <time>2025-09-07T23:35:16.412Z</time>
      </trkpt>
      <trkpt lat="48.719315" lon="2.067023">
        <ele>94.130772</ele>
        <time>2025-09-07T23:35:21.255Z</time>
      </trkpt>
      <trkpt lat="48.719454" lon="2.066782">
        <ele>92.108625</ele>
        <time>2025-09-07T23:35:26.864Z</time>
      </trkpt>
      <trkpt lat="48.719404" lon="2.066453">
        <ele>89.975888</ele>
        <time>2025-09-07T23:35:32.953Z</time>
      </trkpt>
      <trkpt lat="48.719411" lon="2.066217">
        <ele>88.483559</ele>
        <time>2025-09-07T23:35:37.400Z</time>
      </trkpt>
      <trkpt lat="48.719709" lon="2.066082">
        <ele>87.366890</ele>
        <time>2025-09-07T23:35:46.724Z</time>
      </trkpt>
      <trkpt lat="48.720129" lon="2.066027">
        <ele>86.650900</ele>
        <time>2025-09-07T23:36:01.009Z</time>
      </trkpt>
      <trkpt lat="48.720488" lon="2.065926">
        <ele>86.030756</ele>
        <time>2025-09-07T23:36:14.057Z</time>
      </trkpt>
      <trkpt lat="48.720789" lon="2.065705">
        <ele>85.462717</ele>
        <time>2025-09-07T23:36:26.444Z</time>
      </trkpt>
      <trkpt lat="48.720968" lon="2.065527">
        <ele>85.099117</ele>
        <time>2025-09-07T23:36:34.085Z</time>
      </trkpt>
      <trkpt lat="48.721082" lon="2.065334">
        <ele>84.808852</ele>
        <time>2025-09-07T23:36:40.067Z</time>
      </trkpt>
      <trkpt lat="48.721257" lon="2.064811">
        <ele>84.583737</ele>
        <time>2025-09-07T23:36:53.161Z</time>
      </trkpt>
      <trkpt lat="48.721437" lon="2.064369">
        <ele>84.449351</ele>
        <time>2025-09-07T23:37:04.482Z</time>
      </trkpt>
      <trkpt lat="48.721711" lon="2.063943">
        <ele>84.295425</ele>
        <time>2025-09-07T23:37:17.726Z</time>
      </trkpt>
      <trkpt lat="48.721804" lon="2.063758">
        <ele>84.235250</ele>
        <time>2025-09-07T23:37:23.050Z</time>
      </trkpt>
      <trkpt lat="48.721816" lon="2.063630">
        <ele>84.201802</ele>
        <time>2025-09-07T23:37:26.089Z</time>
      </trkpt>
      <trkpt lat="48.721613" lon="2.063255">
        <ele>84.076302</ele>
        <time>2025-09-07T23:37:38.152Z</time>
      </trkpt>
      <trkpt lat="48.721556" lon="2.063155">
        <ele>84.042111</ele>
        <time>2025-09-07T23:37:41.802Z</time>
      </trkpt>
      <trkpt lat="48.721053" lon="2.062277">
        <ele>87.162361</ele>
        <time>2025-09-07T23:38:19.636Z</time>
      </trkpt>
      <trkpt lat="48.720462" lon="2.060684">
        <ele>93.300682</ele>
        <time>2025-09-07T23:39:39.333Z</time>
      </trkpt>
      <trkpt lat="48.720283" lon="2.060069">
        <ele>98.137183</ele>
        <time>2025-09-07T23:40:14.745Z</time>
      </trkpt>
      <trkpt lat="48.719757" lon="2.058064">
        <ele>113.646796</ele>
        <time>2025-09-07T23:42:19.009Z</time>
      </trkpt>
      <trkpt lat="48.719696" lon="2.057893">
        <ele>115.032785</ele>
        <time>2025-09-07T23:42:31.227Z</time>
      </trkpt>
      <trkpt lat="48.719609" lon="2.057473">
        <ele>118.171397</ele>
        <time>2025-09-07T23:43:01.225Z</time>
      </trkpt>
      <trkpt lat="48.719638" lon="2.057294">
        <ele>119.485534</ele>
        <time>2025-09-07T23:43:13.377Z</time>
      </trkpt>
      <trkpt lat="48.719575" lon="2.057107">
        <ele>120.982567</ele>
        <time>2025-09-07T23:43:26.745Z</time>
      </trkpt>
      <trkpt lat="48.719274" lon="2.056970">
        <ele>124.378903</ele>
        <time>2025-09-07T23:43:56.365Z</time>
      </trkpt>
      <trkpt lat="48.719096" lon="2.056912">
        <ele>126.346460</ele>
        <time>2025-09-07T23:44:12.352Z</time>
      </trkpt>
      <trkpt lat="48.718910" lon="2.056747">
        <ele>128.675477</ele>
        <time>2025-09-07T23:44:30.368Z</time>
      </trkpt>
      <trkpt lat="48.718770" lon="2.056623">
        <ele>130.427805</ele>
        <time>2025-09-07T23:44:42.897Z</time>
      </trkpt>
      <trkpt lat="48.718671" lon="2.056306">
        <ele>132.483762</ele>
        <time>2025-09-07T23:44:59.635Z</time>
      </trkpt>
      <trkpt lat="48.718635" lon="2.055965">
        <ele>134.229113</ele>
        <time>2025-09-07T23:45:15.340Z</time>
      </trkpt>
      <trkpt lat="48.718491" lon="2.055732">
        <ele>135.842670</ele>
        <time>2025-09-07T23:45:29.210Z</time>
      </trkpt>
      <trkpt lat="48.718404" lon="2.055302">
        <ele>138.115809</ele>
        <time>2025-09-07T23:45:49.986Z</time>
      </trkpt>
      <trkpt lat="48.718360" lon="2.054793">
        <ele>140.710315</ele>
        <time>2025-09-07T23:46:15.571Z</time>
      </trkpt>
      <trkpt lat="48.718317" lon="2.054504">
        <ele>142.207623</ele>
        <time>2025-09-07T23:46:31.106Z</time>
      </trkpt>
      <trkpt lat="48.718297" lon="2.054021">
        <ele>144.653542</ele>
        <time>2025-09-07T23:46:57.166Z</time>
      </trkpt>
      <trkpt lat="48.718271" lon="2.053489">
        <ele>147.029106</ele>
        <time>2025-09-07T23:47:26.455Z</time>
      </trkpt>
      <trkpt lat="48.718007" lon="2.052405">
        <ele>152.006378</ele>
        <time>2025-09-07T23:48:23.233Z</time>
      </trkpt>
      <trkpt lat="48.716809" lon="2.052586">
        <ele>158.530234</ele>
        <time>2025-09-07T23:49:35.896Z</time>
      </trkpt>
      <trkpt lat="48.716296" lon="2.052849">
        <ele>160.460919</ele>
        <time>2025-09-07T23:50:05.279Z</time>
      </trkpt>
      <trkpt lat="48.715567" lon="2.053419">
        <ele>163.358137</ele>
        <time>2025-09-07T23:50:48.803Z</time>
      </trkpt>
      <trkpt lat="48.714946" lon="2.053498">
        <ele>164.380309</ele>
        <time>2025-09-07T23:51:18.832Z</time>
      </trkpt>
      <trkpt lat="48.714249" lon="2.053385">
        <ele>165.530079</ele>
        <time>2025-09-07T23:51:49.336Z</time>
      </trkpt>
      <trkpt lat="48.713279" lon="2.053053">
        <ele>166.450970</ele>
        <time>2025-09-07T23:52:30.802Z</time>
      </trkpt>
      <trkpt lat="48.712978" lon="2.052849">
        <ele>166.553332</ele>
        <time>2025-09-07T23:52:39.124Z</time>
      </trkpt>
      <trkpt lat="48.712741" lon="2.052511">
        <ele>166.654362</ele>
        <time>2025-09-07T23:52:46.931Z</time>
      </trkpt>
      <trkpt lat="48.712479" lon="2.051513">
        <ele>166.701926</ele>
        <time>2025-09-07T23:53:02.374Z</time>
      </trkpt>
      <trkpt lat="48.712302" lon="2.050762">
        <ele>165.951587</ele>
        <time>2025-09-07T23:53:12.893Z</time>
      </trkpt>
      <trkpt lat="48.711809" lon="2.048973">
        <ele>163.995630</ele>
        <time>2025-09-07T23:53:36.841Z</time>
      </trkpt>
      <trkpt lat="48.711706" lon="2.047352">
        <ele>161.129335</ele>
        <time>2025-09-07T23:53:55.517Z</time>
      </trkpt>
      <trkpt lat="48.711686" lon="2.047112">
        <ele>160.703559</ele>
        <time>2025-09-07T23:53:58.266Z</time>
      </trkpt>
      <trkpt lat="48.711644" lon="2.046958">
        <ele>160.410266</ele>
        <time>2025-09-07T23:54:00.164Z</time>
      </trkpt>
      <trkpt lat="48.711564" lon="2.046667">
        <ele>159.855405</ele>
        <time>2025-09-07T23:54:03.774Z</time>
      </trkpt>
      <trkpt lat="48.711555" lon="2.046291">
        <ele>159.268501</ele>
        <time>2025-09-07T23:54:08.096Z</time>
      </trkpt>
      <trkpt lat="48.711583" lon="2.045541">
        <ele>158.292289</ele>
        <time>2025-09-07T23:54:16.844Z</time>
      </trkpt>
      <trkpt lat="48.711587" lon="2.045484">
        <ele>158.217797</ele>
        <time>2025-09-07T23:54:17.517Z</time>
      </trkpt>
      <trkpt lat="48.711654" lon="2.043307">
        <ele>154.559855</ele>
        <time>2025-09-07T23:54:44.904Z</time>
      </trkpt>
      <trkpt lat="48.711537" lon="2.042985">
        <ele>153.368938</ele>
        <time>2025-09-07T23:54:49.403Z</time>
      </trkpt>
      <trkpt lat="48.711550" lon="2.042816">
        <ele>152.817708</ele>
        <time>2025-09-07T23:54:51.459Z</time>
      </trkpt>
      <trkpt lat="48.711511" lon="2.042377">
        <ele>151.382611</ele>
        <time>2025-09-07T23:54:56.573Z</time>
      </trkpt>
      <trkpt lat="48.711427" lon="2.042079">
        <ele>150.332753</ele>
        <time>2025-09-07T23:54:59.999Z</time>
      </trkpt>
      <trkpt lat="48.711310" lon="2.041701">
        <ele>148.980072</ele>
        <time>2025-09-07T23:55:04.146Z</time>
      </trkpt>
      <trkpt lat="48.711305" lon="2.041484">
        <ele>148.276608</ele>
        <time>2025-09-07T23:55:06.270Z</time>
      </trkpt>
      <trkpt lat="48.711152" lon="2.041442">
        <ele>147.513173</ele>
        <time>2025-09-07T23:55:08.583Z</time>
      </trkpt>
      <trkpt lat="48.711092" lon="2.041444">
        <ele>147.218510</ele>
        <time>2025-09-07T23:55:09.467Z</time>
      </trkpt>
      <trkpt lat="48.710848" lon="2.041323">
        <ele>143.982661</ele>
        <time>2025-09-07T23:55:13.553Z</time>
      </trkpt>
      <trkpt lat="48.710487" lon="2.041100">
        <ele>138.779782</ele>
        <time>2025-09-07T23:55:19.523Z</time>
      </trkpt>
      <trkpt lat="48.710434" lon="2.041145">
        <ele>137.968980</ele>
        <time>2025-09-07T23:55:20.451Z</time>
      </trkpt>
      <trkpt lat="48.710121" lon="2.041433">
        <ele>133.081904</ele>
        <time>2025-09-07T23:55:46.085Z</time>
      </trkpt>
      <trkpt lat="48.710017" lon="2.041556">
        <ele>131.321231</ele>
        <time>2025-09-07T23:55:55.398Z</time>
      </trkpt>
      <trkpt lat="48.709776" lon="2.041591">
        <ele>128.090049</ele>
        <time>2025-09-07T23:56:12.354Z</time>
      </trkpt>
      <trkpt lat="48.709667" lon="2.041674">
        <ele>126.461987</ele>
        <time>2025-09-07T23:56:20.942Z</time>
      </trkpt>
      <trkpt lat="48.709613" lon="2.041793">
        <ele>125.190082</ele>
        <time>2025-09-07T23:56:27.610Z</time>
      </trkpt>
      <trkpt lat="48.709537" lon="2.042198">
        <ele>121.858656</ele>
        <time>2025-09-07T23:56:47.045Z</time>
      </trkpt>
      <trkpt lat="48.709537" lon="2.042198">
        <ele>121.858656</ele>
        <time>2025-09-07T23:56:47.056Z</time>
      </trkpt>
      <trkpt lat="48.709506" lon="2.042238">
        <ele>121.441600</ele>
        <time>2025-09-07T23:56:49.919Z</time>
      </trkpt>
      <trkpt lat="48.709484" lon="2.042204">
        <ele>121.119731</ele>
        <time>2025-09-07T23:56:52.120Z</time>
      </trkpt>
      <trkpt lat="48.709465" lon="2.041942">
        <ele>119.338121</ele>
        <time>2025-09-07T23:57:04.304Z</time>
      </trkpt>
      <trkpt lat="48.709474" lon="2.041656">
        <ele>117.402752</ele>
        <time>2025-09-07T23:57:17.477Z</time>
      </trkpt>
      <trkpt lat="48.709451" lon="2.041622">
        <ele>117.073629</ele>
        <time>2025-09-07T23:57:19.762Z</time>
      </trkpt>
      <trkpt lat="48.709423" lon="2.041634">
        <ele>116.775567</ele>
        <time>2025-09-07T23:57:21.766Z</time>
      </trkpt>
      <trkpt lat="48.709308" lon="2.041889">
        <ele>114.687849</ele>
        <time>2025-09-07T23:57:35.991Z</time>
      </trkpt>
      <trkpt lat="48.709227" lon="2.042320">
        <ele>111.658713</ele>
        <time>2025-09-07T23:57:56.629Z</time>
      </trkpt>
      <trkpt lat="48.709175" lon="2.042299">
        <ele>111.107470</ele>
        <time>2025-09-07T23:58:00.387Z</time>
      </trkpt>
      <trkpt lat="48.709095" lon="2.042058">
        <ele>109.283956</ele>
        <time>2025-09-07T23:58:12.832Z</time>
      </trkpt>
      <trkpt lat="48.709051" lon="2.041735">
        <ele>107.054635</ele>
        <time>2025-09-07T23:58:16.062Z</time>
      </trkpt>
      <trkpt lat="48.709028" lon="2.040934">
        <ele>102.769986</ele>
        <time>2025-09-07T23:58:23.913Z</time>
      </trkpt>
      <trkpt lat="48.709006" lon="2.040827">
        <ele>102.294917</ele>
        <time>2025-09-07T23:58:25.016Z</time>
      </trkpt>
      <trkpt lat="48.708923" lon="2.040736">
        <ele>101.636841</ele>
        <time>2025-09-07T23:58:26.524Z</time>
      </trkpt>
      <trkpt lat="48.709032" lon="2.040334">
        <ele>99.794559</ele>
        <time>2025-09-07T23:58:32.357Z</time>
      </trkpt>
      <trkpt lat="48.709033" lon="2.040233">
        <ele>99.366382</ele>
        <time>2025-09-07T23:58:33.728Z</time>
      </trkpt>
      <trkpt lat="48.708992" lon="2.040199">
        <ele>99.066155</ele>
        <time>2025-09-07T23:58:34.665Z</time>
      </trkpt>
      <trkpt lat="48.708825" lon="2.040213">
        <ele>97.991755</ele>
        <time>2025-09-07T23:58:38.118Z</time>
      </trkpt>
      <trkpt lat="48.708612" lon="2.040078">
        <ele>96.508656</ele>
        <time>2025-09-07T23:58:43.045Z</time>
      </trkpt>
      <trkpt lat="48.708665" lon="2.039907">
        <ele>95.707826</ele>
        <time>2025-09-07T23:58:45.010Z</time>
      </trkpt>
      <trkpt lat="48.708681" lon="2.039674">
        <ele>94.714822</ele>
        <time>2025-09-07T23:58:47.505Z</time>
      </trkpt>
      <trkpt lat="48.708669" lon="2.038916">
        <ele>92.177980</ele>
        <time>2025-09-07T23:58:55.583Z</time>
      </trkpt>
      <trkpt lat="48.708809" lon="2.038646">
        <ele>91.329507</ele>
        <time>2025-09-07T23:58:59.296Z</time>
      </trkpt>
      <trkpt lat="48.708847" lon="2.038598">
        <ele>91.144268</ele>
        <time>2025-09-07T23:59:00.115Z</time>
      </trkpt>
      <trkpt lat="48.709396" lon="2.037959">
        <ele>88.552173</ele>
        <time>2025-09-07T23:59:11.838Z</time>
      </trkpt>
      <trkpt lat="48.709365" lon="2.037968">
        <ele>88.433983</ele>
        <time>2025-09-07T23:59:12.366Z</time>
      </trkpt>
      <trkpt lat="48.709305" lon="2.037914">
        <ele>88.172680</ele>
        <time>2025-09-07T23:59:13.544Z</time>
      </trkpt>
      <trkpt lat="48.708982" lon="2.037005">
        <ele>85.858896</ele>
        <time>2025-09-07T23:59:25.054Z</time>
      </trkpt>
      <trkpt lat="48.708915" lon="2.036906">
        <ele>85.616760</ele>
        <time>2025-09-07T23:59:26.610Z</time>
      </trkpt>
      <trkpt lat="48.708744" lon="2.036821">
        <ele>85.151096</ele>
        <time>2025-09-07T23:59:29.673Z</time>
      </trkpt>
      <trkpt lat="48.708627" lon="2.036865">
        <ele>84.839171</ele>
        <time>2025-09-07T23:59:31.704Z</time>
      </trkpt>
      <trkpt lat="48.708276" lon="2.037101">
        <ele>83.845563</ele>
        <time>2025-09-07T23:59:38.429Z</time>
      </trkpt>
      <trkpt lat="48.707975" lon="2.037229">
        <ele>83.036629</ele>
        <time>2025-09-07T23:59:44.101Z</time>
      </trkpt>
      <trkpt lat="48.707806" lon="2.037253">
        <ele>82.597420</ele>
        <time>2025-09-07T23:59:47.265Z</time>
      </trkpt>
      <trkpt lat="48.707476" lon="2.037314">
        <ele>81.737203</ele>
        <time>2025-09-07T23:59:53.516Z</time>
      </trkpt>
      <trkpt lat="48.707425" lon="2.037354">
        <ele>81.684123</ele>
        <time>2025-09-07T23:59:54.580Z</time>
      </trkpt>
      <trkpt lat="48.707361" lon="2.037434">
        <ele>81.609153</ele>
        <time>2025-09-07T23:59:56.124Z</time>
      </trkpt>
      <trkpt lat="48.707322" lon="2.037483">
        <ele>81.563374</ele>
        <time>2025-09-07T23:59:57.074Z</time>
      </trkpt>
      <trkpt lat="48.707246" lon="2.037535">
        <ele>81.488021</ele>
        <time>2025-09-07T23:59:58.626Z</time>
      </trkpt>
      <trkpt lat="48.707025" lon="2.037603">
        <ele>81.284241</ele>
        <time>2025-09-08T00:00:02.851Z</time>
      </trkpt>
      <trkpt lat="48.706202" lon="2.037872">
        <ele>80.523442</ele>
        <time>2025-09-08T00:00:19.298Z</time>
      </trkpt>
      <trkpt lat="48.705876" lon="2.037707">
        <ele>80.212857</ele>
        <time>2025-09-08T00:00:26.660Z</time>
      </trkpt>
      <trkpt lat="48.705424" lon="2.037662">
        <ele>80.752692</ele>
        <time>2025-09-08T00:00:38.394Z</time>
      </trkpt>
      <trkpt lat="48.705220" lon="2.037664">
        <ele>81.139186</ele>
        <time>2025-09-08T00:00:44.341Z</time>
      </trkpt>
      <trkpt lat="48.705052" lon="2.037671">
        <ele>81.457589</ele>
        <time>2025-09-08T00:00:49.554Z</time>
      </trkpt>
      <trkpt lat="48.704971" lon="2.037671">
        <ele>81.611047</ele>
        <time>2025-09-08T00:00:52.174Z</time>
      </trkpt>
      <trkpt lat="48.704679" lon="2.037662">
        <ele>82.164368</ele>
        <time>2025-09-08T00:01:01.542Z</time>
      </trkpt>
      <trkpt lat="48.704644" lon="2.037571">
        <ele>82.296056</ele>
        <time>2025-09-08T00:01:03.757Z</time>
      </trkpt>
      <trkpt lat="48.704575" lon="2.037583">
        <ele>82.427638</ele>
        <time>2025-09-08T00:01:06.075Z</time>
      </trkpt>
      <trkpt lat="48.704552" lon="2.037665">
        <ele>82.539037</ele>
        <time>2025-09-08T00:01:07.992Z</time>
      </trkpt>
      <trkpt lat="48.704583" lon="2.037740">
        <ele>82.649682</ele>
        <time>2025-09-08T00:01:09.858Z</time>
      </trkpt>
      <trkpt lat="48.704556" lon="2.037841">
        <ele>82.785928</ele>
        <time>2025-09-08T00:01:12.387Z</time>
      </trkpt>
      <trkpt lat="48.704533" lon="2.038276">
        <ele>83.331546</ele>
        <time>2025-09-08T00:01:22.865Z</time>
      </trkpt>
      <trkpt lat="48.704492" lon="2.038896">
        <ele>85.099467</ele>
        <time>2025-09-08T00:01:39.514Z</time>
      </trkpt>
      <trkpt lat="48.704390" lon="2.039353">
        <ele>86.708552</ele>
        <time>2025-09-08T00:01:53.135Z</time>
      </trkpt>
      <trkpt lat="48.703699" lon="2.039489">
        <ele>90.230236</ele>
        <time>2025-09-08T00:02:36.419Z</time>
      </trkpt>
      <trkpt lat="48.703564" lon="2.039549">
        <ele>90.941277</ele>
        <time>2025-09-08T00:02:45.771Z</time>
      </trkpt>
      <trkpt lat="48.703440" lon="2.039687">
        <ele>91.718852</ele>
        <time>2025-09-08T00:02:56.464Z</time>
      </trkpt>
      <trkpt lat="48.703316" lon="2.039885">
        <ele>92.644398</ele>
        <time>2025-09-08T00:03:09.486Z</time>
      </trkpt>
      <trkpt lat="48.702741" lon="2.040315">
        <ele>98.192087</ele>
        <time>2025-09-08T00:03:57.942Z</time>
      </trkpt>
      <trkpt lat="48.701082" lon="2.040847">
        <ele>113.599352</ele>
        <time>2025-09-08T00:06:21.181Z</time>
      </trkpt>
      <trkpt lat="48.700672" lon="2.040879">
        <ele>117.708235</ele>
        <time>2025-09-08T00:07:00.886Z</time>
      </trkpt>
      <trkpt lat="48.700154" lon="2.040764">
        <ele>122.947940</ele>
        <time>2025-09-08T00:07:47.095Z</time>
      </trkpt>
      <trkpt lat="48.699958" lon="2.040753">
        <ele>124.910931</ele>
        <time>2025-09-08T00:08:03.904Z</time>
      </trkpt>
      <trkpt lat="48.699967" lon="2.041135">
        <ele>127.146176</ele>
        <time>2025-09-08T00:08:24.186Z</time>
      </trkpt>
      <trkpt lat="48.700052" lon="2.041572">
        <ele>129.466237</ele>
        <time>2025-09-08T00:08:47.748Z</time>
      </trkpt>
      <trkpt lat="48.700116" lon="2.042226">
        <ele>132.833149</ele>
        <time>2025-09-08T00:09:21.576Z</time>
      </trkpt>
      <trkpt lat="48.700012" lon="2.043090">
        <ele>137.305657</ele>
        <time>2025-09-08T00:10:02.022Z</time>
      </trkpt>
      <trkpt lat="48.699800" lon="2.043583">
        <ele>140.263322</ele>
        <time>2025-09-08T00:10:30.940Z</time>
      </trkpt>
      <trkpt lat="48.699524" lon="2.043814">
        <ele>142.322591</ele>
        <time>2025-09-08T00:10:54.558Z</time>
      </trkpt>
      <trkpt lat="48.699153" lon="2.043669">
        <ele>144.824882</ele>
        <time>2025-09-08T00:11:22.775Z</time>
      </trkpt>
      <trkpt lat="48.698938" lon="2.043796">
        <ele>146.331973</ele>
        <time>2025-09-08T00:11:39.521Z</time>
      </trkpt>
      <trkpt lat="48.698666" lon="2.044418">
        <ele>149.548214</ele>
        <time>2025-09-08T00:12:14.425Z</time>
      </trkpt>
      <trkpt lat="48.698348" lon="2.045049">
        <ele>152.501884</ele>
        <time>2025-09-08T00:12:47.030Z</time>
      </trkpt>
      <trkpt lat="48.698158" lon="2.045507">
        <ele>153.903310</ele>
        <time>2025-09-08T00:13:06.948Z</time>
      </trkpt>
      <trkpt lat="48.698127" lon="2.045707">
        <ele>154.435537</ele>
        <time>2025-09-08T00:13:14.753Z</time>
      </trkpt>
      <trkpt lat="48.698071" lon="2.045850">
        <ele>154.866302</ele>
        <time>2025-09-08T00:13:21.178Z</time>
      </trkpt>
      <trkpt lat="48.698180" lon="2.046324">
        <ele>156.166671</ele>
        <time>2025-09-08T00:13:40.017Z</time>
      </trkpt>
      <trkpt lat="48.698181" lon="2.046768">
        <ele>157.316929</ele>
        <time>2025-09-08T00:13:56.095Z</time>
      </trkpt>
      <trkpt lat="48.698092" lon="2.046769">
        <ele>157.666271</ele>
        <time>2025-09-08T00:14:00.862Z</time>
      </trkpt>
      <trkpt lat="48.697970" lon="2.046938">
        <ele>158.315113</ele>
        <time>2025-09-08T00:14:09.580Z</time>
      </trkpt>
      <trkpt lat="48.697798" lon="2.046937">
        <ele>158.954518</ele>
        <time>2025-09-08T00:14:18.365Z</time>
      </trkpt>
      <trkpt lat="48.697746" lon="2.046024">
        <ele>160.696985</ele>
        <time>2025-09-08T00:14:49.586Z</time>
      </trkpt>
      <trkpt lat="48.697499" lon="2.045813">
        <ele>161.513864</ele>
        <time>2025-09-08T00:15:04.959Z</time>
      </trkpt>
      <trkpt lat="48.697456" lon="2.045512">
        <ele>162.099454</ele>
        <time>2025-09-08T00:15:15.604Z</time>
      </trkpt>
      <trkpt lat="48.697207" lon="2.045365">
        <ele>162.869316</ele>
        <time>2025-09-08T00:15:28.949Z</time>
      </trkpt>
      <trkpt lat="48.696987" lon="2.045371">
        <ele>163.503203</ele>
        <time>2025-09-08T00:15:40.165Z</time>
      </trkpt>
      <trkpt lat="48.696833" lon="2.045224">
        <ele>164.027563</ele>
        <time>2025-09-08T00:15:49.413Z</time>
      </trkpt>
      <trkpt lat="48.696769" lon="2.044976">
        <ele>164.275194</ele>
        <time>2025-09-08T00:15:58.137Z</time>
      </trkpt>
      <trkpt lat="48.696731" lon="2.044471">
        <ele>164.737896</ele>
        <time>2025-09-08T00:16:13.906Z</time>
      </trkpt>
      <trkpt lat="48.696451" lon="2.044257">
        <ele>165.170432</ele>
        <time>2025-09-08T00:16:28.101Z</time>
      </trkpt>
      <trkpt lat="48.696466" lon="2.046277">
        <ele>166.437686</ele>
        <time>2025-09-08T00:17:23.268Z</time>
      </trkpt>
      <trkpt lat="48.695260" lon="2.046048">
        <ele>166.162533</ele>
        <time>2025-09-08T00:18:07.263Z</time>
      </trkpt>
      <trkpt lat="48.694311" lon="2.045881">
        <ele>165.058590</ele>
        <time>2025-09-08T00:18:39.318Z</time>
      </trkpt>
      <trkpt lat="48.694362" lon="2.044646">
        <ele>163.878148</ele>
        <time>2025-09-08T00:19:06.209Z</time>
      </trkpt>
      <trkpt lat="48.694381" lon="2.044169">
        <ele>163.450842</ele>
        <time>2025-09-08T00:19:16.803Z</time>
      </trkpt>
      <trkpt lat="48.694378" lon="2.041706">
        <ele>161.851912</ele>
        <time>2025-09-08T00:20:13.115Z</time>
      </trkpt>
      <trkpt lat="48.694394" lon="2.041340">
        <ele>161.658904</ele>
        <time>2025-09-08T00:20:21.619Z</time>
      </trkpt>
      <trkpt lat="48.694368" lon="2.041019">
        <ele>161.522413</ele>
        <time>2025-09-08T00:20:29.112Z</time>
      </trkpt>
      <trkpt lat="48.694294" lon="2.040723">
        <ele>161.388830</ele>
        <time>2025-09-08T00:20:36.454Z</time>
      </trkpt>
      <trkpt lat="48.694300" lon="2.040198">
        <ele>161.167225</ele>
        <time>2025-09-08T00:20:48.740Z</time>
      </trkpt>
      <trkpt lat="48.694206" lon="2.038937">
        <ele>160.631649</ele>
        <time>2025-09-08T00:21:19.007Z</time>
      </trkpt>
      <trkpt lat="48.694374" lon="2.038332">
        <ele>160.194183</ele>
        <time>2025-09-08T00:21:34.045Z</time>
      </trkpt>
      <trkpt lat="48.694292" lon="2.038153">
        <ele>160.040249</ele>
        <time>2025-09-08T00:21:38.849Z</time>
      </trkpt>
      <trkpt lat="48.694283" lon="2.038063">
        <ele>159.975939</ele>
        <time>2025-09-08T00:21:40.846Z</time>
      </trkpt>
      <trkpt lat="48.694275" lon="2.037979">
        <ele>159.915978</ele>
        <time>2025-09-08T00:21:42.670Z</time>
      </trkpt>
      <trkpt lat="48.694347" lon="2.038029">
        <ele>159.831205</ele>
        <time>2025-09-08T00:21:44.742Z</time>
      </trkpt>
      <trkpt lat="48.694621" lon="2.037054">
        <ele>159.082543</ele>
        <time>2025-09-08T00:22:03.084Z</time>
      </trkpt>
      <trkpt lat="48.694555" lon="2.037001">
        <ele>159.002591</ele>
        <time>2025-09-08T00:22:05.097Z</time>
      </trkpt>
      <trkpt lat="48.694580" lon="2.036938">
        <ele>158.950658</ele>
        <time>2025-09-08T00:22:06.702Z</time>
      </trkpt>
      <trkpt lat="48.694694" lon="2.036791">
        <ele>158.790428</ele>
        <time>2025-09-08T00:22:11.842Z</time>
      </trkpt>
      <trkpt lat="48.695231" lon="2.036675">
        <ele>157.317308</ele>
        <time>2025-09-08T00:22:30.638Z</time>
      </trkpt>
      <trkpt lat="48.695560" lon="2.036506">
        <ele>156.220434</ele>
        <time>2025-09-08T00:22:43.264Z</time>
      </trkpt>
      <trkpt lat="48.696370" lon="2.035912">
        <ele>153.379081</ele>
        <time>2025-09-08T00:23:11.376Z</time>
      </trkpt>
      <trkpt lat="48.696540" lon="2.035726">
        <ele>151.952596</ele>
        <time>2025-09-08T00:23:17.119Z</time>
      </trkpt>
      <trkpt lat="48.696542" lon="2.033942">
        <ele>137.768540</ele>
        <time>2025-09-08T00:23:46.407Z</time>
      </trkpt>
      <trkpt lat="48.696590" lon="2.033435">
        <ele>133.696285</ele>
        <time>2025-09-08T00:23:54.442Z</time>
      </trkpt>
      <trkpt lat="48.696682" lon="2.032873">
        <ele>129.904044</ele>
        <time>2025-09-08T00:24:03.694Z</time>
      </trkpt>
      <trkpt lat="48.696653" lon="2.031989">
        <ele>125.427413</ele>
        <time>2025-09-08T00:24:18.240Z</time>
      </trkpt>
      <trkpt lat="48.696505" lon="2.032052">
        <ele>124.249400</ele>
        <time>2025-09-08T00:24:20.442Z</time>
      </trkpt>
      <trkpt lat="48.695717" lon="2.031885">
        <ele>118.152294</ele>
        <time>2025-09-08T00:24:44.154Z</time>
      </trkpt>
      <trkpt lat="48.694736" lon="2.032415">
        <ele>121.105093</ele>
        <time>2025-09-08T00:25:33.154Z</time>
      </trkpt>
      <trkpt lat="48.694615" lon="2.032453">
        <ele>121.563230</ele>
        <time>2025-09-08T00:25:45.594Z</time>
      </trkpt>
      <trkpt lat="48.694518" lon="2.032369">
        <ele>121.977456</ele>
        <time>2025-09-08T00:25:57.194Z</time>
      </trkpt>
      <trkpt lat="48.694406" lon="2.032207">
        <ele>122.551552</ele>
        <time>2025-09-08T00:26:13.887Z</time>
      </trkpt>
      <trkpt lat="48.694139" lon="2.031703">
        <ele>124.133041</ele>
        <time>2025-09-08T00:27:03.525Z</time>
      </trkpt>
      <trkpt lat="48.694077" lon="2.031573">
        <ele>125.087626</ele>
        <time>2025-09-08T00:27:11.961Z</time>
      </trkpt>
      <trkpt lat="48.693959" lon="2.031067">
        <ele>128.728323</ele>
        <time>2025-09-08T00:27:41.306Z</time>
      </trkpt>
      <trkpt lat="48.693492" lon="2.030718">
        <ele>134.080231</ele>
        <time>2025-09-08T00:28:30.913Z</time>
      </trkpt>
      <trkpt lat="48.692885" lon="2.030427">
        <ele>140.623724</ele>
        <time>2025-09-08T00:29:37.025Z</time>
      </trkpt>
      <trkpt lat="48.692662" lon="2.030464">
        <ele>142.767036</ele>
        <time>2025-09-08T00:29:56.913Z</time>
      </trkpt>
      <trkpt lat="48.692400" lon="2.030652">
        <ele>143.689052</ele>
        <time>2025-09-08T00:30:18.842Z</time>
      </trkpt>
      <trkpt lat="48.692300" lon="2.030607">
        <ele>144.020828</ele>
        <time>2025-09-08T00:30:25.790Z</time>
      </trkpt>
      <trkpt lat="48.692056" lon="2.028616">
        <ele>148.272169</ele>
        <time>2025-09-08T00:31:21.923Z</time>
      </trkpt>
      <trkpt lat="48.692169" lon="2.028101">
        <ele>149.086185</ele>
        <time>2025-09-08T00:31:34.906Z</time>
      </trkpt>
      <trkpt lat="48.692065" lon="2.027829">
        <ele>149.530713</ele>
        <time>2025-09-08T00:31:43.375Z</time>
      </trkpt>
      <trkpt lat="48.691471" lon="2.026565">
        <ele>151.724966</ele>
        <time>2025-09-08T00:32:34.707Z</time>
      </trkpt>
      <trkpt lat="48.691034" lon="2.025620">
        <ele>152.510761</ele>
        <time>2025-09-08T00:33:17.947Z</time>
      </trkpt>
      <trkpt lat="48.691034" lon="2.025620">
        <ele>152.510761</ele>
        <time>2025-09-08T00:33:17.954Z</time>
      </trkpt>
      <trkpt lat="48.690518" lon="2.025083">
        <ele>152.809747</ele>
        <time>2025-09-08T00:33:46.201Z</time>
      </trkpt>
      <trkpt lat="48.689638" lon="2.023530">
        <ele>147.431006</ele>
        <time>2025-09-08T00:34:28.114Z</time>
      </trkpt>
      <trkpt lat="48.690054" lon="2.023009">
        <ele>142.953092</ele>
        <time>2025-09-08T00:34:42.084Z</time>
      </trkpt>
      <trkpt lat="48.689953" lon="2.022743">
        <ele>141.272553</ele>
        <time>2025-09-08T00:34:47.133Z</time>
      </trkpt>
      <trkpt lat="48.689612" lon="2.022093">
        <ele>136.086362</ele>
        <time>2025-09-08T00:35:00.629Z</time>
      </trkpt>
      <trkpt lat="48.689588" lon="2.021783">
        <ele>133.638603</ele>
        <time>2025-09-08T00:35:05.631Z</time>
      </trkpt>
      <trkpt lat="48.689360" lon="2.021492">
        <ele>130.096802</ele>
        <time>2025-09-08T00:35:12.777Z</time>
      </trkpt>
      <trkpt lat="48.689057" lon="2.021290">
        <ele>126.164080</ele>
        <time>2025-09-08T00:35:20.798Z</time>
      </trkpt>
      <trkpt lat="48.688805" lon="2.021114">
        <ele>122.867527</ele>
        <time>2025-09-08T00:35:27.709Z</time>
      </trkpt>
      <trkpt lat="48.688779" lon="2.021096">
        <ele>122.527925</ele>
        <time>2025-09-08T00:35:28.443Z</time>
      </trkpt>
      <trkpt lat="48.688313" lon="2.020870">
        <ele>116.837184</ele>
        <time>2025-09-08T00:35:41.327Z</time>
      </trkpt>
      <trkpt lat="48.688261" lon="2.020799">
        <ele>116.831328</ele>
        <time>2025-09-08T00:35:43.258Z</time>
      </trkpt>
      <trkpt lat="48.688672" lon="2.020557">
        <ele>116.794442</ele>
        <time>2025-09-08T00:35:50.353Z</time>
      </trkpt>
      <trkpt lat="48.688809" lon="2.020551">
        <ele>116.782977</ele>
        <time>2025-09-08T00:35:52.800Z</time>
      </trkpt>
      <trkpt lat="48.689092" lon="2.020619">
        <ele>116.759009</ele>
        <time>2025-09-08T00:35:58.689Z</time>
      </trkpt>
      <trkpt lat="48.689885" lon="2.020917">
        <ele>116.690664</ele>
        <time>2025-09-08T00:36:33.771Z</time>
      </trkpt>
      <trkpt lat="48.690202" lon="2.020925">
        <ele>118.243526</ele>
        <time>2025-09-08T00:36:50.634Z</time>
      </trkpt>
      <trkpt lat="48.690744" lon="2.021444">
        <ele>121.802324</ele>
        <time>2025-09-08T00:37:35.281Z</time>
      </trkpt>
      <trkpt lat="48.690950" lon="2.021820">
        <ele>123.592566</ele>
        <time>2025-09-08T00:37:56.984Z</time>
      </trkpt>
      <trkpt lat="48.691361" lon="2.022109">
        <ele>126.107451</ele>
        <time>2025-09-08T00:38:26.964Z</time>
      </trkpt>
      <trkpt lat="48.691623" lon="2.022485">
        <ele>127.166261</ele>
        <time>2025-09-08T00:38:48.339Z</time>
      </trkpt>
      <trkpt lat="48.692081" lon="2.022708">
        <ele>128.085635</ele>
        <time>2025-09-08T00:39:12.276Z</time>
      </trkpt>
      <trkpt lat="48.692394" lon="2.023118">
        <ele>128.876408</ele>
        <time>2025-09-08T00:39:29.125Z</time>
      </trkpt>
      <trkpt lat="48.692483" lon="2.023334">
        <ele>129.197621</ele>
        <time>2025-09-08T00:39:35.448Z</time>
      </trkpt>
      <trkpt lat="48.692470" lon="2.023483">
        <ele>129.387220</ele>
        <time>2025-09-08T00:39:39.262Z</time>
      </trkpt>
      <trkpt lat="48.692723" lon="2.023735">
        <ele>129.965870</ele>
        <time>2025-09-08T00:39:51.197Z</time>
      </trkpt>
      <trkpt lat="48.692980" lon="2.023928">
        <ele>129.515475</ele>
        <time>2025-09-08T00:40:02.956Z</time>
      </trkpt>
      <trkpt lat="48.693081" lon="2.024135">
        <ele>129.042135</ele>
        <time>2025-09-08T00:40:09.829Z</time>
      </trkpt>
      <trkpt lat="48.693204" lon="2.024427">
        <ele>128.405180</ele>
        <time>2025-09-08T00:40:18.827Z</time>
      </trkpt>
      <trkpt lat="48.693172" lon="2.024836">
        <ele>127.647830</ele>
        <time>2025-09-08T00:40:28.481Z</time>
      </trkpt>
      <trkpt lat="48.692970" lon="2.025263">
        <ele>126.681823</ele>
        <time>2025-09-08T00:40:39.325Z</time>
      </trkpt>
      <trkpt lat="48.693134" lon="2.025954">
        <ele>125.331546</ele>
        <time>2025-09-08T00:40:52.976Z</time>
      </trkpt>
      <trkpt lat="48.693411" lon="2.025991">
        <ele>123.098361</ele>
        <time>2025-09-08T00:41:00.488Z</time>
      </trkpt>
      <trkpt lat="48.693535" lon="2.025994">
        <ele>121.820264</ele>
        <time>2025-09-08T00:41:03.703Z</time>
      </trkpt>
      <trkpt lat="48.693972" lon="2.025918">
        <ele>117.287001</ele>
        <time>2025-09-08T00:41:09.878Z</time>
      </trkpt>
      <trkpt lat="48.694098" lon="2.025789">
        <ele>115.719737</ele>
        <time>2025-09-08T00:41:11.975Z</time>
      </trkpt>
      <trkpt lat="48.694077" lon="2.025738">
        <ele>115.310829</ele>
        <time>2025-09-08T00:41:12.527Z</time>
      </trkpt>
      <trkpt lat="48.694233" lon="2.025544">
        <ele>113.230817</ele>
        <time>2025-09-08T00:41:15.286Z</time>
      </trkpt>
      <trkpt lat="48.694611" lon="2.025211">
        <ele>108.724431</ele>
        <time>2025-09-08T00:41:21.307Z</time>
      </trkpt>
      <trkpt lat="48.694717" lon="2.025029">
        <ele>107.073298</ele>
        <time>2025-09-08T00:41:23.551Z</time>
      </trkpt>
      <trkpt lat="48.695141" lon="2.023840">
        <ele>100.944922</ele>
        <time>2025-09-08T00:41:36.449Z</time>
      </trkpt>
      <trkpt lat="48.695270" lon="2.023546">
        <ele>99.391313</ele>
        <time>2025-09-08T00:41:39.962Z</time>
      </trkpt>
      <trkpt lat="48.695473" lon="2.023185">
        <ele>97.304288</ele>
        <time>2025-09-08T00:41:44.851Z</time>
      </trkpt>
      <trkpt lat="48.695602" lon="2.022808">
        <ele>95.435530</ele>
        <time>2025-09-08T00:41:49.645Z</time>
      </trkpt>
      <trkpt lat="48.695670" lon="2.022506">
        <ele>94.701827</ele>
        <time>2025-09-08T00:41:53.537Z</time>
      </trkpt>
      <trkpt lat="48.695692" lon="2.022386">
        <ele>94.837654</ele>
        <time>2025-09-08T00:41:55.151Z</time>
      </trkpt>
      <trkpt lat="48.695796" lon="2.021917">
        <ele>95.377243</ele>
        <time>2025-09-08T00:42:02.731Z</time>
      </trkpt>
      <trkpt lat="48.696057" lon="2.021310">
        <ele>96.167315</ele>
        <time>2025-09-08T00:42:20.253Z</time>
      </trkpt>
      <trkpt lat="48.696294" lon="2.020987">
        <ele>96.694036</ele>
        <time>2025-09-08T00:42:33.748Z</time>
      </trkpt>
      <trkpt lat="48.696541" lon="2.020757">
        <ele>97.173075</ele>
        <time>2025-09-08T00:42:46.385Z</time>
      </trkpt>
      <trkpt lat="48.696649" lon="2.020700">
        <ele>97.362040</ele>
        <time>2025-09-08T00:42:51.410Z</time>
      </trkpt>
      <trkpt lat="48.696804" lon="2.020617">
        <ele>97.608432</ele>
        <time>2025-09-08T00:42:58.441Z</time>
      </trkpt>
      <trkpt lat="48.697847" lon="2.020057">
        <ele>98.941262</ele>
        <time>2025-09-08T00:43:36.446Z</time>
      </trkpt>
      <trkpt lat="48.698054" lon="2.019907">
        <ele>99.217640</ele>
        <time>2025-09-08T00:43:41.325Z</time>
      </trkpt>
      <trkpt lat="48.698219" lon="2.019669">
        <ele>99.492043</ele>
        <time>2025-09-08T00:43:46.055Z</time>
      </trkpt>
      <trkpt lat="48.698375" lon="2.019283">
        <ele>99.451786</ele>
        <time>2025-09-08T00:43:52.125Z</time>
      </trkpt>
      <trkpt lat="48.699252" lon="2.017206">
        <ele>95.999284</ele>
        <time>2025-09-08T00:44:23.186Z</time>
      </trkpt>
      <trkpt lat="48.699347" lon="2.016979">
        <ele>95.404144</ele>
        <time>2025-09-08T00:44:26.376Z</time>
      </trkpt>
      <trkpt lat="48.699631" lon="2.016353">
        <ele>93.472948</ele>
        <time>2025-09-08T00:44:35.091Z</time>
      </trkpt>
      <trkpt lat="48.699671" lon="2.016308">
        <ele>93.281043</ele>
        <time>2025-09-08T00:44:35.953Z</time>
      </trkpt>
      <trkpt lat="48.700016" lon="2.016141">
        <ele>91.885960</ele>
        <time>2025-09-08T00:44:42.148Z</time>
      </trkpt>
      <trkpt lat="48.700131" lon="2.015986">
        <ele>91.293086</ele>
        <time>2025-09-08T00:44:44.770Z</time>
      </trkpt>
      <trkpt lat="48.700161" lon="2.015828">
        <ele>90.875117</ele>
        <time>2025-09-08T00:44:46.617Z</time>
      </trkpt>
      <trkpt lat="48.700191" lon="2.015459">
        <ele>89.929931</ele>
        <time>2025-09-08T00:44:50.802Z</time>
      </trkpt>
      <trkpt lat="48.700154" lon="2.014971">
        <ele>88.751449</ele>
        <time>2025-09-08T00:44:56.355Z</time>
      </trkpt>
      <trkpt lat="48.700163" lon="2.014820">
        <ele>88.462171</ele>
        <time>2025-09-08T00:44:58.085Z</time>
      </trkpt>
      <trkpt lat="48.700204" lon="2.014646">
        <ele>88.109659</ele>
        <time>2025-09-08T00:45:00.196Z</time>
      </trkpt>
      <trkpt lat="48.700344" lon="2.014349">
        <ele>87.413301</ele>
        <time>2025-09-08T00:45:04.387Z</time>
      </trkpt>
      <trkpt lat="48.700925" lon="2.013538">
        <ele>85.129580</ele>
        <time>2025-09-08T00:45:18.651Z</time>
      </trkpt>
      <trkpt lat="48.701172" lon="2.013168">
        <ele>84.125480</ele>
        <time>2025-09-08T00:45:25.243Z</time>
      </trkpt>
      <trkpt lat="48.701307" lon="2.012915">
        <ele>83.864629</ele>
        <time>2025-09-08T00:45:29.436Z</time>
      </trkpt>
      <trkpt lat="48.701471" lon="2.012843">
        <ele>84.058184</ele>
        <time>2025-09-08T00:45:32.867Z</time>
      </trkpt>
      <trkpt lat="48.701551" lon="2.012880">
        <ele>84.153003</ele>
        <time>2025-09-08T00:45:34.585Z</time>
      </trkpt>
      <trkpt lat="48.701611" lon="2.012914">
        <ele>84.225619</ele>
        <time>2025-09-08T00:45:35.934Z</time>
      </trkpt>
      <trkpt lat="48.703124" lon="2.013638">
        <ele>86.533435</ele>
        <time>2025-09-08T00:46:27.080Z</time>
      </trkpt>
      <trkpt lat="48.703258" lon="2.013754">
        <ele>87.109541</ele>
        <time>2025-09-08T00:46:34.594Z</time>
      </trkpt>
      <trkpt lat="48.703418" lon="2.014048">
        <ele>88.048357</ele>
        <time>2025-09-08T00:46:47.142Z</time>
      </trkpt>
      <trkpt lat="48.703483" lon="2.014162">
        <ele>88.419513</ele>
        <time>2025-09-08T00:46:52.101Z</time>
      </trkpt>
      <trkpt lat="48.703629" lon="2.013732">
        <ele>89.610855</ele>
        <time>2025-09-08T00:47:07.380Z</time>
      </trkpt>
      <trkpt lat="48.703837" lon="2.013285">
        <ele>90.958309</ele>
        <time>2025-09-08T00:47:24.035Z</time>
      </trkpt>
      <trkpt lat="48.703898" lon="2.013017">
        <ele>91.656723</ele>
        <time>2025-09-08T00:47:32.308Z</time>
      </trkpt>
      <trkpt lat="48.703948" lon="2.012559">
        <ele>92.554867</ele>
        <time>2025-09-08T00:47:44.321Z</time>
      </trkpt>
      <trkpt lat="48.704115" lon="2.009418">
        <ele>93.466176</ele>
        <time>2025-09-08T00:48:30.049Z</time>
      </trkpt>
      <trkpt lat="48.704116" lon="2.009418">
        <ele>93.466298</ele>
        <time>2025-09-08T00:48:30.051Z</time>
      </trkpt>
      <trkpt lat="48.704205" lon="2.008869">
        <ele>93.511901</ele>
        <time>2025-09-08T00:48:38.172Z</time>
      </trkpt>
      <trkpt lat="48.704066" lon="2.008849">
        <ele>93.528968</ele>
        <time>2025-09-08T00:48:42.306Z</time>
      </trkpt>
      <trkpt lat="48.703732" lon="2.008814">
        <ele>93.569891</ele>
        <time>2025-09-08T00:48:52.234Z</time>
      </trkpt>
      <trkpt lat="48.704066" lon="2.008849">
        <ele>93.610815</ele>
        <time>2025-09-08T00:49:02.621Z</time>
      </trkpt>
      <trkpt lat="48.704205" lon="2.008869">
        <ele>93.627881</ele>
        <time>2025-09-08T00:49:06.913Z</time>
      </trkpt>
      <trkpt lat="48.705837" lon="2.000573">
        <ele>96.709838</ele>
        <time>2025-09-08T00:51:31.158Z</time>
      </trkpt>
      <trkpt lat="48.706020" lon="1.999871">
        <ele>96.631496</ele>
        <time>2025-09-08T00:51:41.727Z</time>
      </trkpt>
      <trkpt lat="48.707184" lon="1.995843">
        <ele>96.906253</ele>
        <time>2025-09-08T00:52:43.851Z</time>
      </trkpt>
      <trkpt lat="48.707209" lon="1.995668">
        <ele>97.817675</ele>
        <time>2025-09-08T00:52:47.971Z</time>
      </trkpt>
      <trkpt lat="48.707244" lon="1.995809">
        <ele>98.584493</ele>
        <time>2025-09-08T00:52:53.169Z</time>
      </trkpt>
      <trkpt lat="48.707250" lon="1.996308">
        <ele>101.124932</ele>
        <time>2025-09-08T00:53:12.648Z</time>
      </trkpt>
      <trkpt lat="48.707278" lon="1.996987">
        <ele>104.587928</ele>
        <time>2025-09-08T00:53:45.320Z</time>
      </trkpt>
      <trkpt lat="48.707380" lon="1.997285">
        <ele>106.296716</ele>
        <time>2025-09-08T00:54:04.244Z</time>
      </trkpt>
      <trkpt lat="48.707380" lon="1.997478">
        <ele>107.279125</ele>
        <time>2025-09-08T00:54:15.970Z</time>
      </trkpt>
      <trkpt lat="48.707514" lon="1.997811">
        <ele>109.264446</ele>
        <time>2025-09-08T00:54:41.170Z</time>
      </trkpt>
      <trkpt lat="48.707542" lon="1.998004">
        <ele>110.270313</ele>
        <time>2025-09-08T00:54:55.103Z</time>
      </trkpt>
      <trkpt lat="48.707638" lon="1.998291">
        <ele>112.369917</ele>
        <time>2025-09-08T00:55:18.462Z</time>
      </trkpt>
      <trkpt lat="48.707640" lon="1.998508">
        <ele>113.924068</ele>
        <time>2025-09-08T00:55:33.749Z</time>
      </trkpt>
      <trkpt lat="48.707579" lon="1.998777">
        <ele>115.961022</ele>
        <time>2025-09-08T00:55:52.828Z</time>
      </trkpt>
      <trkpt lat="48.707597" lon="1.999161">
        <ele>118.717889</ele>
        <time>2025-09-08T00:56:17.228Z</time>
      </trkpt>
      <trkpt lat="48.707648" lon="1.999354">
        <ele>120.206712</ele>
        <time>2025-09-08T00:56:30.156Z</time>
      </trkpt>
      <trkpt lat="48.707759" lon="1.999553">
        <ele>122.072698</ele>
        <time>2025-09-08T00:56:45.483Z</time>
      </trkpt>
      <trkpt lat="48.707765" lon="1.999664">
        <ele>122.870262</ele>
        <time>2025-09-08T00:56:52.218Z</time>
      </trkpt>
      <trkpt lat="48.707695" lon="1.999962">
        <ele>125.135493</ele>
        <time>2025-09-08T00:57:09.657Z</time>
      </trkpt>
      <trkpt lat="48.707574" lon="2.000204">
        <ele>127.309805</ele>
        <time>2025-09-08T00:57:25.969Z</time>
      </trkpt>
      <trkpt lat="48.707450" lon="2.000342">
        <ele>128.979369</ele>
        <time>2025-09-08T00:57:38.554Z</time>
      </trkpt>
      <trkpt lat="48.707397" lon="2.000457">
        <ele>129.983882</ele>
        <time>2025-09-08T00:57:46.274Z</time>
      </trkpt>
      <trkpt lat="48.707146" lon="2.001409">
        <ele>137.048750</ele>
        <time>2025-09-08T00:58:39.988Z</time>
      </trkpt>
      <trkpt lat="48.707134" lon="2.001516">
        <ele>137.795421</ele>
        <time>2025-09-08T00:58:45.994Z</time>
      </trkpt>
      <trkpt lat="48.707153" lon="2.001642">
        <ele>138.684592</ele>
        <time>2025-09-08T00:58:53.171Z</time>
      </trkpt>
      <trkpt lat="48.707249" lon="2.001761">
        <ele>139.977586</ele>
        <time>2025-09-08T00:59:04.247Z</time>
      </trkpt>
      <trkpt lat="48.707456" lon="2.001878">
        <ele>142.280801</ele>
        <time>2025-09-08T00:59:24.452Z</time>
      </trkpt>
      <trkpt lat="48.707596" lon="2.001881">
        <ele>143.740457</ele>
        <time>2025-09-08T00:59:37.856Z</time>
      </trkpt>
      <trkpt lat="48.707744" lon="2.001989">
        <ele>145.452941</ele>
        <time>2025-09-08T00:59:54.202Z</time>
      </trkpt>
      <trkpt lat="48.707901" lon="2.002236">
        <ele>147.812243</ele>
        <time>2025-09-08T01:00:17.452Z</time>
      </trkpt>
      <trkpt lat="48.707951" lon="2.002563">
        <ele>149.824970</ele>
        <time>2025-09-08T01:00:40.526Z</time>
      </trkpt>
      <trkpt lat="48.708020" lon="2.002693">
        <ele>150.657111</ele>
        <time>2025-09-08T01:00:51.744Z</time>
      </trkpt>
      <trkpt lat="48.708064" lon="2.002706">
        <ele>150.995950</ele>
        <time>2025-09-08T01:00:56.214Z</time>
      </trkpt>
      <trkpt lat="48.708186" lon="2.002616">
        <ele>152.021557</ele>
        <time>2025-09-08T01:01:09.343Z</time>
      </trkpt>
      <trkpt lat="48.708539" lon="2.002485">
        <ele>154.768572</ele>
        <time>2025-09-08T01:01:40.997Z</time>
      </trkpt>
      <trkpt lat="48.708971" lon="2.002498">
        <ele>158.034516</ele>
        <time>2025-09-08T01:02:11.253Z</time>
      </trkpt>
      <trkpt lat="48.709232" lon="2.002631">
        <ele>160.115849</ele>
        <time>2025-09-08T01:02:28.258Z</time>
      </trkpt>
      <trkpt lat="48.708861" lon="2.003795">
        <ele>163.475287</ele>
        <time>2025-09-08T01:02:59.424Z</time>
      </trkpt>
      <trkpt lat="48.708832" lon="2.004291">
        <ele>164.004850</ele>
        <time>2025-09-08T01:03:08.162Z</time>
      </trkpt>
      <trkpt lat="48.708909" lon="2.004927">
        <ele>164.692527</ele>
        <time>2025-09-08T01:03:20.002Z</time>
      </trkpt>
      <trkpt lat="48.709062" lon="2.005654">
        <ele>165.504059</ele>
        <time>2025-09-08T01:03:34.969Z</time>
      </trkpt>
      <trkpt lat="48.709260" lon="2.006265">
        <ele>165.609445</ele>
        <time>2025-09-08T01:03:47.447Z</time>
      </trkpt>
      <trkpt lat="48.709547" lon="2.006745">
        <ele>165.681512</ele>
        <time>2025-09-08T01:03:57.971Z</time>
      </trkpt>
      <trkpt lat="48.710043" lon="2.007272">
        <ele>165.783648</ele>
        <time>2025-09-08T01:04:11.553Z</time>
      </trkpt>
      <trkpt lat="48.710459" lon="2.007621">
        <ele>165.769641</ele>
        <time>2025-09-08T01:04:21.522Z</time>
      </trkpt>
      <trkpt lat="48.710626" lon="2.007642">
        <ele>165.684088</ele>
        <time>2025-09-08T01:04:25.043Z</time>
      </trkpt>
      <trkpt lat="48.711701" lon="2.008528">
        <ele>165.059343</ele>
        <time>2025-09-08T01:05:09.007Z</time>
      </trkpt>
      <trkpt lat="48.713466" lon="2.007553">
        <ele>163.685653</ele>
        <time>2025-09-08T01:06:14.470Z</time>
      </trkpt>
      <trkpt lat="48.714128" lon="2.008892">
        <ele>162.620516</ele>
        <time>2025-09-08T01:06:53.768Z</time>
      </trkpt>
      <trkpt lat="48.715320" lon="2.010235">
        <ele>160.582498</ele>
        <time>2025-09-08T01:07:43.730Z</time>
      </trkpt>
      <trkpt lat="48.715905" lon="2.010649">
        <ele>159.349056</ele>
        <time>2025-09-08T01:08:04.488Z</time>
      </trkpt>
      <trkpt lat="48.716478" lon="2.010861">
        <ele>158.220399</ele>
        <time>2025-09-08T01:08:23.521Z</time>
      </trkpt>
      <trkpt lat="48.716646" lon="2.011049">
        <ele>157.811577</ele>
        <time>2025-09-08T01:08:30.246Z</time>
      </trkpt>
      <trkpt lat="48.716835" lon="2.011550">
        <ele>157.066153</ele>
        <time>2025-09-08T01:08:42.508Z</time>
      </trkpt>
      <trkpt lat="48.717012" lon="2.012301">
        <ele>156.036101</ele>
        <time>2025-09-08T01:08:52.500Z</time>
      </trkpt>
      <trkpt lat="48.717643" lon="2.013263">
        <ele>154.756877</ele>
        <time>2025-09-08T01:09:09.944Z</time>
      </trkpt>
      <trkpt lat="48.718016" lon="2.012743">
        <ele>154.720275</ele>
        <time>2025-09-08T01:09:20.814Z</time>
      </trkpt>
      <trkpt lat="48.718102" lon="2.012736">
        <ele>154.714055</ele>
        <time>2025-09-08T01:09:22.721Z</time>
      </trkpt>
      <trkpt lat="48.718123" lon="2.012564">
        <ele>154.705720</ele>
        <time>2025-09-08T01:09:25.385Z</time>
      </trkpt>
      <trkpt lat="48.718228" lon="2.011934">
        <ele>154.674757</ele>
        <time>2025-09-08T01:09:36.023Z</time>
      </trkpt>
      <trkpt lat="48.718414" lon="2.010968">
        <ele>154.907529</ele>
        <time>2025-09-08T01:09:55.292Z</time>
      </trkpt>
      <trkpt lat="48.718547" lon="2.010360">
        <ele>155.345730</ele>
        <time>2025-09-08T01:10:08.178Z</time>
      </trkpt>
      <trkpt lat="48.718789" lon="2.009165">
        <ele>156.200874</ele>
        <time>2025-09-08T01:10:31.261Z</time>
      </trkpt>
      <trkpt lat="48.718913" lon="2.008273">
        <ele>156.406049</ele>
        <time>2025-09-08T01:10:45.811Z</time>
      </trkpt>
      <trkpt lat="48.720480" lon="2.008777">
        <ele>156.010004</ele>
        <time>2025-09-08T01:11:42.125Z</time>
      </trkpt>
      <trkpt lat="48.720565" lon="2.008767">
        <ele>156.103807</ele>
        <time>2025-09-08T01:11:45.178Z</time>
      </trkpt>
      <trkpt lat="48.721235" lon="2.008874">
        <ele>156.845056</ele>
        <time>2025-09-08T01:12:10.799Z</time>
      </trkpt>
      <trkpt lat="48.721472" lon="2.008944">
        <ele>157.110720</ele>
        <time>2025-09-08T01:12:21.052Z</time>
      </trkpt>
      <trkpt lat="48.723363" lon="2.009632">
        <ele>161.057487</ele>
        <time>2025-09-08T01:13:58.958Z</time>
      </trkpt>
      <trkpt lat="48.724034" lon="2.009888">
        <ele>162.670395</ele>
        <time>2025-09-08T01:14:23.098Z</time>
      </trkpt>
      <trkpt lat="48.724071" lon="2.009785">
        <ele>162.789674</ele>
        <time>2025-09-08T01:14:25.641Z</time>
      </trkpt>
      <trkpt lat="48.724899" lon="2.010586">
        <ele>164.303990</ele>
        <time>2025-09-08T01:15:10.694Z</time>
      </trkpt>
      <trkpt lat="48.726017" lon="2.011563">
        <ele>165.149101</ele>
        <time>2025-09-08T01:16:03.187Z</time>
      </trkpt>
      <trkpt lat="48.727492" lon="2.013008">
        <ele>164.141633</ele>
        <time>2025-09-08T01:17:05.109Z</time>
      </trkpt>
      <trkpt lat="48.727966" lon="2.013627">
        <ele>163.283369</ele>
        <time>2025-09-08T01:17:26.485Z</time>
      </trkpt>
      <trkpt lat="48.728518" lon="2.015750">
        <ele>158.254029</ele>
        <time>2025-09-08T01:18:14.378Z</time>
      </trkpt>
      <trkpt lat="48.728757" lon="2.016182">
        <ele>156.627298</ele>
        <time>2025-09-08T01:18:25.008Z</time>
      </trkpt>
      <trkpt lat="48.728995" lon="2.016455">
        <ele>155.321911</ele>
        <time>2025-09-08T01:18:29.547Z</time>
      </trkpt>
      <trkpt lat="48.729147" lon="2.016562">
        <ele>154.450639</ele>
        <time>2025-09-08T01:18:32.034Z</time>
      </trkpt>
      <trkpt lat="48.729280" lon="2.016642">
        <ele>153.085092</ele>
        <time>2025-09-08T01:18:34.141Z</time>
      </trkpt>
      <trkpt lat="48.729644" lon="2.016742">
        <ele>149.554669</ele>
        <time>2025-09-08T01:18:39.459Z</time>
      </trkpt>
      <trkpt lat="48.729785" lon="2.016820">
        <ele>148.122246</ele>
        <time>2025-09-08T01:18:41.588Z</time>
      </trkpt>
      <trkpt lat="48.730174" lon="2.017134">
        <ele>143.916389</ele>
        <time>2025-09-08T01:18:47.793Z</time>
      </trkpt>
      <trkpt lat="48.730564" lon="2.017248">
        <ele>140.125860</ele>
        <time>2025-09-08T01:18:53.378Z</time>
      </trkpt>
      <trkpt lat="48.730708" lon="2.017324">
        <ele>138.670698</ele>
        <time>2025-09-08T01:18:55.533Z</time>
      </trkpt>
      <trkpt lat="48.731137" lon="2.017667">
        <ele>134.634075</ele>
        <time>2025-09-08T01:19:02.416Z</time>
      </trkpt>
      <trkpt lat="48.731355" lon="2.017807">
        <ele>132.756976</ele>
        <time>2025-09-08T01:19:05.805Z</time>
      </trkpt>
      <trkpt lat="48.731464" lon="2.017922">
        <ele>131.704098</ele>
        <time>2025-09-08T01:19:07.744Z</time>
      </trkpt>
      <trkpt lat="48.731862" lon="2.018456">
        <ele>127.490289</ele>
        <time>2025-09-08T01:19:15.691Z</time>
      </trkpt>
      <trkpt lat="48.732174" lon="2.018815">
        <ele>124.384827</ele>
        <time>2025-09-08T01:19:21.623Z</time>
      </trkpt>
      <trkpt lat="48.732225" lon="2.018639">
        <ele>123.379525</ele>
        <time>2025-09-08T01:19:23.659Z</time>
      </trkpt>
      <trkpt lat="48.732291" lon="2.018413">
        <ele>122.438080</ele>
        <time>2025-09-08T01:19:26.274Z</time>
      </trkpt>
      <trkpt lat="48.732376" lon="2.018197">
        <ele>121.509893</ele>
        <time>2025-09-08T01:19:28.947Z</time>
      </trkpt>
      <trkpt lat="48.732523" lon="2.018321">
        <ele>120.568715</ele>
        <time>2025-09-08T01:19:31.657Z</time>
      </trkpt>
      <trkpt lat="48.733225" lon="2.019558">
        <ele>114.546776</ele>
        <time>2025-09-08T01:19:49.308Z</time>
      </trkpt>
      <trkpt lat="48.733225" lon="2.019558">
        <ele>114.546776</ele>
        <time>2025-09-08T01:19:49.320Z</time>
      </trkpt>
      <trkpt lat="48.733225" lon="2.019558">
        <ele>114.546776</ele>
        <time>2025-09-08T01:19:49.320Z</time>
      </trkpt>
      <trkpt lat="48.733290" lon="2.020367">
        <ele>111.987891</ele>
        <time>2025-09-08T01:20:03.235Z</time>
      </trkpt>
      <trkpt lat="48.733503" lon="2.021367">
        <ele>109.147129</ele>
        <time>2025-09-08T01:20:21.173Z</time>
      </trkpt>
      <trkpt lat="48.733569" lon="2.021782">
        <ele>107.993114</ele>
        <time>2025-09-08T01:20:28.461Z</time>
      </trkpt>
      <trkpt lat="48.733727" lon="2.022045">
        <ele>107.031434</ele>
        <time>2025-09-08T01:20:34.532Z</time>
      </trkpt>
      <trkpt lat="48.734065" lon="2.022408">
        <ele>105.886309</ele>
        <time>2025-09-08T01:20:45.246Z</time>
      </trkpt>
      <trkpt lat="48.734065" lon="2.022408">
        <ele>105.886309</ele>
        <time>2025-09-08T01:20:45.304Z</time>
      </trkpt>
      <trkpt lat="48.734103" lon="2.022456">
        <ele>105.902844</ele>
        <time>2025-09-08T01:20:46.426Z</time>
      </trkpt>
      <trkpt lat="48.734455" lon="2.022887">
        <ele>106.054097</ele>
        <time>2025-09-08T01:20:55.802Z</time>
      </trkpt>
      <trkpt lat="48.734692" lon="2.022924">
        <ele>106.133745</ele>
        <time>2025-09-08T01:21:05.489Z</time>
      </trkpt>
      <trkpt lat="48.735262" lon="2.022943">
        <ele>106.324342</ele>
        <time>2025-09-08T01:21:30.296Z</time>
      </trkpt>
      <trkpt lat="48.735717" lon="2.022888">
        <ele>106.670657</ele>
        <time>2025-09-08T01:21:53.469Z</time>
      </trkpt>
      <trkpt lat="48.736452" lon="2.022902">
        <ele>108.451765</ele>
        <time>2025-09-08T01:22:30.155Z</time>
      </trkpt>
      <trkpt lat="48.737519" lon="2.022582">
        <ele>111.001532</ele>
        <time>2025-09-08T01:23:24.348Z</time>
      </trkpt>
      <trkpt lat="48.738214" lon="2.022503">
        <ele>112.178763</ele>
        <time>2025-09-08T01:23:55.136Z</time>
      </trkpt>
      <trkpt lat="48.739325" lon="2.022681">
        <ele>114.940408</ele>
        <time>2025-09-08T01:24:41.518Z</time>
      </trkpt>
      <trkpt lat="48.739922" lon="2.022963">
        <ele>120.129470</ele>
        <time>2025-09-08T01:25:20.022Z</time>
      </trkpt>
      <trkpt lat="48.739936" lon="2.023254">
        <ele>121.726264</ele>
        <time>2025-09-08T01:25:35.285Z</time>
      </trkpt>
      <trkpt lat="48.739864" lon="2.023787">
        <ele>124.703791</ele>
        <time>2025-09-08T01:26:07.862Z</time>
      </trkpt>
      <trkpt lat="48.739756" lon="2.024186">
        <ele>127.064184</ele>
        <time>2025-09-08T01:26:37.103Z</time>
      </trkpt>
      <trkpt lat="48.739600" lon="2.024607">
        <ele>130.108637</ele>
        <time>2025-09-08T01:27:12.281Z</time>
      </trkpt>
      <trkpt lat="48.739456" lon="2.025159">
        <ele>134.747639</ele>
        <time>2025-09-08T01:27:55.248Z</time>
      </trkpt>
      <trkpt lat="48.739432" lon="2.025335">
        <ele>136.152140</ele>
        <time>2025-09-08T01:28:07.710Z</time>
      </trkpt>
      <trkpt lat="48.739444" lon="2.025529">
        <ele>137.674868</ele>
        <time>2025-09-08T01:28:21.053Z</time>
      </trkpt>
      <trkpt lat="48.739556" lon="2.025848">
        <ele>140.499064</ele>
        <time>2025-09-08T01:28:45.014Z</time>
      </trkpt>
      <trkpt lat="48.739756" lon="2.026253">
        <ele>144.453038</ele>
        <time>2025-09-08T01:29:16.388Z</time>
      </trkpt>
      <trkpt lat="48.740016" lon="2.026531">
        <ele>148.222934</ele>
        <time>2025-09-08T01:29:44.515Z</time>
      </trkpt>
      <trkpt lat="48.740766" lon="2.027090">
        <ele>154.107955</ele>
        <time>2025-09-08T01:30:49.617Z</time>
      </trkpt>
      <trkpt lat="48.741146" lon="2.027529">
        <ele>156.941151</ele>
        <time>2025-09-08T01:31:21.067Z</time>
      </trkpt>
      <trkpt lat="48.741687" lon="2.028164">
        <ele>160.808944</ele>
        <time>2025-09-08T01:32:00.219Z</time>
      </trkpt>
      <trkpt lat="48.742297" lon="2.029116">
        <ele>162.049754</ele>
        <time>2025-09-08T01:32:38.033Z</time>
      </trkpt>
      <trkpt lat="48.741641" lon="2.030148">
        <ele>163.366397</ele>
        <time>2025-09-08T01:33:02.697Z</time>
      </trkpt>
      <trkpt lat="48.741455" lon="2.030509">
        <ele>163.684807</ele>
        <time>2025-09-08T01:33:10.769Z</time>
      </trkpt>
      <trkpt lat="48.741299" lon="2.030943">
        <ele>164.028354</ele>
        <time>2025-09-08T01:33:19.567Z</time>
      </trkpt>
      <trkpt lat="48.740871" lon="2.032334">
        <ele>165.095220</ele>
        <time>2025-09-08T01:33:47.983Z</time>
      </trkpt>
      <trkpt lat="48.740702" lon="2.032935">
        <ele>165.392445</ele>
        <time>2025-09-08T01:34:00.134Z</time>
      </trkpt>
      <trkpt lat="48.740508" lon="2.033756">
        <ele>165.730459</ele>
        <time>2025-09-08T01:34:15.807Z</time>
      </trkpt>
      <trkpt lat="48.740294" lon="2.034848">
        <ele>166.171991</ele>
        <time>2025-09-08T01:34:33.798Z</time>
      </trkpt>
      <trkpt lat="48.740021" lon="2.035401">
        <ele>166.047284</ele>
        <time>2025-09-08T01:34:43.556Z</time>
      </trkpt>
      <trkpt lat="48.739981" lon="2.035464">
        <ele>166.010408</ele>
        <time>2025-09-08T01:34:44.748Z</time>
      </trkpt>
      <trkpt lat="48.739788" lon="2.035964">
        <ele>165.766109</ele>
        <time>2025-09-08T01:34:52.606Z</time>
      </trkpt>
      <trkpt lat="48.739540" lon="2.036507">
        <ele>165.487588</ele>
        <time>2025-09-08T01:35:01.339Z</time>
      </trkpt>
      <trkpt lat="48.739007" lon="2.037165">
        <ele>165.056683</ele>
        <time>2025-09-08T01:35:15.178Z</time>
      </trkpt>
      <trkpt lat="48.738912" lon="2.037007">
        <ele>164.980940</ele>
        <time>2025-09-08T01:35:17.995Z</time>
      </trkpt>
      <trkpt lat="48.738701" lon="2.036747">
        <ele>164.834892</ele>
        <time>2025-09-08T01:35:23.476Z</time>
      </trkpt>
      <trkpt lat="48.738577" lon="2.036725">
        <ele>164.767829</ele>
        <time>2025-09-08T01:35:26.037Z</time>
      </trkpt>
      <trkpt lat="48.738425" lon="2.036776">
        <ele>164.684205</ele>
        <time>2025-09-08T01:35:29.226Z</time>
      </trkpt>
      <trkpt lat="48.737904" lon="2.037322">
        <ele>164.344003</ele>
        <time>2025-09-08T01:35:42.401Z</time>
      </trkpt>
      <trkpt lat="48.738117" lon="2.037805">
        <ele>164.138165</ele>
        <time>2025-09-08T01:35:50.655Z</time>
      </trkpt>
      <trkpt lat="48.738371" lon="2.038490">
        <ele>164.246338</ele>
        <time>2025-09-08T01:36:02.568Z</time>
      </trkpt>
      <trkpt lat="48.738883" lon="2.039509">
        <ele>164.428696</ele>
        <time>2025-09-08T01:36:22.884Z</time>
      </trkpt>
      <trkpt lat="48.739260" lon="2.040267">
        <ele>164.549129</ele>
        <time>2025-09-08T01:36:38.032Z</time>
      </trkpt>
      <trkpt lat="48.739973" lon="2.042090">
        <ele>164.740085</ele>
        <time>2025-09-08T01:37:10.423Z</time>
      </trkpt>
      <trkpt lat="48.740308" lon="2.042664">
        <ele>164.631212</ele>
        <time>2025-09-08T01:37:21.279Z</time>
      </trkpt>
      <trkpt lat="48.740420" lon="2.042614">
        <ele>164.575599</ele>
        <time>2025-09-08T01:37:23.733Z</time>
      </trkpt>
      <trkpt lat="48.740453" lon="2.042567">
        <ele>164.554034</ele>
        <time>2025-09-08T01:37:24.681Z</time>
      </trkpt>
      <trkpt lat="48.740707" lon="2.042613">
        <ele>164.432186</ele>
        <time>2025-09-08T01:37:30.046Z</time>
      </trkpt>
      <trkpt lat="48.741169" lon="2.042823">
        <ele>164.202447</ele>
        <time>2025-09-08T01:37:39.961Z</time>
      </trkpt>
      <trkpt lat="48.742956" lon="2.044326">
        <ele>163.030158</ele>
        <time>2025-09-08T01:38:22.100Z</time>
      </trkpt>
      <trkpt lat="48.743163" lon="2.044567">
        <ele>162.869680</ele>
        <time>2025-09-08T01:38:27.604Z</time>
      </trkpt>
      <trkpt lat="48.743341" lon="2.044903">
        <ele>162.682838</ele>
        <time>2025-09-08T01:38:33.567Z</time>
      </trkpt>
      <trkpt lat="48.743560" lon="2.045491">
        <ele>162.379429</ele>
        <time>2025-09-08T01:38:42.887Z</time>
      </trkpt>
      <trkpt lat="48.744317" lon="2.047167">
        <ele>161.344596</ele>
        <time>2025-09-08T01:39:10.197Z</time>
      </trkpt>
      <trkpt lat="48.744898" lon="2.048671">
        <ele>159.726185</ele>
        <time>2025-09-08T01:39:32.981Z</time>
      </trkpt>
      <trkpt lat="48.745075" lon="2.048983">
        <ele>159.344049</ele>
        <time>2025-09-08T01:39:38.099Z</time>
      </trkpt>
      <trkpt lat="48.745471" lon="2.049513">
        <ele>157.347070</ele>
        <time>2025-09-08T01:39:47.743Z</time>
      </trkpt>
      <trkpt lat="48.746383" lon="2.050900">
        <ele>150.444274</ele>
        <time>2025-09-08T01:40:07.981Z</time>
      </trkpt>
      <trkpt lat="48.746535" lon="2.050977">
        <ele>149.587803</ele>
        <time>2025-09-08T01:40:10.304Z</time>
      </trkpt>
      <trkpt lat="48.746745" lon="2.051020">
        <ele>148.014266</ele>
        <time>2025-09-08T01:40:13.330Z</time>
      </trkpt>
      <trkpt lat="48.747305" lon="2.050968">
        <ele>143.667379</ele>
        <time>2025-09-08T01:40:21.296Z</time>
      </trkpt>
      <trkpt lat="48.747481" lon="2.050874">
        <ele>142.221680</ele>
        <time>2025-09-08T01:40:23.917Z</time>
      </trkpt>
      <trkpt lat="48.747639" lon="2.050728">
        <ele>140.788197</ele>
        <time>2025-09-08T01:40:26.532Z</time>
      </trkpt>
      <trkpt lat="48.747769" lon="2.050530">
        <ele>139.360732</ele>
        <time>2025-09-08T01:40:29.181Z</time>
      </trkpt>
      <trkpt lat="48.748320" lon="2.049498">
        <ele>135.364289</ele>
        <time>2025-09-08T01:40:43.349Z</time>
      </trkpt>
      <trkpt lat="48.748353" lon="2.049447">
        <ele>135.347282</ele>
        <time>2025-09-08T01:40:44.259Z</time>
      </trkpt>
      <trkpt lat="48.748493" lon="2.049187">
        <ele>135.267384</ele>
        <time>2025-09-08T01:40:48.853Z</time>
      </trkpt>
      <trkpt lat="48.748598" lon="2.049080">
        <ele>135.221721</ele>
        <time>2025-09-08T01:40:51.662Z</time>
      </trkpt>
      <trkpt lat="48.748740" lon="2.049098">
        <ele>135.170283</ele>
        <time>2025-09-08T01:40:55.089Z</time>
      </trkpt>
      <trkpt lat="48.749077" lon="2.049387">
        <ele>135.030534</ele>
        <time>2025-09-08T01:41:06.092Z</time>
      </trkpt>
      <trkpt lat="48.749177" lon="2.049489">
        <ele>134.987032</ele>
        <time>2025-09-08T01:41:10.115Z</time>
      </trkpt>
      <trkpt lat="48.749275" lon="2.049672">
        <ele>134.930920</ele>
        <time>2025-09-08T01:41:16.180Z</time>
      </trkpt>
      <trkpt lat="48.749478" lon="2.050235">
        <ele>134.800378</ele>
        <time>2025-09-08T01:41:32.301Z</time>
      </trkpt>
      <trkpt lat="48.749772" lon="2.050864">
        <ele>134.672606</ele>
        <time>2025-09-08T01:41:44.521Z</time>
      </trkpt>
      <trkpt lat="48.749874" lon="2.050994">
        <ele>134.639120</ele>
        <time>2025-09-08T01:41:47.185Z</time>
      </trkpt>
      <trkpt lat="48.749955" lon="2.051090">
        <ele>134.613283</ele>
        <time>2025-09-08T01:41:49.191Z</time>
      </trkpt>
      <trkpt lat="48.749966" lon="2.051530">
        <ele>134.540315</ele>
        <time>2025-09-08T01:41:58.863Z</time>
      </trkpt>
      <trkpt lat="48.749850" lon="2.051703">
        <ele>134.499426</ele>
        <time>2025-09-08T01:42:04.300Z</time>
      </trkpt>
      <trkpt lat="48.749608" lon="2.051816">
        <ele>134.435785</ele>
        <time>2025-09-08T01:42:12.769Z</time>
      </trkpt>
      <trkpt lat="48.749349" lon="2.052050">
        <ele>134.324304</ele>
        <time>2025-09-08T01:42:22.935Z</time>
      </trkpt>
      <trkpt lat="48.749221" lon="2.052248">
        <ele>134.236445</ele>
        <time>2025-09-08T01:42:28.821Z</time>
      </trkpt>
      <trkpt lat="48.749157" lon="2.052505">
        <ele>134.149400</ele>
        <time>2025-09-08T01:42:34.621Z</time>
      </trkpt>
      <trkpt lat="48.748871" lon="2.054082">
        <ele>133.631170</ele>
        <time>2025-09-08T01:43:15.532Z</time>
      </trkpt>
      <trkpt lat="48.748902" lon="2.054409">
        <ele>133.499077</ele>
        <time>2025-09-08T01:43:24.660Z</time>
      </trkpt>
      <trkpt lat="48.749035" lon="2.054939">
        <ele>132.729383</ele>
        <time>2025-09-08T01:43:38.299Z</time>
      </trkpt>
      <trkpt lat="48.749047" lon="2.055257">
        <ele>132.297063</ele>
        <time>2025-09-08T01:43:45.405Z</time>
      </trkpt>
      <trkpt lat="48.749062" lon="2.055606">
        <ele>131.822369</ele>
        <time>2025-09-08T01:43:52.900Z</time>
      </trkpt>
      <trkpt lat="48.749031" lon="2.055810">
        <ele>131.538226</ele>
        <time>2025-09-08T01:43:57.264Z</time>
      </trkpt>
      <trkpt lat="48.748884" lon="2.056358">
        <ele>130.735241</ele>
        <time>2025-09-08T01:44:09.200Z</time>
      </trkpt>
      <trkpt lat="48.748571" lon="2.057188">
        <ele>129.508898</ele>
        <time>2025-09-08T01:44:28.253Z</time>
      </trkpt>
      <trkpt lat="48.748490" lon="2.057810">
        <ele>128.804023</ele>
        <time>2025-09-08T01:44:41.340Z</time>
      </trkpt>
      <trkpt lat="48.748453" lon="2.058291">
        <ele>128.265638</ele>
        <time>2025-09-08T01:44:51.677Z</time>
      </trkpt>
      <trkpt lat="48.748342" lon="2.058579">
        <ele>127.894762</ele>
        <time>2025-09-08T01:44:59.067Z</time>
      </trkpt>
      <trkpt lat="48.748037" lon="2.059210">
        <ele>127.024929</ele>
        <time>2025-09-08T01:45:17.528Z</time>
      </trkpt>
      <trkpt lat="48.747964" lon="2.059378">
        <ele>126.801241</ele>
        <time>2025-09-08T01:45:22.629Z</time>
      </trkpt>
      <trkpt lat="48.747876" lon="2.059702">
        <ele>126.689568</ele>
        <time>2025-09-08T01:45:31.657Z</time>
      </trkpt>
      <trkpt lat="48.747572" lon="2.060267">
        <ele>126.459523</ele>
        <time>2025-09-08T01:45:49.389Z</time>
      </trkpt>
      <trkpt lat="48.747498" lon="2.060449">
        <ele>126.392071</ele>
        <time>2025-09-08T01:45:54.432Z</time>
      </trkpt>
      <trkpt lat="48.747388" lon="2.060822">
        <ele>126.263171</ele>
        <time>2025-09-08T01:46:03.960Z</time>
      </trkpt>
      <trkpt lat="48.747371" lon="2.060928">
        <ele>126.228757</ele>
        <time>2025-09-08T01:46:06.515Z</time>
      </trkpt>
      <trkpt lat="48.747384" lon="2.061086">
        <ele>126.178527</ele>
        <time>2025-09-08T01:46:10.264Z</time>
      </trkpt>
      <trkpt lat="48.747389" lon="2.061185">
        <ele>126.147205</ele>
        <time>2025-09-08T01:46:12.595Z</time>
      </trkpt>
      <trkpt lat="48.747346" lon="2.061390">
        <ele>126.079342</ele>
        <time>2025-09-08T01:46:17.580Z</time>
      </trkpt>
      <trkpt lat="48.747294" lon="2.061499">
        <ele>126.036901</ele>
        <time>2025-09-08T01:46:20.676Z</time>
      </trkpt>
      <trkpt lat="48.747281" lon="2.061626">
        <ele>125.996357</ele>
        <time>2025-09-08T01:46:23.608Z</time>
      </trkpt>
      <trkpt lat="48.747205" lon="2.061796">
        <ele>125.955911</ele>
        <time>2025-09-08T01:46:28.322Z</time>
      </trkpt>
      <trkpt lat="48.747144" lon="2.062289">
        <ele>126.305731</ele>
        <time>2025-09-08T01:46:39.656Z</time>
      </trkpt>
      <trkpt lat="48.747016" lon="2.062448">
        <ele>126.480728</ele>
        <time>2025-09-08T01:46:45.228Z</time>
      </trkpt>
      <trkpt lat="48.746821" lon="2.062908">
        <ele>126.862111</ele>
        <time>2025-09-08T01:46:57.474Z</time>
      </trkpt>
      <trkpt lat="48.746770" lon="2.063095">
        <ele>127.003241</ele>
        <time>2025-09-08T01:47:02.327Z</time>
      </trkpt>
      <trkpt lat="48.746717" lon="2.063194">
        <ele>127.092175</ele>
        <time>2025-09-08T01:47:05.602Z</time>
      </trkpt>
      <trkpt lat="48.746647" lon="2.063199">
        <ele>127.166293</ele>
        <time>2025-09-08T01:47:08.375Z</time>
      </trkpt>
      <trkpt lat="48.746575" lon="2.063282">
        <ele>127.261947</ele>
        <time>2025-09-08T01:47:12.225Z</time>
      </trkpt>
      <trkpt lat="48.746303" lon="2.063400">
        <ele>127.561170</ele>
        <time>2025-09-08T01:47:25.959Z</time>
      </trkpt>
      <trkpt lat="48.746274" lon="2.063407">
        <ele>127.592228</ele>
        <time>2025-09-08T01:47:27.589Z</time>
      </trkpt>
      <trkpt lat="48.746148" lon="2.063388">
        <ele>127.726150</ele>
        <time>2025-09-08T01:47:34.718Z</time>
      </trkpt>
      <trkpt lat="48.746060" lon="2.063294">
        <ele>127.839994</ele>
        <time>2025-09-08T01:47:41.194Z</time>
      </trkpt>
      <trkpt lat="48.745975" lon="2.063110">
        <ele>129.116691</ele>
        <time>2025-09-08T01:47:50.812Z</time>
      </trkpt>
      <trkpt lat="48.745760" lon="2.062694">
        <ele>132.145862</ele>
        <time>2025-09-08T01:48:16.269Z</time>
      </trkpt>
      <trkpt lat="48.745188" lon="2.061996">
        <ele>138.526921</ele>
        <time>2025-09-08T01:49:20.647Z</time>
      </trkpt>
      <trkpt lat="48.745097" lon="2.061713">
        <ele>140.331404</ele>
        <time>2025-09-08T01:49:40.270Z</time>
      </trkpt>
      <trkpt lat="48.745025" lon="2.060834">
        <ele>144.545659</ele>
        <time>2025-09-08T01:50:32.890Z</time>
      </trkpt>
      <trkpt lat="48.744868" lon="2.060783">
        <ele>145.318955</ele>
        <time>2025-09-08T01:50:44.341Z</time>
      </trkpt>
      <trkpt lat="48.744746" lon="2.060788">
        <ele>145.906745</ele>
        <time>2025-09-08T01:50:52.578Z</time>
      </trkpt>
      <trkpt lat="48.744572" lon="2.060895">
        <ele>146.811041</ele>
        <time>2025-09-08T01:51:03.818Z</time>
      </trkpt>
      <trkpt lat="48.744139" lon="2.060696">
        <ele>148.990117</ele>
        <time>2025-09-08T01:51:26.021Z</time>
      </trkpt>
      <trkpt lat="48.743911" lon="2.060685">
        <ele>150.088766</ele>
        <time>2025-09-08T01:51:34.684Z</time>
      </trkpt>
      <trkpt lat="48.743811" lon="2.060803">
        <ele>150.699013</ele>
        <time>2025-09-08T01:51:38.535Z</time>
      </trkpt>
      <trkpt lat="48.743861" lon="2.060972">
        <ele>151.287291</ele>
        <time>2025-09-08T01:51:41.524Z</time>
      </trkpt>
      <trkpt lat="48.743856" lon="2.061212">
        <ele>152.049893</ele>
        <time>2025-09-08T01:51:44.744Z</time>
      </trkpt>
      <trkpt lat="48.743853" lon="2.061388">
        <ele>151.419793</ele>
        <time>2025-09-08T01:51:46.868Z</time>
      </trkpt>
      <trkpt lat="48.743851" lon="2.061503">
        <ele>150.865164</ele>
        <time>2025-09-08T01:51:48.197Z</time>
      </trkpt>
      <trkpt lat="48.743813" lon="2.061692">
        <ele>149.912547</ele>
        <time>2025-09-08T01:51:50.390Z</time>
      </trkpt>
      <trkpt lat="48.743698" lon="2.061956">
        <ele>148.387120</ele>
        <time>2025-09-08T01:51:53.697Z</time>
      </trkpt>
      <trkpt lat="48.743686" lon="2.062094">
        <ele>147.716035</ele>
        <time>2025-09-08T01:51:56.266Z</time>
      </trkpt>
      <trkpt lat="48.744003" lon="2.062494">
        <ele>144.700993</ele>
        <time>2025-09-08T01:52:07.239Z</time>
      </trkpt>
      <trkpt lat="48.744161" lon="2.062794">
        <ele>142.849958</ele>
        <time>2025-09-08T01:52:13.790Z</time>
      </trkpt>
      <trkpt lat="48.744267" lon="2.063099">
        <ele>141.187783</ele>
        <time>2025-09-08T01:52:19.578Z</time>
      </trkpt>
      <trkpt lat="48.744530" lon="2.063651">
        <ele>137.676093</ele>
        <time>2025-09-08T01:52:30.814Z</time>
      </trkpt>
      <trkpt lat="48.744530" lon="2.063651">
        <ele>137.676093</ele>
        <time>2025-09-08T01:52:30.817Z</time>
      </trkpt>
      <trkpt lat="48.744666" lon="2.063880">
        <ele>135.876596</ele>
        <time>2025-09-08T01:52:35.881Z</time>
      </trkpt>
      <trkpt lat="48.745474" lon="2.064612">
        <ele>127.542429</ele>
        <time>2025-09-08T01:53:00.013Z</time>
      </trkpt>
      <trkpt lat="48.745609" lon="2.064774">
        <ele>126.018049</ele>
        <time>2025-09-08T01:53:04.674Z</time>
      </trkpt>
      <trkpt lat="48.745650" lon="2.064864">
        <ele>125.379333</ele>
        <time>2025-09-08T01:53:06.667Z</time>
      </trkpt>
      <trkpt lat="48.745803" lon="2.065044">
        <ele>123.664668</ele>
        <time>2025-09-08T01:53:12.146Z</time>
      </trkpt>
      <trkpt lat="48.745853" lon="2.065095">
        <ele>123.131099</ele>
        <time>2025-09-08T01:53:13.109Z</time>
      </trkpt>
      <trkpt lat="48.745895" lon="2.065138">
        <ele>123.163103</ele>
        <time>2025-09-08T01:53:14.593Z</time>
      </trkpt>
      <trkpt lat="48.746081" lon="2.065296">
        <ele>123.679646</ele>
        <time>2025-09-08T01:53:21.037Z</time>
      </trkpt>
      <trkpt lat="48.746035" lon="2.065409">
        <ele>123.891814</ele>
        <time>2025-09-08T01:53:23.776Z</time>
      </trkpt>
      <trkpt lat="48.745928" lon="2.065805">
        <ele>124.575545</ele>
        <time>2025-09-08T01:53:33.565Z</time>
      </trkpt>
      <trkpt lat="48.745857" lon="2.065940">
        <ele>124.851431</ele>
        <time>2025-09-08T01:53:38.447Z</time>
      </trkpt>
      <trkpt lat="48.745590" lon="2.066290">
        <ele>125.706527</ele>
        <time>2025-09-08T01:53:57.171Z</time>
      </trkpt>
      <trkpt lat="48.745590" lon="2.066290">
        <ele>125.706527</ele>
        <time>2025-09-08T01:53:57.201Z</time>
      </trkpt>
      <trkpt lat="48.745438" lon="2.066538">
        <ele>126.247475</ele>
        <time>2025-09-08T01:54:11.488Z</time>
      </trkpt>
      <trkpt lat="48.745363" lon="2.066825">
        <ele>126.740705</ele>
        <time>2025-09-08T01:54:25.547Z</time>
      </trkpt>
      <trkpt lat="48.745678" lon="2.067426">
        <ele>129.907312</ele>
        <time>2025-09-08T01:55:06.348Z</time>
      </trkpt>
      <trkpt lat="48.746077" lon="2.067646">
        <ele>134.567618</ele>
        <time>2025-09-08T01:55:45.502Z</time>
      </trkpt>
      <trkpt lat="48.746259" lon="2.068184">
        <ele>138.944317</ele>
        <time>2025-09-08T01:56:26.363Z</time>
      </trkpt>
      <trkpt lat="48.746375" lon="2.068433">
        <ele>141.151042</ele>
        <time>2025-09-08T01:56:46.557Z</time>
      </trkpt>
      <trkpt lat="48.746387" lon="2.068614">
        <ele>142.467749</ele>
        <time>2025-09-08T01:56:58.543Z</time>
      </trkpt>
      <trkpt lat="48.746896" lon="2.069044">
        <ele>148.268204</ele>
        <time>2025-09-08T01:57:53.810Z</time>
      </trkpt>
      <trkpt lat="48.747552" lon="2.069601">
        <ele>153.634831</ele>
        <time>2025-09-08T01:58:56.133Z</time>
      </trkpt>
      <trkpt lat="48.747797" lon="2.069808">
        <ele>155.636777</ele>
        <time>2025-09-08T01:59:15.535Z</time>
      </trkpt>
      <trkpt lat="48.748240" lon="2.070227">
        <ele>159.363568</ele>
        <time>2025-09-08T01:59:39.890Z</time>
      </trkpt>
      <trkpt lat="48.749181" lon="2.071317">
        <ele>161.721357</ele>
        <time>2025-09-08T02:00:20.789Z</time>
      </trkpt>
      <trkpt lat="48.750177" lon="2.068834">
        <ele>163.365193</ele>
        <time>2025-09-08T02:01:05.850Z</time>
      </trkpt>
      <trkpt lat="48.750261" lon="2.068596">
        <ele>163.444110</ele>
        <time>2025-09-08T02:01:10.344Z</time>
      </trkpt>
      <trkpt lat="48.750487" lon="2.067666">
        <ele>163.726314</ele>
        <time>2025-09-08T02:01:27.516Z</time>
      </trkpt>
      <trkpt lat="48.750527" lon="2.067742">
        <ele>163.752770</ele>
        <time>2025-09-08T02:01:29.221Z</time>
      </trkpt>
      <trkpt lat="48.750672" lon="2.067876">
        <ele>163.822831</ele>
        <time>2025-09-08T02:01:33.779Z</time>
      </trkpt>
      <trkpt lat="48.750876" lon="2.067911">
        <ele>163.907542</ele>
        <time>2025-09-08T02:01:39.293Z</time>
      </trkpt>
      <trkpt lat="48.750949" lon="2.067824">
        <ele>163.945850</ele>
        <time>2025-09-08T02:01:41.733Z</time>
      </trkpt>
      <trkpt lat="48.751112" lon="2.067649">
        <ele>164.028252</ele>
        <time>2025-09-08T02:01:46.843Z</time>
      </trkpt>
      <trkpt lat="48.751212" lon="2.067644">
        <ele>164.069536</ele>
        <time>2025-09-08T02:01:49.327Z</time>
      </trkpt>
      <trkpt lat="48.751492" lon="2.067807">
        <ele>164.193287</ele>
        <time>2025-09-08T02:01:56.543Z</time>
      </trkpt>
      <trkpt lat="48.753764" lon="2.069593">
        <ele>163.975574</ele>
        <time>2025-09-08T02:02:51.736Z</time>
      </trkpt>
      <trkpt lat="48.755189" lon="2.070717">
        <ele>163.857250</ele>
        <time>2025-09-08T02:03:27.394Z</time>
      </trkpt>
      <trkpt lat="48.755598" lon="2.071006">
        <ele>163.815850</ele>
        <time>2025-09-08T02:03:37.165Z</time>
      </trkpt>
      <trkpt lat="48.755572" lon="2.071186">
        <ele>163.804704</ele>
        <time>2025-09-08T02:03:39.785Z</time>
      </trkpt>
      <trkpt lat="48.755646" lon="2.071246">
        <ele>163.797005</ele>
        <time>2025-09-08T02:03:41.595Z</time>
      </trkpt>
      <trkpt lat="48.755679" lon="2.071445">
        <ele>163.784592</ele>
        <time>2025-09-08T02:03:44.521Z</time>
      </trkpt>
      <trkpt lat="48.755739" lon="2.071579">
        <ele>163.774793</ele>
        <time>2025-09-08T02:03:46.842Z</time>
      </trkpt>
      <trkpt lat="48.755876" lon="2.071727">
        <ele>163.759361</ele>
        <time>2025-09-08T02:03:50.500Z</time>
      </trkpt>
      <trkpt lat="48.755952" lon="2.071761">
        <ele>163.752091</ele>
        <time>2025-09-08T02:03:52.189Z</time>
      </trkpt>
      <trkpt lat="48.756015" lon="2.071781">
        <ele>163.746185</ele>
        <time>2025-09-08T02:03:53.610Z</time>
      </trkpt>
      <trkpt lat="48.756296" lon="2.071676">
        <ele>163.719631</ele>
        <time>2025-09-08T02:03:59.901Z</time>
      </trkpt>
      <trkpt lat="48.757138" lon="2.072276">
        <ele>163.935331</ele>
        <time>2025-09-08T02:04:21.422Z</time>
      </trkpt>
      <trkpt lat="48.757942" lon="2.072914">
        <ele>164.203252</ele>
        <time>2025-09-08T02:04:43.812Z</time>
      </trkpt>
      <trkpt lat="48.758618" lon="2.073405">
        <ele>164.394372</ele>
        <time>2025-09-08T02:05:01.896Z</time>
      </trkpt>
      <trkpt lat="48.759226" lon="2.073707">
        <ele>164.552917</ele>
        <time>2025-09-08T02:05:16.853Z</time>
      </trkpt>
      <trkpt lat="48.759263" lon="2.073673">
        <ele>164.563638</ele>
        <time>2025-09-08T02:05:17.833Z</time>
      </trkpt>
      <trkpt lat="48.759314" lon="2.073641">
        <ele>164.577315</ele>
        <time>2025-09-08T02:05:19.098Z</time>
      </trkpt>
      <trkpt lat="48.759394" lon="2.073643">
        <ele>164.597143</ele>
        <time>2025-09-08T02:05:20.922Z</time>
      </trkpt>
      <trkpt lat="48.759465" lon="2.073700">
        <ele>164.617050</ele>
        <time>2025-09-08T02:05:22.727Z</time>
      </trkpt>
      <trkpt lat="48.759496" lon="2.073739">
        <ele>164.627031</ele>
        <time>2025-09-08T02:05:23.655Z</time>
      </trkpt>
      <trkpt lat="48.759565" lon="2.073699">
        <ele>164.645336</ele>
        <time>2025-09-08T02:05:25.296Z</time>
      </trkpt>
      <trkpt lat="48.760077" lon="2.073629">
        <ele>164.657035</ele>
        <time>2025-09-08T02:05:36.702Z</time>
      </trkpt>
      <trkpt lat="48.761525" lon="2.072885">
        <ele>164.508515</ele>
        <time>2025-09-08T02:06:10.428Z</time>
      </trkpt>
      <trkpt lat="48.761739" lon="2.073025">
        <ele>164.389149</ele>
        <time>2025-09-08T02:06:15.424Z</time>
      </trkpt>
      <trkpt lat="48.761939" lon="2.073034">
        <ele>164.286666</ele>
        <time>2025-09-08T02:06:19.672Z</time>
      </trkpt>
      <trkpt lat="48.762126" lon="2.073459">
        <ele>164.114144</ele>
        <time>2025-09-08T02:06:26.736Z</time>
      </trkpt>
      <trkpt lat="48.762401" lon="2.073734">
        <ele>163.945443</ele>
        <time>2025-09-08T02:06:33.547Z</time>
      </trkpt>
      <trkpt lat="48.762610" lon="2.074063">
        <ele>163.791178</ele>
        <time>2025-09-08T02:06:39.705Z</time>
      </trkpt>
      <trkpt lat="48.763434" lon="2.075680">
        <ele>162.905247</ele>
        <time>2025-09-08T02:07:06.977Z</time>
      </trkpt>
      <trkpt lat="48.765320" lon="2.079263">
        <ele>161.218402</ele>
        <time>2025-09-08T02:08:09.759Z</time>
      </trkpt>
      <trkpt lat="48.765667" lon="2.079951">
        <ele>161.017156</ele>
        <time>2025-09-08T02:08:22.076Z</time>
      </trkpt>
      <trkpt lat="48.765687" lon="2.080063">
        <ele>160.990200</ele>
        <time>2025-09-08T02:08:23.808Z</time>
      </trkpt>
      <trkpt lat="48.765632" lon="2.080607">
        <ele>160.862349</ele>
        <time>2025-09-08T02:08:31.900Z</time>
      </trkpt>
      <trkpt lat="48.765682" lon="2.080709">
        <ele>160.832820</ele>
        <time>2025-09-08T02:08:33.790Z</time>
      </trkpt>
      <trkpt lat="48.765700" lon="2.080745">
        <ele>160.822323</ele>
        <time>2025-09-08T02:08:34.462Z</time>
      </trkpt>
      <trkpt lat="48.765774" lon="2.080877">
        <ele>160.782068</ele>
        <time>2025-09-08T02:08:37.024Z</time>
      </trkpt>
      <trkpt lat="48.766103" lon="2.080865">
        <ele>160.699653</ele>
        <time>2025-09-08T02:08:44.420Z</time>
      </trkpt>
      <trkpt lat="48.766310" lon="2.080747">
        <ele>160.653020</ele>
        <time>2025-09-08T02:08:49.371Z</time>
      </trkpt>
      <trkpt lat="48.766397" lon="2.080697">
        <ele>160.633401</ele>
        <time>2025-09-08T02:08:51.433Z</time>
      </trkpt>
      <trkpt lat="48.770238" lon="2.082400">
        <ele>160.088761</ele>
        <time>2025-09-08T02:11:17.395Z</time>
      </trkpt>
      <trkpt lat="48.770286" lon="2.082422">
        <ele>160.093888</ele>
        <time>2025-09-08T02:11:19.312Z</time>
      </trkpt>
      <trkpt lat="48.770452" lon="2.082518">
        <ele>160.112050</ele>
        <time>2025-09-08T02:11:26.090Z</time>
      </trkpt>
      <trkpt lat="48.770508" lon="2.082559">
        <ele>160.118407</ele>
        <time>2025-09-08T02:11:28.441Z</time>
      </trkpt>
      <trkpt lat="48.770593" lon="2.082642">
        <ele>160.128741</ele>
        <time>2025-09-08T02:11:30.959Z</time>
      </trkpt>
      <trkpt lat="48.770699" lon="2.082903">
        <ele>160.149399</ele>
        <time>2025-09-08T02:11:36.028Z</time>
      </trkpt>
      <trkpt lat="48.770710" lon="2.082982">
        <ele>160.154839</ele>
        <time>2025-09-08T02:11:37.403Z</time>
      </trkpt>
      <trkpt lat="48.770769" lon="2.083029">
        <ele>160.161652</ele>
        <time>2025-09-08T02:11:39.105Z</time>
      </trkpt>
      <trkpt lat="48.770883" lon="2.083079">
        <ele>160.173784</ele>
        <time>2025-09-08T02:11:42.195Z</time>
      </trkpt>
      <trkpt lat="48.770939" lon="2.083111">
        <ele>160.219887</ele>
        <time>2025-09-08T02:11:43.755Z</time>
      </trkpt>
      <trkpt lat="48.771165" lon="2.082951">
        <ele>160.450983</ele>
        <time>2025-09-08T02:11:50.476Z</time>
      </trkpt>
      <trkpt lat="48.771227" lon="2.082877">
        <ele>160.524080</ele>
        <time>2025-09-08T02:11:52.622Z</time>
      </trkpt>
      <trkpt lat="48.771300" lon="2.082852">
        <ele>160.593427</ele>
        <time>2025-09-08T02:11:54.692Z</time>
      </trkpt>
      <trkpt lat="48.772001" lon="2.083138">
        <ele>161.266075</ele>
        <time>2025-09-08T02:12:14.525Z</time>
      </trkpt>
      <trkpt lat="48.772295" lon="2.083299">
        <ele>161.555708</ele>
        <time>2025-09-08T02:12:23.279Z</time>
      </trkpt>
      <trkpt lat="48.772501" lon="2.083454">
        <ele>161.768777</ele>
        <time>2025-09-08T02:12:29.708Z</time>
      </trkpt>
      <trkpt lat="48.772854" lon="2.083836">
        <ele>162.028288</ele>
        <time>2025-09-08T02:12:41.609Z</time>
      </trkpt>
      <trkpt lat="48.773016" lon="2.084084">
        <ele>162.149299</ele>
        <time>2025-09-08T02:12:47.757Z</time>
      </trkpt>
      <trkpt lat="48.773231" lon="2.084550">
        <ele>162.346434</ele>
        <time>2025-09-08T02:12:57.346Z</time>
      </trkpt>
      <trkpt lat="48.773332" lon="2.084844">
        <ele>162.461333</ele>
        <time>2025-09-08T02:13:02.699Z</time>
      </trkpt>
      <trkpt lat="48.773523" lon="2.085584">
        <ele>162.736748</ele>
        <time>2025-09-08T02:13:14.800Z</time>
      </trkpt>
      <trkpt lat="48.774320" lon="2.089438">
        <ele>161.788594</ele>
        <time>2025-09-08T02:14:12.116Z</time>
      </trkpt>
      <trkpt lat="48.774603" lon="2.090442">
        <ele>161.215306</ele>
        <time>2025-09-08T02:14:26.758Z</time>
      </trkpt>
      <trkpt lat="48.774632" lon="2.090431">
        <ele>161.191492</ele>
        <time>2025-09-08T02:14:28.850Z</time>
      </trkpt>
      <trkpt lat="48.774665" lon="2.090422">
        <ele>161.164782</ele>
        <time>2025-09-08T02:14:31.132Z</time>
      </trkpt>
      <trkpt lat="48.774697" lon="2.090632">
        <ele>161.051624</ele>
        <time>2025-09-08T02:14:41.021Z</time>
      </trkpt>
      <trkpt lat="48.774761" lon="2.090521">
        <ele>160.974195</ele>
        <time>2025-09-08T02:14:42.867Z</time>
      </trkpt>
      <trkpt lat="48.774840" lon="2.090709">
        <ele>160.485536</ele>
        <time>2025-09-08T02:14:45.605Z</time>
      </trkpt>
      <trkpt lat="48.775207" lon="2.091598">
        <ele>158.067227</ele>
        <time>2025-09-08T02:14:57.798Z</time>
      </trkpt>
      <trkpt lat="48.775237" lon="2.091675">
        <ele>157.861019</ele>
        <time>2025-09-08T02:14:58.807Z</time>
      </trkpt>
      <trkpt lat="48.775303" lon="2.091833">
        <ele>157.429776</ele>
        <time>2025-09-08T02:15:00.918Z</time>
      </trkpt>
      <trkpt lat="48.775381" lon="2.092124">
        <ele>156.705573</ele>
        <time>2025-09-08T02:15:04.387Z</time>
      </trkpt>
      <trkpt lat="48.775523" lon="2.093013">
        <ele>154.502593</ele>
        <time>2025-09-08T02:15:14.016Z</time>
      </trkpt>
      <trkpt lat="48.775665" lon="2.093431">
        <ele>152.109789</ele>
        <time>2025-09-08T02:15:18.776Z</time>
      </trkpt>
      <trkpt lat="48.775859" lon="2.093746">
        <ele>149.916065</ele>
        <time>2025-09-08T02:15:23.074Z</time>
      </trkpt>
      <trkpt lat="48.776501" lon="2.094649">
        <ele>143.157368</ele>
        <time>2025-09-08T02:15:35.862Z</time>
      </trkpt>
      <trkpt lat="48.776766" lon="2.094925">
        <ele>140.678166</ele>
        <time>2025-09-08T02:15:40.413Z</time>
      </trkpt>
      <trkpt lat="48.777356" lon="2.095378">
        <ele>135.682268</ele>
        <time>2025-09-08T02:15:49.843Z</time>
      </trkpt>
      <trkpt lat="48.777581" lon="2.095599">
        <ele>133.657231</ele>
        <time>2025-09-08T02:15:53.710Z</time>
      </trkpt>
      <trkpt lat="48.778004" lon="2.096025">
        <ele>129.821455</ele>
        <time>2025-09-08T02:16:01.621Z</time>
      </trkpt>
      <trkpt lat="48.778267" lon="2.096218">
        <ele>127.614197</ele>
        <time>2025-09-08T02:16:06.462Z</time>
      </trkpt>
      <trkpt lat="48.778298" lon="2.096277">
        <ele>127.238495</ele>
        <time>2025-09-08T02:16:07.318Z</time>
      </trkpt>
      <trkpt lat="48.778298" lon="2.096417">
        <ele>127.024755</ele>
        <time>2025-09-08T02:16:08.945Z</time>
      </trkpt>
      <trkpt lat="48.778265" lon="2.096497">
        <ele>126.900741</ele>
        <time>2025-09-08T02:16:10.060Z</time>
      </trkpt>
      <trkpt lat="48.778150" lon="2.096619">
        <ele>126.620960</ele>
        <time>2025-09-08T02:16:12.656Z</time>
      </trkpt>
      <trkpt lat="48.778007" lon="2.096699">
        <ele>126.317065</ele>
        <time>2025-09-08T02:16:15.496Z</time>
      </trkpt>
      <trkpt lat="48.777836" lon="2.096796">
        <ele>125.953056</ele>
        <time>2025-09-08T02:16:19.063Z</time>
      </trkpt>
      <trkpt lat="48.777799" lon="2.096819">
        <ele>125.873330</ele>
        <time>2025-09-08T02:16:19.847Z</time>
      </trkpt>
      <trkpt lat="48.777700" lon="2.096878">
        <ele>125.661251</ele>
        <time>2025-09-08T02:16:21.966Z</time>
      </trkpt>
      <trkpt lat="48.777388" lon="2.097082">
        <ele>124.983847</ele>
        <time>2025-09-08T02:16:28.747Z</time>
      </trkpt>
      <trkpt lat="48.777300" lon="2.097132">
        <ele>124.796482</ele>
        <time>2025-09-08T02:16:30.601Z</time>
      </trkpt>
      <trkpt lat="48.776890" lon="2.097360">
        <ele>123.925796</ele>
        <time>2025-09-08T02:16:39.326Z</time>
      </trkpt>
      <trkpt lat="48.776709" lon="2.097548">
        <ele>123.430456</ele>
        <time>2025-09-08T02:16:43.531Z</time>
      </trkpt>
      <trkpt lat="48.776326" lon="2.098249">
        <ele>121.670656</ele>
        <time>2025-09-08T02:16:54.464Z</time>
      </trkpt>
      <trkpt lat="48.775712" lon="2.099602">
        <ele>118.495827</ele>
        <time>2025-09-08T02:17:12.397Z</time>
      </trkpt>
      <trkpt lat="48.775643" lon="2.099732">
        <ele>118.244496</ele>
        <time>2025-09-08T02:17:15.782Z</time>
      </trkpt>
      <trkpt lat="48.775963" lon="2.100204">
        <ele>117.505659</ele>
        <time>2025-09-08T02:17:29.710Z</time>
      </trkpt>
      <trkpt lat="48.776054" lon="2.100342">
        <ele>117.292661</ele>
        <time>2025-09-08T02:17:33.790Z</time>
      </trkpt>
      <trkpt lat="48.776158" lon="2.100548">
        <ele>117.009533</ele>
        <time>2025-09-08T02:17:39.276Z</time>
      </trkpt>
      <trkpt lat="48.776205" lon="2.100695">
        <ele>116.831269</ele>
        <time>2025-09-08T02:17:42.775Z</time>
      </trkpt>
      <trkpt lat="48.776230" lon="2.101079">
        <ele>116.410269</ele>
        <time>2025-09-08T02:17:51.125Z</time>
      </trkpt>
      <trkpt lat="48.776161" lon="2.102078">
        <ele>115.356150</ele>
        <time>2025-09-08T02:18:15.108Z</time>
      </trkpt>
      <trkpt lat="48.776189" lon="2.102487">
        <ele>115.327015</ele>
        <time>2025-09-08T02:18:26.447Z</time>
      </trkpt>
      <trkpt lat="48.776258" lon="2.103000">
        <ele>115.289917</ele>
        <time>2025-09-08T02:18:40.715Z</time>
      </trkpt>
      <trkpt lat="48.776272" lon="2.103311">
        <ele>115.267830</ele>
        <time>2025-09-08T02:18:48.974Z</time>
      </trkpt>
      <trkpt lat="48.776251" lon="2.103687">
        <ele>115.241093</ele>
        <time>2025-09-08T02:18:58.662Z</time>
      </trkpt>
      <trkpt lat="48.776154" lon="2.104561">
        <ele>115.178294</ele>
        <time>2025-09-08T02:19:19.683Z</time>
      </trkpt>
      <trkpt lat="48.776059" lon="2.105057">
        <ele>114.800610</ele>
        <time>2025-09-08T02:19:31.135Z</time>
      </trkpt>
      <trkpt lat="48.775975" lon="2.105375">
        <ele>114.430932</ele>
        <time>2025-09-08T02:19:38.511Z</time>
      </trkpt>
      <trkpt lat="48.775821" lon="2.105727">
        <ele>113.975024</ele>
        <time>2025-09-08T02:19:47.472Z</time>
      </trkpt>
      <trkpt lat="48.775440" lon="2.106471">
        <ele>112.958310</ele>
        <time>2025-09-08T02:20:07.359Z</time>
      </trkpt>
      <trkpt lat="48.775367" lon="2.106667">
        <ele>112.715373</ele>
        <time>2025-09-08T02:20:12.190Z</time>
      </trkpt>
      <trkpt lat="48.775361" lon="2.106998">
        <ele>112.358067</ele>
        <time>2025-09-08T02:20:19.478Z</time>
      </trkpt>
      <trkpt lat="48.775658" lon="2.107919">
        <ele>112.145494</ele>
        <time>2025-09-08T02:20:43.396Z</time>
      </trkpt>
      <trkpt lat="48.775789" lon="2.108146">
        <ele>112.120265</ele>
        <time>2025-09-08T02:20:51.077Z</time>
      </trkpt>
      <trkpt lat="48.775881" lon="2.108340">
        <ele>112.100281</ele>
        <time>2025-09-08T02:20:57.323Z</time>
      </trkpt>
      <trkpt lat="48.776167" lon="2.109244">
        <ele>112.016435</ele>
        <time>2025-09-08T02:21:23.577Z</time>
      </trkpt>
      <trkpt lat="48.776462" lon="2.109939">
        <ele>111.798849</ele>
        <time>2025-09-08T02:21:43.849Z</time>
      </trkpt>
      <trkpt lat="48.776681" lon="2.110447">
        <ele>111.580832</ele>
        <time>2025-09-08T02:21:57.963Z</time>
      </trkpt>
      <trkpt lat="48.776877" lon="2.110987">
        <ele>111.359423</ele>
        <time>2025-09-08T02:22:12.022Z</time>
      </trkpt>
      <trkpt lat="48.776961" lon="2.111312">
        <ele>111.234044</ele>
        <time>2025-09-08T02:22:19.957Z</time>
      </trkpt>
      <trkpt lat="48.777080" lon="2.112136">
        <ele>110.953501</ele>
        <time>2025-09-08T02:22:39.394Z</time>
      </trkpt>
      <trkpt lat="48.777098" lon="2.112373">
        <ele>110.891519</ele>
        <time>2025-09-08T02:22:45.120Z</time>
      </trkpt>
      <trkpt lat="48.777109" lon="2.112807">
        <ele>110.778679</ele>
        <time>2025-09-08T02:22:55.433Z</time>
      </trkpt>
      <trkpt lat="48.777039" lon="2.113300">
        <ele>110.647654</ele>
        <time>2025-09-08T02:23:07.327Z</time>
      </trkpt>
      <trkpt lat="48.777027" lon="2.113541">
        <ele>110.584861</ele>
        <time>2025-09-08T02:23:13.068Z</time>
      </trkpt>
      <trkpt lat="48.777062" lon="2.113771">
        <ele>110.523533</ele>
        <time>2025-09-08T02:23:18.805Z</time>
      </trkpt>
      <trkpt lat="48.777070" lon="2.113908">
        <ele>110.487800</ele>
        <time>2025-09-08T02:23:22.224Z</time>
      </trkpt>
      <trkpt lat="48.777037" lon="2.114040">
        <ele>110.451120</ele>
        <time>2025-09-08T02:23:25.656Z</time>
      </trkpt>
      <trkpt lat="48.776949" lon="2.114254">
        <ele>110.385584</ele>
        <time>2025-09-08T02:23:31.774Z</time>
      </trkpt>
      <trkpt lat="48.776873" lon="2.114562">
        <ele>110.299147</ele>
        <time>2025-09-08T02:23:39.678Z</time>
      </trkpt>
      <trkpt lat="48.776864" lon="2.114833">
        <ele>110.204321</ele>
        <time>2025-09-08T02:23:46.167Z</time>
      </trkpt>
      <trkpt lat="48.776894" lon="2.115092">
        <ele>110.112422</ele>
        <time>2025-09-08T02:23:52.360Z</time>
      </trkpt>
      <trkpt lat="48.776953" lon="2.115327">
        <ele>110.024539</ele>
        <time>2025-09-08T02:23:58.194Z</time>
      </trkpt>
      <trkpt lat="48.777320" lon="2.116437">
        <ele>109.590546</ele>
        <time>2025-09-08T02:24:26.795Z</time>
      </trkpt>
      <trkpt lat="48.777386" lon="2.117007">
        <ele>109.388300</ele>
        <time>2025-09-08T02:24:40.448Z</time>
      </trkpt>
      <trkpt lat="48.777455" lon="2.117613">
        <ele>109.301026</ele>
        <time>2025-09-08T02:24:55.083Z</time>
      </trkpt>
      <trkpt lat="48.777536" lon="2.117809">
        <ele>109.278881</ele>
        <time>2025-09-08T02:25:00.635Z</time>
      </trkpt>
      <trkpt lat="48.777604" lon="2.118059">
        <ele>109.252993</ele>
        <time>2025-09-08T02:25:07.089Z</time>
      </trkpt>
      <trkpt lat="48.777626" lon="2.118261">
        <ele>109.233396</ele>
        <time>2025-09-08T02:25:11.976Z</time>
      </trkpt>
      <trkpt lat="48.777659" lon="2.118938">
        <ele>109.168417</ele>
        <time>2025-09-08T02:25:28.454Z</time>
      </trkpt>
      <trkpt lat="48.777683" lon="2.119074">
        <ele>109.154941</ele>
        <time>2025-09-08T02:25:31.932Z</time>
      </trkpt>
      <trkpt lat="48.777679" lon="2.119359">
        <ele>109.127655</ele>
        <time>2025-09-08T02:25:38.909Z</time>
      </trkpt>
      <trkpt lat="48.777613" lon="2.119803">
        <ele>109.101210</ele>
        <time>2025-09-08T02:25:50.285Z</time>
      </trkpt>
      <trkpt lat="48.777635" lon="2.120520">
        <ele>109.339621</ele>
        <time>2025-09-08T02:26:08.114Z</time>
      </trkpt>
      <trkpt lat="48.777683" lon="2.121373">
        <ele>109.623978</ele>
        <time>2025-09-08T02:26:30.532Z</time>
      </trkpt>
      <trkpt lat="48.777656" lon="2.121943">
        <ele>109.813793</ele>
        <time>2025-09-08T02:26:45.989Z</time>
      </trkpt>
      <trkpt lat="48.777430" lon="2.122653">
        <ele>109.876669</ele>
        <time>2025-09-08T02:27:00.087Z</time>
      </trkpt>
      <trkpt lat="48.777182" lon="2.123292">
        <ele>109.519179</ele>
        <time>2025-09-08T02:27:11.626Z</time>
      </trkpt>
      <trkpt lat="48.777127" lon="2.123457">
        <ele>109.430041</ele>
        <time>2025-09-08T02:27:14.422Z</time>
      </trkpt>
      <trkpt lat="48.777022" lon="2.123870">
        <ele>109.216646</ele>
        <time>2025-09-08T02:27:20.705Z</time>
      </trkpt>
      <trkpt lat="48.776915" lon="2.124130">
        <ele>109.068876</ele>
        <time>2025-09-08T02:27:24.706Z</time>
      </trkpt>
      <trkpt lat="48.776659" lon="2.124507">
        <ele>108.807919</ele>
        <time>2025-09-08T02:27:31.496Z</time>
      </trkpt>
      <trkpt lat="48.776317" lon="2.124813">
        <ele>108.450487</ele>
        <time>2025-09-08T02:27:39.012Z</time>
      </trkpt>
      <trkpt lat="48.775921" lon="2.125047">
        <ele>108.010466</ele>
        <time>2025-09-08T02:27:47.032Z</time>
      </trkpt>
      <trkpt lat="48.775872" lon="2.125105">
        <ele>107.946119</ele>
        <time>2025-09-08T02:27:48.232Z</time>
      </trkpt>
      <trkpt lat="48.775823" lon="2.125163">
        <ele>107.881773</ele>
        <time>2025-09-08T02:27:49.443Z</time>
      </trkpt>
      <trkpt lat="48.775769" lon="2.125361">
        <ele>107.735554</ele>
        <time>2025-09-08T02:27:52.214Z</time>
      </trkpt>
      <trkpt lat="48.775799" lon="2.125841">
        <ele>107.406553</ele>
        <time>2025-09-08T02:27:58.725Z</time>
      </trkpt>
      <trkpt lat="48.775851" lon="2.126179">
        <ele>107.169716</ele>
        <time>2025-09-08T02:28:03.769Z</time>
      </trkpt>
      <trkpt lat="48.775961" lon="2.126552">
        <ele>106.890875</ele>
        <time>2025-09-08T02:28:10.789Z</time>
      </trkpt>
      <trkpt lat="48.775971" lon="2.126708">
        <ele>106.854870</ele>
        <time>2025-09-08T02:28:13.827Z</time>
      </trkpt>
      <trkpt lat="48.775931" lon="2.126961">
        <ele>107.065290</ele>
        <time>2025-09-08T02:28:19.011Z</time>
      </trkpt>
      <trkpt lat="48.775894" lon="2.127021">
        <ele>107.131746</ele>
        <time>2025-09-08T02:28:20.582Z</time>
      </trkpt>
      <trkpt lat="48.776048" lon="2.127327">
        <ele>107.443136</ele>
        <time>2025-09-08T02:28:27.903Z</time>
      </trkpt>
      <trkpt lat="48.776218" lon="2.127606">
        <ele>107.750446</ele>
        <time>2025-09-08T02:28:34.717Z</time>
      </trkpt>
      <trkpt lat="48.776374" lon="2.127801">
        <ele>107.998485</ele>
        <time>2025-09-08T02:28:40.214Z</time>
      </trkpt>
      <trkpt lat="48.776708" lon="2.127963">
        <ele>108.428809</ele>
        <time>2025-09-08T02:28:49.931Z</time>
      </trkpt>
      <trkpt lat="48.776642" lon="2.128901">
        <ele>109.532930</ele>
        <time>2025-09-08T02:29:09.381Z</time>
      </trkpt>
      <trkpt lat="48.776608" lon="2.129646">
        <ele>111.363678</ele>
        <time>2025-09-08T02:29:25.774Z</time>
      </trkpt>
      <trkpt lat="48.777986" lon="2.129558">
        <ele>116.839750</ele>
        <time>2025-09-08T02:30:28.496Z</time>
      </trkpt>
      <trkpt lat="48.778234" lon="2.129671">
        <ele>118.229619</ele>
        <time>2025-09-08T02:30:42.298Z</time>
      </trkpt>
      <trkpt lat="48.778312" lon="2.129735">
        <ele>118.705570</ele>
        <time>2025-09-08T02:30:46.913Z</time>
      </trkpt>
      <trkpt lat="48.778830" lon="2.130487">
        <ele>122.553373</ele>
        <time>2025-09-08T02:31:24.033Z</time>
      </trkpt>
      <trkpt lat="48.778923" lon="2.130586">
        <ele>123.163129</ele>
        <time>2025-09-08T02:31:29.952Z</time>
      </trkpt>
      <trkpt lat="48.779249" lon="2.130819">
        <ele>125.097319</ele>
        <time>2025-09-08T02:31:47.484Z</time>
      </trkpt>
      <trkpt lat="48.780324" lon="2.131596">
        <ele>129.927653</ele>
        <time>2025-09-08T02:32:38.704Z</time>
      </trkpt>
      <trkpt lat="48.780746" lon="2.131533">
        <ele>131.623153</ele>
        <time>2025-09-08T02:32:55.794Z</time>
      </trkpt>
      <trkpt lat="48.781719" lon="2.132068">
        <ele>135.330035</ele>
        <time>2025-09-08T02:33:34.884Z</time>
      </trkpt>
      <trkpt lat="48.782765" lon="2.132303">
        <ele>139.030621</ele>
        <time>2025-09-08T02:34:16.665Z</time>
      </trkpt>
      <trkpt lat="48.784340" lon="2.132610">
        <ele>145.657837</ele>
        <time>2025-09-08T02:35:27.764Z</time>
      </trkpt>
      <trkpt lat="48.785260" lon="2.132805">
        <ele>148.547834</ele>
        <time>2025-09-08T02:36:04.569Z</time>
      </trkpt>
      <trkpt lat="48.785652" lon="2.132854">
        <ele>149.690024</ele>
        <time>2025-09-08T02:36:18.200Z</time>
      </trkpt>
      <trkpt lat="48.785874" lon="2.132823">
        <ele>150.337416</ele>
        <time>2025-09-08T02:36:25.643Z</time>
      </trkpt>
      <trkpt lat="48.786179" lon="2.132890">
        <ele>151.232340</ele>
        <time>2025-09-08T02:36:35.779Z</time>
      </trkpt>
      <trkpt lat="48.786287" lon="2.132932">
        <ele>151.558090</ele>
        <time>2025-09-08T02:36:39.574Z</time>
      </trkpt>
      <trkpt lat="48.786351" lon="2.132942">
        <ele>151.753704</ele>
        <time>2025-09-08T02:36:41.768Z</time>
      </trkpt>
      <trkpt lat="48.786687" lon="2.132996">
        <ele>152.780991</ele>
        <time>2025-09-08T02:36:53.314Z</time>
      </trkpt>
      <trkpt lat="48.786947" lon="2.133176">
        <ele>153.649849</ele>
        <time>2025-09-08T02:37:03.489Z</time>
      </trkpt>
      <trkpt lat="48.787044" lon="2.133178">
        <ele>153.944796</ele>
        <time>2025-09-08T02:37:07.091Z</time>
      </trkpt>
      <trkpt lat="48.787123" lon="2.133120">
        <ele>154.211613</ele>
        <time>2025-09-08T02:37:10.418Z</time>
      </trkpt>
      <trkpt lat="48.787458" lon="2.133202">
        <ele>155.243309</ele>
        <time>2025-09-08T02:37:23.463Z</time>
      </trkpt>
      <trkpt lat="48.787602" lon="2.133245">
        <ele>155.689520</ele>
        <time>2025-09-08T02:37:29.278Z</time>
      </trkpt>
      <trkpt lat="48.787679" lon="2.133268">
        <ele>155.928122</ele>
        <time>2025-09-08T02:37:32.360Z</time>
      </trkpt>
      <trkpt lat="48.787787" lon="2.133467">
        <ele>156.444580</ele>
        <time>2025-09-08T02:37:39.297Z</time>
      </trkpt>
      <trkpt lat="48.787797" lon="2.133477">
        <ele>156.480990</ele>
        <time>2025-09-08T02:37:39.779Z</time>
      </trkpt>
      <trkpt lat="48.788417" lon="2.133794">
        <ele>158.931957</ele>
        <time>2025-09-08T02:38:07.568Z</time>
      </trkpt>
      <trkpt lat="48.788681" lon="2.133996">
        <ele>160.109863</ele>
        <time>2025-09-08T02:38:20.321Z</time>
      </trkpt>
      <trkpt lat="48.788728" lon="2.134032">
        <ele>160.319611</ele>
        <time>2025-09-08T02:38:22.592Z</time>
      </trkpt>
      <trkpt lat="48.788697" lon="2.134211">
        <ele>160.805431</ele>
        <time>2025-09-08T02:38:29.712Z</time>
      </trkpt>
      <trkpt lat="48.788762" lon="2.134381">
        <ele>161.321368</ele>
        <time>2025-09-08T02:38:37.219Z</time>
      </trkpt>
      <trkpt lat="48.788793" lon="2.134780">
        <ele>162.375962</ele>
        <time>2025-09-08T02:38:52.220Z</time>
      </trkpt>
      <trkpt lat="48.788833" lon="2.134929">
        <ele>162.798294</ele>
        <time>2025-09-08T02:38:58.207Z</time>
      </trkpt>
      <trkpt lat="48.789454" lon="2.135984">
        <ele>166.061955</ele>
        <time>2025-09-08T02:39:51.065Z</time>
      </trkpt>
      <trkpt lat="48.789475" lon="2.136115">
        <ele>166.348487</ele>
        <time>2025-09-08T02:39:56.140Z</time>
      </trkpt>
      <trkpt lat="48.789389" lon="2.136335">
        <ele>166.892153</ele>
        <time>2025-09-08T02:40:05.596Z</time>
      </trkpt>
      <trkpt lat="48.789075" lon="2.136698">
        <ele>168.165400</ele>
        <time>2025-09-08T02:40:27.166Z</time>
      </trkpt>
      <trkpt lat="48.788878" lon="2.136983">
        <ele>169.043308</ele>
        <time>2025-09-08T02:40:41.234Z</time>
      </trkpt>
      <trkpt lat="48.788768" lon="2.137289">
        <ele>169.784154</ele>
        <time>2025-09-08T02:40:52.458Z</time>
      </trkpt>
      <trkpt lat="48.788557" lon="2.137725">
        <ele>169.733109</ele>
        <time>2025-09-08T02:41:08.453Z</time>
      </trkpt>
      <trkpt lat="48.788505" lon="2.137940">
        <ele>169.625554</ele>
        <time>2025-09-08T02:41:14.603Z</time>
      </trkpt>
      <trkpt lat="48.788505" lon="2.137940">
        <ele>169.625554</ele>
        <time>2025-09-08T02:41:14.606Z</time>
      </trkpt>
      <trkpt lat="48.788619" lon="2.138406">
        <ele>169.392117</ele>
        <time>2025-09-08T02:41:26.997Z</time>
      </trkpt>
      <trkpt lat="48.788636" lon="2.138572">
        <ele>169.313226</ele>
        <time>2025-09-08T02:41:30.976Z</time>
      </trkpt>
      <trkpt lat="48.788581" lon="2.138761">
        <ele>169.216197</ele>
        <time>2025-09-08T02:41:35.710Z</time>
      </trkpt>
      <trkpt lat="48.788473" lon="2.139000">
        <ele>169.080097</ele>
        <time>2025-09-08T02:41:42.125Z</time>
      </trkpt>
      <trkpt lat="48.788514" lon="2.139053">
        <ele>169.041711</ele>
        <time>2025-09-08T02:41:43.874Z</time>
      </trkpt>
      <trkpt lat="48.788772" lon="2.139155">
        <ele>168.851677</ele>
        <time>2025-09-08T02:41:52.373Z</time>
      </trkpt>
      <trkpt lat="48.788854" lon="2.139273">
        <ele>168.771136</ele>
        <time>2025-09-08T02:41:55.905Z</time>
      </trkpt>
      <trkpt lat="48.788753" lon="2.139783">
        <ele>168.096282</ele>
        <time>2025-09-08T02:42:06.530Z</time>
      </trkpt>
      <trkpt lat="48.788745" lon="2.140088">
        <ele>167.539656</ele>
        <time>2025-09-08T02:42:12.488Z</time>
      </trkpt>
      <trkpt lat="48.788822" lon="2.140312">
        <ele>167.078923</ele>
        <time>2025-09-08T02:42:17.487Z</time>
      </trkpt>
      <trkpt lat="48.789223" lon="2.141024">
        <ele>165.370811</ele>
        <time>2025-09-08T02:42:36.486Z</time>
      </trkpt>
      <trkpt lat="48.789275" lon="2.141153">
        <ele>165.095037</ele>
        <time>2025-09-08T02:42:39.645Z</time>
      </trkpt>
      <trkpt lat="48.789322" lon="2.141421">
        <ele>164.589311</ele>
        <time>2025-09-08T02:42:45.490Z</time>
      </trkpt>
      <trkpt lat="48.789334" lon="2.141641">
        <ele>164.186760</ele>
        <time>2025-09-08T02:42:50.299Z</time>
      </trkpt>
      <trkpt lat="48.789311" lon="2.143805">
        <ele>159.735843</ele>
        <time>2025-09-08T02:43:38.529Z</time>
      </trkpt>
      <trkpt lat="48.790213" lon="2.145612">
        <ele>151.014862</ele>
        <time>2025-09-08T02:44:19.521Z</time>
      </trkpt>
      <trkpt lat="48.790465" lon="2.146264">
        <ele>147.328096</ele>
        <time>2025-09-08T02:44:32.541Z</time>
      </trkpt>
      <trkpt lat="48.790634" lon="2.146721">
        <ele>144.772099</ele>
        <time>2025-09-08T02:44:41.805Z</time>
      </trkpt>
      <trkpt lat="48.790874" lon="2.147144">
        <ele>142.468296</ele>
        <time>2025-09-08T02:44:47.952Z</time>
      </trkpt>
      <trkpt lat="48.790677" lon="2.147330">
        <ele>141.025446</ele>
        <time>2025-09-08T02:44:51.383Z</time>
      </trkpt>
      <trkpt lat="48.790237" lon="2.147774">
        <ele>137.739504</ele>
        <time>2025-09-08T02:44:59.311Z</time>
      </trkpt>
      <trkpt lat="48.790277" lon="2.147851">
        <ele>137.337735</ele>
        <time>2025-09-08T02:45:00.282Z</time>
      </trkpt>
      <trkpt lat="48.790307" lon="2.147904">
        <ele>137.051437</ele>
        <time>2025-09-08T02:45:00.997Z</time>
      </trkpt>
      <trkpt lat="48.790387" lon="2.148044">
        <ele>136.292113</ele>
        <time>2025-09-08T02:45:02.895Z</time>
      </trkpt>
      <trkpt lat="48.790815" lon="2.148780">
        <ele>132.887170</ele>
        <time>2025-09-08T02:45:13.621Z</time>
      </trkpt>
      <trkpt lat="48.790863" lon="2.148861">
        <ele>132.668002</ele>
        <time>2025-09-08T02:45:14.827Z</time>
      </trkpt>
      <trkpt lat="48.790910" lon="2.148942">
        <ele>132.450865</ele>
        <time>2025-09-08T02:45:16.015Z</time>
      </trkpt>
      <trkpt lat="48.791333" lon="2.149668">
        <ele>130.501159</ele>
        <time>2025-09-08T02:45:27.098Z</time>
      </trkpt>
      <trkpt lat="48.791672" lon="2.150255">
        <ele>128.930829</ele>
        <time>2025-09-08T02:45:36.377Z</time>
      </trkpt>
      <trkpt lat="48.791803" lon="2.150482">
        <ele>128.323757</ele>
        <time>2025-09-08T02:45:39.960Z</time>
      </trkpt>
      <trkpt lat="48.791951" lon="2.150735">
        <ele>127.636628</ele>
        <time>2025-09-08T02:45:43.825Z</time>
      </trkpt>
      <trkpt lat="48.792287" lon="2.151309">
        <ele>126.063093</ele>
        <time>2025-09-08T02:45:52.347Z</time>
      </trkpt>
      <trkpt lat="48.792467" lon="2.151628">
        <ele>125.202371</ele>
        <time>2025-09-08T02:45:56.972Z</time>
      </trkpt>
      <trkpt lat="48.792512" lon="2.151708">
        <ele>124.986801</ele>
        <time>2025-09-08T02:45:58.125Z</time>
      </trkpt>
      <trkpt lat="48.792720" lon="2.152059">
        <ele>124.019334</ele>
        <time>2025-09-08T02:46:03.385Z</time>
      </trkpt>
      <trkpt lat="48.793114" lon="2.152721">
        <ele>122.241904</ele>
        <time>2025-09-08T02:46:13.594Z</time>
      </trkpt>
      <trkpt lat="48.793579" lon="2.153513">
        <ele>120.608114</ele>
        <time>2025-09-08T02:46:26.148Z</time>
      </trkpt>
      <trkpt lat="48.794057" lon="2.154328">
        <ele>118.927669</ele>
        <time>2025-09-08T02:46:39.354Z</time>
      </trkpt>
      <trkpt lat="48.794397" lon="2.154890">
        <ele>117.827762</ele>
        <time>2025-09-08T02:46:48.293Z</time>
      </trkpt>
      <trkpt lat="48.794741" lon="2.155477">
        <ele>116.825352</ele>
        <time>2025-09-08T02:46:57.486Z</time>
      </trkpt>
      <trkpt lat="48.795034" lon="2.155977">
        <ele>115.971534</ele>
        <time>2025-09-08T02:47:05.453Z</time>
      </trkpt>
      <trkpt lat="48.795386" lon="2.155522">
        <ele>115.076103</ele>
        <time>2025-09-08T02:47:14.067Z</time>
      </trkpt>
      <trkpt lat="48.795612" lon="2.155235">
        <ele>114.743784</ele>
        <time>2025-09-08T02:47:19.745Z</time>
      </trkpt>
      <trkpt lat="48.795743" lon="2.155055">
        <ele>114.805743</ele>
        <time>2025-09-08T02:47:23.375Z</time>
      </trkpt>
      <trkpt lat="48.796089" lon="2.154603">
        <ele>114.965811</ele>
        <time>2025-09-08T02:47:33.906Z</time>
      </trkpt>
      <trkpt lat="48.796211" lon="2.154513">
        <ele>115.013375</ele>
        <time>2025-09-08T02:47:37.310Z</time>
      </trkpt>
      <trkpt lat="48.796412" lon="2.154383">
        <ele>115.089987</ele>
        <time>2025-09-08T02:47:42.724Z</time>
      </trkpt>
      <trkpt lat="48.796974" lon="2.154024">
        <ele>115.303792</ele>
        <time>2025-09-08T02:47:59.400Z</time>
      </trkpt>
      <trkpt lat="48.797140" lon="2.153926">
        <ele>115.434198</ele>
        <time>2025-09-08T02:48:04.670Z</time>
      </trkpt>
      <trkpt lat="48.797242" lon="2.153866">
        <ele>115.564664</ele>
        <time>2025-09-08T02:48:08.131Z</time>
      </trkpt>
      <trkpt lat="48.797452" lon="2.153743">
        <ele>115.833121</ele>
        <time>2025-09-08T02:48:15.432Z</time>
      </trkpt>
      <trkpt lat="48.797738" lon="2.153607">
        <ele>116.190569</ele>
        <time>2025-09-08T02:48:24.898Z</time>
      </trkpt>
      <trkpt lat="48.798017" lon="2.153526">
        <ele>116.529355</ele>
        <time>2025-09-08T02:48:33.217Z</time>
      </trkpt>
      <trkpt lat="48.798076" lon="2.153514">
        <ele>116.600352</ele>
        <time>2025-09-08T02:48:34.911Z</time>
      </trkpt>
      <trkpt lat="48.798172" lon="2.153569">
        <ele>116.722731</ele>
        <time>2025-09-08T02:48:37.656Z</time>
      </trkpt>
      <trkpt lat="48.798346" lon="2.153719">
        <ele>116.961381</ele>
        <time>2025-09-08T02:48:43.108Z</time>
      </trkpt>
      <trkpt lat="48.798350" lon="2.153822">
        <ele>117.042442</ele>
        <time>2025-09-08T02:48:44.919Z</time>
      </trkpt>
      <trkpt lat="48.798357" lon="2.153982">
        <ele>117.168419</ele>
        <time>2025-09-08T02:48:47.803Z</time>
      </trkpt>
      <trkpt lat="48.798387" lon="2.155377">
        <ele>117.318970</ele>
        <time>2025-09-08T02:49:10.069Z</time>
      </trkpt>
      <trkpt lat="48.798440" lon="2.157834">
        <ele>116.464553</ele>
        <time>2025-09-08T02:49:43.340Z</time>
      </trkpt>
      <trkpt lat="48.798461" lon="2.158049">
        <ele>116.293743</ele>
        <time>2025-09-08T02:49:46.274Z</time>
      </trkpt>
      <trkpt lat="48.798619" lon="2.158530">
        <ele>115.871344</ele>
        <time>2025-09-08T02:49:53.623Z</time>
      </trkpt>
      <trkpt lat="48.798787" lon="2.158845">
        <ele>115.552827</ele>
        <time>2025-09-08T02:49:58.984Z</time>
      </trkpt>
      <trkpt lat="48.798908" lon="2.159029">
        <ele>115.348502</ele>
        <time>2025-09-08T02:50:02.202Z</time>
      </trkpt>
      <trkpt lat="48.798974" lon="2.158948">
        <ele>115.247249</ele>
        <time>2025-09-08T02:50:08.144Z</time>
      </trkpt>
      <trkpt lat="48.798911" lon="2.158826">
        <ele>115.125423</ele>
        <time>2025-09-08T02:50:10.042Z</time>
      </trkpt>
      <trkpt lat="48.798928" lon="2.158809">
        <ele>115.101137</ele>
        <time>2025-09-08T02:50:10.414Z</time>
      </trkpt>
      <trkpt lat="48.798969" lon="2.158792">
        <ele>115.050430</ele>
        <time>2025-09-08T02:50:11.207Z</time>
      </trkpt>
      <trkpt lat="48.798991" lon="2.158790">
        <ele>115.024136</ele>
        <time>2025-09-08T02:50:11.615Z</time>
      </trkpt>
      <trkpt lat="48.799440" lon="2.159208">
        <ele>113.960834</ele>
        <time>2025-09-08T02:50:21.386Z</time>
      </trkpt>
      <trkpt lat="48.800666" lon="2.160405">
        <ele>110.679676</ele>
        <time>2025-09-08T02:50:47.458Z</time>
      </trkpt>
      <trkpt lat="48.801457" lon="2.161175">
        <ele>108.541952</ele>
        <time>2025-09-08T02:51:04.027Z</time>
      </trkpt>
      <trkpt lat="48.801609" lon="2.161324">
        <ele>108.130324</ele>
        <time>2025-09-08T02:51:07.246Z</time>
      </trkpt>
      <trkpt lat="48.801904" lon="2.161625">
        <ele>107.321697</ele>
        <time>2025-09-08T02:51:13.741Z</time>
      </trkpt>
      <trkpt lat="48.802213" lon="2.161945">
        <ele>106.634262</ele>
        <time>2025-09-08T02:51:20.716Z</time>
      </trkpt>
      <trkpt lat="48.802234" lon="2.161967">
        <ele>106.610422</ele>
        <time>2025-09-08T02:51:21.206Z</time>
      </trkpt>
      <trkpt lat="48.802756" lon="2.162503">
        <ele>106.021607</ele>
        <time>2025-09-08T02:51:33.301Z</time>
      </trkpt>
      <trkpt lat="48.803010" lon="2.162765">
        <ele>105.734685</ele>
        <time>2025-09-08T02:51:39.271Z</time>
      </trkpt>
      <trkpt lat="48.803354" lon="2.163107">
        <ele>105.350483</ele>
        <time>2025-09-08T02:51:47.638Z</time>
      </trkpt>
      <trkpt lat="48.803964" lon="2.163746">
        <ele>106.263436</ele>
        <time>2025-09-08T02:52:04.945Z</time>
      </trkpt>
      <trkpt lat="48.804151" lon="2.163943">
        <ele>106.884282</ele>
        <time>2025-09-08T02:52:11.629Z</time>
      </trkpt>
      <trkpt lat="48.804467" lon="2.164269">
        <ele>107.926395</ele>
        <time>2025-09-08T02:52:24.990Z</time>
      </trkpt>
      <trkpt lat="48.805078" lon="2.164888">
        <ele>109.929988</ele>
        <time>2025-09-08T02:52:58.667Z</time>
      </trkpt>
      <trkpt lat="48.805130" lon="2.164941">
        <ele>110.268113</ele>
        <time>2025-09-08T02:53:01.598Z</time>
      </trkpt>
      <trkpt lat="48.805157" lon="2.164948">
        <ele>110.441256</ele>
        <time>2025-09-08T02:53:02.935Z</time>
      </trkpt>
      <trkpt lat="48.805248" lon="2.164826">
        <ele>111.208638</ele>
        <time>2025-09-08T02:53:08.642Z</time>
      </trkpt>
      <trkpt lat="48.805371" lon="2.164815">
        <ele>111.987497</ele>
        <time>2025-09-08T02:53:14.583Z</time>
      </trkpt>
      <trkpt lat="48.805514" lon="2.164818">
        <ele>112.891518</ele>
        <time>2025-09-08T02:53:21.799Z</time>
      </trkpt>
      <trkpt lat="48.805569" lon="2.164818">
        <ele>113.239185</ele>
        <time>2025-09-08T02:53:24.721Z</time>
      </trkpt>
      <trkpt lat="48.805625" lon="2.164818">
        <ele>113.593174</ele>
        <time>2025-09-08T02:53:27.665Z</time>
      </trkpt>
      <trkpt lat="48.805666" lon="2.164965">
        <ele>114.257788</ele>
        <time>2025-09-08T02:53:33.194Z</time>
      </trkpt>
      <trkpt lat="48.805695" lon="2.165075">
        <ele>114.751073</ele>
        <time>2025-09-08T02:53:37.249Z</time>
      </trkpt>
      <trkpt lat="48.805761" lon="2.165321">
        <ele>115.856947</ele>
        <time>2025-09-08T02:53:46.764Z</time>
      </trkpt>
      <trkpt lat="48.805777" lon="2.165375">
        <ele>116.103465</ele>
        <time>2025-09-08T02:53:49.071Z</time>
      </trkpt>
      <trkpt lat="48.805878" lon="2.165484">
        <ele>116.886752</ele>
        <time>2025-09-08T02:53:55.930Z</time>
      </trkpt>
      <trkpt lat="48.805995" lon="2.165529">
        <ele>117.649695</ele>
        <time>2025-09-08T02:54:02.892Z</time>
      </trkpt>
      <trkpt lat="48.807448" lon="2.165760">
        <ele>127.173758</ele>
        <time>2025-09-08T02:55:28.390Z</time>
      </trkpt>
      <trkpt lat="48.807569" lon="2.165648">
        <ele>128.116280</ele>
        <time>2025-09-08T02:55:36.906Z</time>
      </trkpt>
      <trkpt lat="48.809401" lon="2.164697">
        <ele>139.537871</ele>
        <time>2025-09-08T02:57:16.444Z</time>
      </trkpt>
      <trkpt lat="48.809513" lon="2.164635">
        <ele>140.180621</ele>
        <time>2025-09-08T02:57:24.002Z</time>
      </trkpt>
      <trkpt lat="48.809464" lon="2.164355">
        <ele>141.209346</ele>
        <time>2025-09-08T02:57:35.873Z</time>
      </trkpt>
      <trkpt lat="48.810238" lon="2.164261">
        <ele>145.247533</ele>
        <time>2025-09-08T02:58:21.978Z</time>
      </trkpt>
      <trkpt lat="48.810384" lon="2.164271">
        <ele>145.986657</ele>
        <time>2025-09-08T02:58:30.162Z</time>
      </trkpt>
      <trkpt lat="48.810432" lon="2.164194">
        <ele>146.339780</ele>
        <time>2025-09-08T02:58:34.209Z</time>
      </trkpt>
      <trkpt lat="48.810591" lon="2.163884">
        <ele>147.648438</ele>
        <time>2025-09-08T02:58:49.844Z</time>
      </trkpt>
      <trkpt lat="48.810810" lon="2.163561">
        <ele>149.192438</ele>
        <time>2025-09-08T02:59:08.261Z</time>
      </trkpt>
      <trkpt lat="48.811073" lon="2.162974">
        <ele>151.557000</ele>
        <time>2025-09-08T02:59:38.987Z</time>
      </trkpt>
      <trkpt lat="48.811284" lon="2.162656">
        <ele>153.256934</ele>
        <time>2025-09-08T02:59:59.251Z</time>
      </trkpt>
      <trkpt lat="48.811370" lon="2.162423">
        <ele>154.328570</ele>
        <time>2025-09-08T03:00:09.041Z</time>
      </trkpt>
      <trkpt lat="48.811425" lon="2.162338">
        <ele>154.806670</ele>
        <time>2025-09-08T03:00:13.580Z</time>
      </trkpt>
      <trkpt lat="48.811604" lon="2.162253">
        <ele>155.949287</ele>
        <time>2025-09-08T03:00:26.994Z</time>
      </trkpt>
      <trkpt lat="48.812087" lon="2.162128">
        <ele>158.934344</ele>
        <time>2025-09-08T03:01:02.281Z</time>
      </trkpt>
      <trkpt lat="48.812154" lon="2.162059">
        <ele>159.427553</ele>
        <time>2025-09-08T03:01:06.920Z</time>
      </trkpt>
      <trkpt lat="48.812194" lon="2.161986">
        <ele>159.808558</ele>
        <time>2025-09-08T03:01:10.432Z</time>
      </trkpt>
      <trkpt lat="48.812347" lon="2.161706">
        <ele>161.268293</ele>
        <time>2025-09-08T03:01:23.059Z</time>
      </trkpt>
      <trkpt lat="48.812499" lon="2.161432">
        <ele>162.705650</ele>
        <time>2025-09-08T03:01:35.916Z</time>
      </trkpt>
      <trkpt lat="48.812534" lon="2.161272">
        <ele>163.213375</ele>
        <time>2025-09-08T03:01:41.518Z</time>
      </trkpt>
      <trkpt lat="48.812753" lon="2.161400">
        <ele>163.897700</ele>
        <time>2025-09-08T03:01:52.537Z</time>
      </trkpt>
      <trkpt lat="48.812933" lon="2.160910">
        <ele>164.975203</ele>
        <time>2025-09-08T03:02:05.874Z</time>
      </trkpt>
      <trkpt lat="48.813193" lon="2.160343">
        <ele>166.302045</ele>
        <time>2025-09-08T03:02:20.883Z</time>
      </trkpt>
      <trkpt lat="48.813667" lon="2.159539">
        <ele>168.339730</ele>
        <time>2025-09-08T03:02:44.504Z</time>
      </trkpt>
      <trkpt lat="48.813873" lon="2.158847">
        <ele>169.082605</ele>
        <time>2025-09-08T03:03:00.511Z</time>
      </trkpt>
      <trkpt lat="48.813898" lon="2.158754">
        <ele>169.180867</ele>
        <time>2025-09-08T03:03:02.592Z</time>
      </trkpt>
      <trkpt lat="48.814538" lon="2.157538">
        <ele>170.703609</ele>
        <time>2025-09-08T03:03:32.536Z</time>
      </trkpt>
      <trkpt lat="48.814599" lon="2.157405">
        <ele>170.862156</ele>
        <time>2025-09-08T03:03:35.207Z</time>
      </trkpt>
      <trkpt lat="48.814633" lon="2.157339">
        <ele>170.944125</ele>
        <time>2025-09-08T03:03:36.550Z</time>
      </trkpt>
      <trkpt lat="48.814678" lon="2.157245">
        <ele>171.030773</ele>
        <time>2025-09-08T03:03:38.437Z</time>
      </trkpt>
      <trkpt lat="48.814824" lon="2.156897">
        <ele>171.301649</ele>
        <time>2025-09-08T03:03:45.317Z</time>
      </trkpt>
      <trkpt lat="48.815444" lon="2.155620">
        <ele>172.343175</ele>
        <time>2025-09-08T03:04:13.589Z</time>
      </trkpt>
      <trkpt lat="48.815810" lon="2.154950">
        <ele>172.833749</ele>
        <time>2025-09-08T03:04:29.963Z</time>
      </trkpt>
      <trkpt lat="48.816073" lon="2.154395">
        <ele>173.033802</ele>
        <time>2025-09-08T03:04:42.145Z</time>
      </trkpt>
      <trkpt lat="48.816124" lon="2.154148">
        <ele>173.109537</ele>
        <time>2025-09-08T03:04:46.353Z</time>
      </trkpt>
      <trkpt lat="48.816073" lon="2.153459">
        <ele>173.312387</ele>
        <time>2025-09-08T03:04:56.512Z</time>
      </trkpt>
      <trkpt lat="48.816118" lon="2.153184">
        <ele>173.395291</ele>
        <time>2025-09-08T03:05:00.507Z</time>
      </trkpt>
      <trkpt lat="48.816766" lon="2.152015">
        <ele>174.086904</ele>
        <time>2025-09-08T03:05:24.050Z</time>
      </trkpt>
      <trkpt lat="48.816966" lon="2.151636">
        <ele>174.355598</ele>
        <time>2025-09-08T03:05:32.216Z</time>
      </trkpt>
      <trkpt lat="48.817102" lon="2.151479">
        <ele>174.499124</ele>
        <time>2025-09-08T03:05:37.167Z</time>
      </trkpt>
      <trkpt lat="48.817527" lon="2.151293">
        <ele>174.870723</ele>
        <time>2025-09-08T03:05:50.235Z</time>
      </trkpt>
      <trkpt lat="48.817656" lon="2.151202">
        <ele>174.990225</ele>
        <time>2025-09-08T03:05:54.655Z</time>
      </trkpt>
      <trkpt lat="48.818012" lon="2.150759">
        <ele>175.199229</ele>
        <time>2025-09-08T03:06:08.032Z</time>
      </trkpt>
      <trkpt lat="48.818313" lon="2.150744">
        <ele>175.301337</ele>
        <time>2025-09-08T03:06:16.205Z</time>
      </trkpt>
      <trkpt lat="48.818809" lon="2.150683">
        <ele>175.470055</ele>
        <time>2025-09-08T03:06:29.638Z</time>
      </trkpt>
      <trkpt lat="48.818903" lon="2.150678">
        <ele>175.501945</ele>
        <time>2025-09-08T03:06:31.858Z</time>
      </trkpt>
      <trkpt lat="48.818977" lon="2.150742">
        <ele>175.530817</ele>
        <time>2025-09-08T03:06:33.658Z</time>
      </trkpt>
      <trkpt lat="48.819120" lon="2.150686">
        <ele>175.580887</ele>
        <time>2025-09-08T03:06:36.691Z</time>
      </trkpt>
      <trkpt lat="48.819156" lon="2.150560">
        <ele>175.611549</ele>
        <time>2025-09-08T03:06:38.526Z</time>
      </trkpt>
      <trkpt lat="48.819180" lon="2.150372">
        <ele>175.654300</ele>
        <time>2025-09-08T03:06:41.003Z</time>
      </trkpt>
      <trkpt lat="48.819192" lon="2.150258">
        <ele>175.680073</ele>
        <time>2025-09-08T03:06:42.468Z</time>
      </trkpt>
      <trkpt lat="48.819098" lon="2.150106">
        <ele>175.364546</ele>
        <time>2025-09-08T03:06:45.107Z</time>
      </trkpt>
      <trkpt lat="48.819106" lon="2.149985">
        <ele>175.131528</ele>
        <time>2025-09-08T03:06:46.619Z</time>
      </trkpt>
      <trkpt lat="48.819149" lon="2.149995">
        <ele>175.004934</ele>
        <time>2025-09-08T03:06:49.654Z</time>
      </trkpt>
      <trkpt lat="48.819339" lon="2.149963">
        <ele>174.448623</ele>
        <time>2025-09-08T03:06:53.611Z</time>
      </trkpt>
      <trkpt lat="48.819466" lon="2.150021">
        <ele>174.062690</ele>
        <time>2025-09-08T03:06:56.326Z</time>
      </trkpt>
      <trkpt lat="48.819745" lon="2.150438">
        <ele>172.923546</ele>
        <time>2025-09-08T03:07:04.171Z</time>
      </trkpt>
      <trkpt lat="48.820330" lon="2.150765">
        <ele>171.109487</ele>
        <time>2025-09-08T03:07:15.795Z</time>
      </trkpt>
      <trkpt lat="48.821127" lon="2.150832">
        <ele>168.950481</ele>
        <time>2025-09-08T03:07:30.401Z</time>
      </trkpt>
      <trkpt lat="48.821298" lon="2.150864">
        <ele>168.498357</ele>
        <time>2025-09-08T03:07:33.657Z</time>
      </trkpt>
      <trkpt lat="48.821805" lon="2.150796">
        <ele>167.162734</ele>
        <time>2025-09-08T03:07:43.666Z</time>
      </trkpt>
      <trkpt lat="48.822945" lon="2.150307">
        <ele>166.628199</ele>
        <time>2025-09-08T03:08:11.702Z</time>
      </trkpt>
      <trkpt lat="48.823073" lon="2.150292">
        <ele>166.807328</ele>
        <time>2025-09-08T03:08:15.633Z</time>
      </trkpt>
      <trkpt lat="48.823437" lon="2.150098">
        <ele>167.345578</ele>
        <time>2025-09-08T03:08:29.023Z</time>
      </trkpt>
      <trkpt lat="48.824127" lon="2.149751">
        <ele>168.345859</ele>
        <time>2025-09-08T03:08:58.333Z</time>
      </trkpt>
      <trkpt lat="48.824692" lon="2.149536">
        <ele>169.060875</ele>
        <time>2025-09-08T03:09:20.317Z</time>
      </trkpt>
      <trkpt lat="48.825076" lon="2.149400">
        <ele>169.544909</ele>
        <time>2025-09-08T03:09:34.578Z</time>
      </trkpt>
      <trkpt lat="48.825947" lon="2.149045">
        <ele>170.069113</ele>
        <time>2025-09-08T03:09:56.571Z</time>
      </trkpt>
      <trkpt lat="48.827213" lon="2.148431">
        <ele>166.938400</ele>
        <time>2025-09-08T03:10:22.398Z</time>
      </trkpt>
      <trkpt lat="48.827386" lon="2.148219">
        <ele>166.414767</ele>
        <time>2025-09-08T03:10:26.703Z</time>
      </trkpt>
      <trkpt lat="48.828156" lon="2.146998">
        <ele>165.332573</ele>
        <time>2025-09-08T03:10:50.212Z</time>
      </trkpt>
      <trkpt lat="48.829261" lon="2.145093">
        <ele>165.604388</ele>
        <time>2025-09-08T03:11:36.421Z</time>
      </trkpt>
      <trkpt lat="48.830238" lon="2.143509">
        <ele>167.505452</ele>
        <time>2025-09-08T03:12:22.383Z</time>
      </trkpt>
      <trkpt lat="48.830609" lon="2.142806">
        <ele>168.590266</ele>
        <time>2025-09-08T03:12:42.258Z</time>
      </trkpt>
      <trkpt lat="48.830714" lon="2.142552">
        <ele>168.951375</ele>
        <time>2025-09-08T03:12:49.231Z</time>
      </trkpt>
      <trkpt lat="48.830896" lon="2.142323">
        <ele>169.383602</ele>
        <time>2025-09-08T03:13:05.662Z</time>
      </trkpt>
      <trkpt lat="48.830987" lon="2.142339">
        <ele>169.551148</ele>
        <time>2025-09-08T03:13:08.627Z</time>
      </trkpt>
      <trkpt lat="48.831112" lon="2.142376">
        <ele>169.784068</ele>
        <time>2025-09-08T03:13:12.802Z</time>
      </trkpt>
      <trkpt lat="48.831425" lon="2.142467">
        <ele>170.432409</ele>
        <time>2025-09-08T03:13:23.124Z</time>
      </trkpt>
      <trkpt lat="48.831505" lon="2.142495">
        <ele>170.600640</ele>
        <time>2025-09-08T03:13:25.820Z</time>
      </trkpt>
      <trkpt lat="48.831942" lon="2.142612">
        <ele>171.509938</ele>
        <time>2025-09-08T03:13:40.943Z</time>
      </trkpt>
      <trkpt lat="48.832858" lon="2.142818">
        <ele>173.407455</ele>
        <time>2025-09-08T03:14:12.185Z</time>
      </trkpt>
      <trkpt lat="48.833039" lon="2.142841">
        <ele>173.560962</ele>
        <time>2025-09-08T03:14:17.356Z</time>
      </trkpt>
      <trkpt lat="48.833572" lon="2.142881">
        <ele>173.771430</ele>
        <time>2025-09-08T03:14:30.769Z</time>
      </trkpt>
      <trkpt lat="48.833787" lon="2.142903">
        <ele>173.856417</ele>
        <time>2025-09-08T03:14:35.934Z</time>
      </trkpt>
      <trkpt lat="48.833887" lon="2.142914">
        <ele>173.895959</ele>
        <time>2025-09-08T03:14:38.309Z</time>
      </trkpt>
      <trkpt lat="48.834260" lon="2.142191">
        <ele>174.134434</ele>
        <time>2025-09-08T03:14:52.062Z</time>
      </trkpt>
      <trkpt lat="48.834486" lon="2.141892">
        <ele>174.142754</ele>
        <time>2025-09-08T03:14:58.406Z</time>
      </trkpt>
      <trkpt lat="48.835847" lon="2.140121">
        <ele>172.449696</ele>
        <time>2025-09-08T03:15:34.554Z</time>
      </trkpt>
      <trkpt lat="48.836085" lon="2.139997">
        <ele>171.784421</ele>
        <time>2025-09-08T03:15:39.250Z</time>
      </trkpt>
      <trkpt lat="48.836153" lon="2.139983">
        <ele>171.602978</ele>
        <time>2025-09-08T03:15:40.514Z</time>
      </trkpt>
      <trkpt lat="48.836286" lon="2.139956">
        <ele>171.248185</ele>
        <time>2025-09-08T03:15:42.954Z</time>
      </trkpt>
      <trkpt lat="48.836349" lon="2.139942">
        <ele>171.079834</ele>
        <time>2025-09-08T03:15:44.087Z</time>
      </trkpt>
      <trkpt lat="48.836450" lon="2.139912">
        <ele>170.807722</ele>
        <time>2025-09-08T03:15:45.941Z</time>
      </trkpt>
      <trkpt lat="48.836499" lon="2.139850">
        <ele>170.639112</ele>
        <time>2025-09-08T03:15:47.045Z</time>
      </trkpt>
      <trkpt lat="48.836514" lon="2.139761">
        <ele>170.479221</ele>
        <time>2025-09-08T03:15:48.116Z</time>
      </trkpt>
      <trkpt lat="48.836896" lon="2.139498">
        <ele>169.370298</ele>
        <time>2025-09-08T03:15:55.297Z</time>
      </trkpt>
      <trkpt lat="48.837164" lon="2.139512">
        <ele>168.661257</ele>
        <time>2025-09-08T03:15:59.805Z</time>
      </trkpt>
      <trkpt lat="48.837882" lon="2.139657">
        <ele>166.483322</ele>
        <time>2025-09-08T03:16:11.972Z</time>
      </trkpt>
      <trkpt lat="48.838891" lon="2.139861">
        <ele>163.182719</ele>
        <time>2025-09-08T03:16:28.948Z</time>
      </trkpt>
      <trkpt lat="48.838841" lon="2.140489">
        <ele>162.065032</ele>
        <time>2025-09-08T03:16:36.368Z</time>
      </trkpt>
      <trkpt lat="48.838700" lon="2.140988">
        <ele>162.018395</ele>
        <time>2025-09-08T03:16:43.963Z</time>
      </trkpt>
      <trkpt lat="48.838665" lon="2.141197">
        <ele>161.999874</ele>
        <time>2025-09-08T03:16:47.117Z</time>
      </trkpt>
      <trkpt lat="48.838633" lon="2.141406">
        <ele>161.981446</ele>
        <time>2025-09-08T03:16:50.342Z</time>
      </trkpt>
      <trkpt lat="48.838621" lon="2.141866">
        <ele>161.941910</ele>
        <time>2025-09-08T03:16:57.743Z</time>
      </trkpt>
      <trkpt lat="48.838375" lon="2.143164">
        <ele>161.837758</ele>
        <time>2025-09-08T03:17:26.529Z</time>
      </trkpt>
      <trkpt lat="48.838269" lon="2.143766">
        <ele>161.828980</ele>
        <time>2025-09-08T03:17:44.686Z</time>
      </trkpt>
      <trkpt lat="48.838204" lon="2.144861">
        <ele>161.813493</ele>
        <time>2025-09-08T03:18:10.844Z</time>
      </trkpt>
      <trkpt lat="48.838572" lon="2.145219">
        <ele>161.804141</ele>
        <time>2025-09-08T03:18:20.202Z</time>
      </trkpt>
      <trkpt lat="48.839239" lon="2.144904">
        <ele>162.508092</ele>
        <time>2025-09-08T03:18:36.020Z</time>
      </trkpt>
      <trkpt lat="48.839696" lon="2.144703">
        <ele>163.088360</ele>
        <time>2025-09-08T03:18:49.963Z</time>
      </trkpt>
      <trkpt lat="48.840341" lon="2.145358">
        <ele>164.074895</ele>
        <time>2025-09-08T03:19:30.664Z</time>
      </trkpt>
      <trkpt lat="48.840752" lon="2.145686">
        <ele>165.222717</ele>
        <time>2025-09-08T03:19:56.413Z</time>
      </trkpt>
      <trkpt lat="48.840770" lon="2.145816">
        <ele>165.438890</ele>
        <time>2025-09-08T03:20:01.026Z</time>
      </trkpt>
      <trkpt lat="48.840876" lon="2.145811">
        <ele>165.701096</ele>
        <time>2025-09-08T03:20:04.888Z</time>
      </trkpt>
      <trkpt lat="48.841796" lon="2.145715">
        <ele>167.981106</ele>
        <time>2025-09-08T03:20:34.064Z</time>
      </trkpt>
      <trkpt lat="48.842342" lon="2.145674">
        <ele>168.905015</ele>
        <time>2025-09-08T03:20:52.196Z</time>
      </trkpt>
      <trkpt lat="48.842489" lon="2.145676">
        <ele>169.093880</ele>
        <time>2025-09-08T03:20:56.997Z</time>
      </trkpt>
      <trkpt lat="48.842876" lon="2.145893">
        <ele>169.623851</ele>
        <time>2025-09-08T03:21:10.142Z</time>
      </trkpt>
      <trkpt lat="48.843216" lon="2.146135">
        <ele>170.106214</ele>
        <time>2025-09-08T03:21:21.350Z</time>
      </trkpt>
      <trkpt lat="48.843978" lon="2.146711">
        <ele>170.263443</ele>
        <time>2025-09-08T03:21:40.964Z</time>
      </trkpt>
      <trkpt lat="48.844453" lon="2.147016">
        <ele>169.536743</ele>
        <time>2025-09-08T03:21:50.744Z</time>
      </trkpt>
      <trkpt lat="48.845274" lon="2.147623">
        <ele>168.250073</ele>
        <time>2025-09-08T03:22:07.208Z</time>
      </trkpt>
      <trkpt lat="48.845834" lon="2.148031">
        <ele>167.294390</ele>
        <time>2025-09-08T03:22:18.680Z</time>
      </trkpt>
      <trkpt lat="48.845994" lon="2.148162">
        <ele>167.013828</ele>
        <time>2025-09-08T03:22:22.063Z</time>
      </trkpt>
      <trkpt lat="48.846353" lon="2.148412">
        <ele>166.404218</ele>
        <time>2025-09-08T03:22:29.513Z</time>
      </trkpt>
      <trkpt lat="48.846675" lon="2.148636">
        <ele>165.857537</ele>
        <time>2025-09-08T03:22:36.359Z</time>
      </trkpt>
      <trkpt lat="48.846905" lon="2.148810">
        <ele>165.460920</ele>
        <time>2025-09-08T03:22:41.491Z</time>
      </trkpt>
      <trkpt lat="48.846999" lon="2.148872">
        <ele>165.438634</ele>
        <time>2025-09-08T03:22:43.537Z</time>
      </trkpt>
      <trkpt lat="48.847022" lon="2.148972">
        <ele>165.436111</ele>
        <time>2025-09-08T03:22:44.959Z</time>
      </trkpt>
      <trkpt lat="48.847420" lon="2.149476">
        <ele>165.417357</ele>
        <time>2025-09-08T03:22:55.799Z</time>
      </trkpt>
      <trkpt lat="48.847606" lon="2.149769">
        <ele>165.407660</ele>
        <time>2025-09-08T03:23:02.191Z</time>
      </trkpt>
      <trkpt lat="48.847750" lon="2.150025">
        <ele>165.399638</ele>
        <time>2025-09-08T03:23:07.690Z</time>
      </trkpt>
      <trkpt lat="48.847878" lon="2.150353">
        <ele>165.390554</ele>
        <time>2025-09-08T03:23:13.978Z</time>
      </trkpt>
      <trkpt lat="48.847978" lon="2.150726">
        <ele>165.380960</ele>
        <time>2025-09-08T03:23:20.385Z</time>
      </trkpt>
      <trkpt lat="48.847997" lon="2.150980">
        <ele>165.363356</ele>
        <time>2025-09-08T03:23:24.367Z</time>
      </trkpt>
      <trkpt lat="48.848021" lon="2.151264">
        <ele>165.315629</ele>
        <time>2025-09-08T03:23:28.751Z</time>
      </trkpt>
      <trkpt lat="48.848193" lon="2.151903">
        <ele>165.200550</ele>
        <time>2025-09-08T03:23:39.425Z</time>
      </trkpt>
      <trkpt lat="48.848348" lon="2.152432">
        <ele>165.104027</ele>
        <time>2025-09-08T03:23:47.865Z</time>
      </trkpt>
      <trkpt lat="48.848600" lon="2.152710">
        <ele>165.025149</ele>
        <time>2025-09-08T03:23:54.264Z</time>
      </trkpt>
      <trkpt lat="48.848723" lon="2.152918">
        <ele>164.978537</ele>
        <time>2025-09-08T03:23:57.958Z</time>
      </trkpt>
      <trkpt lat="48.848835" lon="2.153001">
        <ele>164.946973</ele>
        <time>2025-09-08T03:24:00.450Z</time>
      </trkpt>
      <trkpt lat="48.848957" lon="2.153190">
        <ele>164.845015</ele>
        <time>2025-09-08T03:24:03.907Z</time>
      </trkpt>
      <trkpt lat="48.850900" lon="2.156188">
        <ele>161.402103</ele>
        <time>2025-09-08T03:24:58.497Z</time>
      </trkpt>
      <trkpt lat="48.850932" lon="2.156238">
        <ele>161.330463</ele>
        <time>2025-09-08T03:24:59.389Z</time>
      </trkpt>
      <trkpt lat="48.851004" lon="2.156349">
        <ele>161.170372</ele>
        <time>2025-09-08T03:25:01.350Z</time>
      </trkpt>
      <trkpt lat="48.851036" lon="2.156396">
        <ele>161.100907</ele>
        <time>2025-09-08T03:25:02.222Z</time>
      </trkpt>
      <trkpt lat="48.851054" lon="2.156423">
        <ele>161.061430</ele>
        <time>2025-09-08T03:25:02.700Z</time>
      </trkpt>
      <trkpt lat="48.851097" lon="2.156485">
        <ele>160.968908</ele>
        <time>2025-09-08T03:25:03.823Z</time>
      </trkpt>
      <trkpt lat="48.851315" lon="2.156815">
        <ele>160.488620</ele>
        <time>2025-09-08T03:25:09.673Z</time>
      </trkpt>
      <trkpt lat="48.851463" lon="2.157080">
        <ele>159.853906</ele>
        <time>2025-09-08T03:25:17.243Z</time>
      </trkpt>
      <trkpt lat="48.851882" lon="2.158066">
        <ele>154.953331</ele>
        <time>2025-09-08T03:25:40.254Z</time>
      </trkpt>
      <trkpt lat="48.852060" lon="2.158468">
        <ele>152.930292</ele>
        <time>2025-09-08T03:25:49.012Z</time>
      </trkpt>
      <trkpt lat="48.852155" lon="2.158683">
        <ele>151.849025</ele>
        <time>2025-09-08T03:25:53.583Z</time>
      </trkpt>
      <trkpt lat="48.852677" lon="2.159498">
        <ele>146.049706</ele>
        <time>2025-09-08T03:26:12.722Z</time>
      </trkpt>
      <trkpt lat="48.852921" lon="2.159831">
        <ele>142.689576</ele>
        <time>2025-09-08T03:26:20.956Z</time>
      </trkpt>
      <trkpt lat="48.852967" lon="2.160193">
        <ele>140.203926</ele>
        <time>2025-09-08T03:26:27.071Z</time>
      </trkpt>
      <trkpt lat="48.852960" lon="2.160459">
        <ele>138.409157</ele>
        <time>2025-09-08T03:26:31.509Z</time>
      </trkpt>
      <trkpt lat="48.853049" lon="2.160701">
        <ele>136.540078</ele>
        <time>2025-09-08T03:26:36.168Z</time>
      </trkpt>
      <trkpt lat="48.853287" lon="2.161178">
        <ele>132.504195</ele>
        <time>2025-09-08T03:26:46.295Z</time>
      </trkpt>
      <trkpt lat="48.853406" lon="2.161417">
        <ele>130.483571</ele>
        <time>2025-09-08T03:26:49.125Z</time>
      </trkpt>
      <trkpt lat="48.853602" lon="2.162042">
        <ele>127.602943</ele>
        <time>2025-09-08T03:27:01.177Z</time>
      </trkpt>
      <trkpt lat="48.853872" lon="2.162571">
        <ele>124.856461</ele>
        <time>2025-09-08T03:27:13.276Z</time>
      </trkpt>
      <trkpt lat="48.853944" lon="2.162818">
        <ele>123.748210</ele>
        <time>2025-09-08T03:27:18.249Z</time>
      </trkpt>
      <trkpt lat="48.854176" lon="2.163133">
        <ele>121.808611</ele>
        <time>2025-09-08T03:27:27.091Z</time>
      </trkpt>
      <trkpt lat="48.854311" lon="2.163092">
        <ele>120.950289</ele>
        <time>2025-09-08T03:27:31.125Z</time>
      </trkpt>
      <trkpt lat="48.854508" lon="2.163105">
        <ele>119.720899</ele>
        <time>2025-09-08T03:27:36.992Z</time>
      </trkpt>
      <trkpt lat="48.855322" lon="2.163550">
        <ele>116.673648</ele>
        <time>2025-09-08T03:28:03.975Z</time>
      </trkpt>
      <trkpt lat="48.855494" lon="2.163719">
        <ele>116.015809</ele>
        <time>2025-09-08T03:28:10.552Z</time>
      </trkpt>
      <trkpt lat="48.855580" lon="2.164002">
        <ele>115.357038</ele>
        <time>2025-09-08T03:28:17.037Z</time>
      </trkpt>
      <trkpt lat="48.855780" lon="2.164204">
        <ele>114.585752</ele>
        <time>2025-09-08T03:28:24.523Z</time>
      </trkpt>
      <trkpt lat="48.856265" lon="2.165114">
        <ele>111.751854</ele>
        <time>2025-09-08T03:28:47.648Z</time>
      </trkpt>
      <trkpt lat="48.856992" lon="2.165631">
        <ele>108.449903</ele>
        <time>2025-09-08T03:29:11.231Z</time>
      </trkpt>
      <trkpt lat="48.857289" lon="2.165664">
        <ele>107.224830</ele>
        <time>2025-09-08T03:29:20.073Z</time>
      </trkpt>
      <trkpt lat="48.857899" lon="2.165601">
        <ele>104.586211</ele>
        <time>2025-09-08T03:29:38.187Z</time>
      </trkpt>
      <trkpt lat="48.858118" lon="2.165771">
        <ele>103.477106</ele>
        <time>2025-09-08T03:29:45.543Z</time>
      </trkpt>
      <trkpt lat="48.858875" lon="2.165602">
        <ele>100.026226</ele>
        <time>2025-09-08T03:30:07.941Z</time>
      </trkpt>
      <trkpt lat="48.859278" lon="2.165392">
        <ele>98.104751</ele>
        <time>2025-09-08T03:30:20.239Z</time>
      </trkpt>
      <trkpt lat="48.859445" lon="2.165340">
        <ele>97.348664</ele>
        <time>2025-09-08T03:30:25.123Z</time>
      </trkpt>
      <trkpt lat="48.859537" lon="2.165212">
        <ele>96.799386</ele>
        <time>2025-09-08T03:30:28.693Z</time>
      </trkpt>
      <trkpt lat="48.859883" lon="2.164883">
        <ele>95.001999</ele>
        <time>2025-09-08T03:30:40.462Z</time>
      </trkpt>
      <trkpt lat="48.860021" lon="2.164700">
        <ele>94.195463</ele>
        <time>2025-09-08T03:30:45.806Z</time>
      </trkpt>
      <trkpt lat="48.860080" lon="2.164637">
        <ele>93.877920</ele>
        <time>2025-09-08T03:30:47.936Z</time>
      </trkpt>
      <trkpt lat="48.860084" lon="2.164633">
        <ele>93.856833</ele>
        <time>2025-09-08T03:30:48.083Z</time>
      </trkpt>
      <trkpt lat="48.860110" lon="2.164605">
        <ele>93.716502</ele>
        <time>2025-09-08T03:30:49.029Z</time>
      </trkpt>
      <trkpt lat="48.860223" lon="2.164544">
        <ele>93.188397</ele>
        <time>2025-09-08T03:30:52.575Z</time>
      </trkpt>
      <trkpt lat="48.860248" lon="2.164521">
        <ele>93.059701</ele>
        <time>2025-09-08T03:30:53.424Z</time>
      </trkpt>
      <trkpt lat="48.860299" lon="2.164457">
        <ele>92.768441</ele>
        <time>2025-09-08T03:30:55.413Z</time>
      </trkpt>
      <trkpt lat="48.860699" lon="2.164168">
        <ele>90.817962</ele>
        <time>2025-09-08T03:31:02.835Z</time>
      </trkpt>
      <trkpt lat="48.861299" lon="2.163832">
        <ele>87.666173</ele>
        <time>2025-09-08T03:31:13.403Z</time>
      </trkpt>
      <trkpt lat="48.861451" lon="2.163788">
        <ele>86.867680</ele>
        <time>2025-09-08T03:31:15.898Z</time>
      </trkpt>
      <trkpt lat="48.861916" lon="2.163654">
        <ele>84.425306</ele>
        <time>2025-09-08T03:31:23.414Z</time>
      </trkpt>
      <trkpt lat="48.862507" lon="2.163420">
        <ele>81.273685</ele>
        <time>2025-09-08T03:31:32.809Z</time>
      </trkpt>
      <trkpt lat="48.862507" lon="2.163420">
        <ele>81.273685</ele>
        <time>2025-09-08T03:31:32.810Z</time>
      </trkpt>
      <trkpt lat="48.863375" lon="2.162878">
        <ele>75.296524</ele>
        <time>2025-09-08T03:31:47.005Z</time>
      </trkpt>
      <trkpt lat="48.863901" lon="2.162590">
        <ele>71.639956</ele>
        <time>2025-09-08T03:31:55.531Z</time>
      </trkpt>
      <trkpt lat="48.863962" lon="2.162416">
        <ele>70.791643</ele>
        <time>2025-09-08T03:31:57.494Z</time>
      </trkpt>
      <trkpt lat="48.864058" lon="2.162326">
        <ele>70.053966</ele>
        <time>2025-09-08T03:31:59.437Z</time>
      </trkpt>
      <trkpt lat="48.865101" lon="2.162213">
        <ele>62.910008</ele>
        <time>2025-09-08T03:32:17.229Z</time>
      </trkpt>
      <trkpt lat="48.865929" lon="2.162098">
        <ele>57.180784</ele>
        <time>2025-09-08T03:32:31.324Z</time>
      </trkpt>
      <trkpt lat="48.866609" lon="2.162007">
        <ele>52.604777</ele>
        <time>2025-09-08T03:32:42.999Z</time>
      </trkpt>
      <trkpt lat="48.867103" lon="2.162062">
        <ele>49.299606</ele>
        <time>2025-09-08T03:32:51.440Z</time>
      </trkpt>
      <trkpt lat="48.867335" lon="2.162132">
        <ele>47.721329</ele>
        <time>2025-09-08T03:32:55.481Z</time>
      </trkpt>
      <trkpt lat="48.867816" lon="2.162482">
        <ele>44.284622</ele>
        <time>2025-09-08T03:33:04.572Z</time>
      </trkpt>
      <trkpt lat="48.868278" lon="2.162504">
        <ele>42.265082</ele>
        <time>2025-09-08T03:33:12.599Z</time>
      </trkpt>
      <trkpt lat="48.868679" lon="2.162439">
        <ele>40.503121</ele>
        <time>2025-09-08T03:33:19.858Z</time>
      </trkpt>
      <trkpt lat="48.868766" lon="2.162347">
        <ele>40.040089</ele>
        <time>2025-09-08T03:33:21.837Z</time>
      </trkpt>
      <trkpt lat="48.868795" lon="2.162308">
        <ele>39.870922</ele>
        <time>2025-09-08T03:33:22.561Z</time>
      </trkpt>
      <trkpt lat="48.868904" lon="2.162079">
        <ele>39.058551</ele>
        <time>2025-09-08T03:33:26.129Z</time>
      </trkpt>
      <trkpt lat="48.869179" lon="2.159988">
        <ele>33.633716</ele>
        <time>2025-09-08T03:33:54.346Z</time>
      </trkpt>
      <trkpt lat="48.869192" lon="2.159644">
        <ele>32.830401</ele>
        <time>2025-09-08T03:33:58.547Z</time>
      </trkpt>
      <trkpt lat="48.869166" lon="2.159213">
        <ele>31.821363</ele>
        <time>2025-09-08T03:34:03.713Z</time>
      </trkpt>
      <trkpt lat="48.869193" lon="2.159200">
        <ele>31.720983</ele>
        <time>2025-09-08T03:34:04.234Z</time>
      </trkpt>
      <trkpt lat="48.869318" lon="2.159118">
        <ele>31.238459</ele>
        <time>2025-09-08T03:34:06.708Z</time>
      </trkpt>
      <trkpt lat="48.869333" lon="2.158925">
        <ele>30.785375</ele>
        <time>2025-09-08T03:34:09.032Z</time>
      </trkpt>
      <trkpt lat="48.869412" lon="2.158698">
        <ele>30.204513</ele>
        <time>2025-09-08T03:34:12.112Z</time>
      </trkpt>
      <trkpt lat="48.869501" lon="2.158595">
        <ele>29.882500</ele>
        <time>2025-09-08T03:34:14.144Z</time>
      </trkpt>
      <trkpt lat="48.869689" lon="2.158550">
        <ele>29.334603</ele>
        <time>2025-09-08T03:34:17.590Z</time>
      </trkpt>
      <trkpt lat="48.869870" lon="2.158670">
        <ele>28.766132</ele>
        <time>2025-09-08T03:34:21.205Z</time>
      </trkpt>
      <trkpt lat="48.870059" lon="2.159034">
        <ele>27.887969</ele>
        <time>2025-09-08T03:34:27.010Z</time>
      </trkpt>
      <trkpt lat="48.870097" lon="2.159079">
        <ele>27.749300</ele>
        <time>2025-09-08T03:34:28.153Z</time>
      </trkpt>
      <trkpt lat="48.870392" lon="2.159293">
        <ele>26.808302</ele>
        <time>2025-09-08T03:34:38.399Z</time>
      </trkpt>
      <trkpt lat="48.870611" lon="2.159335">
        <ele>26.172830</ele>
        <time>2025-09-08T03:34:45.583Z</time>
      </trkpt>
      <trkpt lat="48.870816" lon="2.159290">
        <ele>25.576539</ele>
        <time>2025-09-08T03:34:52.720Z</time>
      </trkpt>
      <trkpt lat="48.870939" lon="2.159211">
        <ele>25.192134</ele>
        <time>2025-09-08T03:34:57.402Z</time>
      </trkpt>
      <trkpt lat="48.871194" lon="2.158921">
        <ele>25.098347</ele>
        <time>2025-09-08T03:35:08.552Z</time>
      </trkpt>
      <trkpt lat="48.871408" lon="2.158664">
        <ele>25.093258</ele>
        <time>2025-09-08T03:35:14.900Z</time>
      </trkpt>
      <trkpt lat="48.871714" lon="2.158350">
        <ele>25.086368</ele>
        <time>2025-09-08T03:35:23.791Z</time>
      </trkpt>
      <trkpt lat="48.871871" lon="2.158229">
        <ele>25.083084</ele>
        <time>2025-09-08T03:35:28.263Z</time>
      </trkpt>
      <trkpt lat="48.872152" lon="2.158096">
        <ele>25.077592</ele>
        <time>2025-09-08T03:35:36.266Z</time>
      </trkpt>
      <trkpt lat="48.872252" lon="2.158060">
        <ele>25.075674</ele>
        <time>2025-09-08T03:35:39.159Z</time>
      </trkpt>
      <trkpt lat="48.872481" lon="2.157930">
        <ele>25.071112</ele>
        <time>2025-09-08T03:35:46.315Z</time>
      </trkpt>
      <trkpt lat="48.872618" lon="2.157898">
        <ele>25.111789</ele>
        <time>2025-09-08T03:35:50.534Z</time>
      </trkpt>
      <trkpt lat="48.872722" lon="2.157793">
        <ele>25.171456</ele>
        <time>2025-09-08T03:35:54.331Z</time>
      </trkpt>
      <trkpt lat="48.872793" lon="2.157654">
        <ele>25.226781</ele>
        <time>2025-09-08T03:35:57.878Z</time>
      </trkpt>
      <trkpt lat="48.872865" lon="2.157428">
        <ele>25.305720</ele>
        <time>2025-09-08T03:36:02.902Z</time>
      </trkpt>
      <trkpt lat="48.872922" lon="2.157060">
        <ele>25.424567</ele>
        <time>2025-09-08T03:36:10.158Z</time>
      </trkpt>
      <trkpt lat="48.872911" lon="2.156689">
        <ele>25.541311</ele>
        <time>2025-09-08T03:36:16.992Z</time>
      </trkpt>
      <trkpt lat="48.872862" lon="2.156414">
        <ele>25.630874</ele>
        <time>2025-09-08T03:36:22.108Z</time>
      </trkpt>
      <trkpt lat="48.872856" lon="2.156193">
        <ele>25.700406</ele>
        <time>2025-09-08T03:36:25.926Z</time>
      </trkpt>
      <trkpt lat="48.872889" lon="2.156003">
        <ele>25.762181</ele>
        <time>2025-09-08T03:36:29.192Z</time>
      </trkpt>
      <trkpt lat="48.872827" lon="2.155957">
        <ele>25.795153</ele>
        <time>2025-09-08T03:36:30.935Z</time>
      </trkpt>
      <trkpt lat="48.872794" lon="2.155864">
        <ele>25.828371</ele>
        <time>2025-09-08T03:36:32.595Z</time>
      </trkpt>
      <trkpt lat="48.872805" lon="2.155760">
        <ele>25.861484</ele>
        <time>2025-09-08T03:36:34.258Z</time>
      </trkpt>
      <trkpt lat="48.872886" lon="2.155668">
        <ele>25.909807</ele>
        <time>2025-09-08T03:36:36.631Z</time>
      </trkpt>
      <trkpt lat="48.872771" lon="2.155504">
        <ele>25.870305</ele>
        <time>2025-09-08T03:36:40.313Z</time>
      </trkpt>
      <trkpt lat="48.872547" lon="2.155379">
        <ele>25.747795</ele>
        <time>2025-09-08T03:36:45.947Z</time>
      </trkpt>
      <trkpt lat="48.872384" lon="2.155283">
        <ele>25.658047</ele>
        <time>2025-09-08T03:36:50.822Z</time>
      </trkpt>
      <trkpt lat="48.871882" lon="2.154692">
        <ele>25.332068</ele>
        <time>2025-09-08T03:37:08.272Z</time>
      </trkpt>
      <trkpt lat="48.871882" lon="2.154692">
        <ele>25.332068</ele>
        <time>2025-09-08T03:37:08.283Z</time>
      </trkpt>
      <trkpt lat="48.871781" lon="2.154491">
        <ele>25.246648</ele>
        <time>2025-09-08T03:37:12.954Z</time>
      </trkpt>
      <trkpt lat="48.871744" lon="2.154393">
        <ele>25.208488</ele>
        <time>2025-09-08T03:37:15.065Z</time>
      </trkpt>
      <trkpt lat="48.871746" lon="2.154233">
        <ele>25.154446</ele>
        <time>2025-09-08T03:37:17.986Z</time>
      </trkpt>
      <trkpt lat="48.871827" lon="2.154047">
        <ele>25.079113</ele>
        <time>2025-09-08T03:37:22.065Z</time>
      </trkpt>
      <trkpt lat="48.871925" lon="2.153909">
        <ele>25.010531</ele>
        <time>2025-09-08T03:37:25.737Z</time>
      </trkpt>
      <trkpt lat="48.872073" lon="2.153763">
        <ele>24.933239</ele>
        <time>2025-09-08T03:37:30.604Z</time>
      </trkpt>
      <trkpt lat="48.872309" lon="2.153537">
        <ele>24.812072</ele>
        <time>2025-09-08T03:37:38.356Z</time>
      </trkpt>
      <trkpt lat="48.872500" lon="2.153262">
        <ele>24.697795</ele>
        <time>2025-09-08T03:37:45.701Z</time>
      </trkpt>
      <trkpt lat="48.872697" lon="2.153175">
        <ele>24.608675</ele>
        <time>2025-09-08T03:37:51.312Z</time>
      </trkpt>
      <trkpt lat="48.872831" lon="2.153289">
        <ele>24.541969</ele>
        <time>2025-09-08T03:37:54.476Z</time>
      </trkpt>
      <trkpt lat="48.874316" lon="2.154337">
        <ele>24.141376</ele>
        <time>2025-09-08T03:38:29.940Z</time>
      </trkpt>
      <trkpt lat="48.875002" lon="2.154814">
        <ele>24.071906</ele>
        <time>2025-09-08T03:38:46.532Z</time>
      </trkpt>
      <trkpt lat="48.876346" lon="2.155861">
        <ele>24.591937</ele>
        <time>2025-09-08T03:39:21.915Z</time>
      </trkpt>
      <trkpt lat="48.876842" lon="2.156208">
        <ele>24.801348</ele>
        <time>2025-09-08T03:39:36.920Z</time>
      </trkpt>
      <trkpt lat="48.876880" lon="2.156235">
        <ele>24.816796</ele>
        <time>2025-09-08T03:39:38.034Z</time>
      </trkpt>
      <trkpt lat="48.877690" lon="2.156801">
        <ele>25.145121</ele>
        <time>2025-09-08T03:40:01.014Z</time>
      </trkpt>
      <trkpt lat="48.878547" lon="2.157398">
        <ele>25.399514</ele>
        <time>2025-09-08T03:40:21.423Z</time>
      </trkpt>
      <trkpt lat="48.879396" lon="2.157903">
        <ele>25.307998</ele>
        <time>2025-09-08T03:40:40.778Z</time>
      </trkpt>
      <trkpt lat="48.879908" lon="2.158316">
        <ele>25.249816</ele>
        <time>2025-09-08T03:40:54.220Z</time>
      </trkpt>
      <trkpt lat="48.880263" lon="2.158822">
        <ele>25.297295</ele>
        <time>2025-09-08T03:41:05.798Z</time>
      </trkpt>
      <trkpt lat="48.880472" lon="2.159277">
        <ele>25.353873</ele>
        <time>2025-09-08T03:41:14.476Z</time>
      </trkpt>
      <trkpt lat="48.881012" lon="2.160901">
        <ele>25.492741</ele>
        <time>2025-09-08T03:41:41.806Z</time>
      </trkpt>
      <trkpt lat="48.880992" lon="2.161041">
        <ele>25.476009</ele>
        <time>2025-09-08T03:41:45.281Z</time>
      </trkpt>
      <trkpt lat="48.881009" lon="2.161095">
        <ele>25.469017</ele>
        <time>2025-09-08T03:41:46.134Z</time>
      </trkpt>
      <trkpt lat="48.881304" lon="2.162021">
        <ele>25.348848</ele>
        <time>2025-09-08T03:42:00.772Z</time>
      </trkpt>
      <trkpt lat="48.881348" lon="2.162175">
        <ele>25.329238</ele>
        <time>2025-09-08T03:42:03.137Z</time>
      </trkpt>
      <trkpt lat="48.881444" lon="2.162325">
        <ele>25.304793</ele>
        <time>2025-09-08T03:42:06.141Z</time>
      </trkpt>
      <trkpt lat="48.881511" lon="2.162432">
        <ele>25.287538</ele>
        <time>2025-09-08T03:42:08.266Z</time>
      </trkpt>
      <trkpt lat="48.882037" lon="2.163231">
        <ele>25.154259</ele>
        <time>2025-09-08T03:42:24.214Z</time>
      </trkpt>
      <trkpt lat="48.882289" lon="2.163537">
        <ele>25.095323</ele>
        <time>2025-09-08T03:42:31.205Z</time>
      </trkpt>
      <trkpt lat="48.882309" lon="2.163556">
        <ele>25.091013</ele>
        <time>2025-09-08T03:42:31.720Z</time>
      </trkpt>
      <trkpt lat="48.882366" lon="2.163612">
        <ele>25.078611</ele>
        <time>2025-09-08T03:42:33.212Z</time>
      </trkpt>
      <trkpt lat="48.882574" lon="2.163815">
        <ele>25.033443</ele>
        <time>2025-09-08T03:42:38.635Z</time>
      </trkpt>
      <trkpt lat="48.882802" lon="2.163975">
        <ele>24.987551</ele>
        <time>2025-09-08T03:42:44.148Z</time>
      </trkpt>
      <trkpt lat="48.883045" lon="2.164133">
        <ele>24.939252</ele>
        <time>2025-09-08T03:42:49.982Z</time>
      </trkpt>
      <trkpt lat="48.883429" lon="2.164294">
        <ele>24.866379</ele>
        <time>2025-09-08T03:42:58.632Z</time>
      </trkpt>
      <trkpt lat="48.884075" lon="2.164446">
        <ele>24.743931</ele>
        <time>2025-09-08T03:43:12.484Z</time>
      </trkpt>
      <trkpt lat="48.884224" lon="2.164477">
        <ele>24.715760</ele>
        <time>2025-09-08T03:43:15.694Z</time>
      </trkpt>
      <trkpt lat="48.884526" lon="2.164438">
        <ele>24.658986</ele>
        <time>2025-09-08T03:43:22.249Z</time>
      </trkpt>
      <trkpt lat="48.884879" lon="2.164338">
        <ele>24.591724</ele>
        <time>2025-09-08T03:43:30.309Z</time>
      </trkpt>
      <trkpt lat="48.885109" lon="2.164235">
        <ele>24.546812</ele>
        <time>2025-09-08T03:43:36.082Z</time>
      </trkpt>
      <trkpt lat="48.885445" lon="2.164085">
        <ele>24.501041</ele>
        <time>2025-09-08T03:43:43.547Z</time>
      </trkpt>
      <trkpt lat="48.885505" lon="2.164059">
        <ele>24.493865</ele>
        <time>2025-09-08T03:43:44.891Z</time>
      </trkpt>
      <trkpt lat="48.885554" lon="2.164039">
        <ele>24.488029</ele>
        <time>2025-09-08T03:43:46.037Z</time>
      </trkpt>
      <trkpt lat="48.885626" lon="2.163925">
        <ele>24.476074</ele>
        <time>2025-09-08T03:43:48.184Z</time>
      </trkpt>
      <trkpt lat="48.885805" lon="2.163874">
        <ele>24.455126</ele>
        <time>2025-09-08T03:43:52.029Z</time>
      </trkpt>
      <trkpt lat="48.885997" lon="2.163985">
        <ele>24.431499</ele>
        <time>2025-09-08T03:43:56.323Z</time>
      </trkpt>
      <trkpt lat="48.886457" lon="2.163890">
        <ele>24.378102</ele>
        <time>2025-09-08T03:44:05.987Z</time>
      </trkpt>
      <trkpt lat="48.887083" lon="2.163822">
        <ele>24.663495</ele>
        <time>2025-09-08T03:44:20.603Z</time>
      </trkpt>
      <trkpt lat="48.887382" lon="2.163805">
        <ele>25.251192</ele>
        <time>2025-09-08T03:44:29.339Z</time>
      </trkpt>
      <trkpt lat="48.887820" lon="2.163872">
        <ele>26.115840</ele>
        <time>2025-09-08T03:44:44.087Z</time>
      </trkpt>
      <trkpt lat="48.887847" lon="2.163963">
        <ele>26.244779</ele>
        <time>2025-09-08T03:44:46.425Z</time>
      </trkpt>
      <trkpt lat="48.887947" lon="2.163955">
        <ele>26.441467</ele>
        <time>2025-09-08T03:44:49.899Z</time>
      </trkpt>
      <trkpt lat="48.888220" lon="2.164065">
        <ele>26.996186</ele>
        <time>2025-09-08T03:45:00.075Z</time>
      </trkpt>
      <trkpt lat="48.888307" lon="2.164162">
        <ele>27.208071</ele>
        <time>2025-09-08T03:45:04.125Z</time>
      </trkpt>
      <trkpt lat="48.888465" lon="2.164208">
        <ele>27.524045</ele>
        <time>2025-09-08T03:45:10.321Z</time>
      </trkpt>
      <trkpt lat="48.889110" lon="2.164735">
        <ele>28.058656</ele>
        <time>2025-09-08T03:45:35.777Z</time>
      </trkpt>
      <trkpt lat="48.889351" lon="2.164981">
        <ele>28.162029</ele>
        <time>2025-09-08T03:45:42.116Z</time>
      </trkpt>
      <trkpt lat="48.889554" lon="2.165100">
        <ele>28.239512</ele>
        <time>2025-09-08T03:45:46.640Z</time>
      </trkpt>
      <trkpt lat="48.889869" lon="2.165243">
        <ele>28.356591</ele>
        <time>2025-09-08T03:45:53.271Z</time>
      </trkpt>
      <trkpt lat="48.890035" lon="2.165414">
        <ele>28.427997</ele>
        <time>2025-09-08T03:45:57.293Z</time>
      </trkpt>
      <trkpt lat="48.890062" lon="2.165451">
        <ele>28.440941</ele>
        <time>2025-09-08T03:45:57.996Z</time>
      </trkpt>
      <trkpt lat="48.890194" lon="2.165595">
        <ele>28.498796</ele>
        <time>2025-09-08T03:46:01.255Z</time>
      </trkpt>
      <trkpt lat="48.890670" lon="2.166275">
        <ele>27.932995</ele>
        <time>2025-09-08T03:46:13.770Z</time>
      </trkpt>
      <trkpt lat="48.890706" lon="2.166415">
        <ele>27.847188</ele>
        <time>2025-09-08T03:46:15.574Z</time>
      </trkpt>
      <trkpt lat="48.890699" lon="2.166534">
        <ele>27.778991</ele>
        <time>2025-09-08T03:46:17.077Z</time>
      </trkpt>
      <trkpt lat="48.890735" lon="2.166577">
        <ele>27.739251</ele>
        <time>2025-09-08T03:46:17.931Z</time>
      </trkpt>
      <trkpt lat="48.890881" lon="2.166753">
        <ele>27.577517</ele>
        <time>2025-09-08T03:46:21.631Z</time>
      </trkpt>
      <trkpt lat="48.891012" lon="2.166879">
        <ele>27.442956</ele>
        <time>2025-09-08T03:46:25.002Z</time>
      </trkpt>
      <trkpt lat="48.891173" lon="2.166869">
        <ele>27.303068</ele>
        <time>2025-09-08T03:46:28.535Z</time>
      </trkpt>
      <trkpt lat="48.891407" lon="2.167134">
        <ele>27.049792</ele>
        <time>2025-09-08T03:46:35.065Z</time>
      </trkpt>
      <trkpt lat="48.891489" lon="2.167031">
        <ele>26.957465</ele>
        <time>2025-09-08T03:46:37.461Z</time>
      </trkpt>
      <trkpt lat="48.891522" lon="2.167028">
        <ele>26.934363</ele>
        <time>2025-09-08T03:46:38.299Z</time>
      </trkpt>
      <trkpt lat="48.891543" lon="2.167032">
        <ele>26.927580</ele>
        <time>2025-09-08T03:46:38.849Z</time>
      </trkpt>
      <trkpt lat="48.891761" lon="2.167131">
        <ele>26.854668</ele>
        <time>2025-09-08T03:46:44.671Z</time>
      </trkpt>
      <trkpt lat="48.891961" lon="2.167340">
        <ele>26.776901</ele>
        <time>2025-09-08T03:46:50.675Z</time>
      </trkpt>
      <trkpt lat="48.892183" lon="2.167449">
        <ele>26.702139</ele>
        <time>2025-09-08T03:46:56.186Z</time>
      </trkpt>
      <trkpt lat="48.892462" lon="2.167548">
        <ele>26.610323</ele>
        <time>2025-09-08T03:47:02.886Z</time>
      </trkpt>
      <trkpt lat="48.892491" lon="2.167558">
        <ele>26.600794</ele>
        <time>2025-09-08T03:47:03.575Z</time>
      </trkpt>
      <trkpt lat="48.892814" lon="2.167673">
        <ele>26.494480</ele>
        <time>2025-09-08T03:47:11.543Z</time>
      </trkpt>
      <trkpt lat="48.893076" lon="2.167765">
        <ele>26.408305</ele>
        <time>2025-09-08T03:47:17.825Z</time>
      </trkpt>
      <trkpt lat="48.893570" lon="2.167973">
        <ele>26.259517</ele>
        <time>2025-09-08T03:47:29.898Z</time>
      </trkpt>
      <trkpt lat="48.894061" lon="2.168249">
        <ele>26.113927</ele>
        <time>2025-09-08T03:47:41.827Z</time>
      </trkpt>
      <trkpt lat="48.894132" lon="2.168290">
        <ele>26.092805</ele>
        <time>2025-09-08T03:47:44.592Z</time>
      </trkpt>
      <trkpt lat="48.894249" lon="2.168360">
        <ele>26.057836</ele>
        <time>2025-09-08T03:47:49.180Z</time>
      </trkpt>
      <trkpt lat="48.894412" lon="2.168519">
        <ele>26.003979</ele>
        <time>2025-09-08T03:47:56.310Z</time>
      </trkpt>
      <trkpt lat="48.894569" lon="2.168718">
        <ele>25.947138</ele>
        <time>2025-09-08T03:48:03.890Z</time>
      </trkpt>
      <trkpt lat="48.894727" lon="2.168918">
        <ele>25.889966</ele>
        <time>2025-09-08T03:48:11.768Z</time>
      </trkpt>
      <trkpt lat="48.895067" lon="2.169263">
        <ele>25.884840</ele>
        <time>2025-09-08T03:48:27.229Z</time>
      </trkpt>
      <trkpt lat="48.895525" lon="2.169843">
        <ele>25.931617</ele>
        <time>2025-09-08T03:48:49.624Z</time>
      </trkpt>
      <trkpt lat="48.896015" lon="2.170424">
        <ele>25.980383</ele>
        <time>2025-09-08T03:49:13.095Z</time>
      </trkpt>
      <trkpt lat="48.896485" lon="2.171066">
        <ele>26.048843</ele>
        <time>2025-09-08T03:49:36.292Z</time>
      </trkpt>
      <trkpt lat="48.896730" lon="2.171449">
        <ele>26.095116</ele>
        <time>2025-09-08T03:49:49.296Z</time>
      </trkpt>
      <trkpt lat="48.897700" lon="2.173119">
        <ele>26.370577</ele>
        <time>2025-09-08T03:50:45.218Z</time>
      </trkpt>
      <trkpt lat="48.899558" lon="2.176164">
        <ele>27.172980</ele>
        <time>2025-09-08T03:52:32.047Z</time>
      </trkpt>
      <trkpt lat="48.899926" lon="2.176941">
        <ele>27.188634</ele>
        <time>2025-09-08T03:52:55.222Z</time>
      </trkpt>
      <trkpt lat="48.900214" lon="2.177659">
        <ele>26.792337</ele>
        <time>2025-09-08T03:53:14.882Z</time>
      </trkpt>
      <trkpt lat="48.900607" lon="2.178668">
        <ele>26.239756</ele>
        <time>2025-09-08T03:53:41.246Z</time>
      </trkpt>
      <trkpt lat="48.900613" lon="2.178768">
        <ele>26.192445</ele>
        <time>2025-09-08T03:53:43.565Z</time>
      </trkpt>
      <trkpt lat="48.900670" lon="2.178948">
        <ele>26.098309</ele>
        <time>2025-09-08T03:53:48.109Z</time>
      </trkpt>
      <trkpt lat="48.900658" lon="2.179095">
        <ele>26.028517</ele>
        <time>2025-09-08T03:53:51.491Z</time>
      </trkpt>
      <trkpt lat="48.900691" lon="2.179120">
        <ele>26.002095</ele>
        <time>2025-09-08T03:53:52.769Z</time>
      </trkpt>
      <trkpt lat="48.900714" lon="2.179122">
        <ele>25.992860</ele>
        <time>2025-09-08T03:53:53.587Z</time>
      </trkpt>
      <trkpt lat="48.900734" lon="2.179124">
        <ele>25.987814</ele>
        <time>2025-09-08T03:53:54.307Z</time>
      </trkpt>
      <trkpt lat="48.900749" lon="2.179272">
        <ele>25.963034</ele>
        <time>2025-09-08T03:53:57.748Z</time>
      </trkpt>
      <trkpt lat="48.900841" lon="2.179480">
        <ele>25.921549</ele>
        <time>2025-09-08T03:54:03.630Z</time>
      </trkpt>
      <trkpt lat="48.900851" lon="2.179627">
        <ele>25.897094</ele>
        <time>2025-09-08T03:54:07.139Z</time>
      </trkpt>
      <trkpt lat="48.900866" lon="2.179626">
        <ele>25.893314</ele>
        <time>2025-09-08T03:54:07.672Z</time>
      </trkpt>
      <trkpt lat="48.900878" lon="2.179627">
        <ele>25.890289</ele>
        <time>2025-09-08T03:54:08.078Z</time>
      </trkpt>
      <trkpt lat="48.900878" lon="2.179653">
        <ele>25.885986</ele>
        <time>2025-09-08T03:54:08.699Z</time>
      </trkpt>
      <trkpt lat="48.900784" lon="2.179706">
        <ele>25.860751</ele>
        <time>2025-09-08T03:54:12.300Z</time>
      </trkpt>
      <trkpt lat="48.900690" lon="2.179818">
        <ele>25.830694</ele>
        <time>2025-09-08T03:54:16.566Z</time>
      </trkpt>
      <trkpt lat="48.900623" lon="2.179963">
        <ele>25.801365</ele>
        <time>2025-09-08T03:54:20.680Z</time>
      </trkpt>
      <trkpt lat="48.900608" lon="2.180042">
        <ele>25.787758</ele>
        <time>2025-09-08T03:54:22.577Z</time>
      </trkpt>
      <trkpt lat="48.900625" lon="2.180245">
        <ele>25.753894</ele>
        <time>2025-09-08T03:54:27.305Z</time>
      </trkpt>
      <trkpt lat="48.900799" lon="2.180816">
        <ele>25.649748</ele>
        <time>2025-09-08T03:54:42.491Z</time>
      </trkpt>
      <trkpt lat="48.900813" lon="2.180864">
        <ele>25.641058</ele>
        <time>2025-09-08T03:54:43.313Z</time>
      </trkpt>
      <trkpt lat="48.900825" lon="2.180903">
        <ele>25.633932</ele>
        <time>2025-09-08T03:54:43.979Z</time>
      </trkpt>
      <trkpt lat="48.900837" lon="2.180942">
        <ele>25.626807</ele>
        <time>2025-09-08T03:54:45.068Z</time>
      </trkpt>
      <trkpt lat="48.900931" lon="2.180909">
        <ele>25.602522</ele>
        <time>2025-09-08T03:54:48.891Z</time>
      </trkpt>
      <trkpt lat="48.901118" lon="2.180932">
        <ele>25.555295</ele>
        <time>2025-09-08T03:54:56.273Z</time>
      </trkpt>
      <trkpt lat="48.901300" lon="2.180825">
        <ele>25.610806</ele>
        <time>2025-09-08T03:55:03.949Z</time>
      </trkpt>
      <trkpt lat="48.901388" lon="2.180757">
        <ele>25.654643</ele>
        <time>2025-09-08T03:55:07.811Z</time>
      </trkpt>
      <trkpt lat="48.901404" lon="2.180807">
        <ele>25.670878</ele>
        <time>2025-09-08T03:55:09.007Z</time>
      </trkpt>
      <trkpt lat="48.901404" lon="2.180807">
        <ele>25.670878</ele>
        <time>2025-09-08T03:55:09.007Z</time>
      </trkpt>
      <trkpt lat="48.902122" lon="2.183000">
        <ele>26.332613</ele>
        <time>2025-09-08T03:56:00.315Z</time>
      </trkpt>
      <trkpt lat="48.902344" lon="2.183872">
        <ele>26.268037</ele>
        <time>2025-09-08T03:56:18.563Z</time>
      </trkpt>
      <trkpt lat="48.902455" lon="2.184374">
        <ele>26.231462</ele>
        <time>2025-09-08T03:56:28.490Z</time>
      </trkpt>
      <trkpt lat="48.902527" lon="2.184958">
        <ele>26.190430</ele>
        <time>2025-09-08T03:56:39.403Z</time>
      </trkpt>
      <trkpt lat="48.902773" lon="2.186226">
        <ele>26.152095</ele>
        <time>2025-09-08T03:57:04.313Z</time>
      </trkpt>
      <trkpt lat="48.902800" lon="2.186361">
        <ele>26.151774</ele>
        <time>2025-09-08T03:57:07.010Z</time>
      </trkpt>
      <trkpt lat="48.903053" lon="2.187647">
        <ele>26.148724</ele>
        <time>2025-09-08T03:57:33.220Z</time>
      </trkpt>
      <trkpt lat="48.903558" lon="2.189572">
        <ele>26.284844</ele>
        <time>2025-09-08T03:58:14.089Z</time>
      </trkpt>
      <trkpt lat="48.903912" lon="2.191069">
        <ele>26.436208</ele>
        <time>2025-09-08T03:58:45.272Z</time>
      </trkpt>
      <trkpt lat="48.904426" lon="2.193217">
        <ele>26.709039</ele>
        <time>2025-09-08T03:59:30.701Z</time>
      </trkpt>
      <trkpt lat="48.904510" lon="2.193462">
        <ele>26.739908</ele>
        <time>2025-09-08T03:59:36.131Z</time>
      </trkpt>
      <trkpt lat="48.904461" lon="2.193582">
        <ele>26.755690</ele>
        <time>2025-09-08T03:59:38.175Z</time>
      </trkpt>
      <trkpt lat="48.904269" lon="2.193886">
        <ele>26.802787</ele>
        <time>2025-09-08T03:59:44.731Z</time>
      </trkpt>
      <trkpt lat="48.904235" lon="2.193874">
        <ele>26.808719</ele>
        <time>2025-09-08T03:59:45.554Z</time>
      </trkpt>
      <trkpt lat="48.904246" lon="2.193896">
        <ele>26.811806</ele>
        <time>2025-09-08T03:59:46.020Z</time>
      </trkpt>
      <trkpt lat="48.904254" lon="2.193914">
        <ele>26.814234</ele>
        <time>2025-09-08T03:59:46.370Z</time>
      </trkpt>
      <trkpt lat="48.904263" lon="2.193927">
        <ele>26.816343</ele>
        <time>2025-09-08T03:59:46.679Z</time>
      </trkpt>
      <trkpt lat="48.904623" lon="2.194430">
        <ele>26.899415</ele>
        <time>2025-09-08T03:59:58.212Z</time>
      </trkpt>
      <trkpt lat="48.904638" lon="2.194405">
        <ele>26.903196</ele>
        <time>2025-09-08T03:59:58.871Z</time>
      </trkpt>
      <trkpt lat="48.904763" lon="2.194190">
        <ele>26.935261</ele>
        <time>2025-09-08T04:00:04.519Z</time>
      </trkpt>
      <trkpt lat="48.904638" lon="2.194405">
        <ele>26.967327</ele>
        <time>2025-09-08T04:00:10.177Z</time>
      </trkpt>
      <trkpt lat="48.904623" lon="2.194430">
        <ele>26.971108</ele>
        <time>2025-09-08T04:00:10.852Z</time>
      </trkpt>
      <trkpt lat="48.904263" lon="2.193927">
        <ele>27.053243</ele>
        <time>2025-09-08T04:00:21.681Z</time>
      </trkpt>
      <trkpt lat="48.904254" lon="2.193914">
        <ele>27.055305</ele>
        <time>2025-09-08T04:00:21.957Z</time>
      </trkpt>
      <trkpt lat="48.904246" lon="2.193896">
        <ele>27.057677</ele>
        <time>2025-09-08T04:00:22.262Z</time>
      </trkpt>
      <trkpt lat="48.904235" lon="2.193874">
        <ele>27.060695</ele>
        <time>2025-09-08T04:00:22.661Z</time>
      </trkpt>
      <trkpt lat="48.904187" lon="2.193840">
        <ele>27.069490</ele>
        <time>2025-09-08T04:00:23.858Z</time>
      </trkpt>
      <trkpt lat="48.903818" lon="2.194451">
        <ele>27.160084</ele>
        <time>2025-09-08T04:00:36.307Z</time>
      </trkpt>
      <trkpt lat="48.903122" lon="2.195583">
        <ele>27.358941</ele>
        <time>2025-09-08T04:00:59.897Z</time>
      </trkpt>
      <trkpt lat="48.903184" lon="2.195641">
        <ele>27.391207</ele>
        <time>2025-09-08T04:01:04.977Z</time>
      </trkpt>
      <trkpt lat="48.903212" lon="2.195666">
        <ele>27.405600</ele>
        <time>2025-09-08T04:01:07.208Z</time>
      </trkpt>
      <trkpt lat="48.903351" lon="2.195793">
        <ele>27.477479</ele>
        <time>2025-09-08T04:01:18.467Z</time>
      </trkpt>
      <trkpt lat="48.902873" lon="2.196559">
        <ele>27.785256</ele>
        <time>2025-09-08T04:02:06.700Z</time>
      </trkpt>
      <trkpt lat="48.902925" lon="2.196629">
        <ele>27.816038</ele>
        <time>2025-09-08T04:02:11.487Z</time>
      </trkpt>
      <trkpt lat="48.903114" lon="2.196899">
        <ele>27.930974</ele>
        <time>2025-09-08T04:02:29.519Z</time>
      </trkpt>
      <trkpt lat="48.903121" lon="2.196911">
        <ele>27.935649</ele>
        <time>2025-09-08T04:02:30.264Z</time>
      </trkpt>
      <trkpt lat="48.903162" lon="2.196966">
        <ele>27.959882</ele>
        <time>2025-09-08T04:02:34.067Z</time>
      </trkpt>
      <trkpt lat="48.903179" lon="2.197000">
        <ele>27.972330</ele>
        <time>2025-09-08T04:02:36.015Z</time>
      </trkpt>
      <trkpt lat="48.902940" lon="2.197370">
        <ele>28.109067</ele>
        <time>2025-09-08T04:02:59.742Z</time>
      </trkpt>
      <trkpt lat="48.902785" lon="2.197651">
        <ele>28.110061</ele>
        <time>2025-09-08T04:03:16.519Z</time>
      </trkpt>
      <trkpt lat="48.902561" lon="2.197992">
        <ele>28.111366</ele>
        <time>2025-09-08T04:03:38.502Z</time>
      </trkpt>
      <trkpt lat="48.902366" lon="2.198342">
        <ele>28.112609</ele>
        <time>2025-09-08T04:03:59.484Z</time>
      </trkpt>
      <trkpt lat="48.902340" lon="2.198386">
        <ele>28.112769</ele>
        <time>2025-09-08T04:04:02.201Z</time>
      </trkpt>
      <trkpt lat="48.901915" lon="2.197793">
        <ele>28.115146</ele>
        <time>2025-09-08T04:04:42.306Z</time>
      </trkpt>
      <trkpt lat="48.901930" lon="2.197766">
        <ele>28.115242</ele>
        <time>2025-09-08T04:04:43.942Z</time>
      </trkpt>
      <trkpt lat="48.901864" lon="2.197669">
        <ele>28.115620</ele>
        <time>2025-09-08T04:04:50.319Z</time>
      </trkpt>
      <trkpt lat="48.901797" lon="2.197598">
        <ele>28.115956</ele>
        <time>2025-09-08T04:04:52.047Z</time>
      </trkpt>
      <trkpt lat="48.901251" lon="2.198501">
        <ele>28.065337</ele>
        <time>2025-09-08T04:05:20.308Z</time>
      </trkpt>
      <trkpt lat="48.900878" lon="2.199118">
        <ele>28.025895</ele>
        <time>2025-09-08T04:05:40.164Z</time>
      </trkpt>
      <trkpt lat="48.900466" lon="2.199788">
        <ele>28.049885</ele>
        <time>2025-09-08T04:05:55.993Z</time>
      </trkpt>
      <trkpt lat="48.900334" lon="2.199997">
        <ele>28.224236</ele>
        <time>2025-09-08T04:06:01.368Z</time>
      </trkpt>
      <trkpt lat="48.900222" lon="2.200047">
        <ele>28.331050</ele>
        <time>2025-09-08T04:06:04.672Z</time>
      </trkpt>
      <trkpt lat="48.900177" lon="2.200080">
        <ele>28.376765</ele>
        <time>2025-09-08T04:06:06.101Z</time>
      </trkpt>
      <trkpt lat="48.900133" lon="2.200158">
        <ele>28.438595</ele>
        <time>2025-09-08T04:06:08.019Z</time>
      </trkpt>
      <trkpt lat="48.900120" lon="2.200181">
        <ele>28.456842</ele>
        <time>2025-09-08T04:06:08.574Z</time>
      </trkpt>
      <trkpt lat="48.900026" lon="2.200343">
        <ele>28.586829</ele>
        <time>2025-09-08T04:06:12.691Z</time>
      </trkpt>
      <trkpt lat="48.899748" lon="2.200781">
        <ele>28.953087</ele>
        <time>2025-09-08T04:06:30.129Z</time>
      </trkpt>
      <trkpt lat="48.899706" lon="2.200848">
        <ele>29.008780</ele>
        <time>2025-09-08T04:06:31.877Z</time>
      </trkpt>
      <trkpt lat="48.899620" lon="2.200967">
        <ele>29.115167</ele>
        <time>2025-09-08T04:06:35.227Z</time>
      </trkpt>
      <trkpt lat="48.899566" lon="2.201030">
        <ele>29.177443</ele>
        <time>2025-09-08T04:06:37.197Z</time>
      </trkpt>
      <trkpt lat="48.899619" lon="2.201107">
        <ele>29.244510</ele>
        <time>2025-09-08T04:06:39.257Z</time>
      </trkpt>
      <trkpt lat="48.899694" lon="2.201234">
        <ele>29.347210</ele>
        <time>2025-09-08T04:06:42.350Z</time>
      </trkpt>
      <trkpt lat="48.900085" lon="2.201902">
        <ele>29.651426</ele>
        <time>2025-09-08T04:07:05.574Z</time>
      </trkpt>
      <trkpt lat="48.900161" lon="2.202033">
        <ele>29.658892</ele>
        <time>2025-09-08T04:07:09.759Z</time>
      </trkpt>
      <trkpt lat="48.901081" lon="2.203459">
        <ele>29.744263</ele>
        <time>2025-09-08T04:08:41.031Z</time>
      </trkpt>
      <trkpt lat="48.901081" lon="2.203459">
        <ele>29.744263</ele>
        <time>2025-09-08T04:08:41.057Z</time>
      </trkpt>
      <trkpt lat="48.901978" lon="2.204798">
        <ele>30.138437</ele>
        <time>2025-09-08T04:10:08.385Z</time>
      </trkpt>
      <trkpt lat="48.902061" lon="2.204879">
        <ele>30.171378</ele>
        <time>2025-09-08T04:10:15.243Z</time>
      </trkpt>
      <trkpt lat="48.902152" lon="2.205010">
        <ele>30.213229</ele>
        <time>2025-09-08T04:10:18.089Z</time>
      </trkpt>
      <trkpt lat="48.902862" lon="2.206085">
        <ele>30.970639</ele>
        <time>2025-09-08T04:10:42.995Z</time>
      </trkpt>
      <trkpt lat="48.902865" lon="2.206106">
        <ele>30.985508</ele>
        <time>2025-09-08T04:10:43.334Z</time>
      </trkpt>
      <trkpt lat="48.902893" lon="2.206298">
        <ele>31.121579</ele>
        <time>2025-09-08T04:10:46.829Z</time>
      </trkpt>
      <trkpt lat="48.902913" lon="2.206331">
        <ele>31.152634</ele>
        <time>2025-09-08T04:10:47.576Z</time>
      </trkpt>
      <trkpt lat="48.902257" lon="2.207328">
        <ele>32.128642</ele>
        <time>2025-09-08T04:11:14.853Z</time>
      </trkpt>
      <trkpt lat="48.902067" lon="2.207704">
        <ele>32.342948</ele>
        <time>2025-09-08T04:11:24.326Z</time>
      </trkpt>
      <trkpt lat="48.901842" lon="2.208360">
        <ele>32.580439</ele>
        <time>2025-09-08T04:11:37.787Z</time>
      </trkpt>
      <trkpt lat="48.901520" lon="2.209440">
        <ele>32.961070</ele>
        <time>2025-09-08T04:11:55.092Z</time>
      </trkpt>
      <trkpt lat="48.901512" lon="2.209465">
        <ele>32.969994</ele>
        <time>2025-09-08T04:11:55.484Z</time>
      </trkpt>
      <trkpt lat="48.901401" lon="2.209814">
        <ele>33.094435</ele>
        <time>2025-09-08T04:12:00.996Z</time>
      </trkpt>
      <trkpt lat="48.901356" lon="2.209955">
        <ele>33.145006</ele>
        <time>2025-09-08T04:12:03.225Z</time>
      </trkpt>
      <trkpt lat="48.901292" lon="2.210190">
        <ele>33.227622</ele>
        <time>2025-09-08T04:12:06.921Z</time>
      </trkpt>
      <trkpt lat="48.901252" lon="2.210351">
        <ele>33.283524</ele>
        <time>2025-09-08T04:12:09.471Z</time>
      </trkpt>
      <trkpt lat="48.901234" lon="2.210422">
        <ele>33.308239</ele>
        <time>2025-09-08T04:12:10.639Z</time>
      </trkpt>
      <trkpt lat="48.901180" lon="2.210738">
        <ele>33.414285</ele>
        <time>2025-09-08T04:12:15.731Z</time>
      </trkpt>
      <trkpt lat="48.901194" lon="2.211462">
        <ele>33.649535</ele>
        <time>2025-09-08T04:12:27.300Z</time>
      </trkpt>
      <trkpt lat="48.901258" lon="2.212223">
        <ele>33.898715</ele>
        <time>2025-09-08T04:12:39.966Z</time>
      </trkpt>
      <trkpt lat="48.901247" lon="2.212356">
        <ele>33.942253</ele>
        <time>2025-09-08T04:12:42.326Z</time>
      </trkpt>
      <trkpt lat="48.901205" lon="2.212486">
        <ele>33.989300</ele>
        <time>2025-09-08T04:12:44.964Z</time>
      </trkpt>
      <trkpt lat="48.901008" lon="2.212749">
        <ele>34.412931</ele>
        <time>2025-09-08T04:12:52.489Z</time>
      </trkpt>
      <trkpt lat="48.900962" lon="2.212809">
        <ele>34.524827</ele>
        <time>2025-09-08T04:12:54.293Z</time>
      </trkpt>
      <trkpt lat="48.900899" lon="2.212888">
        <ele>34.675596</ele>
        <time>2025-09-08T04:12:56.746Z</time>
      </trkpt>
      <trkpt lat="48.900718" lon="2.213116">
        <ele>35.109557</ele>
        <time>2025-09-08T04:13:04.082Z</time>
      </trkpt>
      <trkpt lat="48.900692" lon="2.213147">
        <ele>35.170560</ele>
        <time>2025-09-08T04:13:05.068Z</time>
      </trkpt>
      <trkpt lat="48.900663" lon="2.213188">
        <ele>35.243670</ele>
        <time>2025-09-08T04:13:06.314Z</time>
      </trkpt>
      <trkpt lat="48.900382" lon="2.213530">
        <ele>35.908219</ele>
        <time>2025-09-08T04:13:17.255Z</time>
      </trkpt>
      <trkpt lat="48.900103" lon="2.213866">
        <ele>36.565344</ele>
        <time>2025-09-08T04:13:27.993Z</time>
      </trkpt>
      <trkpt lat="48.900037" lon="2.213992">
        <ele>36.760920</ele>
        <time>2025-09-08T04:13:31.326Z</time>
      </trkpt>
      <trkpt lat="48.899948" lon="2.214119">
        <ele>36.986264</ele>
        <time>2025-09-08T04:13:35.409Z</time>
      </trkpt>
      <trkpt lat="48.899799" lon="2.213958">
        <ele>37.323764</ele>
        <time>2025-09-08T04:13:42.166Z</time>
      </trkpt>
      <trkpt lat="48.899404" lon="2.213796">
        <ele>38.515416</ele>
        <time>2025-09-08T04:13:57.811Z</time>
      </trkpt>
      <trkpt lat="48.899180" lon="2.213775">
        <ele>39.172030</ele>
        <time>2025-09-08T04:14:07.091Z</time>
      </trkpt>
      <trkpt lat="48.899088" lon="2.213817">
        <ele>39.453061</ele>
        <time>2025-09-08T04:14:10.680Z</time>
      </trkpt>
      <trkpt lat="48.898914" lon="2.213798">
        <ele>39.963453</ele>
        <time>2025-09-08T04:14:17.485Z</time>
      </trkpt>
      <trkpt lat="48.898826" lon="2.214057">
        <ele>40.524206</ele>
        <time>2025-09-08T04:14:24.689Z</time>
      </trkpt>
      <trkpt lat="48.898857" lon="2.214065">
        <ele>40.616201</ele>
        <time>2025-09-08T04:14:25.765Z</time>
      </trkpt>
      <trkpt lat="48.898908" lon="2.214078">
        <ele>40.767495</ele>
        <time>2025-09-08T04:14:27.425Z</time>
      </trkpt>
      <trkpt lat="48.898763" lon="2.214580">
        <ele>41.822116</ele>
        <time>2025-09-08T04:14:41.169Z</time>
      </trkpt>
      <trkpt lat="48.898755" lon="2.214605">
        <ele>41.875594</ele>
        <time>2025-09-08T04:14:41.870Z</time>
      </trkpt>
      <trkpt lat="48.898747" lon="2.214637">
        <ele>41.941442</ele>
        <time>2025-09-08T04:14:42.664Z</time>
      </trkpt>
      <trkpt lat="48.898660" lon="2.214951">
        <ele>42.596447</ele>
        <time>2025-09-08T04:14:50.538Z</time>
      </trkpt>
      <trkpt lat="48.898585" lon="2.215213">
        <ele>43.015423</ele>
        <time>2025-09-08T04:14:57.241Z</time>
      </trkpt>
      <trkpt lat="48.898564" lon="2.215289">
        <ele>43.136296</ele>
        <time>2025-09-08T04:14:59.078Z</time>
      </trkpt>
      <trkpt lat="48.898494" lon="2.215517">
        <ele>43.505243</ele>
        <time>2025-09-08T04:15:04.435Z</time>
      </trkpt>
      <trkpt lat="48.898474" lon="2.215586">
        <ele>43.615807</ele>
        <time>2025-09-08T04:15:05.932Z</time>
      </trkpt>
      <trkpt lat="48.898414" lon="2.215798">
        <ele>43.954218</ele>
        <time>2025-09-08T04:15:11.110Z</time>
      </trkpt>
      <trkpt lat="48.898344" lon="2.216045">
        <ele>44.348584</ele>
        <time>2025-09-08T04:15:19.541Z</time>
      </trkpt>
      <trkpt lat="48.898330" lon="2.216095">
        <ele>44.428265</ele>
        <time>2025-09-08T04:15:20.696Z</time>
      </trkpt>
      <trkpt lat="48.898285" lon="2.216263">
        <ele>44.694246</ele>
        <time>2025-09-08T04:15:24.375Z</time>
      </trkpt>
      <trkpt lat="48.898180" lon="2.216637">
        <ele>45.290511</ele>
        <time>2025-09-08T04:15:32.650Z</time>
      </trkpt>
      <trkpt lat="48.898170" lon="2.216675">
        <ele>45.350524</ele>
        <time>2025-09-08T04:15:33.504Z</time>
      </trkpt>
      <trkpt lat="48.898157" lon="2.216733">
        <ele>45.440370</ele>
        <time>2025-09-08T04:15:34.779Z</time>
      </trkpt>
      <trkpt lat="48.898136" lon="2.216809">
        <ele>45.561243</ele>
        <time>2025-09-08T04:15:36.496Z</time>
      </trkpt>
      <trkpt lat="48.897923" lon="2.217580">
        <ele>46.817132</ele>
        <time>2025-09-08T04:15:54.371Z</time>
      </trkpt>
      <trkpt lat="48.897796" lon="2.218040">
        <ele>47.668826</ele>
        <time>2025-09-08T04:16:06.119Z</time>
      </trkpt>
      <trkpt lat="48.897774" lon="2.218143">
        <ele>47.853703</ele>
        <time>2025-09-08T04:16:08.844Z</time>
      </trkpt>
      <trkpt lat="48.897803" lon="2.218216">
        <ele>47.999305</ele>
        <time>2025-09-08T04:16:10.964Z</time>
      </trkpt>
      <trkpt lat="48.897789" lon="2.218267">
        <ele>48.093652</ele>
        <time>2025-09-08T04:16:12.337Z</time>
      </trkpt>
      <trkpt lat="48.897776" lon="2.218312">
        <ele>48.177560</ele>
        <time>2025-09-08T04:16:13.610Z</time>
      </trkpt>
      <trkpt lat="48.897745" lon="2.218426">
        <ele>48.388159</ele>
        <time>2025-09-08T04:16:16.752Z</time>
      </trkpt>
      <trkpt lat="48.897731" lon="2.218475">
        <ele>48.479365</ele>
        <time>2025-09-08T04:16:18.088Z</time>
      </trkpt>
      <trkpt lat="48.897530" lon="2.219098">
        <ele>49.664051</ele>
        <time>2025-09-08T04:16:35.497Z</time>
      </trkpt>
      <trkpt lat="48.897509" lon="2.219158">
        <ele>49.780088</ele>
        <time>2025-09-08T04:16:37.166Z</time>
      </trkpt>
      <trkpt lat="48.897491" lon="2.219226">
        <ele>49.905227</ele>
        <time>2025-09-08T04:16:38.898Z</time>
      </trkpt>
      <trkpt lat="48.897483" lon="2.219251">
        <ele>49.952692</ele>
        <time>2025-09-08T04:16:39.547Z</time>
      </trkpt>
      <trkpt lat="48.897474" lon="2.219279">
        <ele>50.005898</ele>
        <time>2025-09-08T04:16:40.272Z</time>
      </trkpt>
      <trkpt lat="48.897464" lon="2.219312">
        <ele>50.067928</ele>
        <time>2025-09-08T04:16:41.114Z</time>
      </trkpt>
      <trkpt lat="48.897456" lon="2.219338">
        <ele>50.116934</ele>
        <time>2025-09-08T04:16:41.823Z</time>
      </trkpt>
      <trkpt lat="48.897450" lon="2.219356">
        <ele>50.151385</ele>
        <time>2025-09-08T04:16:42.319Z</time>
      </trkpt>
      <trkpt lat="48.897388" lon="2.219525">
        <ele>50.481766</ele>
        <time>2025-09-08T04:16:46.628Z</time>
      </trkpt>
      <trkpt lat="48.897346" lon="2.219557">
        <ele>50.603743</ele>
        <time>2025-09-08T04:16:48.269Z</time>
      </trkpt>
      <trkpt lat="48.897214" lon="2.219974">
        <ele>51.332386</ele>
        <time>2025-09-08T04:16:58.059Z</time>
      </trkpt>
      <trkpt lat="48.897149" lon="2.220181">
        <ele>51.517621</ele>
        <time>2025-09-08T04:17:03.065Z</time>
      </trkpt>
      <trkpt lat="48.897088" lon="2.220373">
        <ele>51.689811</ele>
        <time>2025-09-08T04:17:07.473Z</time>
      </trkpt>
      <trkpt lat="48.896963" lon="2.220771">
        <ele>52.045978</ele>
        <time>2025-09-08T04:17:16.232Z</time>
      </trkpt>
      <trkpt lat="48.896820" lon="2.221223">
        <ele>52.451022</ele>
        <time>2025-09-08T04:17:25.607Z</time>
      </trkpt>
      <trkpt lat="48.896685" lon="2.221651">
        <ele>52.834343</ele>
        <time>2025-09-08T04:17:34.047Z</time>
      </trkpt>
      <trkpt lat="48.896555" lon="2.222063">
        <ele>53.203361</ele>
        <time>2025-09-08T04:17:41.540Z</time>
      </trkpt>
      <trkpt lat="48.896431" lon="2.222452">
        <ele>53.502556</ele>
        <time>2025-09-08T04:17:48.648Z</time>
      </trkpt>
      <trkpt lat="48.896332" lon="2.222769">
        <ele>53.571736</ele>
        <time>2025-09-08T04:17:54.429Z</time>
      </trkpt>
      <trkpt lat="48.896162" lon="2.223308">
        <ele>53.689581</ele>
        <time>2025-09-08T04:18:03.821Z</time>
      </trkpt>
      <trkpt lat="48.896158" lon="2.223336">
        <ele>53.695229</ele>
        <time>2025-09-08T04:18:04.270Z</time>
      </trkpt>
      <trkpt lat="48.896161" lon="2.223354">
        <ele>53.698889</ele>
        <time>2025-09-08T04:18:04.576Z</time>
      </trkpt>
      <trkpt lat="48.896149" lon="2.223397">
        <ele>53.708098</ele>
        <time>2025-09-08T04:18:05.316Z</time>
      </trkpt>
      <trkpt lat="48.896145" lon="2.223410">
        <ele>53.710927</ele>
        <time>2025-09-08T04:18:05.552Z</time>
      </trkpt>
      <trkpt lat="48.896124" lon="2.223483">
        <ele>53.726635</ele>
        <time>2025-09-08T04:18:06.800Z</time>
      </trkpt>
      <trkpt lat="48.896101" lon="2.223557">
        <ele>53.742770</ele>
        <time>2025-09-08T04:18:08.082Z</time>
      </trkpt>
      <trkpt lat="48.896087" lon="2.223586">
        <ele>53.749862</ele>
        <time>2025-09-08T04:18:08.663Z</time>
      </trkpt>
      <trkpt lat="48.896078" lon="2.223604">
        <ele>53.754320</ele>
        <time>2025-09-08T04:18:09.043Z</time>
      </trkpt>
      <trkpt lat="48.896067" lon="2.223626">
        <ele>53.759769</ele>
        <time>2025-09-08T04:18:09.481Z</time>
      </trkpt>
      <trkpt lat="48.895991" lon="2.223861">
        <ele>53.811395</ele>
        <time>2025-09-08T04:18:13.599Z</time>
      </trkpt>
      <trkpt lat="48.895790" lon="2.224500">
        <ele>53.951034</ele>
        <time>2025-09-08T04:18:24.592Z</time>
      </trkpt>
      <trkpt lat="48.895665" lon="2.224886">
        <ele>54.011608</ele>
        <time>2025-09-08T04:18:31.414Z</time>
      </trkpt>
      <trkpt lat="48.895545" lon="2.225274">
        <ele>53.893252</ele>
        <time>2025-09-08T04:18:37.602Z</time>
      </trkpt>
      <trkpt lat="48.895473" lon="2.225492">
        <ele>53.825912</ele>
        <time>2025-09-08T04:18:40.819Z</time>
      </trkpt>
      <trkpt lat="48.895406" lon="2.225706">
        <ele>53.760487</ele>
        <time>2025-09-08T04:18:43.890Z</time>
      </trkpt>
      <trkpt lat="48.895244" lon="2.226224">
        <ele>53.602152</ele>
        <time>2025-09-08T04:18:51.307Z</time>
      </trkpt>
      <trkpt lat="48.895126" lon="2.226584">
        <ele>53.491117</ele>
        <time>2025-09-08T04:18:57.028Z</time>
      </trkpt>
      <trkpt lat="48.894993" lon="2.227007">
        <ele>53.361692</ele>
        <time>2025-09-08T04:19:04.349Z</time>
      </trkpt>
      <trkpt lat="48.894850" lon="2.227494">
        <ele>53.326402</ele>
        <time>2025-09-08T04:19:11.835Z</time>
      </trkpt>
      <trkpt lat="48.894848" lon="2.227547">
        <ele>53.340974</ele>
        <time>2025-09-08T04:19:12.527Z</time>
      </trkpt>
      <trkpt lat="48.894838" lon="2.227585">
        <ele>53.352210</ele>
        <time>2025-09-08T04:19:13.094Z</time>
      </trkpt>
      <trkpt lat="48.894818" lon="2.227652">
        <ele>53.372408</ele>
        <time>2025-09-08T04:19:14.085Z</time>
      </trkpt>
      <trkpt lat="48.894799" lon="2.227716">
        <ele>53.391684</ele>
        <time>2025-09-08T04:19:14.977Z</time>
      </trkpt>
      <trkpt lat="48.894786" lon="2.227761">
        <ele>53.405177</ele>
        <time>2025-09-08T04:19:15.587Z</time>
      </trkpt>
      <trkpt lat="48.894556" lon="2.227630">
        <ele>53.507719</ele>
        <time>2025-09-08T04:19:20.583Z</time>
      </trkpt>
      <trkpt lat="48.894526" lon="2.227707">
        <ele>53.532288</ele>
        <time>2025-09-08T04:19:21.727Z</time>
      </trkpt>
      <trkpt lat="48.894531" lon="2.227963">
        <ele>53.602591</ele>
        <time>2025-09-08T04:19:25.308Z</time>
      </trkpt>
      <trkpt lat="48.894686" lon="2.228702">
        <ele>53.815519</ele>
        <time>2025-09-08T04:19:38.522Z</time>
      </trkpt>
      <trkpt lat="48.894716" lon="2.228848">
        <ele>53.857508</ele>
        <time>2025-09-08T04:19:41.558Z</time>
      </trkpt>
      <trkpt lat="48.894687" lon="2.228964">
        <ele>53.891574</ele>
        <time>2025-09-08T04:19:44.232Z</time>
      </trkpt>
      <trkpt lat="48.894542" lon="2.229509">
        <ele>54.158983</ele>
        <time>2025-09-08T04:19:55.301Z</time>
      </trkpt>
      <trkpt lat="48.894438" lon="2.229727">
        <ele>54.482603</ele>
        <time>2025-09-08T04:20:00.472Z</time>
      </trkpt>
      <trkpt lat="48.894368" lon="2.229820">
        <ele>54.652459</ele>
        <time>2025-09-08T04:20:03.369Z</time>
      </trkpt>
      <trkpt lat="48.894314" lon="2.229902">
        <ele>54.791908</ele>
        <time>2025-09-08T04:20:06.338Z</time>
      </trkpt>
      <trkpt lat="48.894264" lon="2.229978">
        <ele>54.921089</ele>
        <time>2025-09-08T04:20:09.127Z</time>
      </trkpt>
      <trkpt lat="48.893937" lon="2.230977">
        <ele>56.261937</ele>
        <time>2025-09-08T04:20:39.298Z</time>
      </trkpt>
      <trkpt lat="48.893813" lon="2.231361">
        <ele>56.775967</ele>
        <time>2025-09-08T04:20:50.729Z</time>
      </trkpt>
      <trkpt lat="48.893464" lon="2.232272">
        <ele>57.904903</ele>
        <time>2025-09-08T04:21:14.321Z</time>
      </trkpt>
      <trkpt lat="48.893108" lon="2.233401">
        <ele>59.126763</ele>
        <time>2025-09-08T04:21:44.773Z</time>
      </trkpt>
      <trkpt lat="48.893023" lon="2.233583">
        <ele>59.344612</ele>
        <time>2025-09-08T04:21:51.375Z</time>
      </trkpt>
      <trkpt lat="48.892962" lon="2.233650">
        <ele>59.456288</ele>
        <time>2025-09-08T04:21:54.686Z</time>
      </trkpt>
      <trkpt lat="48.892908" lon="2.233688">
        <ele>59.544599</ele>
        <time>2025-09-08T04:21:57.108Z</time>
      </trkpt>
      <trkpt lat="48.892762" lon="2.233774">
        <ele>59.776979</ele>
        <time>2025-09-08T04:22:03.554Z</time>
      </trkpt>
      <trkpt lat="48.892665" lon="2.233817">
        <ele>59.926938</ele>
        <time>2025-09-08T04:22:07.640Z</time>
      </trkpt>
      <trkpt lat="48.892650" lon="2.233823">
        <ele>59.949959</ele>
        <time>2025-09-08T04:22:08.217Z</time>
      </trkpt>
      <trkpt lat="48.892542" lon="2.233871">
        <ele>59.646162</ele>
        <time>2025-09-08T04:22:12.603Z</time>
      </trkpt>
      <trkpt lat="48.892328" lon="2.234612">
        <ele>57.755852</ele>
        <time>2025-09-08T04:22:28.262Z</time>
      </trkpt>
      <trkpt lat="48.892005" lon="2.235740">
        <ele>54.882219</ele>
        <time>2025-09-08T04:22:45.548Z</time>
      </trkpt>
      <trkpt lat="48.891792" lon="2.236244">
        <ele>53.600574</ele>
        <time>2025-09-08T04:22:53.484Z</time>
      </trkpt>
      <trkpt lat="48.891702" lon="2.236344">
        <ele>53.645117</ele>
        <time>2025-09-08T04:22:55.175Z</time>
      </trkpt>
      <trkpt lat="48.891586" lon="2.236721">
        <ele>53.754487</ele>
        <time>2025-09-08T04:22:59.462Z</time>
      </trkpt>
      <trkpt lat="48.891804" lon="2.236897">
        <ele>53.853121</ele>
        <time>2025-09-08T04:23:03.607Z</time>
      </trkpt>
      <trkpt lat="48.891752" lon="2.237056">
        <ele>53.899782</ele>
        <time>2025-09-08T04:23:05.788Z</time>
      </trkpt>
      <trkpt lat="48.891367" lon="2.238252">
        <ele>54.249683</ele>
        <time>2025-09-08T04:23:46.619Z</time>
      </trkpt>
      <trkpt lat="48.891071" lon="2.239168">
        <ele>56.315501</ele>
        <time>2025-09-08T04:24:33.478Z</time>
      </trkpt>
      <trkpt lat="48.890985" lon="2.239444">
        <ele>57.081451</ele>
        <time>2025-09-08T04:24:45.346Z</time>
      </trkpt>
      <trkpt lat="48.890939" lon="2.239603">
        <ele>57.517088</ele>
        <time>2025-09-08T04:24:50.943Z</time>
      </trkpt>
      <trkpt lat="48.890713" lon="2.240347">
        <ele>59.572410</ele>
        <time>2025-09-08T04:25:12.177Z</time>
      </trkpt>
      <trkpt lat="48.890678" lon="2.240516">
        <ele>60.016761</ele>
        <time>2025-09-08T04:25:15.904Z</time>
      </trkpt>
      <trkpt lat="48.890633" lon="2.240668">
        <ele>60.434812</ele>
        <time>2025-09-08T04:25:19.237Z</time>
      </trkpt>
      <trkpt lat="48.890500" lon="2.241080">
        <ele>60.938004</ele>
        <time>2025-09-08T04:25:26.900Z</time>
      </trkpt>
      <trkpt lat="48.891120" lon="2.241559">
        <ele>59.479354</ele>
        <time>2025-09-08T04:25:43.889Z</time>
      </trkpt>
      <trkpt lat="48.891008" lon="2.241956">
        <ele>58.883568</ele>
        <time>2025-09-08T04:25:48.812Z</time>
      </trkpt>
      <trkpt lat="48.890787" lon="2.242734">
        <ele>57.714748</ele>
        <time>2025-09-08T04:25:58.794Z</time>
      </trkpt>
      <trkpt lat="48.890839" lon="2.242779">
        <ele>57.589255</ele>
        <time>2025-09-08T04:25:59.931Z</time>
      </trkpt>
      <trkpt lat="48.891422" lon="2.243214">
        <ele>55.691686</ele>
        <time>2025-09-08T04:26:10.841Z</time>
      </trkpt>
      <trkpt lat="48.891499" lon="2.243331">
        <ele>55.358716</ele>
        <time>2025-09-08T04:26:12.520Z</time>
      </trkpt>
      <trkpt lat="48.891520" lon="2.243363">
        <ele>55.267776</ele>
        <time>2025-09-08T04:26:13.009Z</time>
      </trkpt>
      <trkpt lat="48.891590" lon="2.243355">
        <ele>55.053029</ele>
        <time>2025-09-08T04:26:14.148Z</time>
      </trkpt>
      <trkpt lat="48.891682" lon="2.243591">
        <ele>54.501178</ele>
        <time>2025-09-08T04:26:17.267Z</time>
      </trkpt>
      <trkpt lat="48.891817" lon="2.243912">
        <ele>53.734740</ele>
        <time>2025-09-08T04:26:21.949Z</time>
      </trkpt>
      <trkpt lat="48.891903" lon="2.244119">
        <ele>53.242228</ele>
        <time>2025-09-08T04:26:24.942Z</time>
      </trkpt>
      <trkpt lat="48.891937" lon="2.244198">
        <ele>53.052314</ele>
        <time>2025-09-08T04:26:26.026Z</time>
      </trkpt>
      <trkpt lat="48.891962" lon="2.244260">
        <ele>52.906025</ele>
        <time>2025-09-08T04:26:26.979Z</time>
      </trkpt>
      <trkpt lat="48.892099" lon="2.244585">
        <ele>52.129515</ele>
        <time>2025-09-08T04:26:31.779Z</time>
      </trkpt>
      <trkpt lat="48.892137" lon="2.244674">
        <ele>51.916070</ele>
        <time>2025-09-08T04:26:33.230Z</time>
      </trkpt>
      <trkpt lat="48.892145" lon="2.244695">
        <ele>51.885333</ele>
        <time>2025-09-08T04:26:33.576Z</time>
      </trkpt>
      <trkpt lat="48.892163" lon="2.244737">
        <ele>51.856129</ele>
        <time>2025-09-08T04:26:34.157Z</time>
      </trkpt>
      <trkpt lat="48.892418" lon="2.245357">
        <ele>51.430131</ele>
        <time>2025-09-08T04:26:42.679Z</time>
      </trkpt>
      <trkpt lat="48.892490" lon="2.245531">
        <ele>51.310372</ele>
        <time>2025-09-08T04:26:45.088Z</time>
      </trkpt>
      <trkpt lat="48.892508" lon="2.245572">
        <ele>51.281654</ele>
        <time>2025-09-08T04:26:45.665Z</time>
      </trkpt>
      <trkpt lat="48.892575" lon="2.245746">
        <ele>51.164195</ele>
        <time>2025-09-08T04:26:48.494Z</time>
      </trkpt>
      <trkpt lat="48.892741" lon="2.246143">
        <ele>50.890135</ele>
        <time>2025-09-08T04:26:56.510Z</time>
      </trkpt>
      <trkpt lat="48.892776" lon="2.246227">
        <ele>50.832207</ele>
        <time>2025-09-08T04:26:58.263Z</time>
      </trkpt>
      <trkpt lat="48.893001" lon="2.246765">
        <ele>50.460792</ele>
        <time>2025-09-08T04:27:08.776Z</time>
      </trkpt>
      <trkpt lat="48.893037" lon="2.246853">
        <ele>50.400419</ele>
        <time>2025-09-08T04:27:10.356Z</time>
      </trkpt>
      <trkpt lat="48.893298" lon="2.247477">
        <ele>50.086772</ele>
        <time>2025-09-08T04:27:21.253Z</time>
      </trkpt>
      <trkpt lat="48.893704" lon="2.248449">
        <ele>49.654461</ele>
        <time>2025-09-08T04:27:36.786Z</time>
      </trkpt>
      <trkpt lat="48.893991" lon="2.249112">
        <ele>49.356461</ele>
        <time>2025-09-08T04:27:49.373Z</time>
      </trkpt>
      <trkpt lat="48.894168" lon="2.249322">
        <ele>49.214567</ele>
        <time>2025-09-08T04:27:54.112Z</time>
      </trkpt>
      <trkpt lat="48.894257" lon="2.249314">
        <ele>49.147732</ele>
        <time>2025-09-08T04:27:55.851Z</time>
      </trkpt>
      <trkpt lat="48.894343" lon="2.249267">
        <ele>49.079228</ele>
        <time>2025-09-08T04:27:57.638Z</time>
      </trkpt>
      <trkpt lat="48.894468" lon="2.249263">
        <ele>48.985502</ele>
        <time>2025-09-08T04:28:00.134Z</time>
      </trkpt>
      <trkpt lat="48.894664" lon="2.249382">
        <ele>48.827300</ele>
        <time>2025-09-08T04:28:04.256Z</time>
      </trkpt>
      <trkpt lat="48.894726" lon="2.249452">
        <ele>48.769417</ele>
        <time>2025-09-08T04:28:05.793Z</time>
      </trkpt>
      <trkpt lat="48.894996" lon="2.249946">
        <ele>48.452806</ele>
        <time>2025-09-08T04:28:14.531Z</time>
      </trkpt>
      <trkpt lat="48.895057" lon="2.250012">
        <ele>48.396690</ele>
        <time>2025-09-08T04:28:16.176Z</time>
      </trkpt>
      <trkpt lat="48.895106" lon="2.250092">
        <ele>48.342803</ele>
        <time>2025-09-08T04:28:17.764Z</time>
      </trkpt>
      <trkpt lat="48.895190" lon="2.250169">
        <ele>48.269282</ele>
        <time>2025-09-08T04:28:19.911Z</time>
      </trkpt>
      <trkpt lat="48.895428" lon="2.250406">
        <ele>48.056034</ele>
        <time>2025-09-08T04:28:25.726Z</time>
      </trkpt>
      <trkpt lat="48.895485" lon="2.250487">
        <ele>47.997558</ele>
        <time>2025-09-08T04:28:27.281Z</time>
      </trkpt>
      <trkpt lat="48.895876" lon="2.251088">
        <ele>48.022030</ele>
        <time>2025-09-08T04:28:39.199Z</time>
      </trkpt>
      <trkpt lat="48.896075" lon="2.251485">
        <ele>48.092508</ele>
        <time>2025-09-08T04:28:47.961Z</time>
      </trkpt>
      <trkpt lat="48.896266" lon="2.251891">
        <ele>48.162988</ele>
        <time>2025-09-08T04:28:56.733Z</time>
      </trkpt>
      <trkpt lat="48.896348" lon="2.252016">
        <ele>48.187917</ele>
        <time>2025-09-08T04:28:59.710Z</time>
      </trkpt>
      <trkpt lat="48.896337" lon="2.252226">
        <ele>48.217657</ele>
        <time>2025-09-08T04:29:03.240Z</time>
      </trkpt>
      <trkpt lat="48.896361" lon="2.252339">
        <ele>48.234422</ele>
        <time>2025-09-08T04:29:05.232Z</time>
      </trkpt>
      <trkpt lat="48.896417" lon="2.252511">
        <ele>48.261518</ele>
        <time>2025-09-08T04:29:08.434Z</time>
      </trkpt>
      <trkpt lat="48.896461" lon="2.252633">
        <ele>48.281163</ele>
        <time>2025-09-08T04:29:10.745Z</time>
      </trkpt>
      <trkpt lat="48.896508" lon="2.252940">
        <ele>48.264016</ele>
        <time>2025-09-08T04:29:15.767Z</time>
      </trkpt>
      <trkpt lat="48.896674" lon="2.254743">
        <ele>47.507614</ele>
        <time>2025-09-08T04:29:41.002Z</time>
      </trkpt>
      <trkpt lat="48.896678" lon="2.254815">
        <ele>47.477594</ele>
        <time>2025-09-08T04:29:41.924Z</time>
      </trkpt>
      <trkpt lat="48.896755" lon="2.254882">
        <ele>47.421533</ele>
        <time>2025-09-08T04:29:43.560Z</time>
      </trkpt>
      <trkpt lat="48.896808" lon="2.255221">
        <ele>47.276761</ele>
        <time>2025-09-08T04:29:47.989Z</time>
      </trkpt>
      <trkpt lat="48.896825" lon="2.255399">
        <ele>47.202031</ele>
        <time>2025-09-08T04:29:50.338Z</time>
      </trkpt>
      <trkpt lat="48.896807" lon="2.255581">
        <ele>47.222479</ele>
        <time>2025-09-08T04:29:52.814Z</time>
      </trkpt>
      <trkpt lat="48.896827" lon="2.255836">
        <ele>47.332224</ele>
        <time>2025-09-08T04:29:56.483Z</time>
      </trkpt>
      <trkpt lat="48.896847" lon="2.256236">
        <ele>47.503656</ele>
        <time>2025-09-08T04:30:02.806Z</time>
      </trkpt>
      <trkpt lat="48.896854" lon="2.256372">
        <ele>47.561952</ele>
        <time>2025-09-08T04:30:05.282Z</time>
      </trkpt>
      <trkpt lat="48.896853" lon="2.256495">
        <ele>47.614520</ele>
        <time>2025-09-08T04:30:07.423Z</time>
      </trkpt>
      <trkpt lat="48.896853" lon="2.256556">
        <ele>47.640588</ele>
        <time>2025-09-08T04:30:08.604Z</time>
      </trkpt>
      <trkpt lat="48.897033" lon="2.256543">
        <ele>47.757726</ele>
        <time>2025-09-08T04:30:13.925Z</time>
      </trkpt>
      <trkpt lat="48.897035" lon="2.256490">
        <ele>47.780412</ele>
        <time>2025-09-08T04:30:14.916Z</time>
      </trkpt>
      <trkpt lat="48.897189" lon="2.256469">
        <ele>47.880919</ele>
        <time>2025-09-08T04:30:19.629Z</time>
      </trkpt>
      <trkpt lat="48.897573" lon="2.256523">
        <ele>48.131597</ele>
        <time>2025-09-08T04:30:30.540Z</time>
      </trkpt>
      <trkpt lat="48.897722" lon="2.256544">
        <ele>48.228867</ele>
        <time>2025-09-08T04:30:34.936Z</time>
      </trkpt>
      <trkpt lat="48.897721" lon="2.256670">
        <ele>48.282715</ele>
        <time>2025-09-08T04:30:37.530Z</time>
      </trkpt>
      <trkpt lat="48.897966" lon="2.257436">
        <ele>48.118604</ele>
        <time>2025-09-08T04:30:52.424Z</time>
      </trkpt>
      <trkpt lat="48.897975" lon="2.257467">
        <ele>48.107945</ele>
        <time>2025-09-08T04:30:52.934Z</time>
      </trkpt>
      <trkpt lat="48.898084" lon="2.257799">
        <ele>47.991222</ele>
        <time>2025-09-08T04:30:58.103Z</time>
      </trkpt>
      <trkpt lat="48.898093" lon="2.257826">
        <ele>47.981700</ele>
        <time>2025-09-08T04:30:58.522Z</time>
      </trkpt>
      <trkpt lat="48.898200" lon="2.258156">
        <ele>47.865966</ele>
        <time>2025-09-08T04:31:03.386Z</time>
      </trkpt>
      <trkpt lat="48.898208" lon="2.258181">
        <ele>47.857221</ele>
        <time>2025-09-08T04:31:03.751Z</time>
      </trkpt>
      <trkpt lat="48.898572" lon="2.259264">
        <ele>47.467210</ele>
        <time>2025-09-08T04:31:19.009Z</time>
      </trkpt>
      <trkpt lat="48.898598" lon="2.259338">
        <ele>47.413990</ele>
        <time>2025-09-08T04:31:20.093Z</time>
      </trkpt>
      <trkpt lat="48.898750" lon="2.259780">
        <ele>47.097598</ele>
        <time>2025-09-08T04:31:26.363Z</time>
      </trkpt>
      <trkpt lat="48.898957" lon="2.260373">
        <ele>46.671737</ele>
        <time>2025-09-08T04:31:34.988Z</time>
      </trkpt>
      <trkpt lat="48.899071" lon="2.260656">
        <ele>46.461219</ele>
        <time>2025-09-08T04:31:39.398Z</time>
      </trkpt>
      <trkpt lat="48.899140" lon="2.260833">
        <ele>46.330698</ele>
        <time>2025-09-08T04:31:42.242Z</time>
      </trkpt>
      <trkpt lat="48.899496" lon="2.261689">
        <ele>45.622028</ele>
        <time>2025-09-08T04:31:56.090Z</time>
      </trkpt>
      <trkpt lat="48.898752" lon="2.262416">
        <ele>43.800413</ele>
        <time>2025-09-08T04:32:13.830Z</time>
      </trkpt>
      <trkpt lat="48.898295" lon="2.262889">
        <ele>42.661735</ele>
        <time>2025-09-08T04:32:23.968Z</time>
      </trkpt>
      <trkpt lat="48.898200" lon="2.262985">
        <ele>42.426787</ele>
        <time>2025-09-08T04:32:25.955Z</time>
      </trkpt>
      <trkpt lat="48.897993" lon="2.263189">
        <ele>41.719826</ele>
        <time>2025-09-08T04:32:30.019Z</time>
      </trkpt>
      <trkpt lat="48.897937" lon="2.263244">
        <ele>41.359871</ele>
        <time>2025-09-08T04:32:31.085Z</time>
      </trkpt>
      <trkpt lat="48.897830" lon="2.263351">
        <ele>40.668397</ele>
        <time>2025-09-08T04:32:33.084Z</time>
      </trkpt>
      <trkpt lat="48.897742" lon="2.263434">
        <ele>40.109261</ele>
        <time>2025-09-08T04:32:34.634Z</time>
      </trkpt>
      <trkpt lat="48.897545" lon="2.263637">
        <ele>38.824348</ele>
        <time>2025-09-08T04:32:38.159Z</time>
      </trkpt>
      <trkpt lat="48.897458" lon="2.263666">
        <ele>38.343400</ele>
        <time>2025-09-08T04:32:39.455Z</time>
      </trkpt>
      <trkpt lat="48.897215" lon="2.263920">
        <ele>36.751252</ele>
        <time>2025-09-08T04:32:43.812Z</time>
      </trkpt>
      <trkpt lat="48.897096" lon="2.264073">
        <ele>35.909854</ele>
        <time>2025-09-08T04:32:46.140Z</time>
      </trkpt>
      <trkpt lat="48.896933" lon="2.264188">
        <ele>34.939585</ele>
        <time>2025-09-08T04:32:48.860Z</time>
      </trkpt>
      <trkpt lat="48.896764" lon="2.264319">
        <ele>33.915322</ele>
        <time>2025-09-08T04:32:51.813Z</time>
      </trkpt>
      <trkpt lat="48.896693" lon="2.264370">
        <ele>33.491322</ele>
        <time>2025-09-08T04:32:53.080Z</time>
      </trkpt>
      <trkpt lat="48.896650" lon="2.264407">
        <ele>33.224545</ele>
        <time>2025-09-08T04:32:53.870Z</time>
      </trkpt>
      <trkpt lat="48.896519" lon="2.264550">
        <ele>32.353837</ele>
        <time>2025-09-08T04:32:56.536Z</time>
      </trkpt>
      <trkpt lat="48.895746" lon="2.265333">
        <ele>32.033255</ele>
        <time>2025-09-08T04:33:15.217Z</time>
      </trkpt>
      <trkpt lat="48.895511" lon="2.265597">
        <ele>31.939855</ele>
        <time>2025-09-08T04:33:25.935Z</time>
      </trkpt>
      <trkpt lat="48.895366" lon="2.265707">
        <ele>31.888052</ele>
        <time>2025-09-08T04:33:31.711Z</time>
      </trkpt>
      <trkpt lat="48.895319" lon="2.265751">
        <ele>31.870407</ele>
        <time>2025-09-08T04:33:33.561Z</time>
      </trkpt>
      <trkpt lat="48.895227" lon="2.265668">
        <ele>31.836210</ele>
        <time>2025-09-08T04:33:36.842Z</time>
      </trkpt>
      <trkpt lat="48.895141" lon="2.265568">
        <ele>31.801601</ele>
        <time>2025-09-08T04:33:39.859Z</time>
      </trkpt>
      <trkpt lat="48.895049" lon="2.265375">
        <ele>31.743846</ele>
        <time>2025-09-08T04:33:43.950Z</time>
      </trkpt>
      <trkpt lat="48.894756" lon="2.264762">
        <ele>31.017981</ele>
        <time>2025-09-08T04:33:54.445Z</time>
      </trkpt>
      <trkpt lat="48.894368" lon="2.264125">
        <ele>30.186296</ele>
        <time>2025-09-08T04:34:05.278Z</time>
      </trkpt>
      <trkpt lat="48.893960" lon="2.263455">
        <ele>29.311622</ele>
        <time>2025-09-08T04:34:16.644Z</time>
      </trkpt>
      <trkpt lat="48.893750" lon="2.263171">
        <ele>28.955524</ele>
        <time>2025-09-08T04:34:21.943Z</time>
      </trkpt>
      <trkpt lat="48.893279" lon="2.262539">
        <ele>28.251380</ele>
        <time>2025-09-08T04:34:33.572Z</time>
      </trkpt>
      <trkpt lat="48.892778" lon="2.262134">
        <ele>27.615312</ele>
        <time>2025-09-08T04:34:45.397Z</time>
      </trkpt>
      <trkpt lat="48.892601" lon="2.262034">
        <ele>27.403632</ele>
        <time>2025-09-08T04:34:49.466Z</time>
      </trkpt>
      <trkpt lat="48.892357" lon="2.262301">
        <ele>27.116966</ele>
        <time>2025-09-08T04:34:56.103Z</time>
      </trkpt>
      <trkpt lat="48.892290" lon="2.262410">
        <ele>27.116966</ele>
        <time>2025-09-08T04:34:58.332Z</time>
      </trkpt>
      <trkpt lat="48.892245" lon="2.262505">
        <ele>27.116966</ele>
        <time>2025-09-08T04:35:00.060Z</time>
      </trkpt>
      <trkpt lat="48.892131" lon="2.262743">
        <ele>27.116966</ele>
        <time>2025-09-08T04:35:04.590Z</time>
      </trkpt>
      <trkpt lat="48.892130" lon="2.262890">
        <ele>27.116966</ele>
        <time>2025-09-08T04:35:06.889Z</time>
      </trkpt>
      <trkpt lat="48.892080" lon="2.262824">
        <ele>27.116966</ele>
        <time>2025-09-08T04:35:08.990Z</time>
      </trkpt>
      <trkpt lat="48.892027" lon="2.262843">
        <ele>27.116966</ele>
        <time>2025-09-08T04:35:12.826Z</time>
      </trkpt>
      <trkpt lat="48.891621" lon="2.262385">
        <ele>27.116966</ele>
        <time>2025-09-08T04:35:47.959Z</time>
      </trkpt>
      <trkpt lat="48.891465" lon="2.261990">
        <ele>27.116966</ele>
        <time>2025-09-08T04:36:09.011Z</time>
      </trkpt>
    </trkseg>
  </trk>
</gpx>